GFSSGP_sfc_wetblb_000.txt.gz
Wetbulb
59.65 56.88 59.37 54.50 48.35 48.88 45.90 45.83 49.29 47.88 48.93 55.67 59.76 59.09 58.84 60.45 57.46 54.73 69.45 70.53 69.51 69.89 70.03 70.16 69.87 69.85 70.25 70.88 71.43 72.17 72.13 72.62 72.54 72.37 72.11 72.15 72.28 71.39 70.48 71.22 71.64 72.16 71.57 71.58 71.96 72.05 72.10 71.74 72.01
57.29 54.06 54.35 53.38 46.71 43.82 45.00 48.02 47.14 48.82 49.24 51.13 56.75 60.02 58.55 57.59 63.98 65.32 67.24 70.18 68.79 69.69 70.49 70.21 69.57 69.92 69.99 70.71 70.83 71.22 71.41 71.28 71.52 71.51 71.86 70.76 70.41 67.19 63.96 70.09 70.35 71.12 71.65 71.75 71.55 71.58 71.20 70.73 71.31
55.87 50.68 50.92 50.32 48.24 44.42 46.72 47.42 47.01 47.83 49.21 51.18 56.91 61.20 60.23 59.71 65.26 66.42 69.49 70.19 70.73 70.25 70.32 70.04 69.52 69.79 70.35 70.40 70.74 70.88 71.15 70.87 70.84 70.21 70.80 70.60 71.81 69.47 67.55 70.17 71.01 71.54 71.81 71.26 71.07 70.84 71.02 70.55 69.75
54.04 51.95 50.55 46.40 43.13 44.30 44.88 46.71 47.05 47.06 51.63 55.91 58.76 57.86 62.39 61.95 64.48 68.63 69.74 70.16 69.78 70.06 70.25 69.28 68.86 69.49 70.05 69.91 69.92 70.71 70.56 70.24 70.47 70.61 69.99 70.36 70.11 70.12 70.84 70.15 70.52 70.16 70.30 70.14 69.68 69.40 69.44 68.93 68.67
54.15 51.40 46.15 44.02 43.20 44.95 46.72 47.76 48.35 49.70 53.94 55.96 57.79 57.29 59.62 60.93 66.67 69.56 69.68 69.23 68.75 69.22 69.88 70.86 68.72 69.45 69.06 68.55 68.14 69.43 70.00 69.64 69.55 69.42 69.75 69.96 70.26 69.98 70.22 69.94 69.38 70.39 69.89 69.48 69.48 69.91 68.57 67.97 68.32
49.91 50.63 44.16 41.76 43.07 45.14 47.37 48.76 50.67 52.79 54.10 55.22 58.27 58.49 59.15 65.06 65.20 68.03 69.98 69.32 69.65 69.44 69.98 70.56 68.93 68.51 68.72 68.39 68.24 68.31 68.79 68.86 68.76 68.96 69.14 69.46 69.60 69.27 68.58 69.45 69.59 69.83 70.38 69.79 69.24 68.77 68.02 67.16 67.54
48.66 47.64 43.60 43.56 43.45 44.43 46.00 49.27 49.62 50.20 52.68 52.97 55.83 55.36 60.69 61.09 59.97 61.93 68.12 68.50 68.16 67.65 68.08 69.58 70.10 68.94 67.62 66.84 66.57 66.86 67.40 67.76 68.34 68.32 68.57 68.82 68.92 68.87 68.93 68.70 68.83 69.42 69.39 68.89 68.53 67.74 67.25 66.34 65.98
51.25 48.64 43.68 43.59 42.72 42.74 47.16 49.35 50.98 51.13 50.17 53.50 54.67 54.90 56.94 58.93 58.82 62.59 62.42 64.99 66.28 66.32 66.87 68.26 69.68 69.43 69.52 69.25 64.18 64.42 65.17 66.04 66.72 67.86 67.09 66.24 66.75 67.57 67.49 66.71 67.23 68.01 68.32 68.10 67.87 66.94 66.41 65.76 65.48
49.38 45.85 42.72 42.83 43.08 44.19 48.18 47.05 52.02 53.64 52.41 52.88 53.82 55.80 58.27 60.12 60.31 63.13 62.95 62.77 64.89 63.24 63.73 66.59 68.20 68.60 68.19 67.23 65.21 66.56 66.06 65.59 65.41 66.27 65.24 66.11 68.13 66.72 66.39 62.33 62.52 64.97 66.07 66.36 66.84 66.34 65.59 64.93 64.29
49.98 45.25 43.94 47.27 47.49 46.30 47.35 48.10 49.17 50.23 51.24 52.47 54.30 55.56 57.89 60.08 61.29 60.64 59.67 59.22 58.01 58.39 59.38 62.09 64.95 66.03 66.94 65.48 66.22 69.11 68.70 68.51 67.98 67.93 67.38 67.88 66.43 65.24 63.14 61.14 61.24 60.32 60.50 59.65 64.93 64.80 64.31 63.56 65.68
49.60 45.66 46.85 48.76 49.85 50.29 47.73 47.86 50.29 49.04 48.02 51.75 53.18 54.88 56.04 57.17 57.28 56.78 55.53 55.64 56.34 56.97 58.32 58.71 60.80 62.89 65.45 66.35 68.32 68.02 65.55 66.31 66.19 65.96 66.02 65.76 62.79 61.42 64.31 60.91 60.27 59.55 59.06 60.20 58.74 64.20 64.46 64.69 65.14
47.24 49.56 49.76 50.27 49.48 48.66 47.75 49.60 48.27 49.18 50.12 53.16 55.78 56.11 55.31 54.88 54.38 53.77 53.47 53.83 55.05 56.39 56.04 55.67 59.03 61.70 62.95 64.33 64.42 64.20 63.49 62.81 62.94 64.12 65.41 65.48 64.28 64.55 61.86 61.31 60.33 58.54 59.47 59.08 59.57 60.94 61.27 63.10 64.95
48.55 49.29 50.97 50.77 49.68 49.73 49.16 48.35 48.13 49.06 51.10 52.22 52.77 52.26 52.59 52.67 52.67 52.60 53.10 53.32 53.66 54.23 55.02 53.90 56.40 58.62 60.04 61.41 60.87 60.68 60.23 59.53 59.87 60.27 62.29 63.39 63.49 63.12 63.28 60.00 60.16 59.15 60.33 60.19 59.40 60.66 61.57 61.44 62.01
51.02 50.91 50.93 51.55 50.66 50.38 49.24 49.56 49.22 50.20 51.69 51.00 50.71 51.49 52.32 51.69 51.79 51.89 51.72 52.27 52.31 52.84 53.08 52.43 53.89 56.75 57.61 58.96 58.70 57.70 57.31 56.77 56.74 57.65 59.46 61.22 61.79 62.72 63.13 60.06 59.15 60.78 61.49 61.80 60.78 60.77 60.90 61.40 61.77
50.55 47.66 49.68 49.55 50.10 49.51 50.31 47.93 47.59 50.65 51.42 50.61 50.47 51.20 51.51 51.51 51.62 51.36 52.34 52.43 52.20 51.53 51.96 52.10 52.75 54.81 55.51 56.26 55.83 55.10 54.33 54.37 54.89 56.39 58.97 59.22 59.82 60.44 60.10 59.21 57.65 57.86 59.75 60.52 61.28 61.09 61.73 62.36 62.18
47.56 47.73 43.89 47.65 48.56 49.08 48.40 42.83 48.40 51.46 50.60 50.20 51.31 51.58 51.00 51.26 51.47 52.22 51.85 52.17 52.06 51.03 50.98 51.30 50.21 52.98 53.73 54.24 54.18 53.64 53.72 53.87 54.59 56.32 56.67 56.78 56.74 57.02 56.99 57.03 56.57 57.14 57.49 56.67 55.53 54.48 55.68 58.28 59.11
45.68 41.53 41.79 43.51 47.88 46.87 45.95 43.95 47.57 50.95 49.84 49.02 50.36 51.81 51.59 51.43 51.63 52.31 51.86 52.01 51.61 50.79 50.27 50.84 51.57 51.53 51.90 52.49 53.10 53.77 53.90 53.45 53.77 54.82 54.47 54.41 54.02 54.07 53.81 54.18 54.65 54.40 53.61 54.06 53.37 52.87 55.17 54.75 54.79
40.50 40.92 42.25 42.11 45.30 45.73 44.84 44.96 47.94 49.32 49.02 49.18 50.02 50.89 51.79 51.59 51.59 51.95 51.68 51.43 51.45 51.19 50.34 50.93 51.09 51.02 51.25 51.63 51.86 52.36 52.75 53.28 53.62 53.13 52.95 52.96 53.26 52.90 52.98 52.88 53.16 52.41 51.04 49.93 50.13 50.13 51.18 52.38 53.86
43.59 42.45 42.28 44.17 45.29 43.82 44.61 45.16 47.27 49.34 48.84 48.95 49.37 50.11 50.82 51.75 53.06 52.32 51.63 51.63 50.88 50.97 50.09 50.27 50.28 50.82 50.63 50.28 50.19 50.47 50.48 51.52 52.65 52.78 51.96 52.07 52.62 51.99 52.67 51.87 51.02 51.56 50.65 50.18 49.85 49.05 48.54 48.61 50.96
43.92 42.91 42.97 44.09 45.35 44.07 44.36 44.04 47.55 47.23 47.04 47.85 48.46 49.25 49.76 50.71 51.04 50.61 51.08 51.31 50.86 50.74 50.51 50.08 50.01 50.54 50.57 50.54 51.07 51.57 51.04 51.11 52.23 52.31 51.91 51.91 51.73 51.71 51.23 50.43 50.22 50.60 49.46 49.80 49.80 49.16 47.34 47.15 48.91
44.38 42.34 42.05 41.33 44.38 46.19 43.44 44.76 45.36 46.77 47.70 47.63 48.70 49.36 49.38 48.88 49.62 49.95 49.71 50.56 51.15 50.72 51.06 50.41 50.29 50.08 50.49 50.47 50.15 50.08 49.97 49.85 49.40 49.94 50.57 51.64 51.99 52.10 51.99 51.40 50.78 50.53 50.25 48.90 49.18 49.15 47.93 45.59 47.08
41.11 43.49 42.75 42.14 40.93 39.08 42.98 38.25 44.11 45.22 46.36 47.38 48.37 49.19 49.68 49.58 49.24 48.82 49.77 50.18 50.78 51.45 52.02 51.02 50.41 49.85 49.82 50.73 49.39 49.10 48.06 47.21 48.64 49.26 49.94 50.37 51.09 51.48 51.66 51.56 51.58 51.44 50.76 49.43 48.92 48.43 48.41 47.59 45.52
41.68 44.61 43.13 41.60 39.96 39.78 39.93 38.23 43.67 45.44 44.13 45.71 47.81 48.32 49.42 49.69 49.13 49.11 49.51 49.93 50.93 51.50 51.65 51.37 50.29 49.62 49.58 49.61 49.92 48.94 48.37 48.51 49.15 49.04 49.00 49.56 50.12 50.26 50.36 50.59 51.09 51.02 50.73 50.09 49.68 49.31 48.28 47.73 46.46
44.62 44.08 44.30 41.23 40.41 35.15 38.84 38.75 42.26 44.62 43.86 45.92 47.54 48.83 49.27 49.78 49.84 49.74 49.17 49.27 49.87 51.56 50.83 50.71 49.61 48.98 49.36 49.35 49.19 48.56 47.92 48.01 46.97 47.36 46.76 47.04 47.52 47.92 48.22 48.35 48.45 48.60 48.60 48.43 48.56 48.92 48.73 48.16 47.46
45.33 42.95 38.25 36.28 36.63 35.61 39.53 37.67 42.32 45.95 46.29 46.53 46.88 47.85 49.13 50.01 50.35 50.48 49.73 48.54 49.00 49.54 49.58 49.15 48.59 47.84 48.56 48.07 48.02 47.98 47.72 47.35 45.82 44.97 45.42 44.47 43.97 44.60 45.30 45.53 45.30 45.18 45.42 45.57 45.80 45.96 46.17 46.69 46.02
40.58 40.74 36.37 29.25 31.94 35.44 41.18 35.50 42.87 46.68 47.50 48.24 47.47 48.10 48.92 49.84 51.08 50.51 49.68 49.42 49.23 49.01 49.26 49.02 47.60 47.10 47.86 46.92 46.72 46.83 45.91 44.94 44.98 42.88 43.99 43.12 42.31 41.77 43.11 42.76 43.10 43.59 43.65 43.80 43.88 43.67 44.30 44.93 46.37
40.88 40.64 41.35 35.32 31.43 30.90 38.09 41.49 45.27 47.64 46.66 46.81 48.02 48.79 49.30 49.99 50.34 50.26 50.06 48.94 49.06 49.33 49.38 48.86 47.51 46.62 46.13 45.51 44.89 43.91 43.96 42.40 41.58 42.27 42.87 42.72 42.54 41.82 41.89 42.03 41.83 42.10 42.28 42.48 42.75 42.30 43.00 44.06 45.55
42.40 43.37 37.28 38.32 30.70 28.48 36.59 38.36 40.14 44.15 45.47 47.00 47.64 48.48 48.77 49.97 50.37 50.71 50.86 50.48 50.02 50.11 49.35 48.59 47.08 45.46 44.66 43.91 42.94 42.54 42.00 41.57 41.78 41.72 41.16 41.58 41.68 41.41 41.06 40.74 40.90 40.84 40.90 41.24 41.28 41.08 42.22 41.76 43.77
42.30 40.86 39.11 38.84 37.02 31.86 30.70 36.17 46.23 45.15 46.85 46.83 47.65 48.04 49.00 50.26 50.43 50.44 50.52 51.24 51.02 49.02 46.50 44.75 44.38 44.35 42.73 42.23 41.74 41.31 41.26 40.77 41.05 40.78 40.89 40.70 40.68 40.32 39.68 39.55 39.38 39.09 39.11 39.70 39.56 39.75 40.12 39.82 40.61
43.61 41.25 40.21 35.61 34.33 36.64 32.74 33.81 47.31 48.25 48.11 46.80 47.47 49.02 50.11 50.56 50.59 50.46 50.73 50.22 48.54 45.33 44.33 43.28 43.64 42.84 42.31 41.93 40.82 40.65 40.72 40.24 39.96 40.04 40.07 40.42 39.28 39.57 39.11 38.60 37.99 37.73 37.74 38.03 37.69 37.46 38.20 38.06 38.34

GFSSGP_sfc_wetblb_003.txt.gz
Wetbulb
60.84 59.23 57.79 55.79 48.55 48.47 46.73 47.14 50.64 48.87 51.20 58.70 59.26 58.59 59.10 60.32 58.44 54.44 67.49 69.99 69.86 70.26 70.87 70.16 69.33 68.66 70.08 71.09 71.76 72.04 72.29 72.70 72.46 72.29 73.06 72.19 71.01 68.01 69.55 69.22 68.83 69.03 70.21 70.45 71.75 71.67 71.44 71.11 71.13
57.82 54.57 55.19 53.01 46.85 44.70 45.83 49.48 47.87 49.76 50.98 55.11 59.21 58.42 58.91 58.88 63.85 65.35 67.17 70.42 70.51 69.53 70.16 70.39 68.75 69.17 68.85 69.99 70.46 71.25 71.53 71.57 72.09 72.13 71.85 71.97 69.64 67.63 66.20 66.14 65.60 68.83 69.65 69.89 70.34 70.72 70.91 71.23 70.83
57.65 54.55 50.77 49.35 46.97 45.17 45.29 48.97 49.54 49.68 51.94 53.90 56.62 61.77 61.36 60.66 65.04 65.82 69.35 70.42 70.45 69.80 69.86 69.51 69.75 69.67 69.25 69.36 69.81 70.35 70.72 70.81 71.06 71.51 71.87 71.08 70.48 66.75 65.80 65.66 67.03 68.43 70.17 70.84 70.78 70.43 71.03 70.32 69.72
54.37 52.77 52.20 46.95 45.03 47.36 48.18 49.16 49.60 49.92 53.57 55.12 57.59 58.12 62.37 65.56 65.54 67.93 70.18 70.36 69.64 69.67 70.04 68.95 69.34 69.28 68.58 67.46 68.24 69.64 69.66 69.51 70.25 70.72 71.07 70.91 70.50 67.34 65.98 65.73 68.30 69.44 70.03 69.97 70.36 70.20 69.78 68.56 68.48
54.32 52.31 47.74 46.11 44.74 46.52 48.99 50.01 51.38 50.59 54.71 55.76 57.44 57.42 59.56 65.32 68.36 68.79 68.88 69.49 69.23 69.83 70.04 69.86 69.04 69.28 68.64 68.13 67.50 68.37 69.42 69.05 69.17 69.68 70.13 70.09 69.61 69.58 69.51 68.90 68.94 69.42 67.80 67.62 68.44 68.72 67.87 67.20 68.11
50.49 51.50 45.68 43.46 44.19 47.11 49.18 51.46 52.92 53.14 54.78 56.63 57.84 58.89 60.33 66.44 67.37 68.51 68.92 68.70 69.35 69.66 70.02 70.32 68.43 68.42 68.00 67.66 67.84 67.67 67.98 68.51 68.77 68.71 68.92 69.17 69.15 68.73 68.31 68.77 69.14 68.95 68.05 68.57 69.20 68.36 67.38 66.92 66.67
49.74 48.93 45.39 44.73 44.68 45.33 47.22 50.74 49.72 50.52 53.02 53.94 58.08 55.27 62.00 63.68 66.76 68.07 68.93 69.13 68.37 68.37 69.11 70.39 70.78 69.11 67.19 66.27 65.51 65.57 66.52 66.70 67.49 68.02 68.08 68.30 68.42 68.21 67.56 65.34 65.58 66.03 66.90 66.57 67.06 67.24 66.69 65.64 65.96
51.53 51.51 44.85 45.37 44.20 43.94 47.69 50.05 51.36 50.20 48.96 55.63 56.05 54.76 57.53 63.57 66.98 67.71 68.02 68.65 69.19 68.94 68.68 69.31 70.00 69.70 69.91 69.47 64.41 65.06 65.48 65.68 66.30 66.89 66.21 66.20 67.26 66.87 63.65 63.70 62.85 62.70 62.79 62.21 64.00 65.54 65.52 65.25 65.26
52.89 47.04 43.95 44.00 44.58 45.39 48.89 48.05 51.64 53.05 51.30 52.07 54.19 55.67 61.58 65.33 66.58 66.17 66.27 66.50 66.66 66.11 66.86 68.91 69.35 69.37 68.36 67.22 65.80 66.00 66.53 65.58 65.87 65.81 64.62 64.80 68.20 66.78 66.23 62.46 62.27 62.22 61.79 61.20 61.00 58.88 63.14 64.39 64.44
50.07 47.29 45.18 47.91 47.67 47.39 48.09 48.40 49.28 50.03 50.76 51.96 53.82 58.45 62.24 63.80 63.63 63.12 63.10 62.59 61.60 61.62 61.98 64.30 66.83 68.10 68.04 66.69 66.19 68.67 68.19 67.65 67.71 67.79 67.53 67.74 67.27 66.90 65.89 63.94 62.32 61.89 61.32 60.06 59.23 58.03 58.28 62.78 65.17
50.76 46.49 47.42 48.43 50.07 50.15 49.11 48.45 50.45 49.44 48.44 50.66 52.10 55.70 59.88 61.48 61.77 61.44 60.62 60.08 59.02 60.52 61.42 61.94 64.39 66.37 67.73 67.26 67.43 66.81 67.18 67.20 66.82 67.04 66.75 66.01 65.28 65.27 65.15 65.28 65.18 64.26 60.55 62.05 58.60 57.80 57.51 57.39 58.43
48.07 49.54 50.01 50.82 50.98 50.10 49.38 51.47 49.86 50.36 50.98 53.68 54.74 56.65 58.55 58.71 58.75 58.58 57.38 56.54 57.62 59.34 59.61 59.76 62.70 65.26 65.49 66.57 66.65 66.25 65.23 64.95 64.68 65.42 65.45 65.04 64.07 64.09 64.70 63.35 63.49 63.39 62.81 61.09 59.34 58.17 58.10 57.78 58.39
49.71 49.98 51.40 51.59 51.46 51.57 51.88 50.66 50.39 50.92 52.69 54.02 55.53 56.27 56.62 57.04 56.91 56.17 55.97 56.66 57.10 57.27 58.96 58.21 60.35 62.73 64.64 63.96 63.03 62.47 61.61 60.90 61.19 61.80 62.34 62.97 62.47 62.66 63.57 62.09 61.67 61.04 61.72 60.96 60.80 59.14 58.05 59.85 60.30
51.28 51.41 51.82 52.38 51.91 51.68 50.20 50.02 50.76 51.92 53.80 53.52 53.83 54.21 55.21 54.83 54.77 55.21 55.09 55.63 55.87 56.21 57.21 57.51 59.31 60.48 61.59 61.74 60.89 59.67 59.39 58.32 58.54 59.36 60.32 61.64 61.76 62.23 61.92 61.83 60.90 59.93 61.14 61.93 62.08 61.38 61.03 60.90 60.75
52.00 50.00 50.81 51.11 50.69 50.31 51.38 47.97 48.88 51.79 53.09 51.92 52.91 53.67 54.40 54.61 54.99 54.45 55.47 55.57 56.18 56.05 56.67 56.71 57.50 59.14 59.26 58.94 58.01 56.92 55.95 56.65 57.27 58.30 59.38 59.18 59.18 58.99 58.21 57.92 57.67 57.93 58.97 59.13 58.21 56.59 59.38 61.15 61.45
49.13 49.72 44.86 48.70 49.24 49.99 49.01 43.94 49.28 52.08 51.72 51.11 52.00 52.85 53.24 54.34 54.54 55.29 55.66 55.76 56.28 55.80 55.22 55.83 52.81 55.95 56.54 56.76 56.30 55.63 55.48 56.10 56.88 57.53 57.43 57.17 56.70 56.85 57.12 56.67 56.00 55.84 56.36 56.15 55.29 55.43 55.58 57.03 58.51
47.66 43.37 44.01 45.64 49.08 48.27 47.30 45.34 49.31 51.42 51.24 50.77 51.44 51.73 53.07 53.89 54.40 55.11 55.73 55.48 55.77 55.59 54.70 54.35 54.35 54.46 54.92 55.17 55.05 55.99 55.75 55.15 55.73 56.24 55.53 55.54 54.74 54.41 54.66 54.40 54.35 53.94 52.83 52.21 51.09 50.84 52.40 51.68 54.12
42.72 43.77 45.37 45.23 47.72 47.92 46.84 47.09 49.93 51.68 51.19 50.65 51.24 51.94 52.05 52.70 53.86 55.13 55.49 55.39 55.32 55.51 54.52 54.19 53.86 53.87 54.04 53.71 54.32 54.37 54.48 54.57 54.79 54.58 54.27 54.41 53.60 53.22 53.40 53.70 53.73 52.89 51.85 51.13 50.92 50.25 50.21 49.63 50.31
46.16 45.67 45.40 47.50 48.08 46.65 47.08 47.46 49.23 50.88 50.28 49.77 50.53 51.14 51.84 52.43 54.70 55.63 55.69 55.38 54.68 55.18 53.67 53.15 53.05 53.26 52.83 52.20 51.60 51.88 52.01 52.80 53.40 53.51 53.29 53.17 53.10 52.65 53.10 52.21 52.04 52.36 51.03 51.09 51.39 50.50 49.82 48.82 49.89
47.28 45.98 45.72 47.57 49.08 48.00 47.47 47.17 49.64 49.17 49.16 49.38 49.88 50.60 51.58 52.22 52.93 53.96 54.84 54.99 54.80 54.11 53.62 53.23 52.87 52.95 52.61 52.40 52.67 52.85 52.82 52.48 53.15 53.44 53.53 53.63 53.29 53.17 52.37 51.95 51.38 51.44 50.73 51.41 51.10 50.24 48.31 49.10 50.39
46.80 45.13 44.50 44.23 47.51 49.27 47.09 46.39 47.58 48.55 50.50 49.95 50.85 51.52 51.40 50.92 51.25 52.29 53.05 54.20 55.02 54.42 54.35 53.46 53.08 53.12 52.90 52.82 52.16 51.74 51.94 51.66 50.71 51.12 51.76 52.97 53.48 53.30 52.97 52.56 51.89 51.71 51.35 49.79 50.76 50.11 48.89 46.27 49.13
43.91 47.16 45.95 45.15 44.38 41.51 47.31 39.93 45.93 47.43 47.81 48.73 49.89 51.02 51.40 51.81 52.09 52.11 52.27 53.54 54.20 54.78 55.35 54.65 54.04 53.32 53.04 53.01 51.38 51.66 49.44 48.68 50.30 51.42 51.12 51.16 52.51 52.54 52.55 52.19 51.66 51.36 50.93 50.34 50.64 50.07 50.44 49.58 46.36
44.71 47.70 46.39 46.36 44.12 43.94 43.66 41.10 45.67 47.29 45.66 47.37 49.39 50.26 51.55 52.31 52.44 52.42 52.86 53.59 54.21 55.21 55.06 54.99 54.28 53.45 53.12 52.48 52.33 51.17 49.96 50.67 50.27 50.53 50.60 50.81 51.28 51.58 51.09 51.17 50.90 50.52 50.20 50.63 51.45 51.11 50.81 49.83 48.88
47.89 48.00 48.48 47.08 44.44 39.00 43.82 41.43 42.98 46.06 45.80 47.22 49.19 50.45 50.92 51.95 52.60 52.99 54.00 53.99 53.41 55.02 55.09 55.02 54.16 53.23 52.97 52.34 51.53 50.86 49.76 50.23 49.12 49.56 48.66 49.30 49.62 49.63 49.96 48.43 48.89 48.79 48.46 48.04 49.34 50.28 49.63 49.21 49.03
48.49 45.36 40.17 38.33 39.30 38.07 43.61 40.77 43.86 47.76 48.27 48.10 48.09 49.45 50.84 52.07 52.43 52.85 52.92 53.09 53.41 53.03 54.08 54.08 53.41 52.49 52.60 51.96 51.58 51.50 51.05 49.97 48.81 47.73 46.77 46.02 45.07 45.54 45.99 46.57 46.67 45.35 45.54 45.66 46.05 46.56 46.79 46.25 45.63
45.08 43.96 38.87 30.81 34.36 37.31 43.81 38.87 43.90 48.78 49.29 49.35 49.53 50.04 50.84 51.89 52.56 52.66 52.95 53.29 53.02 53.15 53.37 53.45 52.60 51.76 51.92 51.60 50.84 50.47 49.81 48.30 47.86 46.64 44.72 43.98 44.18 44.57 44.96 44.48 44.22 43.82 43.84 43.87 44.67 44.75 45.04 45.70 45.53
44.63 42.82 45.40 38.64 39.52 34.72 39.76 44.60 48.13 50.11 48.44 48.78 49.44 50.56 51.18 51.54 52.26 52.91 53.46 53.55 53.38 53.06 53.06 53.99 53.19 52.50 51.68 50.73 51.14 49.48 48.41 46.81 45.23 44.79 44.67 43.90 44.31 43.65 43.92 43.48 42.80 42.81 42.93 42.83 42.72 43.54 43.49 44.53 45.14
46.18 47.43 39.96 41.06 32.36 31.16 38.82 40.34 41.99 46.31 47.92 49.06 49.38 49.56 50.24 51.84 52.24 52.44 52.86 53.09 53.28 53.58 53.82 54.63 53.26 51.95 51.34 50.16 48.79 46.90 45.70 44.84 44.06 44.01 42.87 42.65 42.94 42.92 42.50 42.01 41.71 41.57 41.58 41.73 41.94 42.22 42.52 43.00 43.49
44.98 43.97 42.97 42.68 40.27 33.61 32.43 37.98 48.21 47.50 49.05 49.19 49.74 50.11 51.17 51.27 51.42 51.85 52.38 52.96 53.41 53.97 52.80 51.67 50.94 50.04 49.36 48.05 46.26 44.66 43.91 42.96 42.34 41.86 42.18 42.36 42.37 41.76 41.03 40.67 40.64 40.59 40.34 40.64 40.60 40.60 41.11 40.95 41.30
46.06 44.84 44.72 38.11 36.47 39.47 38.18 37.08 49.66 49.98 49.85 49.50 49.95 50.56 51.17 51.24 51.68 52.21 52.00 52.36 52.42 52.50 50.83 49.70 49.12 47.52 47.12 45.72 44.21 42.84 42.63 41.92 41.52 41.49 41.86 42.14 40.98 41.14 40.52 40.47 39.92 39.46 39.28 39.33 38.69 38.60 38.84 39.00 38.89

GFSSGP_sfc_wetblb_006.txt.gz
Wetbulb
59.50 57.89 58.22 54.59 46.86 46.52 43.99 46.19 49.97 48.63 50.28 57.21 58.11 58.88 57.90 59.27 56.74 52.78 67.39 69.23 69.87 69.50 69.17 66.44 69.44 69.40 69.99 71.23 72.21 72.56 72.93 72.42 72.81 73.09 72.70 72.17 70.17 70.26 70.29 69.47 68.41 68.52 65.62 65.41 68.41 70.23 70.97 71.10 71.26
56.47 56.26 53.60 51.36 44.71 42.27 44.12 48.72 47.49 48.27 50.55 55.07 57.26 59.30 58.59 57.37 63.52 63.94 66.33 69.38 69.86 69.42 68.24 67.39 69.63 69.49 68.84 69.45 70.36 71.60 72.05 71.81 71.86 72.05 71.83 70.75 69.69 68.87 69.10 67.15 66.23 66.40 67.85 67.24 68.47 69.02 69.87 70.38 69.58
56.88 56.43 48.78 47.45 45.19 43.47 44.40 48.32 48.58 49.33 51.96 53.47 55.59 61.25 58.77 59.13 63.45 64.76 69.05 69.70 69.69 69.39 69.07 68.03 69.28 69.40 69.08 69.38 70.09 70.60 70.84 70.97 71.25 71.38 71.29 71.02 70.18 68.47 68.29 68.21 67.02 67.96 69.46 70.47 68.54 67.11 69.02 69.11 68.50
53.42 52.10 49.61 44.96 44.24 46.59 47.55 48.69 49.83 49.43 52.53 53.67 56.35 57.36 62.46 65.87 64.38 67.04 68.94 69.62 69.22 69.38 69.34 68.20 68.94 69.21 68.87 68.27 69.33 70.13 70.10 70.15 70.63 70.92 71.20 71.43 68.44 67.34 66.18 65.64 65.78 68.48 68.31 67.60 65.47 65.08 67.71 68.21 67.69
53.19 50.39 44.83 44.44 43.79 45.93 48.66 50.02 51.21 49.57 53.47 54.51 56.18 54.69 58.97 65.44 68.05 67.93 67.92 68.73 68.28 68.81 69.91 68.44 68.62 69.40 69.23 68.73 69.05 69.18 69.65 69.49 69.42 70.12 70.32 70.24 70.13 69.74 68.96 68.60 69.32 69.13 66.82 63.71 63.93 63.56 65.94 66.57 67.59
48.77 50.07 43.78 42.01 43.41 46.47 49.22 51.43 52.11 52.27 54.05 55.32 53.64 53.26 59.38 66.33 66.45 67.92 68.05 67.71 68.91 68.63 69.64 68.97 68.60 68.72 68.46 68.16 67.91 67.71 68.27 68.62 69.08 69.12 68.96 69.40 69.38 69.06 68.51 68.18 68.61 68.39 67.53 66.31 65.40 66.38 67.29 67.03 67.37
47.96 47.52 44.35 43.96 43.70 44.74 46.88 50.58 49.55 50.09 52.76 52.56 56.64 54.01 57.28 61.91 66.93 68.03 67.53 67.39 67.29 67.69 68.40 69.39 68.98 68.33 67.43 66.56 66.18 66.51 66.97 67.59 67.87 68.18 67.93 68.29 68.38 67.19 66.49 66.52 65.76 65.00 65.22 65.89 66.83 66.88 66.98 66.79 66.82
50.19 48.57 44.51 44.86 43.56 43.15 47.53 49.27 50.78 49.71 48.25 52.07 52.42 52.71 54.39 62.15 66.70 67.38 67.35 67.68 68.45 68.18 67.53 68.15 69.20 69.01 66.84 64.85 64.82 65.33 66.47 66.86 67.10 67.53 67.29 68.13 67.08 65.52 64.66 64.52 64.36 63.88 64.61 62.79 62.31 61.37 63.93 65.99 65.74
52.48 45.85 42.90 43.62 44.44 45.01 48.47 47.20 51.21 52.23 50.47 51.66 52.60 55.55 62.47 65.21 66.20 65.19 64.83 65.18 65.89 64.79 65.90 67.88 67.64 68.82 68.28 67.44 65.17 65.83 66.22 66.46 66.07 65.78 66.32 64.88 66.87 65.78 64.07 63.29 63.45 62.77 62.12 62.13 60.80 59.81 60.32 61.59 63.31
49.62 45.99 44.53 47.39 47.47 46.94 48.20 47.55 48.84 48.50 49.32 50.27 52.57 56.07 60.97 63.48 63.46 62.17 61.65 62.05 61.84 61.49 61.81 63.28 65.45 66.64 67.37 66.79 65.38 67.87 67.30 66.69 66.45 66.42 65.83 65.75 65.34 63.91 63.67 62.99 62.74 62.11 61.09 60.33 59.71 58.94 58.49 58.69 57.99
49.75 44.97 47.64 48.46 49.26 48.88 48.33 48.29 50.52 48.22 47.36 51.25 50.81 54.36 57.18 59.34 60.07 60.99 60.65 59.97 58.97 60.32 60.90 61.53 64.35 66.17 67.27 66.77 66.57 66.20 65.78 65.75 65.58 65.51 65.15 64.22 63.06 62.84 62.83 63.16 62.66 62.33 59.88 59.68 58.63 58.01 57.10 56.58 58.01
47.62 49.32 49.85 50.23 50.65 49.91 49.51 51.03 49.70 50.22 50.06 53.23 53.72 55.35 56.56 57.19 58.27 59.10 59.67 58.61 58.26 59.68 59.65 60.73 63.85 64.91 65.07 64.76 64.25 64.37 63.34 63.65 62.98 63.26 63.60 62.98 62.22 61.22 61.07 60.88 59.76 59.90 60.24 59.70 59.10 57.06 56.26 56.20 57.54
49.29 49.88 51.19 51.73 51.77 51.13 51.41 49.62 50.05 49.80 52.40 53.83 54.02 55.65 55.72 56.55 57.44 58.45 59.65 59.16 60.11 58.77 59.38 59.51 61.64 62.88 64.10 63.26 62.58 61.92 60.91 59.82 59.75 60.35 60.28 61.31 60.32 60.27 60.31 59.13 58.68 58.61 58.89 58.35 58.49 57.53 56.95 56.48 57.65
51.35 51.11 50.95 51.62 51.25 51.08 49.73 49.21 49.69 50.46 53.12 52.60 52.98 53.84 54.85 55.69 56.27 56.64 55.90 55.78 56.59 57.12 58.54 59.60 59.84 61.53 61.71 62.00 61.31 59.98 59.16 57.74 57.72 58.19 58.96 60.02 59.90 59.61 59.46 58.13 57.65 56.73 57.33 57.61 58.63 58.53 58.99 58.94 59.00
51.55 48.92 51.03 51.12 49.85 48.33 50.61 46.60 46.68 51.98 53.12 51.46 51.62 52.92 53.67 54.43 55.10 54.70 55.84 55.54 56.18 57.26 57.91 57.79 58.68 59.97 59.64 59.69 58.60 57.88 56.55 56.44 56.32 57.16 57.46 57.32 58.15 56.16 55.53 55.09 54.53 54.87 55.46 55.23 55.44 55.23 55.54 56.75 59.17
49.16 49.67 44.62 48.62 49.17 49.44 48.44 42.56 48.90 51.90 50.84 50.11 50.97 51.91 52.72 53.56 54.37 55.19 56.03 55.93 57.04 57.88 56.29 56.91 55.88 57.08 57.17 57.39 55.81 55.53 55.08 55.53 55.89 56.86 56.44 55.76 55.62 55.30 54.31 53.51 53.04 52.44 52.95 52.05 50.42 50.09 50.62 52.78 54.18
47.90 42.85 44.43 46.54 50.07 48.28 47.34 44.47 48.89 51.83 50.58 50.00 51.08 51.52 52.11 53.04 54.01 55.02 55.91 56.07 56.39 56.62 55.99 55.56 54.98 54.36 55.44 55.42 54.89 54.89 54.99 54.33 54.96 55.84 54.70 54.49 53.76 53.68 52.01 51.98 52.15 51.21 50.05 49.30 48.29 47.49 47.26 46.48 47.29
42.52 43.28 45.33 45.38 48.36 48.42 46.99 46.56 49.68 51.47 50.94 50.84 51.33 51.67 51.73 51.93 53.09 55.23 55.61 56.59 55.92 56.81 55.79 55.41 54.74 54.56 54.95 54.13 54.03 53.89 53.76 53.78 53.65 53.70 53.28 53.35 52.49 52.26 50.91 51.39 50.80 50.45 49.28 48.58 48.22 47.58 47.45 47.21 46.67
46.16 45.36 44.76 47.07 48.92 47.49 46.61 47.06 48.81 50.33 49.92 50.10 50.41 51.44 51.72 52.66 54.24 56.61 56.63 56.49 55.30 56.07 54.72 54.01 53.37 53.87 52.73 51.92 51.04 50.91 50.79 51.92 52.56 52.83 53.14 52.91 52.31 52.26 51.05 50.33 49.77 50.14 49.08 48.34 48.09 47.41 46.25 45.86 47.09
45.65 44.86 44.72 46.74 48.67 47.86 47.01 46.78 49.12 49.18 49.22 49.81 49.99 50.97 51.48 52.35 52.91 54.55 55.71 55.79 55.32 54.65 54.53 53.77 53.43 53.43 52.75 51.78 51.56 51.68 51.92 51.61 51.80 52.32 52.11 52.15 52.71 51.78 51.32 50.45 48.90 49.12 47.93 47.93 48.16 47.54 45.26 45.86 45.98
44.83 44.72 43.88 43.52 47.04 48.95 47.21 45.47 47.34 48.56 49.44 49.63 50.83 51.47 51.62 51.26 51.24 52.66 54.83 55.08 55.65 54.40 54.36 54.31 53.38 52.93 52.87 51.97 51.57 51.48 51.32 50.19 49.29 49.63 50.02 51.36 51.91 52.21 51.74 50.85 49.71 48.83 48.46 47.44 46.91 46.05 45.60 43.33 44.73
41.90 47.39 46.00 45.22 44.18 39.89 47.22 38.29 45.09 47.19 46.82 48.51 49.87 51.65 51.68 52.01 52.82 53.03 54.15 53.64 54.84 54.33 55.61 54.69 54.08 53.15 53.02 53.04 50.42 49.63 48.15 46.57 47.88 48.26 49.30 49.90 51.72 51.28 51.12 50.73 50.41 49.07 48.33 47.28 47.51 47.94 46.74 44.93 42.42
44.11 47.63 46.39 46.76 45.12 43.92 44.30 40.36 44.26 47.17 45.60 47.23 49.79 50.70 51.69 52.36 52.50 52.08 52.31 53.29 54.45 54.28 54.94 54.51 54.16 53.69 53.26 52.63 51.43 49.61 48.41 48.41 48.75 48.84 49.43 49.20 49.16 50.08 50.03 49.87 49.45 47.91 47.54 47.03 45.96 45.57 45.44 45.27 43.91
48.98 47.56 47.53 48.27 44.80 38.91 44.11 42.14 41.89 44.72 46.23 47.33 49.27 50.65 51.39 51.63 51.76 52.28 53.03 53.58 52.93 54.62 54.19 54.74 53.82 53.14 53.27 52.50 51.72 50.06 47.84 48.20 47.64 47.59 46.43 47.30 47.69 47.35 48.27 47.25 45.96 45.75 45.14 44.21 43.61 43.24 43.09 42.96 42.88
47.78 44.15 38.72 37.45 39.01 37.16 44.32 41.03 43.20 48.17 49.20 48.80 48.60 49.57 51.02 52.17 51.65 51.99 52.01 52.29 52.76 52.97 53.84 54.41 53.46 52.20 52.71 52.45 51.80 50.38 49.41 48.54 47.59 47.45 46.45 46.01 44.49 44.25 44.21 44.44 43.79 43.24 43.00 43.08 42.69 41.62 40.97 41.10 40.90
44.74 43.69 38.94 30.39 32.43 34.91 42.37 37.89 42.97 49.41 50.11 50.03 50.17 51.17 51.17 52.19 52.45 52.15 53.35 53.54 53.31 53.57 53.61 53.19 52.45 51.65 52.25 51.93 51.52 50.63 49.93 48.13 47.71 47.29 45.99 43.65 43.00 43.24 44.02 43.04 43.00 42.86 42.76 41.96 41.42 40.74 40.35 40.15 40.00
44.34 41.97 45.90 38.67 38.35 35.13 38.50 43.41 48.15 50.25 49.32 49.66 50.20 50.63 50.84 51.52 52.23 52.71 53.00 53.35 53.18 53.22 52.83 52.31 52.35 52.63 52.06 51.87 51.25 50.00 48.94 47.85 46.05 46.36 44.21 43.26 43.50 43.11 43.24 42.64 42.09 41.94 41.52 41.01 40.28 39.24 39.06 39.71 39.52
45.95 48.06 39.16 40.76 31.61 29.60 36.64 38.17 40.00 46.39 47.66 49.23 49.69 50.34 50.98 52.20 52.01 52.40 52.37 52.14 52.62 52.90 53.33 53.26 52.96 51.07 50.47 50.39 50.23 47.64 46.41 45.69 44.38 43.82 42.97 42.47 42.06 42.02 41.81 41.33 41.01 40.38 39.86 39.66 38.87 37.68 38.25 38.30 38.45
44.22 42.58 44.00 43.15 40.10 32.83 31.00 35.78 46.97 46.09 47.83 48.92 49.39 50.29 50.69 51.41 51.93 51.87 52.14 52.58 52.27 52.73 51.88 51.24 49.97 49.07 48.52 47.81 47.39 44.91 44.37 44.04 42.90 42.23 41.67 41.33 41.55 41.10 40.82 40.27 39.33 39.11 38.59 38.35 37.34 36.96 37.39 36.77 36.66
46.15 44.28 44.28 36.23 35.27 37.80 36.02 35.80 48.28 49.44 50.49 49.94 50.28 50.49 51.20 51.40 51.15 50.77 50.91 51.25 51.17 50.96 50.69 50.72 48.77 47.46 46.88 46.57 44.49 43.38 42.88 42.37 41.21 41.10 41.36 41.75 40.63 40.92 40.27 39.60 39.07 38.49 37.95 37.45 36.51 35.79 36.26 35.71 35.04

GFSSGP_sfc_wetblb_012.txt.gz
Wetbulb
52.85 50.09 48.15 46.43 39.34 36.00 32.83 36.48 40.63 42.92 50.58 56.56 58.89 56.42 54.17 55.76 53.81 49.07 65.06 64.99 64.15 63.38 65.69 66.74 68.91 70.36 71.17 71.84 72.19 72.15 72.45 72.95 72.77 72.43 71.74 71.88 71.90 71.53 71.04 70.54 70.34 68.95 68.68 68.67 69.90 69.73 70.42 69.34 69.07
52.18 52.17 45.24 41.40 35.29 31.61 34.80 39.90 41.68 46.60 55.35 56.29 55.54 58.06 57.09 57.11 61.89 62.50 63.24 64.90 64.56 65.01 65.96 66.69 68.67 69.77 70.53 70.71 71.04 71.17 71.38 71.55 71.74 72.01 72.16 71.56 71.67 71.23 70.32 68.66 67.08 66.10 66.52 69.32 69.54 69.56 68.64 68.39 68.09
51.30 51.81 41.09 37.47 33.24 33.05 35.89 41.11 42.00 49.88 53.99 53.43 56.01 58.00 58.62 56.42 62.30 63.25 65.60 65.21 64.80 64.83 65.91 66.46 67.46 68.74 70.21 70.29 70.40 70.48 70.17 70.22 70.82 71.33 71.16 70.46 70.25 69.80 69.15 68.42 67.29 67.63 68.18 68.34 68.56 69.14 68.82 67.81 66.52
48.71 44.00 40.84 35.76 32.23 37.16 40.12 42.65 44.15 46.27 54.63 57.78 56.90 54.73 60.00 61.95 61.84 65.07 66.53 65.47 64.10 63.69 63.98 66.07 66.71 67.77 69.64 70.25 69.95 69.87 69.91 69.56 69.72 70.39 70.96 70.00 69.08 68.32 67.04 66.35 66.25 67.72 68.42 69.60 68.19 68.45 68.05 66.88 65.64
44.95 40.36 35.53 33.82 35.14 39.81 41.86 44.31 48.33 50.26 51.73 54.06 54.62 52.36 56.46 61.78 65.07 66.24 65.81 65.67 64.04 63.24 64.80 65.92 66.60 67.67 68.70 69.20 69.30 69.08 68.89 69.08 69.20 69.65 69.78 69.96 69.23 68.81 68.45 68.10 67.46 68.37 67.39 67.24 67.32 67.49 67.18 66.78 64.77
40.92 39.56 33.91 32.07 35.41 40.74 41.58 43.90 45.87 48.57 52.26 53.58 53.38 53.90 54.42 61.75 62.44 64.56 65.97 65.62 65.98 64.12 65.25 66.07 67.38 67.54 67.45 67.80 67.84 67.57 67.87 68.08 68.28 68.81 69.05 68.81 68.36 68.16 68.16 67.85 68.38 67.76 65.84 64.26 63.87 64.08 65.09 64.50 64.94
39.24 36.18 32.86 33.42 35.73 38.82 41.51 43.57 42.39 42.80 43.81 49.19 54.04 48.87 53.95 56.85 62.94 63.65 64.99 64.90 65.75 65.22 64.48 64.93 65.67 66.59 66.63 65.79 65.69 65.43 66.44 66.95 67.33 67.54 67.79 67.08 66.65 66.72 66.54 66.58 66.91 66.75 66.89 66.78 66.66 64.59 64.67 65.66 65.33
40.64 37.76 32.26 32.81 35.84 35.24 41.87 42.79 43.45 44.08 40.81 53.74 53.79 48.44 48.06 56.27 61.63 62.78 61.04 62.73 63.13 64.47 64.76 63.85 64.26 64.27 62.88 63.05 65.05 64.83 64.78 65.61 66.36 66.65 66.18 65.27 65.45 65.32 65.34 65.54 65.47 65.40 65.06 64.50 65.18 65.63 65.36 64.56 64.30
40.98 36.00 32.87 33.80 36.73 37.50 40.96 40.55 43.66 45.05 45.16 46.09 52.83 52.95 54.25 57.77 63.19 61.22 59.53 59.22 59.05 62.34 62.31 63.51 63.85 63.91 61.82 60.71 63.25 64.83 65.32 65.27 65.58 65.80 65.46 63.45 62.71 62.18 62.17 63.68 64.41 63.56 62.77 61.92 61.45 61.13 61.61 60.59 61.15
39.74 34.06 36.05 40.99 40.31 37.00 40.05 40.82 41.71 41.88 43.96 47.44 53.65 57.65 59.74 61.91 60.40 60.16 58.07 56.85 54.56 56.92 57.60 58.34 59.92 61.52 62.24 63.42 62.06 62.08 63.93 63.53 63.31 63.11 63.31 63.04 61.78 60.41 61.23 62.30 62.92 62.28 61.35 60.85 59.98 59.53 58.90 57.06 55.42
42.79 38.61 42.14 43.14 43.56 41.54 41.74 44.03 45.24 41.53 41.22 47.37 52.57 56.27 58.58 58.81 58.80 59.06 58.11 55.82 53.79 54.12 56.67 58.31 60.03 60.36 59.83 60.78 61.25 61.93 61.84 61.80 61.77 61.91 60.98 61.18 60.23 60.26 59.32 58.56 59.38 57.76 59.29 56.41 56.53 55.62 54.50 54.07 54.17
41.10 44.13 44.56 43.70 44.34 44.07 42.39 42.46 44.63 44.51 44.14 48.96 56.15 58.27 57.58 57.90 58.15 56.71 52.74 52.95 52.17 52.87 54.79 57.37 59.08 59.39 58.01 59.29 61.18 60.67 59.95 60.18 59.56 59.49 59.67 58.33 58.08 57.33 57.35 57.28 57.28 56.65 55.85 54.94 54.47 54.43 54.23 52.87 52.81
42.94 44.10 45.87 47.04 46.81 45.11 46.58 43.80 44.41 43.74 45.64 48.03 51.38 53.10 55.09 54.97 54.51 53.07 51.57 51.08 51.55 51.92 54.02 56.26 57.75 58.43 57.59 56.35 55.20 54.90 54.98 55.71 55.81 55.82 56.33 57.34 57.55 56.59 56.83 56.16 54.02 54.90 55.17 54.82 54.23 56.83 56.81 55.38 54.00
46.49 45.87 46.18 46.54 45.90 45.67 44.72 44.02 43.25 45.60 45.74 47.09 50.20 48.96 49.31 50.54 51.89 49.38 48.83 49.52 50.15 51.47 52.71 55.21 56.12 56.82 56.94 54.98 54.41 53.13 52.47 52.03 52.96 54.18 54.76 56.06 56.07 55.66 55.84 54.86 54.64 53.75 53.86 53.27 52.41 51.74 51.31 51.77 53.00
47.16 43.26 45.11 46.14 44.35 43.13 42.95 39.40 40.17 43.71 46.01 46.51 47.79 48.62 49.00 49.55 50.61 50.55 49.68 49.11 49.44 50.43 51.91 53.26 54.21 54.91 54.23 55.23 53.96 52.58 51.70 51.64 51.86 52.53 52.99 53.56 53.89 51.83 52.99 51.95 51.74 51.86 52.47 52.36 50.33 48.96 47.56 47.18 48.44
44.13 41.58 37.46 44.17 45.31 44.55 41.63 36.93 43.10 43.51 44.93 44.64 45.13 46.68 48.01 48.84 50.18 49.18 49.70 49.17 48.75 49.27 51.42 52.13 55.55 53.84 53.30 53.75 53.17 52.55 51.29 50.40 50.96 51.83 51.47 51.63 52.54 51.84 49.99 49.35 48.45 47.79 49.10 48.36 43.86 43.75 42.65 42.81 42.87
39.09 34.50 36.97 41.72 44.56 43.09 40.14 38.69 43.81 44.79 44.95 44.51 43.60 43.96 45.55 45.59 46.58 47.88 48.76 48.27 48.12 49.74 50.55 50.14 50.46 51.88 51.11 51.04 50.55 49.18 49.63 47.72 49.25 51.34 50.83 51.21 51.22 50.80 48.33 49.04 47.95 46.78 46.89 44.95 44.56 43.40 42.99 41.78 42.38
34.69 35.33 38.14 36.35 41.85 42.34 39.63 40.02 43.00 44.06 43.27 43.16 42.64 42.68 43.32 45.17 47.01 48.42 47.93 48.30 47.95 48.08 48.55 48.48 46.47 48.93 48.94 47.51 46.44 46.58 46.63 46.55 47.34 50.14 50.28 51.05 50.30 49.87 46.58 47.71 47.23 46.34 45.53 44.66 43.87 42.94 43.36 42.99 42.05
39.39 37.50 36.24 39.23 42.96 41.94 39.23 39.40 42.65 42.48 39.97 41.12 41.31 42.41 43.60 45.43 46.84 46.45 47.20 47.40 46.77 46.86 47.56 47.79 46.86 46.45 46.56 45.17 44.51 43.91 45.11 45.92 45.95 47.25 50.44 49.89 49.53 49.10 46.56 46.05 46.91 46.53 44.56 44.42 43.97 43.30 42.90 41.53 42.12
40.18 38.43 37.17 40.51 43.57 41.77 40.80 39.73 40.11 41.59 40.80 42.19 42.56 42.16 43.25 44.06 46.03 47.25 46.84 45.66 47.15 46.84 46.76 46.57 47.05 46.92 46.35 45.11 44.63 44.78 44.30 45.21 46.21 46.76 46.78 49.21 48.80 47.67 46.74 45.59 45.52 45.17 44.50 43.92 43.96 44.08 42.08 42.03 41.97
38.24 37.93 37.44 38.27 41.04 41.46 40.50 38.42 39.43 42.16 43.17 43.90 43.46 43.35 44.01 44.29 45.20 46.51 47.17 45.65 44.92 45.85 46.73 47.70 47.21 46.81 46.94 46.46 45.18 44.31 44.10 43.91 44.04 44.63 44.87 46.63 48.14 48.08 47.05 46.09 45.28 44.02 43.96 42.92 42.65 42.67 41.42 39.62 41.28
36.27 41.90 41.60 39.98 37.39 32.80 39.99 31.04 37.45 39.41 40.51 42.44 43.01 42.44 43.12 44.61 45.69 45.63 45.22 44.17 45.73 46.50 46.22 46.89 48.31 47.45 47.17 46.60 44.41 43.61 44.90 44.67 45.53 45.32 44.27 45.62 47.45 47.36 47.32 46.38 45.64 44.50 44.23 43.07 42.87 43.27 41.36 40.57 38.79
39.50 42.88 41.69 40.86 36.63 34.72 37.00 32.47 36.21 39.76 39.25 40.32 41.75 42.92 42.72 43.35 44.56 44.75 44.91 46.85 46.84 47.30 47.49 48.32 48.91 48.50 48.93 47.45 45.47 44.08 43.05 45.12 46.12 43.25 43.22 43.32 44.59 46.23 46.87 46.22 45.73 44.64 43.87 41.72 40.22 39.10 37.48 39.87 38.07
44.68 42.25 40.57 39.80 36.77 29.26 35.68 33.69 33.05 37.13 39.23 41.21 42.84 43.81 44.27 43.01 43.74 45.81 46.55 45.60 46.14 46.50 46.61 47.41 47.74 48.21 48.26 48.13 47.11 45.10 43.83 44.89 43.99 43.82 42.93 42.71 43.02 42.69 43.56 43.82 42.70 42.11 41.56 40.81 39.68 39.14 38.13 37.89 39.05
41.13 36.68 28.22 28.01 27.18 27.41 38.02 34.49 34.54 39.89 42.76 43.37 43.05 42.44 43.30 44.55 44.67 44.46 44.52 45.31 44.71 44.72 45.57 46.44 46.68 47.78 49.13 47.24 46.85 46.76 45.91 45.57 44.31 44.15 43.69 43.89 42.61 41.12 39.84 40.24 39.97 39.99 40.09 40.52 40.77 40.95 40.36 40.08 38.95
39.14 37.55 27.92 24.02 25.25 28.28 36.56 30.82 36.44 43.74 45.03 45.57 44.81 44.17 45.38 44.80 44.75 44.75 45.58 45.28 45.71 46.50 46.21 47.23 47.88 47.93 48.21 47.18 46.69 46.20 45.72 45.26 45.27 44.73 43.82 41.95 41.97 40.43 40.49 40.10 40.30 40.94 41.48 41.35 41.74 40.69 40.11 39.60 38.08
39.92 34.69 39.91 31.92 29.72 26.58 31.16 36.39 41.37 42.99 44.28 46.26 45.40 45.46 44.52 45.16 44.44 44.44 45.57 45.46 45.26 45.37 45.67 45.67 45.96 45.69 47.03 46.21 45.49 43.79 43.62 44.03 43.16 40.42 39.87 40.52 40.08 40.69 40.06 40.64 41.24 42.07 42.07 41.53 40.59 38.99 38.44 38.70 37.97
40.99 42.43 33.11 30.39 21.25 25.60 30.33 31.15 33.50 39.55 42.08 44.56 44.44 42.48 43.05 43.90 44.49 44.62 44.69 45.35 45.21 44.79 45.42 45.70 45.95 46.59 46.63 45.85 42.70 42.35 40.95 40.70 39.16 38.33 37.59 38.20 39.44 40.68 41.04 41.87 42.42 42.11 41.01 39.95 39.16 38.18 37.59 36.43 36.08
38.22 36.36 37.54 38.01 31.69 25.77 25.64 29.58 38.98 41.58 42.75 41.90 43.01 43.17 42.22 42.91 43.50 44.02 45.39 46.36 47.21 47.56 47.24 46.36 45.11 44.82 44.67 43.00 41.53 40.16 38.11 38.16 37.59 37.45 37.54 37.90 39.81 41.08 41.20 40.97 40.45 39.91 39.26 39.24 37.79 36.36 36.05 35.00 34.44
40.81 38.70 37.83 27.65 30.48 29.32 30.70 31.56 43.62 42.09 43.66 43.27 42.21 43.56 43.92 43.37 43.31 44.17 44.55 45.09 45.18 44.77 44.37 44.12 45.09 44.32 42.56 40.46 39.78 38.76 37.36 37.05 36.15 36.42 37.00 38.18 38.75 39.01 39.82 39.35 38.79 38.67 38.20 36.96 35.74 34.37 34.54 32.79 31.97

GFSSGP_sfc_wetblb_015.txt.gz
Wetbulb
54.79 49.89 47.43 45.90 39.11 34.98 31.80 35.83 39.70 43.97 52.50 56.07 56.83 54.76 53.35 55.47 51.77 47.12 65.24 64.16 63.67 63.49 65.18 67.13 69.60 71.14 71.52 71.85 71.82 72.25 72.84 72.81 72.41 71.72 71.76 71.93 71.78 71.71 71.40 70.43 69.88 68.69 68.84 68.69 69.83 70.33 70.53 69.96 69.28
51.91 50.26 44.29 40.32 35.49 30.81 33.53 38.11 42.01 48.94 55.81 58.41 57.49 56.88 55.73 55.58 60.76 62.11 61.72 63.23 62.75 64.02 64.94 66.63 69.30 70.30 70.72 70.67 70.79 71.26 71.14 71.35 71.79 72.04 71.52 71.27 71.02 71.23 70.02 68.18 66.61 66.03 67.54 68.67 68.74 69.18 69.72 69.51 68.57
49.98 47.84 40.83 36.51 32.30 32.27 33.78 38.59 48.19 51.96 55.43 52.06 55.51 58.82 57.83 57.19 61.91 62.83 63.91 64.17 63.88 63.99 64.41 65.74 68.42 69.33 69.94 69.98 69.87 69.83 69.79 70.53 71.07 71.10 70.90 70.45 70.12 69.56 68.95 67.71 67.63 67.96 67.77 67.77 68.33 68.62 67.86 68.09 67.87
47.20 42.97 39.86 35.70 33.21 35.40 37.53 40.07 48.48 51.52 53.47 56.46 57.01 54.60 59.11 61.05 62.27 64.65 64.08 63.73 62.98 62.53 63.46 65.07 67.16 68.67 69.39 69.59 69.12 69.19 68.96 69.19 69.77 70.51 70.46 69.68 68.99 67.86 66.30 65.13 65.45 67.73 68.09 68.76 67.48 68.02 68.19 67.30 65.87
42.27 39.35 34.81 33.00 33.11 37.13 42.12 49.26 49.78 49.75 51.21 52.41 53.26 51.77 55.80 61.30 64.35 64.32 63.66 63.59 61.86 61.99 63.58 64.21 66.29 67.96 69.04 68.95 68.56 68.48 68.67 68.82 68.93 69.36 69.66 69.20 68.68 68.75 68.56 68.22 66.84 68.01 67.36 67.16 67.73 67.18 67.49 66.89 65.00
40.94 38.69 33.97 30.72 33.31 38.68 40.74 44.75 48.98 50.88 51.07 52.06 51.69 51.70 53.65 59.86 63.24 63.48 64.69 63.27 63.17 62.94 64.13 64.92 66.71 66.76 67.03 67.69 67.79 67.52 67.66 67.70 68.10 68.43 68.69 68.76 68.27 68.18 67.80 67.93 68.31 67.13 65.20 64.00 63.86 64.20 65.79 65.41 65.21
38.65 36.25 31.76 32.64 36.10 38.04 40.30 42.06 41.99 43.77 46.50 47.68 52.36 49.09 53.88 57.62 61.89 63.94 64.39 64.10 63.58 63.75 63.81 64.26 64.96 65.82 66.11 65.55 65.77 65.84 66.69 66.78 67.32 67.32 67.48 66.78 66.52 66.63 66.99 67.21 67.09 66.91 66.78 66.58 65.25 63.99 64.43 64.62 64.68
39.33 37.26 31.30 32.09 34.93 34.31 39.49 41.11 41.42 42.16 40.92 52.48 52.02 47.19 52.35 57.49 61.82 63.31 63.18 63.65 63.31 62.91 63.55 62.54 63.20 63.90 62.21 61.83 64.74 64.57 65.30 65.81 66.30 66.57 66.03 65.25 65.21 65.23 65.79 65.76 65.67 65.45 64.51 64.72 65.16 65.16 64.59 63.95 63.75
39.65 34.86 32.17 32.68 34.69 37.72 40.56 39.16 42.01 42.75 48.27 46.50 52.61 50.32 52.72 59.64 61.14 59.17 58.60 59.13 60.22 63.28 62.54 62.40 62.49 62.66 61.32 60.45 62.31 64.50 65.16 65.30 65.43 65.76 65.02 62.88 61.83 61.43 61.31 63.79 64.15 63.17 62.33 61.78 61.22 60.81 60.10 59.23 58.49
38.29 34.29 36.06 39.18 38.74 36.36 40.04 40.85 40.47 42.71 46.42 50.33 50.69 55.62 56.54 61.04 59.41 57.68 57.45 57.13 58.08 60.10 60.17 62.04 61.95 62.11 61.37 62.12 60.57 61.39 62.40 62.39 62.34 62.64 62.57 61.84 60.31 59.20 60.65 61.74 62.65 62.18 61.39 60.83 60.13 59.91 58.50 56.70 54.32
38.34 37.60 40.70 42.30 41.43 41.52 40.77 41.56 42.86 41.49 41.83 50.55 49.47 53.21 57.75 58.78 58.73 57.68 57.39 56.87 56.66 57.63 56.76 57.91 58.99 59.71 60.30 60.76 59.92 60.40 61.03 60.74 60.95 60.85 60.76 60.37 60.40 59.42 58.26 58.22 58.56 56.83 58.74 55.81 55.83 54.76 53.65 52.58 52.07
40.07 42.44 43.06 41.83 44.46 42.61 40.75 44.22 42.59 43.14 43.21 52.42 52.79 55.54 57.60 57.92 57.24 57.20 56.78 54.34 53.07 53.80 55.85 57.38 58.73 58.10 56.76 59.83 60.19 60.51 60.18 59.96 59.21 59.27 59.21 58.35 57.43 57.43 57.29 56.83 56.57 55.59 54.85 53.83 53.41 53.48 53.67 52.91 53.17
42.04 42.70 44.61 45.00 44.79 43.06 44.87 42.63 42.34 43.01 44.66 47.05 55.01 56.78 56.89 56.81 55.42 56.56 55.45 54.69 51.97 51.98 53.79 56.05 57.57 57.62 56.36 57.49 56.01 56.97 57.16 58.73 57.62 57.20 56.43 57.69 56.79 55.53 55.59 55.27 53.93 53.81 54.07 53.63 53.18 53.39 53.63 52.72 53.06
44.95 44.62 44.94 44.59 44.30 44.13 42.89 42.44 41.72 44.12 43.84 45.83 53.41 54.15 54.82 54.77 55.56 52.45 49.96 51.62 50.75 51.55 53.01 54.93 56.40 57.12 55.59 54.36 53.95 53.45 53.46 53.33 53.92 53.84 54.54 56.13 56.55 55.35 55.03 54.15 53.30 53.11 53.35 52.32 51.03 49.98 49.30 49.01 50.02
45.42 42.19 43.97 43.75 43.31 42.42 42.44 39.35 39.80 42.26 43.42 45.05 49.23 53.55 51.86 52.32 52.10 50.97 51.36 49.97 51.39 50.93 52.73 54.59 54.83 55.36 54.99 54.30 53.69 51.86 51.47 51.68 51.60 52.79 53.33 54.19 54.31 53.10 54.44 53.58 52.64 52.40 51.81 51.01 49.13 47.22 44.21 43.83 44.60
41.81 39.89 36.46 42.91 42.84 42.70 40.41 36.32 42.19 42.43 42.26 43.62 44.53 46.11 47.23 48.73 50.03 48.87 49.36 49.50 47.98 49.56 51.17 52.83 55.80 53.62 52.75 53.51 52.82 52.18 50.95 50.01 49.78 51.12 51.36 51.64 53.34 51.51 50.43 49.82 50.30 49.52 50.38 48.86 43.41 42.73 41.53 41.35 41.46
37.20 32.23 34.40 39.37 42.78 42.41 39.42 37.65 42.62 42.38 42.94 42.69 42.59 43.36 45.09 45.05 45.88 46.85 47.72 46.64 46.97 48.71 50.21 50.76 51.57 52.34 51.82 52.31 51.47 50.25 49.74 48.28 48.61 49.90 50.26 50.44 51.10 51.43 49.50 48.85 48.23 46.70 46.67 45.64 43.21 42.47 42.09 40.90 41.17
32.51 32.90 36.15 34.91 40.73 41.47 38.56 38.71 41.76 43.20 41.90 41.89 40.89 40.35 41.33 42.88 44.81 46.56 47.03 47.47 46.88 48.05 49.53 49.21 49.00 51.02 50.13 47.82 46.63 45.93 45.82 46.25 46.34 47.72 49.80 50.40 49.85 50.20 47.32 47.66 47.78 45.71 44.86 44.17 42.72 42.14 42.07 41.71 41.20
37.56 36.00 34.63 37.17 40.81 40.94 37.99 38.33 41.43 40.48 39.33 39.44 38.76 39.57 42.23 43.43 44.24 44.13 45.12 45.50 45.85 46.55 47.50 47.06 45.49 47.68 46.08 44.55 44.04 43.45 44.58 44.92 45.01 45.97 49.04 49.98 49.72 49.11 46.78 46.07 46.78 45.38 44.41 43.89 43.18 42.11 41.43 41.33 40.73
38.87 36.33 35.05 39.20 41.69 39.99 39.12 38.54 39.01 40.38 39.73 39.88 40.87 41.41 42.71 43.36 44.15 45.33 45.01 44.20 45.54 46.29 45.97 45.99 45.85 45.22 45.43 44.70 44.10 44.02 43.50 44.20 45.16 46.02 46.36 48.87 49.52 49.07 47.54 45.64 46.06 46.10 44.19 43.24 42.94 42.31 41.16 41.00 40.95
36.42 36.00 35.53 36.85 39.48 39.38 38.19 36.87 38.03 40.94 42.13 42.76 42.60 41.69 42.73 43.31 44.12 44.69 45.24 43.89 43.68 44.68 45.10 45.88 45.88 45.62 45.62 45.37 44.11 43.45 43.06 43.11 42.76 43.77 43.84 46.30 49.04 49.59 47.88 46.30 45.58 45.21 45.39 44.03 42.84 42.37 41.44 39.96 40.20
34.58 39.72 39.21 38.37 36.20 32.09 37.60 30.10 36.07 38.00 39.06 40.60 40.70 40.39 40.02 42.74 43.49 44.20 44.56 44.47 44.90 45.49 44.97 45.44 46.53 46.25 46.14 45.35 44.16 42.90 42.76 43.89 45.53 46.04 45.16 45.46 46.26 48.03 48.88 47.90 45.71 44.84 44.47 42.51 41.88 42.82 40.68 39.89 38.15
38.62 41.68 39.12 38.71 35.34 33.30 35.57 30.83 35.39 38.03 37.29 38.90 39.56 41.78 41.54 41.81 43.14 44.51 45.26 45.51 44.97 45.28 44.96 45.01 46.37 47.56 47.68 47.20 45.48 44.36 42.99 44.76 45.74 44.85 42.48 43.55 43.88 45.90 46.88 47.45 46.95 45.73 45.18 43.52 41.56 39.23 37.55 37.84 36.77
43.44 40.20 38.69 37.43 35.01 28.28 33.34 32.11 31.60 34.87 37.08 39.74 41.50 42.06 42.88 43.13 43.81 43.85 44.67 44.78 45.31 44.92 44.38 44.89 45.91 46.75 47.09 46.54 46.20 45.12 43.90 44.46 44.14 44.44 42.88 44.09 42.59 42.70 43.76 44.50 43.69 42.14 40.62 38.60 38.48 39.54 38.89 39.16 39.00
40.27 35.50 27.43 26.80 26.53 26.94 35.52 32.45 33.33 38.75 40.94 41.19 41.66 42.24 44.40 43.68 42.41 43.38 43.32 43.68 44.51 44.38 44.28 45.30 45.69 46.07 46.48 46.18 46.07 46.45 45.88 44.57 43.83 43.97 44.04 43.13 40.51 38.41 38.67 39.87 40.34 39.37 40.47 40.47 41.95 40.89 40.53 40.49 39.24
37.39 35.91 26.90 22.39 24.14 27.22 34.97 28.69 34.86 41.89 43.43 43.64 44.93 44.63 43.38 43.00 42.71 43.11 43.51 43.37 43.75 44.09 44.47 44.98 45.58 45.79 46.45 46.38 46.28 45.89 44.67 43.62 43.74 43.66 42.98 41.91 39.01 37.50 38.48 39.64 41.26 41.61 41.86 41.55 41.30 40.81 40.40 41.06 40.42
38.32 33.49 37.98 30.32 29.19 26.10 30.35 34.64 39.52 41.31 42.30 43.38 42.70 42.98 41.71 41.97 42.28 42.58 43.78 43.89 43.88 44.27 44.62 44.60 44.83 45.26 45.19 45.21 44.67 43.48 41.88 41.52 41.99 39.93 38.65 37.49 38.20 39.26 39.09 40.55 41.47 41.88 41.84 42.58 41.90 40.16 39.19 39.08 38.66
39.92 40.90 32.14 30.00 20.22 24.22 29.33 30.31 32.23 37.71 39.99 42.05 41.75 40.60 41.28 42.31 42.64 42.91 43.49 44.28 44.87 44.96 44.50 44.39 44.29 44.14 44.31 43.82 42.23 41.77 41.32 40.13 39.25 37.03 36.64 37.15 38.13 39.29 40.34 41.18 41.83 42.12 41.84 41.02 40.48 38.53 37.83 37.21 36.32
37.26 35.25 35.40 35.54 30.79 25.85 23.33 28.84 37.91 37.80 39.94 39.68 39.85 41.37 40.83 40.40 41.49 42.81 43.63 44.42 44.49 44.30 44.00 43.60 43.70 43.18 43.18 41.88 39.62 39.57 39.38 37.63 36.47 35.89 36.32 37.19 38.82 39.69 40.52 40.04 40.62 40.60 39.58 38.96 37.85 37.20 36.36 35.18 34.52
39.54 37.05 35.79 29.86 29.51 28.47 27.11 29.41 40.50 40.20 40.78 40.47 40.62 41.97 42.15 41.83 43.33 43.68 44.75 45.20 44.10 43.92 43.31 42.90 42.66 42.69 40.46 38.79 38.69 38.08 37.23 35.95 35.14 35.48 36.35 37.56 39.00 40.01 39.44 38.62 38.55 38.72 38.35 37.53 35.54 34.10 33.91 32.60 31.91

GFSSGP_sfc_wetblb_018.txt.gz
Wetbulb
52.71 48.50 46.90 45.18 39.64 36.65 31.98 34.60 39.55 45.88 50.96 55.24 56.27 53.44 52.85 54.65 50.67 44.21 62.83 64.22 63.38 63.52 65.25 67.28 70.06 71.03 71.25 71.76 72.30 72.52 72.77 72.87 72.19 72.06 71.74 71.62 71.74 71.60 70.78 70.05 68.33 67.70 68.88 69.46 69.53 69.52 70.19 69.60 69.49
52.94 48.74 44.16 40.25 34.74 30.58 33.45 38.49 43.58 48.62 55.06 56.82 56.14 55.61 54.98 53.59 59.11 59.95 60.04 63.12 62.96 63.25 64.35 66.77 69.49 70.24 70.56 70.62 70.93 71.41 71.36 71.89 72.23 71.92 71.69 71.47 71.32 70.99 69.72 67.82 66.49 65.78 68.20 68.31 68.53 69.12 69.47 69.48 68.82
48.26 44.81 40.46 36.23 30.99 30.74 33.09 39.05 49.41 53.18 54.78 52.90 55.02 58.14 56.59 55.29 61.14 61.42 62.49 62.81 63.86 63.53 64.10 66.48 68.67 68.90 69.71 69.60 69.76 69.85 70.46 71.00 70.99 70.98 70.90 70.62 70.31 70.19 68.70 67.78 66.69 67.95 67.99 67.77 68.08 68.50 68.02 68.31 68.17
45.74 42.18 39.65 37.43 32.98 35.92 37.66 40.83 50.94 51.73 52.88 56.54 56.32 53.92 58.33 60.79 62.20 63.74 63.22 63.35 62.33 61.51 61.43 65.68 67.52 68.27 69.10 69.17 69.21 68.96 68.90 69.49 69.95 70.23 70.18 69.49 68.51 67.67 66.08 65.21 65.70 67.83 68.23 68.35 67.55 68.25 68.50 67.87 66.48
41.53 38.88 34.36 32.60 33.37 38.51 43.53 46.67 49.49 49.78 50.90 52.06 53.32 52.17 55.12 60.44 63.60 62.94 62.35 62.74 60.74 60.53 61.40 63.08 66.54 68.01 68.81 68.72 68.19 68.41 68.40 68.53 68.66 69.32 69.56 69.09 69.18 68.95 68.42 67.34 66.94 68.13 67.64 67.42 68.38 67.47 67.88 67.34 65.84
40.01 37.94 32.13 30.20 33.76 37.94 41.08 45.16 49.80 49.63 50.37 51.53 52.57 52.21 53.00 59.76 61.96 62.35 63.36 61.07 62.00 61.48 62.60 63.04 66.38 66.81 67.36 67.69 67.45 67.20 67.30 67.73 67.73 67.93 68.86 68.60 68.27 67.85 67.61 67.93 68.00 66.87 65.57 65.01 64.62 64.07 66.31 65.22 64.49
37.71 35.09 30.87 31.33 33.50 36.95 39.71 41.00 44.04 46.89 47.37 46.87 53.02 50.03 53.35 58.54 62.25 63.44 62.81 60.85 61.70 62.64 62.50 62.54 63.17 64.78 65.55 65.18 65.42 65.60 66.42 66.58 67.03 66.96 66.79 66.38 66.34 66.48 66.79 66.74 66.83 66.42 66.43 66.52 65.75 64.80 65.05 65.05 64.66
37.71 37.14 31.06 31.84 33.44 33.58 38.43 40.16 39.67 41.72 42.06 51.66 50.79 50.68 52.04 58.08 61.89 62.87 63.09 61.92 60.84 61.45 62.09 61.15 61.56 62.12 61.30 60.64 64.39 64.37 65.19 65.65 66.05 66.21 65.34 64.79 64.61 65.01 65.50 64.63 64.96 64.31 63.84 63.60 63.49 62.42 61.61 61.22 60.61
38.10 35.40 31.91 32.29 34.16 37.05 39.26 40.23 39.79 43.14 48.28 46.61 52.01 51.42 53.32 60.08 60.93 59.94 59.04 59.40 59.69 61.86 61.15 61.12 61.41 61.50 60.47 59.58 61.59 64.15 65.07 65.23 65.30 65.40 64.63 62.46 60.85 60.41 60.73 63.83 63.75 62.81 62.05 61.46 61.11 60.72 59.81 58.53 57.85
38.05 34.46 35.46 38.38 37.45 39.62 39.91 39.26 39.87 43.11 46.42 48.97 49.48 53.18 57.01 59.47 59.08 58.75 58.68 58.97 58.55 59.95 61.26 61.26 61.11 61.07 60.49 61.51 59.60 60.44 61.78 61.64 61.61 62.28 61.59 60.63 59.20 58.72 59.93 61.25 62.79 62.00 61.35 60.83 60.07 59.22 57.98 55.38 53.10
40.25 37.10 38.93 40.53 39.82 39.31 40.11 41.16 41.69 44.08 42.68 48.25 47.90 52.04 57.32 57.46 57.13 58.50 58.54 58.82 58.70 59.99 60.02 60.76 60.85 60.38 60.36 60.63 58.87 59.28 59.90 60.02 60.27 59.93 60.80 60.06 59.80 58.63 58.01 57.43 57.63 56.29 58.60 54.67 54.90 53.76 53.28 51.82 51.81
40.44 40.84 40.92 40.83 42.33 41.93 39.54 43.26 41.18 39.40 42.68 49.11 50.37 55.31 57.46 57.53 56.90 56.66 57.12 56.59 56.78 57.45 58.43 58.48 57.92 58.35 57.89 58.92 59.39 58.99 59.46 59.46 59.18 59.53 59.06 58.76 57.80 57.35 56.69 56.29 56.15 55.45 54.66 53.18 52.85 53.10 53.35 52.57 52.87
41.57 41.54 43.00 43.40 44.16 42.28 43.42 40.99 40.83 42.52 44.79 45.28 52.28 55.72 57.57 57.96 56.72 56.90 57.39 55.52 54.00 54.88 55.12 55.51 57.09 57.10 56.15 58.16 58.07 58.65 58.59 59.05 58.65 57.91 57.62 57.71 56.77 55.87 55.73 55.45 54.50 54.14 53.70 53.25 52.96 52.71 52.59 51.91 51.87
43.25 42.35 42.07 42.98 42.50 42.57 41.71 41.23 41.42 43.06 42.26 43.65 52.30 53.10 55.22 56.55 57.05 54.59 55.08 55.13 51.79 52.62 53.34 54.55 56.12 56.62 55.15 55.59 55.08 56.19 55.79 56.21 55.87 55.53 55.06 55.68 56.51 55.41 54.57 54.24 53.43 52.77 53.32 52.54 51.09 49.40 48.25 47.54 48.33
43.65 41.86 41.80 43.20 41.64 40.52 41.67 38.62 39.03 42.72 41.98 43.35 48.29 52.65 53.76 54.70 53.98 54.08 54.77 52.69 53.02 51.31 52.19 53.66 55.27 55.49 54.25 53.66 53.29 52.37 52.25 52.56 52.29 53.27 53.26 53.92 55.08 54.48 54.30 53.66 52.54 52.85 52.36 50.79 49.41 47.92 44.11 43.19 44.05
39.78 38.36 34.91 40.97 42.59 40.86 39.85 36.38 41.84 40.61 40.17 42.42 42.85 49.05 52.14 52.90 52.59 51.35 50.91 50.69 50.27 49.86 51.61 53.16 55.73 54.44 54.14 53.45 52.89 52.06 50.57 49.97 49.69 50.70 51.55 51.90 53.37 52.49 52.38 52.31 51.77 52.03 50.97 50.03 45.29 42.97 41.40 41.32 41.51
35.74 31.47 32.72 37.88 41.02 41.16 40.83 37.97 41.96 42.53 42.07 42.23 40.79 41.98 46.63 47.30 46.75 45.14 47.66 47.04 47.53 49.17 50.47 51.93 51.92 52.62 52.10 51.94 51.73 50.90 50.20 49.09 48.63 48.66 49.90 50.58 50.84 52.06 49.78 49.63 49.80 49.58 47.84 48.47 44.26 42.11 41.67 40.60 40.64
31.67 31.39 34.54 32.84 39.50 40.37 37.12 37.71 40.84 41.68 41.08 39.83 39.36 39.42 40.56 41.99 44.06 45.51 46.04 46.42 46.68 47.32 49.57 50.31 50.32 51.27 50.86 49.27 47.92 46.76 45.89 46.01 46.50 46.70 48.36 49.79 49.95 50.25 49.34 48.50 48.16 47.28 45.27 44.97 42.65 41.95 41.62 41.51 41.36
35.91 34.06 33.03 34.91 38.78 39.12 36.45 36.69 38.83 38.54 38.92 38.52 37.99 38.52 39.18 42.18 42.77 42.77 43.40 44.36 44.74 46.31 48.07 48.79 47.63 48.30 47.62 45.22 44.48 43.71 44.57 44.92 45.03 45.35 46.66 48.32 49.65 49.59 48.92 47.45 47.10 46.77 44.97 45.08 43.61 41.69 41.14 40.85 41.10
36.73 34.36 33.35 37.42 39.33 38.17 37.61 37.08 37.48 39.55 38.30 38.38 39.33 39.96 40.95 41.37 42.22 43.95 43.22 43.46 44.84 46.24 47.13 46.95 46.33 45.33 46.68 44.78 43.44 43.39 42.65 43.44 44.14 44.89 45.46 46.35 48.15 49.06 49.03 47.52 46.35 46.28 45.86 43.29 42.80 41.65 40.43 40.80 40.60
35.88 34.11 33.61 35.37 38.00 37.70 36.28 35.24 36.96 39.20 40.35 41.08 40.87 40.21 41.77 42.35 43.20 43.55 43.96 42.98 43.51 44.75 45.49 46.04 45.47 45.71 44.61 44.48 43.83 43.33 42.93 43.17 42.69 43.83 43.55 44.96 46.08 47.50 48.03 48.33 47.39 45.83 46.06 45.48 44.04 42.84 41.29 40.94 39.97
33.55 37.95 37.61 36.97 34.56 31.24 35.61 29.05 34.96 36.86 37.85 39.84 40.53 40.48 40.68 41.82 42.78 43.35 43.57 42.84 43.12 43.83 43.80 43.95 45.28 45.89 46.33 45.40 43.83 42.28 41.24 41.51 43.54 43.51 43.49 45.54 44.83 45.48 47.14 48.13 47.35 45.98 45.70 45.33 43.81 42.81 41.58 39.98 38.56
37.91 39.99 37.68 36.93 33.85 32.19 34.07 29.73 33.85 36.65 36.04 38.36 39.98 40.72 40.36 42.08 41.95 42.51 43.15 43.86 43.28 43.08 43.25 44.29 45.44 45.91 45.96 45.57 44.84 43.95 43.29 43.36 44.38 44.32 43.68 44.47 44.28 43.60 44.73 45.89 46.87 45.49 43.87 44.43 43.54 41.45 41.25 39.93 39.32
41.96 38.64 36.96 35.77 33.55 27.82 31.74 30.69 30.99 33.50 35.61 38.25 39.92 41.70 42.72 42.71 42.02 42.98 43.74 43.87 43.45 43.63 43.52 43.94 45.03 45.52 45.95 45.46 45.43 44.58 42.73 43.26 43.35 43.51 42.92 43.86 42.91 42.05 41.63 42.68 42.59 41.45 39.57 38.31 39.26 40.01 39.76 38.88 39.63
39.76 33.58 26.12 26.03 26.04 26.43 33.99 30.55 32.70 38.08 39.37 40.39 41.39 42.31 41.88 41.13 40.33 41.50 41.84 42.82 43.93 45.11 44.49 45.12 44.90 45.15 46.57 46.99 46.58 44.38 43.28 42.01 41.11 41.99 42.63 42.39 41.60 37.45 36.94 38.23 38.85 39.70 40.15 40.33 39.97 40.42 40.31 40.87 40.40
36.21 34.56 25.68 21.33 23.07 26.33 33.15 28.27 33.72 40.42 42.34 43.40 43.53 41.32 41.48 40.86 41.20 41.62 42.43 42.51 44.79 44.93 44.13 44.32 45.43 45.57 45.60 44.78 44.26 43.58 42.05 41.87 42.07 41.69 41.66 40.44 38.29 36.57 38.35 39.47 39.88 39.81 40.02 39.89 40.86 41.67 41.43 41.75 41.11
36.54 32.58 36.26 29.46 28.53 25.36 29.11 32.94 37.17 38.98 40.46 41.02 40.26 40.56 40.20 40.69 41.29 41.83 42.56 43.49 44.39 45.16 45.28 43.93 43.70 43.90 43.92 43.58 43.23 41.34 40.09 40.26 40.74 39.90 37.97 37.17 37.02 38.95 38.80 39.27 39.22 39.52 41.20 41.99 41.51 40.48 39.47 39.45 38.77
38.78 39.68 30.93 29.20 19.43 22.60 27.91 29.30 30.85 35.69 37.81 39.28 38.84 39.37 40.15 41.05 41.95 42.91 43.70 44.49 44.59 43.82 43.60 43.22 43.16 42.81 43.24 42.88 40.91 40.07 39.52 39.16 38.27 37.29 36.63 36.22 37.20 38.77 38.67 38.90 38.99 39.28 40.02 41.10 40.25 39.55 39.44 38.13 38.06
36.21 34.15 34.13 33.85 29.77 22.27 22.88 27.90 36.41 36.18 37.84 37.39 38.61 40.58 40.28 40.49 41.85 42.68 43.34 43.87 43.80 43.87 43.37 43.01 42.54 42.20 42.10 40.40 38.51 37.92 38.99 38.69 36.41 35.62 36.02 36.21 38.16 38.68 39.00 39.57 39.15 39.13 38.90 38.82 38.19 37.85 37.37 36.10 35.22
37.59 35.24 34.40 26.12 27.15 27.52 25.69 27.70 38.05 38.94 38.95 39.70 39.76 41.22 41.83 42.30 42.36 43.01 43.41 43.68 43.33 43.40 43.92 43.28 42.54 42.16 41.26 38.55 38.15 37.32 37.10 35.89 34.30 34.52 35.61 37.27 38.03 38.92 37.76 39.04 38.32 37.69 36.84 36.25 34.85 33.72 33.56 32.55 31.64

GFSSGP_sfc_wetblb_024.txt.gz
Wetbulb
58.44 57.37 58.93 56.09 50.82 52.82 49.19 50.79 57.73 56.40 56.87 60.99 61.35 58.79 59.02 60.56 57.04 55.10 68.53 68.70 68.12 69.32 71.23 71.80 70.73 71.45 72.21 72.61 72.12 72.62 72.30 72.08 71.73 71.73 71.94 71.56 71.98 71.52 70.55 69.33 68.64 69.48 69.28 69.54 69.26 69.50 69.39 69.89 69.25
58.46 53.94 55.75 55.00 50.12 47.19 48.39 53.39 54.14 57.23 59.96 61.52 60.88 59.78 57.91 57.24 63.85 65.66 67.39 67.94 67.50 68.35 70.08 71.43 69.89 70.52 71.19 71.52 71.94 72.37 72.08 71.92 71.49 70.96 70.94 70.86 70.74 70.35 69.01 68.09 68.46 68.55 68.67 68.91 69.12 69.39 70.08 69.79 68.64
55.37 53.97 53.46 52.23 50.49 47.07 47.76 52.85 56.96 59.26 60.26 60.04 59.09 61.97 60.16 58.74 64.30 66.06 69.20 66.89 66.55 67.35 69.32 70.65 69.31 69.50 70.15 70.20 70.37 70.46 70.90 71.04 71.00 71.34 71.27 70.90 70.53 69.56 69.02 67.62 67.88 67.88 69.16 68.93 68.83 69.74 68.72 67.89 66.41
55.05 54.65 55.53 49.07 47.32 49.69 52.26 56.27 58.69 57.97 59.89 60.43 59.79 57.32 62.71 66.14 65.27 67.52 68.31 66.96 65.90 66.06 67.79 67.94 68.09 68.58 69.28 69.02 68.65 69.01 69.74 70.07 70.43 70.44 70.16 69.72 69.05 68.03 66.90 66.01 66.00 68.30 68.70 68.87 68.50 68.70 67.97 66.42 65.77
55.59 54.25 49.69 48.17 49.02 52.25 55.98 58.16 58.42 56.68 57.92 58.78 59.33 57.15 59.71 65.95 68.52 68.13 67.81 67.74 64.99 65.03 66.68 67.53 67.34 68.34 68.76 67.98 68.03 68.12 68.43 68.77 69.42 69.56 69.55 69.49 69.32 68.83 68.25 66.83 67.86 67.34 66.44 66.30 65.98 66.44 66.60 65.15 64.37
52.56 55.30 48.29 46.59 48.99 52.93 55.98 58.37 56.58 54.99 56.71 58.04 57.39 56.82 59.57 66.90 67.00 67.96 67.93 66.62 65.31 65.16 66.78 66.99 67.19 68.13 67.80 67.72 67.61 67.64 67.80 67.77 68.42 68.30 68.22 68.08 67.82 67.73 67.84 67.67 67.12 66.89 66.90 65.56 65.51 65.35 65.72 65.54 65.32
51.99 51.22 47.91 48.14 48.00 49.58 51.89 55.62 54.10 53.88 54.97 54.91 58.33 54.15 60.09 64.39 67.45 68.11 67.67 66.44 65.63 65.96 66.90 67.97 68.47 67.43 66.33 66.29 66.61 66.63 67.08 67.08 67.15 66.72 66.68 66.55 66.76 66.80 67.08 66.70 66.45 66.45 66.47 66.17 65.69 64.74 64.10 63.64 63.20
51.75 50.49 46.66 47.03 45.35 45.52 48.53 50.55 54.43 52.40 52.10 59.39 59.67 53.48 56.51 63.50 67.38 67.71 66.43 65.82 66.46 67.38 67.82 68.45 68.79 68.58 68.67 68.31 65.26 66.09 66.29 66.45 66.60 65.91 65.56 65.34 65.74 65.56 65.71 65.66 65.19 64.97 64.86 64.43 63.48 62.41 61.91 61.31 60.96
51.30 46.91 44.68 44.66 45.08 46.18 49.35 48.46 50.59 55.47 55.13 55.86 57.48 58.82 62.18 66.14 67.27 65.89 64.81 65.22 66.42 67.15 68.45 69.00 68.80 69.29 69.36 68.74 67.04 65.10 65.90 66.22 66.00 66.19 64.70 64.98 69.16 68.18 66.83 64.16 63.56 63.05 62.53 62.10 61.54 60.48 59.65 58.88 59.24
51.42 47.03 45.22 47.27 48.29 47.75 48.60 48.62 49.94 51.25 51.45 52.70 56.68 60.25 64.05 66.48 66.08 64.53 63.61 63.80 65.15 66.46 67.99 69.34 69.88 69.53 69.72 68.11 68.80 69.29 68.49 69.80 69.90 69.32 68.95 69.59 69.16 68.36 65.99 64.50 62.67 62.26 61.74 61.02 60.27 59.00 57.81 58.62 62.81
50.11 46.54 48.49 47.91 49.68 50.09 49.13 48.93 50.23 49.51 48.59 51.19 51.45 57.69 63.69 65.36 65.53 65.03 64.43 64.00 64.66 66.82 67.86 68.94 69.71 70.39 69.61 68.79 68.87 68.07 68.37 69.56 70.06 69.60 69.05 69.53 68.61 69.21 68.12 67.57 66.88 66.98 62.78 64.72 62.82 62.57 62.33 61.30 62.38
47.50 49.32 48.76 48.97 49.85 49.45 48.57 50.35 49.32 50.53 50.84 53.38 55.51 59.26 62.72 63.41 63.78 64.18 63.69 63.19 64.51 65.92 67.47 69.50 69.72 69.56 69.08 67.53 67.76 68.62 67.31 68.58 67.99 69.61 68.87 68.76 67.42 67.55 66.88 66.34 65.94 65.69 65.15 64.43 63.68 63.02 63.05 62.26 61.58
50.20 50.38 51.12 50.87 50.22 50.81 50.82 49.90 49.95 50.33 52.73 53.61 56.86 60.36 61.32 61.88 62.60 63.78 64.06 63.60 64.47 64.64 66.52 68.94 69.77 68.39 66.77 66.91 68.31 68.34 67.93 67.61 68.16 68.30 68.63 68.37 66.48 65.75 65.87 65.03 64.71 64.20 63.89 63.34 62.79 62.43 62.23 61.12 60.16
51.35 51.16 50.55 51.05 50.99 50.34 49.56 50.10 50.79 51.12 52.79 52.87 55.80 58.40 61.08 61.60 61.82 63.23 64.22 64.23 65.00 66.02 67.15 69.05 68.31 66.63 65.93 66.04 67.25 67.67 68.40 67.69 67.67 66.81 66.66 67.50 67.13 65.52 64.21 63.06 62.48 62.22 62.48 62.31 62.17 61.85 61.12 59.53 58.39
51.55 49.01 50.68 50.44 50.70 50.46 50.61 48.39 48.57 51.73 52.03 51.30 54.21 57.15 59.82 61.13 62.73 62.44 63.37 63.86 64.59 65.71 66.89 67.96 67.42 66.15 65.60 65.14 65.59 65.84 66.54 66.15 65.24 64.68 65.39 65.55 65.90 64.16 63.78 62.09 61.47 61.15 61.89 62.78 62.62 61.92 60.98 59.27 57.47
49.06 49.17 45.48 49.30 50.38 50.52 51.43 46.70 50.47 53.16 51.68 52.31 52.49 53.78 58.35 60.81 62.10 62.99 63.81 64.58 65.80 66.35 65.82 66.81 65.53 64.90 65.09 64.75 65.00 64.79 64.70 63.89 63.19 63.07 63.15 63.28 63.40 63.44 62.80 61.29 60.77 61.58 61.59 61.20 60.77 60.35 59.22 58.38 57.07
47.03 43.41 43.21 45.72 49.78 49.85 49.34 46.64 51.23 51.44 50.23 51.80 53.16 54.06 54.38 57.89 61.51 63.19 63.34 64.47 64.70 65.18 65.47 65.61 66.25 65.30 64.05 63.87 64.10 63.85 63.25 62.88 62.59 62.86 61.94 61.63 61.98 61.89 61.65 60.78 60.71 61.65 60.73 60.40 60.19 59.45 59.06 57.36 56.55
42.42 42.72 43.84 43.88 47.57 49.00 48.05 47.36 49.30 50.55 50.69 50.64 51.47 52.33 52.82 54.50 58.70 61.49 60.93 61.48 61.63 62.71 63.61 64.32 64.86 63.85 62.93 63.60 63.33 62.23 61.96 61.73 61.66 60.60 60.02 59.89 59.75 59.88 60.03 59.76 59.96 60.37 59.67 59.21 59.05 58.95 58.97 57.83 56.57
45.31 44.09 43.45 45.65 47.88 47.55 47.29 46.49 47.98 50.29 51.49 51.53 52.11 52.47 53.02 54.25 56.22 56.52 56.76 57.28 57.52 58.81 59.82 61.35 61.37 61.53 61.83 61.89 59.84 59.52 58.66 58.45 58.29 58.52 58.28 58.51 58.67 58.60 58.78 58.39 58.67 59.08 58.53 58.72 58.74 58.26 57.73 57.10 57.37
45.41 43.74 43.74 45.87 47.20 47.35 47.36 45.98 48.02 49.35 49.62 50.83 51.57 52.29 53.30 53.98 54.53 55.04 56.28 56.92 57.26 57.67 57.98 58.20 57.29 57.09 57.09 58.63 57.74 57.45 56.67 57.20 57.89 58.59 58.85 58.74 58.05 57.72 57.12 57.10 57.01 57.58 57.10 57.59 57.57 57.54 56.27 56.27 56.74
45.60 44.00 43.70 43.54 46.60 47.89 46.92 45.22 45.86 48.08 49.82 50.65 51.73 52.54 52.78 52.64 52.95 53.83 54.55 55.60 56.50 56.20 56.37 56.40 56.90 57.07 57.04 57.32 57.94 58.25 58.66 57.94 56.79 56.31 56.23 56.26 55.90 55.84 55.84 56.01 56.11 56.12 56.13 55.27 56.28 56.37 55.77 54.11 55.60
43.28 45.78 46.14 45.02 44.67 42.27 46.70 40.96 43.88 46.30 47.39 49.34 51.27 52.63 53.28 53.11 53.28 53.44 54.06 54.81 55.58 56.15 57.20 56.95 56.72 56.60 56.38 57.03 56.29 55.50 54.52 53.36 54.25 54.67 54.90 54.36 54.89 54.41 54.24 54.48 54.83 55.06 54.95 54.42 54.63 54.83 54.78 54.56 52.54
44.96 47.38 45.81 45.15 44.89 44.11 44.25 42.58 43.48 46.18 45.07 47.45 50.06 51.07 52.12 52.43 52.85 52.70 53.46 54.39 55.26 56.38 56.67 56.94 56.74 56.18 55.97 56.18 55.60 54.58 53.69 54.26 54.48 53.41 53.37 53.63 53.61 53.28 53.10 53.49 53.27 53.24 53.42 53.48 53.56 53.48 53.44 53.39 52.31
48.31 46.41 45.51 46.29 45.62 39.69 42.62 42.32 42.75 44.83 44.82 47.35 49.39 50.32 51.01 52.07 52.79 53.23 54.31 55.18 55.08 56.33 56.26 56.30 55.49 54.87 55.01 54.66 54.28 52.77 51.63 51.95 51.84 51.61 50.45 50.47 50.79 51.15 51.89 52.08 51.91 52.02 51.73 51.08 51.02 50.87 50.04 49.83 49.18
48.45 45.28 40.34 38.10 38.49 38.28 42.78 41.18 43.10 45.38 46.98 47.93 48.32 49.70 50.97 52.33 52.80 53.15 53.15 53.85 54.35 54.75 55.16 55.06 54.83 53.76 54.13 53.48 53.12 52.65 51.87 51.69 50.74 50.21 49.56 48.93 48.82 49.23 49.82 50.53 50.49 50.54 49.91 49.38 47.98 46.32 45.59 43.81 42.60
45.23 44.40 39.47 30.86 34.72 38.52 41.34 38.67 42.46 46.89 48.59 49.24 49.41 49.97 50.70 51.35 52.17 52.43 52.86 53.66 54.04 53.96 54.33 54.68 54.15 53.39 53.17 52.72 52.38 52.58 52.02 51.49 50.77 49.98 49.22 48.39 48.15 48.58 49.65 49.47 49.11 48.27 47.76 46.83 45.96 46.34 42.65 40.49 39.52
44.58 42.88 44.84 38.44 37.61 36.65 41.31 42.14 45.60 46.87 46.50 47.45 48.21 49.11 49.44 50.68 50.95 52.03 53.07 53.82 54.09 54.36 54.21 53.99 53.41 53.08 53.05 52.57 52.63 52.29 51.43 50.66 49.50 49.40 48.66 47.56 48.02 47.93 48.34 47.87 47.30 46.88 45.81 45.50 45.85 43.78 43.30 42.77 42.47
46.30 46.77 40.96 42.70 33.25 29.72 37.94 38.74 41.31 43.27 45.54 46.12 47.20 47.91 49.18 50.57 51.02 52.27 52.62 52.72 53.23 53.65 54.14 53.85 52.46 51.77 52.31 52.43 52.38 50.73 50.42 50.42 49.28 48.08 46.43 46.46 47.29 47.43 46.07 45.38 44.21 42.84 42.31 41.99 42.91 42.62 42.54 41.72 41.90
45.04 43.96 42.96 42.87 40.17 34.21 31.48 37.58 46.32 45.58 46.94 45.90 47.22 47.88 49.03 49.89 50.87 51.10 51.58 52.17 52.73 52.65 52.27 51.22 51.15 51.20 51.59 51.74 50.82 50.27 49.71 48.68 47.40 46.07 45.91 46.33 45.84 43.82 42.20 42.05 41.06 40.11 39.99 40.50 40.76 40.60 40.62 39.89 39.73
45.53 42.74 42.10 38.24 34.46 38.06 36.34 36.18 46.53 47.13 47.15 46.97 47.20 48.02 49.82 50.17 50.24 50.85 51.15 51.82 51.14 50.69 49.92 50.13 50.44 49.69 49.32 49.30 49.07 48.51 48.35 47.16 45.74 44.96 45.09 45.52 43.44 43.21 41.40 40.30 40.23 40.98 40.73 41.20 40.78 40.00 39.56 38.50 38.36

GFSSGP_sfc_wetblb_027.txt.gz
Wetbulb
62.25 59.32 59.94 57.56 51.07 52.96 51.43 53.24 57.29 56.16 57.19 61.46 60.71 60.08 58.93 61.46 59.81 56.14 69.09 68.96 70.60 71.21 71.88 71.65 71.31 72.47 72.61 72.53 72.57 72.63 72.42 72.12 72.15 72.10 71.78 71.28 71.23 70.86 69.74 68.86 69.25 69.59 69.30 69.31 69.47 69.76 70.59 70.07 69.44
60.36 56.54 56.99 55.00 49.87 48.52 50.35 54.74 54.22 57.19 59.56 60.68 59.68 58.58 57.84 58.53 65.29 66.20 65.85 68.17 69.88 70.74 71.82 71.46 70.36 71.01 71.34 71.72 72.05 72.37 72.08 71.69 71.58 71.28 70.74 70.79 70.62 69.71 69.03 68.62 68.37 68.88 69.44 69.59 69.96 70.33 69.72 69.20 68.12
60.00 56.70 53.52 51.74 51.64 49.50 49.80 54.31 56.10 57.86 59.46 58.99 57.77 61.10 60.29 60.16 65.30 66.67 67.45 67.55 68.13 69.15 71.13 70.35 69.51 69.81 70.52 70.80 70.93 71.26 71.21 71.29 71.45 71.77 71.20 70.93 70.15 69.42 68.80 68.00 68.02 68.03 69.37 68.92 68.92 69.45 68.07 66.92 66.32
55.95 54.74 54.85 49.94 49.78 51.57 52.84 55.83 57.35 57.33 58.93 59.26 58.24 57.34 63.36 66.32 65.71 67.57 67.36 66.94 67.14 68.50 69.33 68.11 68.27 68.91 69.33 69.01 69.26 70.06 70.30 70.36 70.77 70.82 70.25 69.75 69.20 68.23 67.31 66.87 68.32 68.66 68.12 69.30 69.01 68.56 67.26 65.93 65.59
55.99 54.92 50.30 49.61 50.04 53.22 56.28 57.35 57.69 56.45 56.90 57.25 57.16 56.08 60.61 66.25 68.50 68.20 67.87 66.31 65.41 65.85 66.97 67.75 67.72 68.75 68.85 68.10 67.90 68.14 68.75 69.51 69.74 69.79 69.64 69.61 69.34 68.90 68.53 67.84 67.95 67.15 67.21 66.57 66.43 67.16 66.03 65.05 64.64
52.35 55.24 49.03 47.34 49.80 53.97 56.28 57.67 56.13 55.75 56.20 55.36 55.51 57.36 61.06 67.26 67.04 67.71 67.95 65.69 64.76 65.07 66.10 66.05 67.24 68.38 68.28 67.87 67.73 67.95 68.02 68.16 68.40 68.43 68.42 68.06 67.98 68.04 67.82 67.58 67.46 67.29 66.59 66.24 65.92 65.87 65.77 65.60 65.07
51.54 52.26 49.42 49.43 49.76 51.58 54.10 56.37 54.03 54.01 53.81 54.29 56.36 54.74 61.26 64.35 67.05 67.23 66.21 65.13 64.73 65.62 66.17 67.04 67.74 67.11 67.24 66.89 66.97 67.16 67.30 67.21 66.95 66.59 66.53 66.56 66.79 66.94 66.93 66.70 66.66 66.33 65.94 65.63 65.08 64.41 63.97 63.50 63.22
53.86 53.00 48.81 49.31 48.03 47.97 51.13 53.38 54.60 52.79 53.58 57.41 58.83 53.08 57.10 63.93 66.61 66.38 65.12 64.53 64.78 66.05 66.83 67.45 68.15 68.57 69.05 68.15 66.13 66.60 66.79 66.90 66.61 65.80 65.51 65.88 65.93 66.03 65.93 65.94 65.34 65.18 64.94 64.26 63.51 62.60 61.93 61.38 60.82
54.39 48.32 45.89 46.24 46.63 46.72 50.16 49.09 51.41 54.41 52.99 54.52 56.14 59.25 61.70 65.58 66.12 64.68 63.57 63.82 65.02 66.04 67.41 68.28 68.01 68.49 68.17 67.46 66.91 65.69 66.42 66.76 66.22 66.09 65.24 65.52 68.30 67.72 67.12 64.39 64.03 63.20 62.49 62.08 61.51 60.83 60.37 60.52 61.09
51.41 48.73 46.89 49.02 49.45 48.61 49.54 49.76 50.60 52.08 51.41 52.87 55.22 58.73 63.81 64.91 64.30 62.65 61.97 62.35 63.85 65.09 66.69 68.02 68.78 68.78 68.60 66.57 67.59 67.83 67.20 68.53 68.17 68.01 67.82 67.81 67.66 67.55 65.31 65.25 63.40 63.32 62.98 62.64 61.88 61.10 60.50 60.27 62.53
51.13 47.69 48.99 48.74 50.03 50.59 49.24 48.95 50.82 50.11 49.61 52.37 53.19 56.37 61.67 63.09 63.25 62.56 62.17 62.54 63.43 65.50 66.08 67.03 69.12 68.89 68.16 66.94 66.80 66.96 67.30 67.60 67.95 68.35 67.86 67.90 67.18 67.73 66.84 66.80 66.27 66.67 63.48 65.23 62.95 63.22 62.62 62.20 62.12
47.95 49.36 49.33 49.66 50.17 50.11 49.28 51.15 49.47 50.91 51.65 54.30 55.72 58.54 60.62 61.09 61.75 62.44 62.59 62.59 62.79 64.84 65.50 66.95 68.75 68.60 67.78 66.54 65.98 65.93 65.96 67.04 66.53 67.95 67.87 67.14 65.93 66.19 65.95 64.90 64.85 64.91 64.37 64.14 63.93 63.08 62.89 63.19 62.51
49.06 49.34 50.09 50.81 50.99 51.44 51.65 50.14 49.75 50.66 53.50 54.28 56.28 58.45 60.09 61.38 61.91 62.81 63.37 63.15 63.68 63.56 64.49 66.71 69.07 69.45 66.30 65.96 66.04 66.73 66.49 66.72 67.26 67.14 66.98 66.79 65.06 65.19 64.68 64.35 63.64 63.46 63.15 62.77 62.41 62.24 61.72 62.08 61.52
52.01 51.93 51.91 52.22 51.85 51.82 50.78 50.76 51.70 52.37 54.15 53.74 55.16 57.12 59.44 59.94 61.06 61.99 62.44 62.49 62.69 63.51 64.83 66.47 68.67 69.35 65.90 65.13 66.14 65.89 66.98 66.41 66.33 66.48 65.67 65.47 65.34 64.63 63.69 62.94 62.30 61.90 61.82 61.85 61.55 60.90 60.79 60.54 59.96
52.70 49.75 51.36 51.95 52.54 51.68 52.73 49.18 49.51 52.98 53.55 53.20 54.76 56.14 58.53 59.67 60.65 61.26 62.96 63.30 63.36 63.76 65.04 66.45 68.53 68.90 66.59 65.20 65.20 64.93 65.12 64.33 64.45 64.39 64.46 64.34 64.20 63.72 63.26 62.16 61.52 61.46 61.72 63.36 61.78 61.55 61.22 60.48 59.93
50.14 50.88 47.29 50.77 51.63 52.17 52.34 47.99 51.20 53.96 53.31 53.13 53.92 55.81 57.20 59.27 60.19 61.52 62.41 62.77 63.73 64.14 64.47 66.04 67.03 67.31 67.34 64.84 65.17 64.61 64.44 63.74 62.95 63.24 63.57 62.97 62.96 63.28 62.81 61.45 61.30 61.91 62.17 61.16 60.66 60.16 59.31 59.17 58.80
48.82 45.62 45.37 47.56 51.09 50.82 50.35 48.70 52.66 53.60 53.09 52.84 53.87 54.52 55.50 57.95 60.29 61.75 62.88 63.63 63.90 64.42 64.78 65.36 66.85 67.09 66.76 65.04 64.49 64.51 63.67 63.04 62.72 63.34 62.25 61.99 62.01 61.88 61.61 60.90 60.90 62.22 60.61 60.78 60.75 60.31 60.75 58.85 58.64
44.44 44.05 44.96 45.33 49.19 49.34 48.53 48.81 51.04 52.72 52.83 53.10 54.14 54.72 55.23 55.63 58.69 62.15 63.23 62.75 62.83 63.87 64.45 65.21 65.79 66.01 65.50 64.88 64.35 62.62 62.35 61.98 62.11 60.99 60.27 60.50 60.21 60.32 60.20 59.93 60.27 60.69 59.67 60.09 60.65 61.03 60.04 59.69 59.33
46.49 45.11 44.81 47.26 49.32 48.26 48.21 48.34 49.64 51.91 52.99 52.93 53.57 54.21 54.90 56.76 59.52 59.39 59.64 60.40 60.38 61.16 61.20 63.53 63.82 63.84 63.14 62.85 60.91 60.03 59.50 59.80 59.45 59.56 59.98 60.23 59.93 59.65 59.41 58.70 58.59 59.46 58.38 59.50 60.51 59.99 59.28 58.92 60.10
46.87 45.90 45.79 47.60 48.89 48.31 48.73 47.70 49.70 51.13 51.69 53.06 53.34 53.88 54.39 55.00 55.87 56.97 58.17 58.95 59.22 59.26 59.98 60.11 59.97 59.53 59.44 59.55 58.83 59.14 58.85 59.11 59.43 60.01 59.33 59.32 58.69 58.01 57.09 56.93 56.38 56.58 56.21 57.49 58.32 58.51 57.28 57.94 59.19
47.46 45.98 46.16 45.74 48.43 49.62 48.70 46.64 47.57 50.04 51.68 52.65 53.32 53.85 54.28 54.32 54.50 55.75 56.84 57.89 58.57 58.37 58.55 58.37 58.50 58.60 58.67 58.99 59.42 58.69 58.78 58.76 57.61 57.82 58.01 57.84 57.57 56.53 56.25 55.77 55.13 55.70 56.18 55.15 56.80 56.73 55.99 54.19 56.33
45.49 48.08 47.56 46.93 45.98 43.59 49.29 42.07 46.69 48.50 49.01 51.37 52.86 53.93 54.13 54.26 54.82 55.62 56.06 56.64 57.40 58.04 58.78 58.63 58.29 57.99 58.00 58.61 57.78 57.56 56.63 55.74 57.10 56.96 56.48 56.59 56.59 55.42 54.67 54.06 54.13 54.15 54.06 54.39 54.80 54.39 55.52 54.67 52.38
47.06 49.61 48.03 47.70 46.62 46.27 46.32 43.07 45.92 48.62 47.22 49.29 51.40 52.64 53.90 54.93 55.19 55.23 55.56 56.49 57.37 57.89 58.18 58.49 57.88 57.35 57.37 57.57 57.21 56.58 55.52 55.31 55.06 55.16 54.61 53.86 53.74 53.47 52.69 53.14 53.20 53.34 52.92 53.59 53.34 52.98 52.41 52.13 51.26
50.38 49.19 48.85 48.57 47.34 40.84 44.94 44.29 44.13 46.43 48.22 49.21 50.97 51.88 53.35 54.28 54.82 55.40 56.17 56.57 56.84 58.21 58.04 58.04 57.12 56.86 56.84 56.71 56.16 55.13 54.00 53.11 52.23 52.21 51.36 51.55 51.73 51.71 52.01 51.45 51.63 51.69 51.63 51.84 51.23 50.71 49.20 48.33 47.98
50.14 47.34 41.68 39.60 40.15 39.27 46.12 42.99 45.50 48.38 49.68 50.39 50.05 51.25 52.94 54.06 54.31 54.37 54.63 55.27 55.64 56.05 56.83 57.11 56.78 56.05 56.49 55.85 55.14 54.60 53.72 52.82 51.99 51.55 51.04 50.29 49.62 49.03 49.55 50.22 50.36 50.47 50.59 48.97 48.09 47.34 45.98 45.40 43.59
46.91 46.32 41.38 32.95 36.23 39.89 44.46 39.70 45.11 49.92 50.79 50.97 51.41 51.81 52.48 52.82 53.90 53.71 54.10 55.00 55.79 56.06 56.65 56.67 55.88 54.85 54.98 54.94 54.39 54.26 53.94 52.73 52.26 51.88 50.79 49.41 48.27 48.10 49.39 49.64 49.01 48.06 46.03 45.65 45.81 44.86 44.20 43.35 41.14
46.85 45.28 47.21 41.77 41.78 37.90 41.60 45.19 48.05 49.43 49.20 49.85 50.24 50.99 51.55 52.19 52.58 53.31 54.30 54.95 54.87 54.75 55.00 55.47 54.69 53.67 53.59 53.90 54.13 53.73 53.15 52.04 51.44 51.19 50.19 48.43 48.12 47.85 48.90 46.23 43.57 42.72 43.14 43.38 42.49 42.78 42.86 43.20 43.11
47.46 48.89 42.57 44.31 33.03 31.69 39.29 40.81 42.47 45.28 47.09 48.90 49.56 50.18 51.14 51.96 52.70 53.50 53.70 53.68 54.01 54.31 54.37 54.45 53.56 52.64 53.07 53.22 52.27 51.58 51.30 51.28 50.66 49.73 47.79 47.30 47.71 46.98 45.40 43.09 42.72 42.52 41.55 41.78 42.34 41.49 41.68 40.67 41.28
46.12 45.91 44.73 44.52 41.72 35.07 33.38 38.58 47.76 46.77 48.55 48.99 49.40 50.07 51.30 51.97 52.58 52.86 53.02 53.67 53.55 53.54 53.40 52.52 52.29 51.81 50.76 50.04 49.52 49.53 49.43 49.61 49.15 47.51 47.11 46.75 45.62 44.35 44.36 44.14 42.74 41.55 42.32 42.37 42.30 42.09 41.59 40.42 39.88
47.41 45.27 44.80 39.18 36.91 40.07 38.04 37.57 48.47 48.12 49.16 49.14 49.06 50.31 51.42 52.11 51.94 51.09 51.50 51.97 51.61 51.72 51.25 50.80 50.26 48.40 47.73 47.57 47.39 47.42 48.15 48.03 47.36 46.40 44.26 45.26 44.77 45.02 44.19 43.51 43.18 42.73 42.68 41.85 41.07 40.52 39.65 39.10 38.53

GFSSGP_sfc_wetblb_030.txt.gz
Wetbulb
60.08 57.50 57.75 55.86 48.52 48.90 47.09 52.41 57.00 55.51 56.36 59.20 60.08 58.46 58.38 60.56 59.29 54.19 67.12 69.58 71.01 69.63 70.66 71.23 71.77 72.65 72.59 72.79 72.86 72.55 72.32 72.74 72.67 72.42 72.24 72.18 71.84 70.50 70.01 70.16 70.55 70.56 70.02 70.12 70.68 70.60 70.58 69.94 69.02
57.38 57.84 57.02 52.23 46.00 44.35 49.65 54.45 53.97 55.92 57.63 57.72 59.06 57.76 59.19 57.80 63.79 63.38 64.66 69.46 70.19 70.82 70.15 70.51 70.75 71.44 71.88 72.10 72.51 72.47 72.35 72.43 72.21 72.04 71.85 71.59 70.87 70.09 69.21 69.01 69.34 69.04 69.69 69.57 70.28 69.96 69.56 68.87 67.52
59.13 57.03 50.67 48.62 46.81 43.94 48.85 54.47 55.25 56.44 58.06 57.36 57.08 61.12 60.21 59.92 63.85 63.39 66.80 68.68 69.88 69.87 69.40 69.11 69.39 70.03 71.04 71.33 71.47 71.83 71.66 71.94 71.97 72.00 71.66 70.94 70.23 69.84 68.99 68.35 69.16 69.29 69.06 69.14 69.58 68.77 67.37 66.57 66.23
55.59 53.86 50.88 46.45 46.56 51.80 52.77 55.04 55.70 55.72 57.70 58.35 58.41 56.85 62.03 65.30 64.05 64.80 66.19 67.27 68.31 68.16 68.17 67.35 68.10 68.75 69.55 70.08 70.41 70.60 70.54 70.76 70.87 70.75 70.49 69.98 69.45 68.84 67.87 69.49 68.66 68.03 68.01 68.80 68.73 67.90 66.68 65.94 65.87
55.66 52.47 46.46 47.38 49.65 53.10 55.34 56.05 56.08 54.92 55.49 55.88 57.24 57.16 59.53 64.71 65.46 65.30 64.95 65.97 65.59 66.30 66.37 66.31 67.44 68.48 68.99 68.91 68.32 69.09 69.61 69.92 70.03 69.96 69.82 69.33 68.98 68.92 68.70 68.25 67.65 67.55 66.80 66.52 66.55 66.27 65.74 65.35 65.56
49.60 51.75 45.95 46.05 49.31 53.00 55.10 56.52 56.09 55.91 55.85 54.41 56.20 58.23 59.99 65.59 65.23 65.79 64.68 64.29 64.24 64.39 64.33 65.31 67.66 68.29 68.27 68.37 68.34 68.15 68.32 68.48 68.59 68.67 68.41 68.05 68.04 67.86 67.72 67.46 67.42 67.15 66.80 66.41 66.26 65.92 65.59 65.17 64.90
48.75 47.63 46.22 48.88 49.19 51.12 53.80 56.31 53.47 53.59 53.26 53.20 55.64 55.65 60.69 63.53 65.53 65.77 63.70 63.25 63.76 64.10 64.16 64.94 65.28 66.41 66.96 66.86 67.16 67.05 67.18 67.00 67.20 67.24 67.20 67.18 67.32 67.26 67.04 66.95 66.63 66.12 65.81 65.53 65.05 64.42 63.82 63.18 63.20
51.22 49.44 47.89 49.37 48.05 48.22 52.01 53.38 54.35 53.13 52.63 55.53 58.12 54.42 56.41 62.91 65.24 64.33 63.02 62.71 63.28 64.37 64.84 65.72 65.54 66.07 65.98 65.65 66.16 66.26 66.30 66.18 66.00 65.97 65.71 65.94 66.10 66.52 66.59 66.12 65.66 64.99 64.60 64.18 63.48 62.54 62.28 62.13 62.17
53.69 48.97 46.64 47.16 47.83 47.00 50.19 49.27 51.68 54.30 51.94 54.13 57.89 57.81 62.37 64.35 64.67 62.56 61.40 61.71 62.88 64.16 66.40 66.68 66.67 67.65 67.71 66.25 65.94 65.98 66.40 66.08 65.81 65.55 65.24 64.40 66.06 65.61 66.16 64.23 64.63 63.90 63.17 62.75 62.15 61.70 61.66 61.71 62.02
49.93 47.31 46.04 49.00 49.10 47.50 48.97 48.84 50.09 51.62 50.66 52.18 55.64 61.73 63.42 63.40 62.62 60.68 60.17 60.56 62.06 63.81 65.05 66.94 67.24 67.59 67.16 64.98 65.22 66.25 66.64 66.18 66.07 66.16 65.76 66.30 65.42 65.14 64.67 64.70 64.11 64.19 63.86 63.73 63.36 62.99 62.36 61.52 58.79
50.40 46.30 48.52 48.65 49.73 49.75 48.59 48.53 51.41 50.13 48.71 52.44 52.24 58.39 61.20 61.94 61.36 60.61 60.57 61.25 62.47 64.33 65.31 65.94 68.11 67.97 67.28 66.01 65.34 65.89 65.99 66.32 66.91 66.50 66.06 66.19 65.37 65.57 64.96 63.61 62.81 62.91 63.83 62.97 62.58 61.41 60.26 60.49 59.64
47.37 48.80 48.57 49.03 50.13 49.51 48.09 49.40 48.75 50.48 51.04 53.96 55.69 57.31 60.72 60.27 60.55 60.64 60.52 60.95 62.04 63.56 64.66 66.17 67.41 67.41 66.39 64.94 64.96 65.11 64.40 66.14 65.08 66.46 66.14 65.53 64.30 64.16 63.02 62.59 61.93 61.82 61.93 61.68 60.09 59.75 60.49 59.59 60.54
47.73 47.70 49.08 49.75 50.06 51.13 50.91 49.12 49.29 49.99 52.41 54.39 56.56 57.77 59.22 59.58 60.10 61.34 62.39 62.68 62.51 63.32 63.88 65.64 67.32 67.44 66.21 64.46 65.18 65.35 64.74 65.66 65.23 64.97 65.69 64.83 63.07 63.20 62.66 61.71 61.04 60.44 59.84 59.01 58.80 58.03 58.38 58.59 59.12
50.32 49.93 50.01 50.70 50.98 50.74 49.20 50.02 50.60 51.17 53.07 52.79 54.87 56.61 58.72 59.90 60.58 61.47 62.03 61.73 62.19 63.00 63.92 66.56 67.46 68.30 65.27 64.04 64.33 64.29 65.27 65.09 65.01 64.10 63.82 63.53 63.08 62.35 61.51 60.64 59.78 59.26 59.15 58.64 57.81 57.43 57.92 57.30 57.82
51.46 48.70 50.23 50.82 51.40 50.83 51.22 48.23 48.24 52.42 53.43 52.70 53.55 54.93 57.76 58.94 60.19 60.52 61.62 61.69 62.11 63.19 64.57 65.61 67.22 68.16 65.62 64.36 64.20 63.32 63.36 62.22 62.22 62.49 62.42 62.26 61.94 61.52 60.81 60.01 59.47 58.88 59.43 59.09 58.61 58.35 57.54 57.31 57.46
48.49 49.71 45.88 50.08 51.24 51.73 50.76 46.10 49.75 53.05 52.62 51.84 52.93 54.51 55.85 58.55 59.20 60.82 62.30 62.85 63.16 63.26 63.45 65.33 66.11 67.36 66.66 65.33 63.86 62.96 62.59 62.01 61.34 60.87 61.02 61.06 61.17 60.75 59.94 59.42 59.10 59.80 59.23 58.58 57.86 57.36 56.37 55.91 55.63
48.19 44.19 46.06 47.50 51.04 50.88 49.80 47.53 51.45 53.89 52.87 52.01 52.83 53.92 55.25 56.70 58.99 60.58 61.53 62.37 63.28 64.20 64.23 64.31 65.37 66.08 66.35 65.49 63.28 62.98 62.22 61.21 61.34 61.17 60.33 60.88 60.07 60.33 58.80 57.92 58.51 59.18 57.85 57.44 57.33 56.05 55.93 54.74 54.79
43.57 43.95 44.90 44.86 48.51 48.45 47.80 47.80 50.77 52.33 52.32 52.50 53.31 54.74 54.47 55.19 58.44 60.83 60.71 61.63 61.92 62.91 63.86 64.01 64.81 65.85 65.63 63.99 62.85 61.57 60.74 60.64 60.92 59.89 58.74 58.94 58.14 59.05 57.89 57.02 57.22 58.02 56.57 56.00 55.91 55.72 56.10 55.38 55.07
46.39 45.26 44.33 46.95 49.26 47.10 46.97 47.82 49.48 51.67 52.27 52.73 53.00 53.98 55.06 55.56 57.07 58.29 59.15 60.14 60.30 61.75 62.00 62.20 61.48 61.88 61.33 61.29 59.55 58.16 57.30 57.44 57.73 58.06 58.65 58.42 58.32 57.39 56.30 55.73 55.35 54.99 54.06 54.05 54.26 53.52 52.78 53.27 54.46
46.31 45.33 45.58 47.84 48.98 47.35 48.09 47.39 49.51 50.96 51.59 52.56 52.85 53.34 53.61 54.36 55.32 56.69 57.41 58.09 58.15 58.52 59.06 59.00 58.41 58.36 58.07 57.75 57.61 57.23 56.95 57.40 57.42 58.14 57.03 58.02 57.68 56.41 55.34 54.43 53.50 53.30 52.11 51.74 51.68 51.77 51.63 51.61 52.19
47.04 45.47 46.40 45.27 48.17 49.19 47.17 46.06 47.15 49.92 51.32 52.30 52.89 53.67 53.90 53.82 54.07 55.49 56.25 56.88 57.48 57.35 57.82 57.52 57.77 57.76 57.58 57.68 57.49 57.02 57.34 57.03 55.67 56.30 56.23 55.89 56.35 55.83 54.88 53.31 52.12 51.80 51.49 50.18 49.77 49.87 49.38 48.62 49.79
44.34 49.13 47.68 46.15 45.09 41.14 48.17 39.54 45.30 47.61 48.49 50.79 52.24 53.20 52.95 53.42 54.66 55.12 55.69 56.15 56.78 57.28 58.24 57.88 57.89 57.30 57.04 57.56 56.36 55.98 54.65 53.41 53.78 53.80 54.25 53.78 53.67 53.04 51.87 51.50 51.05 50.36 50.51 49.49 49.17 50.50 49.03 48.18 46.60
46.58 49.52 47.46 47.12 45.03 44.73 44.83 42.22 45.09 47.80 46.22 48.93 50.96 52.20 53.34 54.30 54.49 54.40 55.09 55.74 56.38 57.70 57.47 57.49 57.45 57.13 56.85 56.45 55.80 54.17 53.01 52.60 52.59 52.01 51.55 51.12 51.65 51.28 51.05 49.50 48.94 48.86 48.84 48.49 48.75 47.71 46.18 46.33 44.69
50.07 48.78 48.63 48.17 45.84 39.48 44.41 43.20 42.07 44.76 47.15 48.99 50.61 51.87 52.85 53.34 54.10 54.82 55.75 56.51 56.35 57.91 57.54 57.50 56.85 56.34 56.82 55.62 54.99 53.81 52.40 51.51 50.12 50.18 49.44 49.53 49.41 48.97 48.45 48.69 47.95 48.21 47.89 46.60 46.19 45.65 45.65 44.63 43.57
49.38 46.13 40.74 38.93 39.07 38.06 46.19 43.23 44.31 48.37 50.34 50.51 50.06 51.15 52.79 53.88 54.13 54.44 54.23 54.64 55.68 56.15 56.65 56.50 56.10 54.87 54.80 54.60 54.38 53.69 52.45 51.65 50.39 49.85 49.19 48.46 47.17 46.13 45.87 47.22 46.47 45.46 45.20 44.94 44.82 44.74 43.70 43.56 41.76
46.98 45.53 41.68 32.57 34.96 38.31 45.26 39.53 43.27 49.81 50.92 51.43 52.01 52.00 52.64 53.23 54.13 54.39 54.33 54.68 54.75 54.99 54.92 54.88 54.55 53.40 53.06 52.84 53.10 53.27 52.65 51.17 50.32 50.15 48.43 46.98 45.71 45.26 45.74 45.51 44.21 43.65 43.85 43.57 43.38 42.94 42.93 42.94 42.07
45.91 44.17 46.81 40.56 43.31 38.14 40.29 44.43 48.09 49.18 48.70 49.72 50.36 51.32 51.48 52.20 53.49 53.42 54.11 54.30 53.94 53.73 53.91 53.82 52.97 52.33 52.25 52.20 51.93 51.07 50.97 49.85 49.19 49.31 47.75 46.03 45.91 46.22 44.96 43.62 42.83 42.16 41.95 42.57 42.24 41.59 40.71 41.01 40.61
47.19 47.75 41.30 44.17 33.03 31.51 37.75 39.56 40.42 44.87 46.56 48.78 49.32 50.14 51.24 52.38 53.21 53.66 53.60 53.88 54.00 53.95 53.53 53.62 51.91 51.11 50.99 49.72 48.33 47.20 47.69 47.95 47.72 47.52 45.79 45.15 44.53 44.52 43.62 43.06 42.38 41.82 41.16 40.94 40.57 41.04 40.97 40.54 39.03
45.08 44.04 44.79 43.75 41.48 34.38 32.29 36.86 46.35 45.86 48.15 48.46 49.63 50.31 51.04 51.60 52.09 52.62 52.34 52.82 53.27 53.01 52.21 50.98 50.46 49.26 47.28 46.31 46.21 46.07 46.42 46.70 46.68 45.79 44.48 43.97 43.88 43.85 42.95 43.40 41.60 41.91 42.06 41.32 39.96 39.43 39.49 38.97 38.80
46.79 44.63 44.31 39.68 36.54 39.68 38.11 37.09 48.18 47.83 49.04 49.32 49.03 50.11 51.32 52.18 52.01 52.15 52.23 51.89 51.40 50.64 49.73 49.30 48.43 45.91 45.49 45.57 45.53 45.56 46.12 45.74 44.82 44.29 44.08 44.20 42.93 43.49 43.21 42.76 42.48 42.12 41.07 40.62 39.25 38.26 37.88 36.95 36.01

GFSSGP_sfc_wetblb_033.txt.gz
Wetbulb
56.74 53.93 53.10 51.28 43.86 43.07 40.16 45.92 53.34 52.94 51.96 57.95 60.23 58.69 57.11 57.86 55.69 53.12 67.02 68.61 68.76 69.39 70.57 71.24 71.23 72.18 72.44 72.60 72.27 72.53 72.81 72.94 72.67 72.58 72.30 71.76 70.94 70.80 70.38 69.99 70.42 70.98 70.46 70.88 70.82 70.50 70.22 69.60 68.50
57.03 56.07 53.37 47.65 40.81 37.72 42.47 51.79 50.28 51.08 54.41 58.85 59.41 59.52 56.72 55.21 61.29 62.21 64.83 68.38 69.14 69.30 69.82 70.39 70.65 71.25 71.81 71.90 71.95 71.97 72.46 72.26 72.06 72.25 71.88 71.37 70.62 69.90 69.34 69.14 69.85 70.25 69.79 69.79 70.06 69.61 68.72 68.01 67.29
56.86 55.68 46.31 42.96 40.55 38.44 44.67 50.65 50.77 52.65 55.41 56.57 55.98 59.02 59.12 56.50 60.63 61.85 67.93 68.49 67.93 67.45 68.26 69.03 69.28 70.17 71.07 71.28 71.38 71.49 71.60 71.60 71.48 71.54 71.50 70.83 70.14 69.34 68.82 69.53 69.56 69.09 69.66 69.98 69.73 68.44 67.29 66.46 66.35
53.67 49.72 45.88 40.49 39.68 45.25 49.77 51.11 52.51 53.33 55.11 58.40 57.56 55.48 58.75 61.88 60.54 63.21 67.79 67.55 66.20 65.32 65.58 67.07 67.82 69.00 70.16 70.65 70.77 70.64 70.71 70.47 70.35 70.38 70.61 70.06 69.65 68.86 69.17 68.41 68.23 67.94 67.93 68.55 68.65 67.43 66.48 65.75 65.54
51.95 47.33 40.62 40.01 46.80 50.96 52.30 53.23 53.71 52.12 52.25 57.54 59.00 55.89 55.84 60.25 62.18 63.31 64.90 65.89 64.10 63.31 64.23 65.51 66.93 68.22 68.77 69.02 68.93 69.49 69.71 69.62 69.78 69.70 69.59 69.14 68.84 68.72 68.25 67.92 67.53 67.04 66.80 66.57 66.23 65.93 65.64 65.66 65.69
46.25 45.96 39.25 38.05 46.46 50.25 51.32 52.75 54.83 53.12 52.45 57.88 57.49 57.30 56.75 61.22 60.40 60.41 63.88 63.50 64.10 62.15 63.30 65.28 67.61 67.67 67.91 67.92 67.96 67.75 67.91 68.16 68.23 68.47 68.55 68.04 67.96 67.96 67.64 67.29 67.05 66.82 66.69 66.16 65.81 65.33 64.91 64.82 64.71
44.60 42.63 39.38 41.33 46.48 48.76 50.91 52.41 50.55 49.92 49.44 51.77 58.93 54.63 57.82 60.09 61.07 59.89 61.03 62.05 61.76 61.72 62.27 62.92 64.76 66.31 66.55 66.13 66.04 66.13 66.37 66.48 66.75 66.66 66.84 66.90 66.82 66.96 67.27 66.90 66.44 66.05 65.74 65.24 64.44 63.61 63.33 63.15 63.21
46.68 43.88 40.34 42.76 44.78 43.46 49.41 48.76 49.67 50.53 47.58 53.46 57.88 53.21 54.29 59.09 61.22 58.45 59.74 60.76 60.40 61.19 62.12 61.55 62.61 63.57 63.39 63.96 65.43 65.27 65.24 65.20 65.21 65.47 65.46 65.35 65.80 66.07 66.29 65.95 66.13 65.71 65.34 64.63 63.88 63.25 62.88 62.75 62.72
48.29 40.59 40.52 42.73 43.04 43.30 45.85 44.99 48.53 49.93 50.62 55.49 55.93 58.27 59.99 61.02 59.48 57.34 56.37 57.18 58.92 60.99 61.85 62.17 61.79 62.67 62.59 62.86 64.95 65.27 65.62 65.11 64.67 64.86 64.78 63.93 63.57 64.88 64.99 64.65 65.06 65.11 64.36 63.72 63.12 62.62 62.16 61.56 61.39
44.65 40.66 41.57 44.90 44.66 42.83 43.22 45.48 46.56 47.08 48.52 53.42 57.31 60.28 60.75 60.31 57.49 56.37 55.85 56.47 58.17 59.92 61.89 62.33 62.36 62.96 63.22 64.80 63.40 62.98 64.59 64.08 63.71 63.42 63.18 63.14 63.22 63.64 64.28 63.20 63.94 64.12 63.82 63.54 63.45 63.19 62.54 61.78 58.19
43.45 40.89 44.00 45.09 45.59 45.73 44.19 45.12 48.46 45.93 45.39 52.02 55.42 57.34 58.35 57.99 56.91 56.38 56.80 57.99 59.50 60.50 61.79 63.35 62.53 62.24 61.82 62.38 61.91 62.95 63.16 63.36 63.52 63.59 62.34 62.87 61.71 62.33 61.50 61.01 61.11 60.52 62.40 61.09 61.81 60.98 60.24 58.95 57.41
42.40 44.95 45.94 45.96 46.75 45.47 43.96 44.09 45.21 45.86 47.45 52.55 58.41 58.91 58.03 57.34 57.04 57.08 56.56 57.35 58.78 59.87 61.79 62.72 62.64 61.95 60.19 59.60 59.86 60.87 61.19 61.83 62.30 63.64 62.19 60.51 59.89 59.64 58.69 60.67 60.57 60.22 60.89 60.08 60.15 58.88 58.82 57.69 57.84
43.35 44.27 45.95 46.70 47.61 47.36 47.77 44.83 45.80 46.23 49.53 53.20 58.02 58.81 58.09 58.07 57.05 57.98 57.74 59.02 59.16 59.69 61.70 62.13 62.03 61.70 60.37 58.98 59.48 59.78 59.91 61.08 60.91 61.82 61.59 60.08 58.92 58.06 58.25 57.41 57.51 56.63 56.29 55.62 55.39 55.08 55.64 55.56 55.90
46.07 45.64 45.41 44.81 47.20 47.17 46.32 46.43 45.99 45.40 49.08 51.95 54.34 55.84 55.97 57.39 57.23 56.76 56.82 58.91 59.99 60.31 62.21 62.45 62.06 61.63 59.92 59.63 58.79 58.99 59.32 60.66 59.80 60.54 60.14 60.48 59.35 57.68 57.49 56.58 56.59 56.15 55.60 55.37 54.80 54.02 54.32 54.60 55.19
48.45 44.64 45.94 46.39 46.93 45.60 46.12 43.18 44.36 47.26 48.34 49.95 51.75 53.95 54.95 56.87 56.62 57.01 57.14 56.67 57.71 59.49 61.90 62.73 63.51 61.12 59.10 58.96 59.22 58.42 60.67 57.65 57.54 58.67 58.48 59.03 58.60 57.18 56.84 55.91 55.77 56.06 56.50 55.64 55.03 54.79 54.81 54.21 55.18
45.15 44.07 40.33 45.68 47.66 47.93 46.52 39.95 45.07 48.06 48.51 47.32 48.58 49.75 52.21 55.09 56.54 56.51 57.14 57.20 57.13 58.79 61.25 62.98 66.19 62.37 60.52 58.81 58.35 58.07 57.71 56.92 56.29 56.18 57.49 57.88 58.06 57.27 56.06 55.47 54.71 55.99 56.11 55.30 54.65 54.54 53.91 53.49 53.31
41.78 37.70 40.86 43.29 47.78 46.69 44.67 42.40 45.42 48.08 48.99 47.19 46.67 47.81 49.65 51.86 54.94 57.06 56.94 58.70 58.56 60.19 61.77 61.08 63.47 62.53 63.55 60.99 59.34 57.50 57.09 56.46 55.86 56.36 55.81 56.34 56.59 56.65 54.60 53.91 53.93 54.35 54.48 54.32 54.17 54.11 52.93 52.78 52.76
38.52 39.25 42.85 40.90 42.88 43.46 41.65 41.96 45.43 47.60 47.58 45.81 47.63 48.92 51.88 52.24 53.21 55.77 56.38 57.21 57.66 58.56 59.22 58.79 59.72 59.28 59.91 59.27 58.19 57.54 55.50 55.23 55.28 54.27 54.41 54.94 55.05 55.42 53.63 53.11 52.83 53.39 51.86 51.15 51.14 50.45 50.78 51.19 51.55
42.87 41.69 40.27 41.50 44.99 42.35 40.96 41.77 44.64 45.95 46.55 48.13 48.95 49.79 50.37 51.25 53.44 54.53 54.82 55.19 55.62 55.63 55.79 55.03 54.79 54.97 54.67 53.63 52.18 51.88 51.45 52.29 52.69 53.60 54.49 54.55 54.23 54.14 52.71 51.94 51.26 50.80 50.29 49.09 49.35 48.98 48.75 48.86 49.67
43.78 42.38 41.57 43.17 45.98 43.32 41.10 40.68 44.48 47.07 46.72 47.81 48.27 48.66 49.51 50.66 52.42 53.75 53.62 53.43 53.31 53.13 53.22 53.44 53.28 53.05 52.99 52.53 51.71 51.98 51.78 52.14 52.53 53.35 53.93 54.16 53.16 52.73 52.59 50.04 49.34 48.72 48.74 48.25 47.81 46.91 45.85 46.39 47.36
44.18 42.31 41.86 41.58 44.44 43.79 41.48 39.52 43.06 46.40 48.19 49.48 48.69 48.96 50.08 50.47 50.71 52.22 52.50 51.26 51.21 51.27 51.22 52.37 52.61 52.83 52.76 52.85 52.75 52.59 52.30 51.69 50.48 50.22 50.62 50.30 50.46 49.84 48.72 47.98 47.66 46.94 47.31 46.63 45.90 45.92 45.89 44.62 45.64
41.78 46.93 45.70 43.90 40.61 35.15 41.85 31.79 39.56 43.82 44.84 47.49 47.93 46.38 47.70 49.88 51.19 52.08 51.27 50.80 51.14 50.92 51.61 51.98 52.51 52.11 52.91 52.63 51.27 50.04 48.81 47.94 48.87 48.29 48.25 48.28 49.08 48.81 48.11 46.88 46.12 46.18 46.64 45.38 45.90 46.41 44.41 44.10 41.49
44.23 46.98 45.02 44.14 40.11 37.58 39.93 35.13 37.87 44.26 43.77 45.27 46.22 47.87 47.79 48.48 49.57 50.02 50.53 51.40 51.59 51.70 51.25 51.58 52.04 52.05 52.17 51.63 50.79 49.12 48.38 48.64 48.25 47.90 47.65 47.65 47.97 47.23 46.63 46.25 45.73 45.68 45.34 44.48 43.84 43.32 43.55 44.70 43.40
48.37 45.48 44.92 43.70 40.49 31.51 40.27 37.91 35.09 40.48 44.17 45.52 47.24 47.98 48.53 48.37 49.02 50.09 50.98 51.76 51.23 51.40 50.92 51.01 51.23 51.16 50.86 50.45 49.94 48.96 47.80 48.02 47.11 46.96 46.08 45.95 45.44 44.95 44.80 45.82 44.63 44.20 43.56 43.22 42.63 42.00 43.05 41.01 40.77
45.43 40.46 32.41 31.16 30.79 30.70 42.96 40.25 41.65 45.06 47.23 47.38 46.96 47.36 47.90 48.40 47.94 48.14 48.82 49.03 49.61 49.33 49.77 50.61 49.97 49.50 49.68 49.47 49.33 48.48 47.65 46.99 45.75 45.49 44.40 43.62 42.84 42.33 43.43 43.09 42.50 42.07 42.09 41.70 41.81 42.16 40.70 40.36 39.30
42.81 41.03 30.94 27.65 27.46 31.88 40.87 35.27 38.64 45.82 47.75 48.73 49.16 48.17 48.79 48.31 49.05 47.83 48.70 48.48 48.44 49.04 48.74 48.92 49.12 49.21 49.15 49.39 48.18 47.20 46.99 46.39 46.03 45.72 44.55 43.28 42.24 42.15 42.46 42.17 41.40 41.06 40.90 40.78 40.20 39.59 40.30 38.86 38.81
41.94 38.20 42.74 35.92 35.29 30.46 35.38 39.32 43.53 45.94 46.83 48.60 48.48 49.05 47.08 47.61 48.13 48.11 48.65 48.48 48.14 48.21 48.47 47.66 47.68 48.21 47.15 45.27 43.78 43.29 43.97 44.00 43.68 43.65 42.66 41.82 42.10 43.70 41.72 41.10 40.59 40.13 39.81 39.52 39.08 38.29 37.77 37.57 37.31
44.58 44.61 35.28 36.19 26.66 26.65 32.84 35.53 37.44 41.34 43.70 46.30 46.27 46.52 49.15 48.70 47.72 48.53 47.85 48.24 48.11 47.59 47.59 46.69 46.65 45.68 43.46 42.51 42.50 43.05 42.65 42.97 42.71 41.83 41.21 41.22 41.14 41.53 41.32 40.59 39.77 38.97 38.98 40.27 38.53 37.55 37.85 37.18 37.01
41.11 40.12 40.39 39.61 34.16 26.90 24.61 30.49 41.74 42.83 45.18 44.84 45.98 47.59 46.63 46.04 47.13 46.94 46.96 48.13 47.91 47.67 46.35 45.42 43.08 42.05 41.12 41.36 41.81 41.61 41.78 42.32 42.12 42.36 41.61 41.43 41.09 40.07 39.94 41.17 41.78 41.50 41.88 41.44 39.03 38.33 37.77 37.51 36.46
43.06 41.63 41.40 29.39 31.56 31.93 29.04 30.07 43.77 43.71 45.41 46.04 45.72 47.87 47.91 47.58 47.91 47.24 46.96 47.27 46.57 45.79 44.69 42.23 40.95 40.67 40.57 41.45 41.51 41.24 41.29 41.54 41.42 41.16 40.68 40.79 40.24 40.94 41.05 42.11 41.56 41.12 40.21 40.35 39.04 36.82 35.67 33.96 31.48

GFSSGP_sfc_wetblb_039.txt.gz
Wetbulb
57.50 53.20 51.72 50.75 43.04 40.56 36.29 39.66 50.19 50.15 52.87 56.61 58.27 57.04 55.08 56.63 54.71 49.92 65.03 68.18 69.30 68.34 69.36 69.89 70.88 71.81 72.30 72.41 72.50 72.47 72.61 71.93 71.29 70.70 70.62 70.19 69.68 69.37 69.08 69.82 70.01 70.35 70.26 70.11 69.82 69.21 68.81 68.16 67.32
52.51 53.61 50.38 44.94 40.09 34.19 40.36 46.99 50.27 54.27 56.90 58.67 58.44 58.19 56.86 56.80 62.92 64.19 65.08 69.00 68.98 69.21 69.44 69.69 70.68 71.28 71.72 71.85 72.18 72.15 72.06 71.57 71.09 70.55 70.06 69.67 69.36 69.40 69.47 69.28 69.92 69.95 69.82 69.16 68.84 68.39 67.45 66.58 66.09
54.93 52.79 44.82 41.58 38.56 35.95 41.13 47.50 52.13 56.07 58.61 57.61 56.68 58.26 57.69 58.72 63.22 63.58 66.74 68.95 68.88 68.21 69.02 69.66 69.73 70.44 71.20 71.33 71.50 71.61 71.58 71.29 70.92 70.71 69.88 69.62 69.78 69.16 68.60 68.34 68.70 69.10 68.77 68.19 67.88 66.78 65.77 65.38 65.30
51.16 47.22 44.26 39.69 36.63 40.58 45.78 49.11 54.29 55.46 57.45 58.73 57.88 54.57 57.93 61.33 62.57 65.54 67.84 68.04 66.58 65.72 67.24 68.14 68.83 69.68 70.61 71.06 71.06 71.10 70.97 70.55 70.34 70.34 69.75 69.65 69.01 68.28 67.81 67.29 67.05 67.23 67.21 66.56 66.02 65.72 65.36 64.91 65.05
48.25 45.47 39.46 36.15 39.73 44.10 49.65 53.07 55.41 53.77 55.50 56.39 57.02 53.83 54.44 63.51 65.72 66.18 65.99 66.30 64.85 64.10 65.89 67.13 67.82 69.26 70.32 70.45 70.21 70.19 69.93 69.79 69.90 69.89 69.60 68.67 67.98 67.61 67.23 66.83 66.54 66.17 66.21 65.99 65.61 65.31 64.63 64.46 64.41
44.23 42.88 37.90 38.80 43.81 47.96 49.02 52.14 56.15 55.01 55.34 56.10 55.82 54.37 54.59 64.41 64.37 64.42 64.98 63.63 64.48 63.69 63.68 65.03 67.72 68.42 69.05 69.34 69.12 68.63 68.81 68.62 68.42 68.52 68.44 67.84 67.62 67.10 66.60 66.43 66.32 65.92 65.58 64.94 64.50 63.96 63.66 63.42 63.60
41.96 40.89 37.68 43.75 43.83 46.29 47.79 51.30 55.03 54.54 54.88 55.30 57.08 51.05 56.53 60.37 62.90 63.41 61.89 60.97 61.76 62.32 62.06 62.72 63.90 65.63 66.38 66.18 66.34 66.30 66.65 66.67 66.89 67.14 67.02 67.09 66.49 66.44 66.68 66.48 66.04 65.51 64.90 64.05 63.47 63.34 63.01 62.98 62.70
44.37 41.14 38.47 43.71 43.93 44.32 49.49 48.87 50.93 54.19 53.08 59.36 57.70 51.36 53.61 55.89 61.17 60.70 59.63 58.84 59.70 60.42 61.28 60.87 61.75 62.33 61.71 62.76 65.01 64.92 65.14 65.25 65.42 65.78 65.45 65.12 65.23 65.63 65.82 65.64 65.86 65.20 64.55 63.98 63.65 63.46 62.66 62.28 61.95
45.05 39.88 37.34 44.18 45.02 45.63 50.75 45.51 49.25 55.37 56.18 55.56 55.57 55.61 58.32 59.19 59.10 57.05 54.79 55.70 56.93 59.26 59.39 60.07 60.80 61.03 60.88 61.19 63.23 64.46 64.99 64.81 64.61 64.68 64.61 63.32 62.55 62.78 63.30 63.97 64.87 65.35 64.70 64.26 63.99 63.27 62.49 61.76 61.37
42.99 38.69 39.83 48.18 50.28 48.89 46.23 50.64 50.30 53.44 53.56 53.63 54.74 55.58 57.81 57.28 56.27 54.47 53.21 54.22 55.55 57.14 58.24 59.38 60.05 60.07 60.74 63.20 62.04 61.45 62.52 62.21 62.04 62.12 62.20 61.67 60.86 61.31 63.40 63.41 64.20 64.36 63.91 63.71 63.61 63.49 63.01 62.23 57.80
43.33 40.29 42.74 44.60 51.40 49.10 44.21 45.45 48.92 52.71 50.05 54.52 53.47 52.85 54.90 54.98 55.03 54.19 53.73 55.30 55.56 57.39 58.36 59.43 59.76 59.57 59.90 60.77 61.30 60.71 61.28 61.02 60.79 60.85 60.52 60.67 61.41 60.97 61.52 60.14 59.59 59.05 60.77 59.43 59.81 59.28 58.79 58.42 57.37
40.97 43.17 44.54 44.17 45.10 44.61 44.36 44.92 49.35 46.23 53.71 57.71 57.12 54.78 54.35 54.35 54.70 54.90 54.54 55.12 55.72 57.45 58.61 59.57 60.05 60.17 59.56 60.03 60.74 60.07 60.52 60.84 60.69 61.18 61.31 60.05 59.42 58.99 59.48 59.36 58.51 57.83 58.02 57.31 57.27 56.96 57.41 55.98 56.10
40.99 42.15 44.61 45.24 44.62 42.69 44.71 43.63 44.81 45.40 55.42 58.30 57.78 55.15 54.51 54.68 54.79 55.83 56.56 56.77 57.21 57.83 59.26 59.77 60.25 60.78 60.66 59.24 59.62 59.61 59.66 60.67 61.18 61.53 61.52 59.16 57.95 56.64 57.32 57.15 55.70 54.57 53.65 53.26 52.74 52.82 52.71 52.56 53.07
43.61 42.23 43.09 43.93 44.21 43.81 43.99 43.07 43.90 44.57 56.19 56.11 56.60 55.10 54.39 54.61 55.13 55.31 54.33 55.37 57.07 59.19 59.97 60.60 59.99 59.93 57.35 57.54 57.49 58.34 59.24 60.61 60.70 60.81 60.14 58.49 57.59 56.21 55.31 54.48 54.54 53.91 53.75 53.75 52.70 52.31 52.23 52.19 52.70
43.26 41.11 42.24 42.83 42.12 42.01 44.31 40.68 42.26 47.36 56.04 55.48 55.81 55.97 55.27 55.21 54.36 53.48 54.27 55.57 58.30 60.08 61.13 59.74 57.90 56.59 57.17 56.71 56.63 56.95 58.44 58.35 57.93 59.27 59.04 58.07 57.64 55.64 54.86 53.99 53.26 53.15 53.05 52.37 51.62 50.99 50.51 49.87 50.81
42.29 40.82 37.32 41.58 43.64 43.79 42.71 37.46 41.74 48.44 54.24 53.35 52.96 53.07 52.87 51.56 52.66 53.39 53.80 54.88 57.17 59.18 59.07 59.01 60.54 57.77 59.10 58.80 57.85 56.75 55.75 54.41 54.74 56.39 56.06 56.71 56.55 55.34 53.76 52.35 51.64 51.98 50.91 50.35 49.30 48.89 48.20 47.99 47.61
39.23 34.98 36.85 40.36 43.56 42.67 41.61 39.07 41.75 44.06 50.19 45.35 46.93 48.25 50.17 50.45 51.31 52.47 54.82 55.16 56.95 59.05 59.42 58.97 60.48 60.84 61.28 59.67 58.37 56.55 53.28 52.96 52.79 53.47 53.98 54.09 54.30 53.51 51.57 50.47 49.58 49.57 49.17 48.39 47.95 47.34 46.86 46.18 45.09
35.23 35.89 37.95 38.15 40.79 41.44 39.43 38.56 40.40 42.38 45.92 45.22 46.13 47.51 48.63 49.36 49.58 52.18 52.65 53.61 54.65 55.41 56.53 57.82 59.11 60.54 59.78 58.06 56.03 53.71 51.99 51.86 51.88 51.63 51.76 51.83 51.45 51.87 50.67 48.87 49.04 49.67 48.91 46.67 45.95 45.64 45.19 44.76 44.72
39.89 37.24 36.91 37.60 41.18 39.75 38.14 38.83 40.72 43.82 45.68 44.94 45.44 46.78 47.65 48.63 49.71 51.08 51.95 52.96 53.38 54.39 55.72 56.57 56.74 56.33 54.39 53.42 52.45 51.02 49.51 50.59 50.43 50.09 51.25 50.47 50.01 49.20 48.45 47.95 46.49 46.16 45.31 44.66 45.02 44.59 43.72 43.30 44.13
41.11 38.47 36.91 40.08 42.43 41.00 38.12 37.77 40.77 43.31 43.64 45.26 46.12 46.06 46.68 47.31 48.52 50.07 50.31 51.42 52.08 53.10 53.20 52.08 52.04 51.18 51.76 50.79 49.99 50.42 48.97 48.07 47.88 48.37 47.76 47.23 46.48 46.38 45.80 44.56 45.29 47.27 46.62 45.76 44.13 43.40 43.24 43.30 42.68
40.74 38.56 37.97 38.46 40.85 40.64 38.49 36.73 39.70 43.28 45.16 46.52 46.83 47.00 47.54 47.32 47.74 49.27 50.04 50.06 49.98 49.63 48.82 49.25 49.39 49.68 50.02 50.28 49.38 48.92 48.54 47.80 46.04 45.66 45.12 45.57 45.78 45.40 44.63 44.91 44.60 44.56 44.03 43.15 42.10 41.51 40.77 40.08 40.96
38.28 42.82 41.91 40.16 36.50 31.76 37.77 29.67 35.90 39.41 41.62 44.40 45.48 45.09 45.92 48.02 48.98 49.71 48.74 47.62 47.39 47.28 48.15 48.71 49.78 49.70 49.91 49.45 48.21 47.42 46.06 44.74 45.03 45.03 44.91 44.42 44.75 44.58 45.31 45.12 44.35 43.51 42.89 41.56 41.17 43.36 40.50 40.39 38.99
40.83 42.95 40.75 40.20 35.88 34.12 36.31 31.40 33.17 40.74 38.94 41.08 42.44 44.82 46.50 48.21 48.33 48.53 49.27 48.98 48.15 47.65 47.20 47.98 48.72 48.74 48.71 48.05 47.69 46.60 45.71 46.09 46.66 46.73 45.54 44.69 44.08 45.40 45.28 44.34 42.79 41.84 41.84 40.91 40.18 39.51 39.31 39.07 37.97
44.62 42.17 40.83 39.10 36.62 29.85 36.00 34.34 31.00 36.19 39.73 41.51 43.37 45.33 46.73 48.11 48.10 48.77 48.37 49.24 48.26 47.83 47.06 45.92 47.00 46.80 47.41 47.25 46.92 46.22 45.89 45.38 44.60 44.57 43.87 43.32 42.39 42.81 42.31 42.21 41.28 41.13 40.42 39.66 39.22 38.63 37.87 37.48 37.40
42.21 37.34 29.95 29.58 28.96 28.30 37.98 35.70 35.69 41.18 43.42 43.87 43.60 44.42 45.81 46.36 46.56 47.18 48.00 49.27 50.03 48.30 47.75 45.93 45.67 46.26 46.63 45.91 45.44 44.85 44.30 43.47 42.72 42.85 41.75 40.99 40.20 40.76 40.80 40.80 40.12 39.66 39.37 39.00 38.26 37.27 36.60 36.32 35.06
38.82 37.91 28.55 27.39 26.02 28.02 37.19 31.53 35.73 42.19 44.92 45.63 45.61 45.29 45.84 46.09 48.04 48.79 49.59 49.06 48.39 47.51 45.62 45.13 45.96 45.58 43.49 42.45 41.99 42.01 42.11 41.40 41.40 41.51 40.84 40.54 40.80 40.77 41.09 40.34 39.63 39.16 39.16 38.37 38.37 36.37 36.15 36.04 35.25
38.45 34.96 38.71 31.97 30.87 27.23 31.50 34.86 40.69 42.63 43.51 44.87 45.03 46.28 46.43 46.54 46.86 46.40 45.83 45.37 47.03 46.65 44.28 44.23 43.30 42.14 41.69 41.40 41.04 40.86 40.66 40.93 41.02 40.84 39.96 39.63 39.98 41.50 40.39 39.40 38.85 38.82 38.51 38.30 38.09 35.90 35.41 35.27 35.17
39.93 41.56 33.72 31.46 24.29 24.92 29.12 31.32 33.01 38.70 40.98 43.37 43.48 44.87 45.14 45.59 45.36 45.95 44.86 45.50 44.94 43.38 43.03 41.88 40.26 39.96 40.18 40.00 40.18 41.11 40.05 41.21 40.78 39.66 38.95 38.80 38.99 39.28 38.88 38.23 37.87 37.79 37.64 37.94 37.23 35.59 35.51 34.84 34.27
38.30 36.37 35.80 35.42 30.86 25.13 22.67 28.07 37.10 40.29 41.95 42.10 43.27 45.57 42.47 42.25 42.69 42.81 42.78 43.79 44.38 44.06 40.00 39.38 39.76 39.52 38.77 40.54 40.54 39.19 39.06 40.26 39.97 39.29 38.96 38.97 38.76 38.25 37.68 38.39 38.51 38.13 36.75 36.37 35.47 34.44 32.66 30.83 29.55
39.02 37.49 35.99 26.00 28.50 28.61 26.43 27.14 41.28 40.89 41.38 43.01 42.94 42.54 42.47 42.88 42.31 42.97 43.10 42.36 42.36 41.47 40.70 39.28 38.67 38.65 38.47 38.74 39.15 38.94 38.51 38.65 38.89 38.81 38.95 38.92 37.77 37.65 37.86 37.76 37.67 37.23 35.76 34.21 32.12 30.79 29.99 28.75 27.63

GFSSGP_sfc_wetblb_042.txt.gz
Wetbulb
55.34 50.50 49.59 48.95 43.00 38.96 35.27 39.66 48.67 50.05 52.89 56.21 58.53 56.43 56.10 57.98 55.06 49.79 66.10 67.99 68.61 67.58 68.70 70.05 71.01 71.73 71.95 72.12 72.52 72.43 72.26 71.60 70.92 70.71 70.72 70.22 69.57 69.43 69.71 69.81 70.43 70.49 69.87 69.41 69.19 68.73 68.04 67.57 66.92
51.07 51.48 47.81 43.79 38.39 33.76 37.81 44.62 50.03 52.78 56.28 58.24 58.33 58.55 57.57 57.73 63.01 63.59 64.64 68.74 68.36 68.10 68.64 69.52 70.81 71.58 72.06 72.17 72.16 71.97 71.73 71.13 70.99 70.37 70.05 69.64 69.42 69.53 69.55 69.61 70.10 70.30 68.57 68.18 68.48 67.89 66.84 66.19 65.70
52.83 50.06 42.46 39.86 37.41 35.53 38.07 47.71 52.37 55.52 57.46 56.96 55.90 57.98 59.05 59.99 63.56 64.02 67.87 68.64 68.66 68.48 68.46 69.29 70.12 70.84 71.43 71.60 71.84 71.70 71.56 71.13 70.82 70.32 69.60 69.57 69.63 69.06 68.62 68.55 69.58 69.15 68.29 67.90 67.13 66.40 65.60 65.39 65.41
48.88 44.80 41.67 37.58 34.88 39.02 44.77 49.96 55.04 55.15 56.93 57.45 56.76 53.58 58.02 63.01 63.16 65.86 68.65 68.54 67.30 67.38 67.06 68.03 68.88 69.96 71.00 71.34 71.31 71.09 70.86 70.53 70.32 70.09 69.88 69.62 68.72 68.02 67.48 67.41 67.75 67.70 66.96 66.57 66.25 65.76 65.25 64.86 64.81
45.20 41.15 36.68 33.88 36.03 41.70 45.28 53.20 55.73 53.96 54.72 55.24 55.93 52.44 55.50 62.99 66.06 67.28 67.47 66.60 66.00 65.75 66.31 67.24 67.94 69.55 70.46 70.68 70.44 70.22 70.00 69.80 69.91 69.78 69.67 68.66 67.72 67.28 66.92 66.74 66.51 66.53 66.16 65.66 65.27 64.88 64.28 63.81 63.96
42.10 40.63 34.99 35.24 40.23 45.71 47.91 53.72 55.90 54.55 55.51 55.49 55.53 54.08 57.29 64.30 64.85 65.86 65.64 64.47 65.13 64.53 65.24 66.55 68.61 69.06 69.55 69.84 69.44 68.90 68.93 69.06 68.88 68.85 68.67 67.91 67.34 67.06 66.40 66.14 66.19 65.72 65.26 64.63 64.13 63.71 63.31 63.37 63.31
41.95 37.38 34.84 40.30 41.13 44.66 47.49 54.39 54.12 53.92 54.15 54.35 55.99 52.80 59.85 62.94 63.68 63.76 62.64 62.28 62.87 63.08 62.44 63.11 64.62 67.11 67.69 67.34 67.34 67.22 67.40 67.33 67.28 67.23 67.14 66.87 66.40 66.38 66.40 66.24 65.80 65.19 64.71 64.14 63.68 63.57 63.06 63.14 62.93
42.69 39.31 35.79 42.22 42.91 43.78 47.81 53.05 54.24 55.43 53.65 57.73 57.97 54.35 57.28 60.30 61.85 61.04 60.16 60.08 59.16 59.73 60.35 60.17 61.22 61.91 61.84 63.09 65.35 65.51 65.75 65.53 65.70 65.78 65.38 65.04 65.03 65.52 65.22 65.09 65.52 64.90 64.45 64.33 64.08 63.45 63.04 62.79 62.62
43.99 38.81 39.14 41.85 46.20 46.47 49.62 52.57 52.08 56.14 55.76 55.76 55.31 56.49 58.99 60.24 59.60 57.39 55.96 56.31 56.75 58.97 58.79 59.43 59.85 60.06 60.00 60.52 63.16 64.71 65.24 64.91 64.55 64.59 64.66 63.04 61.97 62.10 62.20 63.76 64.43 64.81 64.35 64.17 64.16 63.97 63.30 62.60 60.97
41.51 36.79 40.15 48.39 49.63 49.36 51.23 47.92 51.62 53.80 53.15 53.19 52.27 57.04 59.06 58.83 58.21 55.78 53.92 54.23 55.17 56.76 58.19 59.09 59.41 59.21 59.55 62.07 61.34 60.23 61.79 61.67 61.72 61.88 61.88 61.19 60.32 60.65 62.67 63.10 63.96 64.30 64.00 63.67 63.26 63.15 62.70 61.06 58.01
42.07 39.73 42.53 47.76 52.66 52.94 49.48 48.57 50.05 52.56 50.20 53.23 52.15 55.11 56.59 56.64 55.08 54.04 53.00 54.34 55.26 56.18 57.59 58.68 59.21 59.03 59.13 60.20 60.14 59.63 60.36 60.13 60.19 60.60 60.38 60.17 60.48 59.79 60.56 59.85 58.96 58.11 60.28 58.31 58.77 58.17 57.95 57.87 56.70
41.37 43.56 43.90 47.64 52.55 50.04 44.67 45.93 51.24 48.13 52.05 56.60 55.40 56.62 55.59 54.75 53.62 52.71 52.41 52.98 53.81 55.38 56.85 58.51 59.00 58.80 58.55 59.03 59.74 59.21 59.88 59.89 59.54 59.91 59.91 59.15 58.84 58.64 58.66 59.19 58.11 57.29 57.00 55.11 54.69 54.28 53.96 53.01 53.46
41.37 42.64 43.72 44.45 46.31 44.32 45.06 42.91 49.70 44.95 54.78 55.78 55.29 56.04 54.58 54.03 53.42 53.49 53.20 53.80 53.85 55.28 56.76 57.97 58.60 58.84 58.95 58.53 58.98 58.57 58.93 59.78 59.63 60.07 60.73 59.79 58.38 57.56 57.12 57.54 55.92 53.91 52.95 52.66 52.41 52.30 52.30 52.18 52.61
43.57 42.38 43.21 43.01 42.27 42.95 43.74 42.60 43.91 46.34 54.88 53.85 53.70 53.62 54.14 54.03 54.03 53.30 53.42 53.97 54.73 56.31 57.47 58.46 58.60 59.45 58.37 57.51 57.82 57.91 58.57 59.18 59.82 60.56 60.64 59.32 57.44 55.66 55.15 54.03 53.36 52.87 53.02 52.24 51.70 51.11 50.08 49.50 50.25
43.23 41.16 42.92 42.47 41.65 42.01 43.15 39.43 39.54 48.57 54.88 53.96 52.67 52.32 51.94 52.15 52.04 51.74 52.78 53.76 55.27 56.74 58.09 58.67 57.47 56.62 56.72 55.77 55.44 55.99 57.83 58.57 58.44 59.21 58.98 57.69 56.92 55.18 53.83 52.81 51.70 51.44 51.01 50.00 49.40 48.68 48.48 47.89 48.24
41.93 39.77 36.15 40.31 42.51 41.99 41.14 36.15 40.47 51.08 53.23 51.42 52.10 52.58 50.77 51.48 52.35 52.71 53.97 53.34 55.41 57.63 57.91 58.47 59.93 58.64 58.43 57.75 56.74 55.98 55.04 54.85 55.34 55.57 55.23 55.20 55.69 54.04 51.69 50.62 49.47 49.47 49.06 48.26 47.86 47.98 47.07 46.91 45.53
38.71 34.42 35.47 38.74 42.43 41.74 40.42 37.71 39.95 49.04 51.16 46.92 47.09 48.34 49.57 49.68 50.39 51.00 52.93 53.88 55.02 57.69 58.51 58.86 59.94 59.34 58.19 58.89 55.84 55.01 54.29 54.28 53.88 53.20 51.94 51.93 52.57 51.78 50.12 48.42 48.38 48.46 49.28 48.75 48.20 47.14 45.23 44.29 44.11
34.25 34.87 36.69 36.39 39.17 41.01 38.81 36.51 41.12 43.17 46.21 45.21 45.60 46.80 47.75 48.12 48.59 50.73 52.20 54.42 55.62 57.10 58.60 59.18 59.91 59.46 56.96 56.86 56.61 55.76 53.83 50.13 49.29 49.73 50.35 50.77 50.85 50.87 48.95 48.98 48.67 47.76 46.59 44.85 45.34 44.86 44.74 43.67 44.33
38.73 36.46 35.29 36.32 39.72 39.14 36.48 37.37 40.23 43.07 44.08 44.10 44.76 45.82 46.97 47.49 48.70 50.11 51.10 52.83 55.34 55.66 57.31 58.96 58.98 58.11 57.19 55.19 52.67 50.15 48.68 48.74 47.26 47.64 48.42 48.03 47.62 47.49 45.86 44.82 44.62 45.05 44.50 44.49 44.97 44.13 42.91 43.01 43.13
38.95 36.67 35.33 38.33 40.99 39.74 37.31 36.98 39.64 42.85 43.10 44.09 44.49 44.94 45.63 46.39 47.73 49.23 49.80 50.59 51.77 53.55 54.97 54.73 53.32 52.98 51.67 50.60 49.89 48.21 46.42 45.78 45.70 45.67 45.54 45.32 45.01 44.91 44.92 44.23 44.23 44.20 43.71 43.33 42.43 41.52 41.10 41.81 41.88
39.37 37.36 35.88 36.95 38.01 39.26 37.50 34.77 38.16 42.36 44.43 45.82 45.72 45.95 46.24 46.44 47.07 48.54 49.70 50.19 51.13 49.05 48.00 49.12 49.91 50.11 49.71 49.54 48.62 47.74 46.96 46.17 44.89 44.40 43.76 44.04 44.48 44.41 44.28 44.33 43.94 43.35 42.86 41.26 40.65 40.50 39.50 38.55 39.93
36.55 40.90 39.84 38.08 35.22 31.85 36.27 29.51 34.71 38.83 41.25 43.55 44.47 44.28 45.00 46.68 47.72 47.99 47.15 46.34 46.38 46.53 47.26 48.10 48.52 48.46 48.68 48.21 47.07 45.91 44.63 43.94 44.14 44.05 43.76 43.43 44.08 44.47 44.67 44.02 43.04 41.99 41.54 40.18 39.77 41.40 39.22 38.58 37.11
39.20 42.07 39.89 38.26 35.25 33.57 34.82 30.90 32.77 39.17 38.97 41.05 42.66 44.31 45.14 46.18 46.52 46.57 46.55 47.05 46.79 46.82 46.41 47.66 47.98 48.23 47.64 47.52 46.88 45.34 44.66 44.57 45.19 45.12 44.01 43.09 43.31 43.97 43.73 42.72 41.15 40.25 40.79 40.37 39.69 39.22 38.53 38.23 37.28
43.15 41.01 39.38 37.68 35.15 29.64 33.85 33.33 31.05 34.93 38.38 40.60 42.88 44.73 46.20 46.64 46.84 47.45 47.39 47.61 47.06 46.98 45.57 46.75 47.72 47.21 47.15 46.38 45.96 45.24 44.81 44.13 43.12 43.37 42.59 41.73 41.23 41.62 41.69 41.52 40.55 40.22 39.77 38.85 38.31 37.76 37.12 36.71 36.50
40.76 36.24 29.01 28.71 28.17 27.60 35.58 33.84 34.17 38.69 41.62 43.39 43.27 44.43 45.50 46.14 46.18 46.97 47.04 47.09 48.47 48.39 46.18 46.31 46.79 46.23 46.38 45.28 44.04 43.50 42.85 42.16 41.10 41.00 40.62 40.49 40.02 40.40 40.69 40.30 39.06 38.66 38.64 38.27 37.64 36.64 35.90 35.51 34.86
37.54 36.30 28.79 27.32 26.19 28.13 35.35 30.27 35.09 40.97 42.99 44.60 45.62 45.64 45.93 45.39 46.16 46.42 48.30 48.17 47.70 46.01 45.45 45.67 46.23 43.69 41.74 41.44 41.51 41.41 41.25 40.42 40.42 40.62 40.86 40.20 39.79 39.96 40.08 39.74 39.11 38.48 38.19 37.57 36.77 35.94 35.54 35.30 34.87
37.37 33.62 37.05 31.17 29.69 26.90 29.88 34.13 38.68 41.18 41.59 43.49 44.06 44.55 44.20 44.98 45.45 45.54 44.87 44.32 44.30 44.26 43.99 43.79 42.44 41.27 40.93 40.56 40.25 40.14 40.28 40.21 40.26 40.23 39.61 38.89 39.18 40.67 39.90 38.93 37.99 37.84 37.76 37.60 36.78 35.72 35.09 34.61 34.33
38.10 40.44 33.04 30.43 23.21 23.40 27.29 29.42 31.90 37.37 39.46 41.69 41.76 42.41 44.37 45.04 43.47 43.10 43.10 43.20 43.12 43.37 42.27 40.04 40.67 39.64 39.35 38.91 39.16 40.19 39.23 39.50 39.83 39.17 38.85 38.53 38.56 38.44 38.04 37.55 36.99 37.12 37.66 37.17 36.70 35.89 34.79 33.67 33.57
37.24 34.87 34.10 33.75 29.52 23.87 20.91 27.16 35.87 39.81 41.42 41.53 42.63 44.06 41.79 41.22 40.49 40.64 40.78 41.54 41.15 39.44 38.71 38.45 39.10 39.40 38.33 37.96 38.42 38.21 38.01 37.97 39.33 38.70 38.44 38.17 37.84 37.61 37.11 37.35 37.50 37.37 37.02 36.28 35.72 34.41 32.93 30.65 29.82
37.41 35.84 34.19 25.60 27.53 27.73 25.91 27.03 38.60 38.59 41.07 42.06 41.43 40.67 40.34 40.52 40.06 39.76 39.87 41.51 41.97 42.51 42.34 40.50 40.04 39.22 37.87 36.94 36.92 36.82 37.07 36.83 36.51 37.28 38.01 38.06 37.78 37.64 36.81 37.56 37.00 37.02 36.40 35.28 33.30 31.81 30.46 28.97 28.47

GFSSGP_sfc_wetblb_045.txt.gz
Wetbulb
59.30 54.30 54.75 53.81 46.69 46.15 42.35 43.82 50.48 53.75 55.04 58.90 60.22 58.87 57.84 59.34 56.19 53.00 67.32 69.21 69.52 68.91 70.93 71.92 71.18 71.76 71.81 72.21 72.27 72.14 72.26 72.07 71.32 71.14 71.19 70.76 70.36 70.31 70.31 70.58 71.09 70.35 69.41 69.69 69.03 68.30 67.33 66.99 66.39
54.68 53.89 52.79 49.80 44.11 40.04 45.10 47.67 52.10 55.54 58.13 60.15 59.91 59.90 58.68 58.36 63.45 64.17 65.83 68.77 69.17 69.66 71.08 71.88 70.94 71.66 71.96 72.18 71.99 71.85 71.68 71.53 71.23 70.48 69.97 69.61 69.68 69.55 69.53 69.67 70.57 69.69 68.51 68.59 67.62 66.75 66.41 66.06 65.91
55.42 52.29 49.94 47.09 43.84 42.10 45.32 53.07 55.30 57.73 59.22 58.45 56.86 59.94 59.92 59.84 63.77 64.65 68.33 68.43 69.33 69.98 71.13 71.76 70.45 71.14 71.82 71.85 71.79 71.62 71.42 70.97 70.73 70.39 69.74 69.86 69.56 69.28 69.31 69.66 69.82 68.83 67.79 66.98 66.58 66.37 65.75 65.37 64.80
53.12 50.87 47.84 44.52 41.28 43.71 48.67 55.44 57.11 56.07 57.59 58.17 57.80 54.30 60.18 64.03 64.35 66.96 68.68 68.69 68.58 69.65 71.01 70.09 69.44 70.44 71.44 71.82 71.78 71.41 70.94 70.37 70.16 70.09 70.16 69.68 68.87 67.86 67.79 68.22 68.55 67.16 66.66 66.17 65.72 65.32 64.62 63.98 64.13
51.01 47.81 43.97 42.11 43.89 46.93 48.57 57.46 57.41 55.37 55.11 54.78 56.55 52.99 57.85 64.28 67.09 68.42 68.16 67.99 67.55 68.67 70.35 70.72 68.56 70.04 71.06 71.47 71.02 70.59 70.11 69.91 69.88 70.08 69.88 68.72 67.65 67.09 67.02 67.07 66.94 66.51 65.57 65.26 64.61 64.03 63.56 63.46 64.02
49.25 47.06 42.15 43.93 45.88 48.39 53.42 58.05 56.81 55.96 56.08 56.25 55.64 55.35 59.18 65.81 66.09 67.38 67.53 67.66 68.19 68.11 69.18 69.96 69.30 69.47 70.01 70.21 69.81 69.20 69.20 69.27 69.13 69.12 68.83 68.11 67.49 66.97 66.58 66.49 66.17 65.47 65.17 64.58 64.01 63.50 63.12 63.39 63.16
47.21 45.21 43.24 45.64 46.17 48.76 51.82 57.77 56.13 55.77 56.22 55.83 58.25 55.89 60.46 63.33 65.23 66.09 66.89 67.56 67.90 68.30 68.55 68.96 69.77 69.64 68.52 67.91 67.75 67.60 67.93 67.86 67.72 67.53 67.24 66.74 66.46 66.41 66.65 66.39 65.62 65.01 64.57 64.19 63.95 63.37 63.55 63.12 62.72
48.27 46.06 46.19 46.98 46.17 46.35 53.27 55.89 58.02 56.36 55.47 59.17 60.48 55.46 57.56 62.04 64.28 65.65 65.91 65.72 66.13 66.01 66.58 67.16 67.81 68.42 68.81 68.89 66.39 66.36 66.23 66.12 66.27 66.33 65.62 65.10 65.29 65.44 65.28 65.03 65.32 64.81 64.84 64.63 64.24 64.15 63.74 63.42 62.26
47.96 44.28 44.51 47.45 47.90 49.30 54.46 52.01 55.61 58.26 56.98 57.49 56.48 60.02 62.21 63.18 63.47 63.06 62.49 62.38 62.95 62.51 63.58 64.19 64.76 65.21 65.61 65.96 66.41 65.71 65.65 65.32 65.14 65.26 64.68 64.05 65.90 65.95 65.43 63.95 64.32 64.85 64.65 64.43 64.35 64.23 63.69 62.72 61.57
47.04 44.25 45.07 51.21 52.81 51.28 52.33 52.95 53.23 55.91 55.69 54.78 56.13 60.08 61.94 62.09 62.59 61.61 61.02 60.43 59.92 60.14 61.35 62.67 63.18 63.29 63.82 63.63 65.50 65.43 65.32 65.32 65.15 65.48 65.81 65.97 66.15 66.79 65.84 65.21 63.68 64.05 63.18 62.74 62.53 62.20 61.52 63.06 62.60
46.35 44.60 46.35 51.31 53.74 54.70 53.19 50.95 55.02 55.68 54.00 56.04 55.55 59.04 60.72 61.24 61.28 60.66 60.14 59.68 58.20 59.66 60.85 61.80 62.93 63.05 63.21 63.66 64.00 63.74 64.55 64.69 64.99 65.12 65.45 65.77 66.05 66.79 67.10 66.79 65.94 66.02 62.59 63.95 62.44 62.37 61.89 60.80 61.03
44.85 45.98 47.77 53.42 53.49 50.03 50.62 51.54 53.95 56.55 54.45 58.33 60.13 61.33 60.78 60.14 59.53 59.26 58.42 57.59 57.47 58.87 60.45 62.01 62.56 62.69 62.56 63.26 63.45 63.76 63.91 64.36 64.40 64.91 64.79 65.47 65.62 65.74 66.18 65.95 66.00 64.64 62.34 61.17 60.86 60.89 60.21 59.94 59.37
44.51 45.04 45.30 47.07 49.12 47.22 48.72 50.52 53.68 52.46 56.73 58.73 60.15 60.54 60.14 59.77 59.63 59.17 58.12 57.54 57.73 57.72 59.75 61.66 62.47 62.66 62.60 62.96 63.51 63.51 63.94 64.50 64.83 65.09 65.60 65.93 65.33 65.09 64.74 64.20 62.72 61.34 61.38 60.76 60.25 59.44 58.33 57.51 56.82
45.60 44.96 44.29 46.02 48.26 47.04 46.72 46.05 51.51 51.45 56.18 56.98 58.79 59.01 58.81 58.35 57.62 56.81 55.75 55.96 57.19 58.56 60.10 61.92 62.24 63.25 63.34 62.47 62.60 62.92 63.84 64.37 65.01 65.11 65.07 64.54 63.90 62.96 62.17 60.91 60.02 59.37 58.84 58.25 57.26 56.86 56.44 55.92 55.21
45.68 43.50 44.74 45.22 45.45 45.41 47.09 43.86 44.48 54.23 55.97 55.05 57.02 56.93 56.52 56.73 56.99 56.47 57.14 57.10 58.27 59.73 61.33 62.08 61.61 62.29 61.39 60.51 60.44 59.97 59.62 59.73 59.97 61.01 61.63 61.39 62.31 61.38 60.24 58.96 57.34 56.68 56.45 56.47 56.24 55.48 55.21 54.01 52.77
44.37 44.04 40.95 44.91 45.55 45.10 46.09 41.44 43.07 55.19 55.31 53.79 54.59 54.94 55.04 54.78 55.07 55.77 57.23 57.95 59.84 60.66 61.94 61.82 61.46 60.59 60.74 59.45 58.78 56.14 56.65 56.94 58.33 58.51 59.43 59.56 59.32 58.49 56.89 55.65 53.28 55.12 54.31 53.99 52.54 52.57 50.47 51.46 51.12
42.68 39.22 40.99 42.93 46.13 45.71 45.47 41.99 44.67 51.19 54.39 52.87 53.09 53.14 53.66 53.68 54.29 55.27 57.03 58.54 58.48 61.30 61.17 61.48 61.83 61.57 60.20 58.17 57.23 56.20 55.61 56.17 56.66 56.71 55.56 55.94 55.04 55.36 54.38 52.37 53.63 53.38 52.35 52.24 51.61 51.19 50.64 49.58 49.84
39.61 39.96 40.75 41.73 44.54 44.91 43.25 41.89 45.26 48.07 51.32 49.59 50.52 51.62 52.21 51.96 51.86 54.57 57.23 58.84 60.01 60.89 61.57 61.21 61.36 60.48 58.03 56.58 56.14 55.64 55.18 53.55 53.67 53.90 54.17 54.83 54.72 54.22 53.89 52.80 52.41 52.33 51.60 50.89 50.54 49.29 48.90 48.86 48.98
42.06 40.96 40.74 42.24 43.92 43.33 41.88 42.60 44.13 47.06 48.69 48.96 49.78 50.37 50.58 51.14 53.20 55.80 57.25 59.59 60.54 61.44 61.57 61.30 58.84 58.02 57.45 56.44 55.84 53.67 53.14 53.26 53.35 53.85 53.76 53.37 52.75 52.35 52.53 51.84 51.71 51.48 50.34 49.51 49.58 48.51 47.56 47.15 48.43
42.17 40.87 40.39 42.59 43.24 43.89 42.50 42.12 44.89 46.56 46.39 47.87 49.18 49.66 50.90 52.21 53.27 53.90 55.72 57.97 59.84 60.44 61.20 60.00 59.67 57.42 57.02 56.46 56.35 55.29 54.19 53.39 53.00 52.24 51.36 51.42 51.45 51.65 51.31 51.53 50.35 50.21 49.41 48.66 47.97 47.31 45.61 45.89 47.01
42.40 41.57 41.06 41.37 42.71 43.34 42.88 41.10 42.81 45.68 47.45 48.24 49.14 50.04 51.17 52.00 51.48 51.92 53.18 54.81 56.43 57.49 58.09 57.88 57.56 57.97 57.47 56.50 54.94 53.70 53.32 52.66 51.78 52.02 51.52 50.18 50.69 50.77 50.75 50.37 49.93 49.56 49.27 47.42 46.99 46.54 45.22 43.30 45.57
40.89 44.28 42.72 41.43 40.44 38.51 41.51 37.10 40.56 43.76 45.19 47.08 48.04 49.23 50.11 50.89 51.51 51.88 51.90 52.11 53.08 53.73 54.52 55.52 54.82 54.84 54.76 54.59 54.33 53.28 53.42 52.48 51.63 51.98 50.93 50.36 50.06 49.97 49.80 49.36 49.39 49.03 48.58 46.70 46.09 46.29 45.86 44.87 42.28
42.59 44.73 43.35 41.59 40.82 40.13 40.70 39.10 39.56 43.40 42.97 45.29 47.29 48.37 49.87 51.23 51.79 51.48 51.84 52.33 52.08 52.50 53.18 53.25 53.50 53.31 53.22 53.42 53.37 52.93 51.60 51.27 51.47 52.03 50.58 50.28 50.19 49.44 48.92 48.95 48.23 47.88 47.58 46.88 45.71 45.26 44.49 44.33 42.59
45.48 44.47 43.15 42.03 40.96 36.20 38.80 39.38 40.58 40.69 43.07 45.46 47.30 48.62 49.52 50.51 51.05 51.64 52.09 52.26 52.12 52.27 52.39 52.44 52.62 51.71 51.58 51.76 52.02 51.88 51.05 49.87 49.71 49.56 49.51 49.28 49.08 49.12 48.45 47.65 47.77 47.28 46.49 45.77 45.41 44.87 43.79 43.55 43.02
44.78 41.93 35.65 34.11 34.68 33.59 38.75 37.58 41.13 43.11 44.69 48.09 47.39 48.40 49.91 50.80 51.10 51.24 51.11 50.92 51.55 51.41 51.28 51.72 51.94 50.19 50.35 49.91 49.87 49.79 49.04 47.86 47.16 47.25 47.12 47.06 47.49 47.39 48.20 47.89 47.27 46.27 45.76 45.27 44.56 43.99 43.55 43.30 42.47
41.91 41.77 36.82 29.65 31.18 34.43 38.24 36.15 40.94 44.81 46.44 48.03 49.37 49.89 50.53 50.45 51.09 51.06 51.64 52.06 52.51 51.43 50.89 51.10 50.26 47.98 47.40 47.97 47.78 47.90 47.44 48.18 47.97 47.57 47.54 47.33 47.35 47.86 48.47 47.62 46.68 45.55 45.22 44.82 44.48 43.99 43.99 43.64 43.38
41.62 38.99 41.38 35.29 33.36 32.79 35.74 39.39 43.20 44.60 44.28 46.62 48.53 48.95 49.34 50.24 50.63 51.13 51.61 51.64 51.13 50.54 49.59 50.32 47.90 46.70 46.39 45.64 47.06 46.87 47.59 46.94 46.93 47.22 47.39 47.10 47.41 46.46 46.58 46.26 45.53 45.59 45.33 45.09 44.76 44.18 43.45 43.07 42.60
43.42 43.34 37.73 36.53 28.79 27.26 32.60 34.58 37.78 41.42 43.12 45.39 47.01 48.06 49.12 48.80 48.14 48.04 48.05 47.89 47.70 48.07 47.02 45.99 45.09 43.74 44.02 45.10 45.88 45.69 45.43 45.34 45.71 46.24 45.84 45.91 45.93 45.53 45.16 45.04 44.76 44.44 44.10 44.22 44.04 43.38 42.54 41.28 41.18
41.32 39.39 37.77 38.13 34.63 29.64 27.94 33.93 41.53 42.84 45.38 45.66 47.64 47.70 47.60 46.18 45.37 45.04 45.22 45.56 44.80 45.04 44.98 44.35 42.90 42.70 44.48 43.86 43.86 44.18 44.22 44.16 44.41 44.03 44.28 44.40 44.36 44.78 44.45 44.45 43.62 42.92 43.02 43.42 42.02 40.70 39.81 37.27 36.72
42.39 40.22 39.54 34.30 31.69 32.34 32.36 34.99 42.52 43.55 45.53 46.19 45.85 44.60 44.84 44.47 43.94 44.24 44.79 45.31 45.55 45.20 44.32 43.39 43.65 43.45 43.31 43.36 43.60 43.37 43.25 43.28 42.86 42.64 43.02 43.61 43.39 44.31 44.20 43.80 42.24 42.14 41.92 41.50 39.16 38.08 37.00 35.49 34.17

GFSSGP_sfc_wetblb_048.txt.gz
Wetbulb
61.71 58.73 57.97 57.91 51.18 50.05 48.58 48.97 57.52 57.76 57.85 61.93 62.25 60.45 60.54 62.62 59.05 55.70 68.57 70.17 71.21 70.82 72.49 72.61 71.29 71.78 71.98 72.14 72.23 72.49 72.55 71.84 71.57 71.22 71.33 71.09 70.81 70.66 70.81 70.62 70.91 69.79 69.49 68.85 67.95 67.04 66.99 66.73 66.54
57.33 56.01 56.55 56.12 47.88 45.43 47.05 51.07 54.67 58.52 60.93 62.65 61.15 61.19 60.49 59.48 64.60 64.49 67.07 70.17 70.72 70.65 72.02 72.59 70.98 71.36 72.17 72.20 72.13 72.22 72.11 71.64 71.38 70.66 70.23 69.96 69.86 69.74 69.69 70.32 70.02 69.16 68.52 67.45 67.00 66.83 66.48 65.80 64.47
57.50 56.08 53.70 50.49 47.37 44.97 47.96 53.19 59.25 59.98 60.18 57.86 55.61 59.95 59.85 60.08 64.52 65.77 69.56 69.91 70.17 71.09 72.34 72.42 70.54 71.21 71.99 71.99 71.91 71.75 71.59 71.36 71.02 70.60 70.10 69.95 69.73 69.79 70.15 69.49 69.63 67.99 67.19 66.63 66.28 65.69 64.81 63.95 63.88
55.10 54.49 53.36 47.01 44.82 48.82 53.44 58.87 60.75 59.64 60.46 60.36 57.12 55.05 61.50 65.58 64.32 67.38 68.80 69.63 70.05 71.29 72.31 70.76 69.83 70.86 71.76 72.05 71.86 71.52 70.95 70.55 70.49 70.66 70.09 69.53 68.52 67.84 68.35 68.32 68.22 66.92 66.08 65.60 65.04 64.28 63.66 63.62 63.94
55.94 54.15 47.43 45.83 45.76 49.21 57.82 60.30 60.41 57.79 55.73 55.45 57.61 53.57 57.46 65.47 68.10 68.61 68.21 68.75 69.34 71.12 72.08 72.64 68.82 70.51 71.31 71.91 71.39 70.81 70.43 70.16 70.22 70.37 69.72 68.22 67.52 67.25 67.37 67.32 66.85 65.93 65.17 64.59 64.07 63.36 63.23 63.49 63.67
51.03 52.53 45.49 44.30 47.80 51.61 55.52 60.96 59.79 58.19 56.53 56.15 56.98 56.90 60.22 66.73 67.53 67.94 68.60 68.25 69.38 69.87 70.61 71.21 70.01 70.14 70.59 70.83 70.11 69.59 69.52 69.50 69.54 69.26 68.88 67.71 67.12 66.89 66.58 66.30 65.86 65.17 64.79 64.10 63.60 63.38 63.49 63.37 63.32
50.62 48.40 46.26 47.76 49.21 51.93 56.88 60.57 58.10 55.89 57.39 57.28 59.99 56.32 61.04 64.49 67.62 68.01 68.82 69.62 69.45 69.96 70.44 71.02 71.29 70.60 68.96 68.50 68.28 68.30 68.46 68.47 68.22 67.96 67.60 67.13 66.80 66.95 66.65 66.19 65.32 64.74 64.52 64.28 63.78 63.52 63.58 63.45 62.79
53.34 50.76 48.93 50.46 49.84 50.70 58.69 59.06 59.73 55.55 56.83 61.94 62.37 56.72 58.01 63.99 66.53 67.96 68.59 68.95 69.39 69.22 69.62 69.83 69.92 69.75 69.83 69.76 67.32 67.36 67.32 66.82 66.70 66.56 65.72 65.57 65.47 65.57 65.67 65.58 65.18 64.56 64.44 64.36 64.18 63.99 63.84 63.10 62.17
53.62 48.09 47.78 50.15 51.50 53.35 56.97 54.79 57.82 60.30 59.03 60.14 60.77 62.53 65.26 64.34 66.95 66.97 67.09 67.43 67.72 67.79 68.49 68.27 67.52 68.12 68.18 67.78 67.79 66.50 66.14 65.85 65.39 65.59 65.12 64.81 67.33 67.19 66.45 64.05 64.60 64.43 64.10 63.95 63.84 63.29 62.18 62.40 61.93
50.84 48.34 48.07 53.31 56.54 54.09 54.14 54.12 53.86 56.29 57.02 57.57 60.44 64.94 66.04 65.04 66.32 65.36 64.57 64.17 64.62 64.58 64.55 65.47 66.02 66.03 66.03 64.66 66.55 66.63 65.83 65.82 67.11 67.17 67.42 68.21 68.60 68.97 67.38 65.71 63.42 63.51 62.79 62.57 61.86 61.59 62.13 63.59 64.37
50.84 48.17 50.84 54.09 57.41 56.85 54.95 53.37 55.94 55.36 54.21 58.38 59.10 62.90 64.70 65.17 65.67 65.24 64.75 64.33 63.19 62.58 62.59 64.02 64.92 65.72 65.28 64.85 65.58 65.22 65.62 66.21 67.66 67.96 69.06 68.73 68.87 69.62 69.68 69.39 68.59 68.66 63.68 66.13 64.80 65.24 64.92 63.57 63.75
47.86 49.67 52.12 55.69 56.36 54.75 52.89 55.01 54.40 56.81 56.71 59.88 62.56 64.94 64.74 64.69 64.47 64.28 64.05 62.56 60.61 61.27 62.48 63.96 64.64 65.16 65.48 65.21 65.18 65.86 66.26 67.35 67.65 68.63 68.67 69.58 69.20 69.36 68.13 67.69 68.16 67.38 66.26 64.89 65.32 65.36 64.45 63.91 62.41
48.69 48.17 52.72 55.05 55.10 54.09 56.54 53.50 54.73 56.84 59.64 62.29 64.54 64.38 63.93 63.44 63.21 64.40 62.64 60.71 60.45 60.61 62.80 64.44 65.24 64.86 65.19 65.93 66.46 67.17 67.99 68.17 68.86 69.53 69.34 69.38 69.14 68.26 67.35 66.63 66.57 65.67 65.09 64.54 64.20 64.01 62.39 61.73 60.66
50.14 49.04 51.93 50.18 53.77 51.77 52.67 53.48 54.82 56.42 60.51 61.48 62.87 62.56 62.61 62.00 61.30 61.83 60.18 59.17 59.89 61.08 63.06 65.31 65.63 66.16 66.30 66.32 66.68 66.96 67.37 67.10 67.87 68.01 68.08 67.55 67.72 65.09 63.98 63.63 64.46 65.07 63.33 62.35 61.61 60.25 60.07 59.75 59.11
48.07 45.48 46.76 48.11 52.57 52.09 52.65 49.78 49.67 56.95 59.38 59.65 59.93 60.89 61.38 61.22 60.53 59.14 59.01 58.45 59.73 61.74 63.69 64.91 65.75 66.72 66.58 65.46 64.70 63.92 63.28 63.77 64.07 65.19 65.26 66.13 66.00 64.89 63.65 63.81 62.80 60.18 60.60 60.11 60.51 59.21 58.76 57.68 56.80
46.56 47.38 44.39 48.05 51.91 48.90 50.79 44.99 48.77 58.30 58.03 58.17 59.37 59.78 60.01 59.82 59.68 60.10 60.68 60.28 60.80 62.11 63.91 65.04 65.14 65.35 64.27 64.16 64.07 62.49 61.75 59.98 61.01 61.97 62.59 62.16 62.07 61.32 60.37 60.01 57.46 58.38 58.02 57.76 57.18 56.58 55.72 55.68 55.42
45.50 41.99 44.10 44.57 49.04 48.68 48.70 45.93 49.21 56.36 57.66 57.12 58.06 58.76 59.45 58.79 59.11 60.31 61.40 63.00 62.70 63.89 64.80 64.66 64.97 63.80 62.15 59.15 59.15 59.08 59.35 59.94 59.03 58.77 58.56 57.86 57.62 58.18 57.07 57.06 57.17 57.38 57.64 56.71 55.74 55.26 54.29 53.00 52.78
42.63 42.57 43.70 43.62 46.83 48.79 47.22 46.98 49.17 55.27 56.90 56.24 57.13 58.24 58.44 58.53 57.97 59.82 61.73 62.87 63.65 64.94 65.20 64.89 64.02 61.45 59.55 60.01 59.53 58.62 57.16 56.35 56.87 57.07 57.90 58.41 58.05 57.62 57.86 57.16 56.69 56.77 56.10 55.23 53.99 52.73 52.63 51.58 50.72
46.52 44.92 43.72 46.13 47.89 48.10 46.69 47.53 48.28 53.59 56.02 55.51 56.79 57.61 57.64 57.90 59.29 60.97 62.19 63.26 63.94 64.26 63.83 64.43 63.08 62.06 61.40 59.85 57.71 56.46 56.52 56.67 57.12 57.92 57.73 57.29 57.12 56.60 57.05 56.98 56.50 55.81 54.30 53.14 52.23 51.12 49.90 49.01 50.20
46.11 45.21 44.84 46.23 47.06 48.53 48.48 48.07 49.58 52.62 54.26 56.19 56.36 56.86 57.02 57.82 58.84 59.92 61.99 63.18 63.59 63.45 63.64 63.81 63.51 63.14 63.95 62.98 61.19 59.93 58.96 58.37 58.01 57.70 56.81 56.65 56.26 56.06 55.91 55.97 55.16 53.81 52.00 51.48 50.68 49.74 48.12 48.07 48.99
46.52 45.78 45.44 45.01 46.59 48.30 48.23 46.09 48.11 49.81 52.55 53.57 55.26 56.81 57.71 58.29 58.26 59.27 60.47 62.36 63.35 63.14 63.57 63.42 63.76 63.82 62.78 61.22 60.02 58.99 57.99 57.37 56.65 56.74 56.62 55.61 55.53 55.38 55.33 54.47 53.53 52.21 51.37 49.28 49.41 48.88 47.53 45.41 47.08
44.73 47.47 46.90 46.00 45.62 42.39 47.26 40.70 47.08 49.28 49.33 51.29 53.11 55.53 56.64 56.99 57.76 57.64 57.23 58.33 59.82 60.96 61.74 61.57 61.84 61.30 60.54 60.05 58.58 57.28 57.37 56.12 56.55 57.88 56.68 56.79 55.58 55.07 54.12 52.81 52.21 51.21 50.72 49.39 48.63 47.88 47.74 46.72 44.24
45.83 48.20 47.41 46.57 45.93 45.16 44.90 42.56 46.28 49.08 47.66 50.06 52.60 54.95 56.39 57.00 57.49 55.35 56.12 56.99 57.83 58.39 58.77 59.01 58.62 58.15 58.13 57.86 57.93 57.85 55.97 56.43 57.03 57.24 54.41 54.85 54.54 53.14 52.00 51.52 51.11 50.74 50.02 49.49 48.80 48.00 47.30 46.59 44.80
50.04 48.68 48.10 47.93 46.45 39.87 43.66 43.26 43.11 46.64 48.37 50.70 53.11 54.47 55.71 56.36 56.05 55.66 56.66 57.03 56.94 57.96 58.14 58.04 57.41 56.73 57.09 57.19 57.12 56.44 55.06 53.03 53.22 52.49 51.06 51.22 51.22 51.33 51.11 50.85 50.98 50.84 50.12 49.27 48.46 48.14 47.21 46.26 45.61
49.23 46.21 40.15 37.79 38.36 37.31 43.92 42.39 44.02 47.99 49.26 52.01 52.48 54.01 55.36 55.17 55.20 55.42 55.37 55.60 56.27 56.53 57.17 57.51 57.00 55.67 56.23 55.89 54.96 53.52 52.07 50.66 50.23 49.98 50.20 49.09 48.88 49.28 49.95 50.47 50.37 49.97 49.74 49.22 48.40 47.33 46.35 45.67 44.75
46.52 45.54 40.01 31.13 34.70 39.52 43.02 39.77 45.87 49.35 50.70 52.46 54.54 55.21 54.23 54.51 55.37 55.57 55.96 56.19 56.40 56.35 56.94 56.19 55.69 54.01 53.74 53.09 51.82 51.61 50.90 52.51 51.11 50.23 49.93 49.39 49.15 49.20 50.09 50.22 50.13 49.78 49.18 48.62 47.81 46.77 46.02 45.89 45.20
45.88 43.84 46.52 40.61 40.00 38.73 42.59 44.23 47.67 48.94 49.23 50.82 53.05 53.11 53.32 54.51 55.21 55.50 56.03 56.58 56.93 56.76 55.68 55.89 54.21 52.53 51.04 49.03 49.32 49.00 50.21 49.90 49.64 49.96 50.15 49.97 50.10 49.11 49.20 49.39 48.98 49.07 48.42 47.89 47.28 46.00 45.18 45.11 44.77
47.86 48.72 41.34 43.06 32.57 31.47 37.93 39.39 42.53 45.87 47.78 49.74 51.69 52.03 53.61 54.57 54.88 55.42 55.73 55.58 55.81 55.31 54.75 53.46 51.57 48.78 47.84 48.21 47.99 48.04 49.37 49.40 49.38 49.38 48.49 47.98 48.06 47.89 47.62 47.61 47.36 47.12 47.16 46.82 46.21 44.98 44.64 43.72 43.52
45.05 44.30 44.19 44.05 41.11 34.68 33.90 39.18 47.73 47.32 49.98 49.93 51.94 52.94 54.01 54.01 53.82 53.60 53.55 53.47 53.25 52.78 51.54 50.25 49.47 48.28 47.14 45.56 46.33 49.00 48.64 47.19 47.08 46.53 45.89 45.63 45.70 45.17 44.64 44.71 45.22 45.42 45.37 45.49 44.93 44.33 43.09 41.09 41.29
46.92 45.53 45.54 39.49 37.08 40.19 39.19 39.32 47.14 49.07 50.49 52.08 52.44 53.14 54.10 53.30 52.12 51.78 51.20 50.28 49.99 49.94 49.35 47.00 49.31 46.71 45.16 47.11 47.46 46.34 45.99 45.69 45.13 44.65 44.89 45.20 44.25 44.60 44.04 44.39 44.35 44.29 44.39 44.40 42.63 41.42 40.67 39.02 38.74

GFSSGP_sfc_wetblb_051.txt.gz
Wetbulb
63.27 61.51 59.83 56.51 50.29 49.90 48.10 50.81 54.51 57.28 59.32 62.64 63.28 62.02 61.73 63.46 59.08 56.59 68.67 69.65 70.62 71.01 71.66 71.14 71.34 71.89 72.08 72.42 72.53 72.58 72.38 71.84 71.62 71.22 71.14 71.05 70.92 70.95 70.74 70.13 69.74 69.76 69.06 67.73 67.35 67.22 67.01 66.00 64.38
60.77 57.29 55.53 54.17 47.72 45.77 48.54 53.40 52.83 58.37 62.50 64.04 62.67 62.75 61.19 60.42 65.30 66.18 67.35 69.26 70.50 71.16 71.39 70.72 70.89 71.67 72.07 72.06 72.20 72.30 71.86 71.47 71.09 70.63 70.24 70.00 69.76 70.00 70.46 69.47 69.56 68.47 67.54 67.29 67.06 66.22 65.01 64.17 64.18
57.91 56.54 52.48 49.86 48.02 45.13 47.87 52.79 59.84 61.42 62.18 60.80 58.87 61.53 60.79 60.30 64.88 65.07 69.39 69.96 70.55 70.60 71.37 70.86 70.53 71.36 71.83 72.00 72.00 71.73 71.24 71.24 71.06 70.68 70.02 69.92 70.16 70.26 69.67 69.09 68.83 67.44 66.72 66.10 65.41 64.49 64.11 64.01 64.14
55.78 53.24 53.12 48.47 46.59 49.00 50.54 56.76 59.67 58.86 60.82 60.75 60.91 57.51 60.97 65.47 62.54 66.85 69.04 69.93 70.55 69.96 71.48 69.94 70.00 70.98 71.67 71.77 71.71 71.12 70.92 70.73 70.81 70.79 69.91 68.97 68.37 68.68 68.52 67.95 67.76 66.15 65.53 64.90 64.21 63.83 63.66 64.06 64.20
55.48 53.33 48.02 47.45 48.24 49.73 53.67 60.66 59.94 56.40 58.32 58.24 59.01 56.09 57.83 64.46 65.28 67.57 68.53 69.74 69.08 69.83 71.02 71.24 69.55 70.75 71.50 71.51 70.81 70.70 70.39 70.39 70.77 70.00 69.04 67.84 67.57 67.53 67.35 66.87 66.14 65.57 64.97 64.32 63.65 63.80 63.80 64.11 64.03
50.59 52.23 47.07 46.31 48.55 50.87 54.83 60.43 58.59 57.11 57.61 56.81 56.72 57.65 59.31 65.17 65.39 66.81 68.28 68.60 68.88 69.50 70.59 70.66 70.20 70.21 70.20 70.16 70.32 69.73 69.57 69.85 69.66 69.09 68.53 67.38 66.94 66.93 66.29 65.89 65.32 65.03 64.46 63.92 63.85 63.74 63.91 63.75 63.55
49.90 49.85 47.33 48.65 48.63 51.08 54.75 60.56 58.73 56.73 56.44 55.81 59.07 56.60 61.81 64.66 67.10 68.67 68.34 69.24 69.87 70.01 70.02 70.34 70.23 70.16 69.34 68.76 68.42 68.35 68.78 68.82 68.42 68.08 67.65 67.09 67.12 67.02 66.50 66.11 65.03 64.60 64.39 64.10 63.91 63.76 64.03 63.36 62.87
51.94 51.74 48.02 49.83 48.72 50.68 57.18 59.52 59.00 58.76 55.30 60.12 62.02 57.03 58.53 65.17 68.07 64.57 66.41 67.42 68.81 69.19 69.32 69.67 69.95 69.77 69.95 69.59 67.64 67.62 67.50 67.11 66.80 66.61 65.88 65.64 65.66 65.72 65.84 65.95 65.48 64.59 64.41 64.14 64.22 64.08 63.51 62.61 61.70
54.66 48.80 46.83 50.81 49.00 53.15 58.05 56.50 55.93 60.79 58.25 60.31 61.78 62.31 64.04 67.99 68.42 65.02 65.53 67.20 67.78 68.42 68.97 68.53 67.72 68.20 68.32 68.20 68.15 66.75 66.64 66.17 65.64 65.32 65.33 64.34 66.61 66.84 65.83 64.56 64.89 64.29 63.82 63.76 63.45 63.09 62.93 63.28 63.15
50.81 48.70 48.79 54.02 55.51 53.23 56.80 56.79 55.94 56.06 57.17 57.71 61.84 66.07 66.66 67.10 67.47 65.47 65.01 65.84 66.38 66.74 66.43 66.91 67.17 66.89 66.27 64.85 66.40 66.29 65.17 65.02 66.32 66.47 66.76 67.85 68.08 68.17 67.12 65.76 64.60 64.53 63.88 64.07 63.54 63.04 63.59 63.61 64.32
50.92 48.49 52.48 53.58 58.24 57.72 55.65 55.93 56.08 53.13 51.79 55.73 58.39 63.28 65.10 65.98 65.62 65.31 65.32 66.44 66.10 64.75 64.03 65.04 65.61 65.73 65.29 65.14 65.53 65.01 64.94 66.70 67.69 68.42 68.42 68.56 67.99 68.37 67.78 67.65 67.39 67.20 64.49 65.56 64.16 64.30 64.12 64.46 63.85
49.33 51.87 51.30 54.86 55.17 54.74 54.30 55.83 53.22 53.88 54.52 57.60 64.23 64.97 65.36 64.78 64.89 65.15 65.82 65.43 62.19 61.83 62.78 63.45 64.58 65.05 65.47 64.48 64.12 64.69 65.17 66.58 67.17 68.00 68.69 69.05 68.27 68.69 67.58 67.01 66.94 67.61 65.69 64.86 64.57 63.75 64.62 63.93 63.27
49.33 50.96 54.80 54.28 54.78 55.36 55.77 53.61 52.83 55.45 57.67 60.76 64.08 64.01 64.29 64.19 64.83 65.57 65.11 62.23 61.27 61.21 63.31 64.52 64.78 65.53 66.19 66.32 66.89 67.47 67.05 68.12 68.45 68.07 68.36 69.27 68.87 66.91 67.47 67.71 66.06 64.82 64.76 64.18 63.75 63.47 62.69 62.20 62.09
51.94 52.83 52.89 54.01 54.30 54.59 54.72 54.10 55.21 56.54 59.37 61.21 61.90 62.47 63.13 62.64 63.07 62.70 60.78 60.25 60.73 62.54 64.49 65.43 65.49 66.08 66.96 67.34 67.57 67.35 66.63 66.52 66.68 67.23 67.61 67.69 67.10 66.83 66.26 65.67 64.88 64.19 63.25 62.56 62.02 60.92 60.35 59.98 60.60
50.34 49.91 51.37 51.37 54.42 53.23 54.54 50.87 50.90 57.17 59.02 59.09 60.08 60.83 60.96 60.50 61.23 59.96 60.39 60.27 61.48 63.22 65.49 65.91 66.22 67.29 67.00 65.83 65.21 64.53 64.13 63.74 63.18 63.67 65.13 65.57 65.79 64.97 64.40 63.57 62.13 61.07 60.59 60.65 59.59 59.26 59.08 58.20 58.54
48.46 48.37 44.83 49.98 52.02 54.04 52.64 46.22 52.45 57.75 57.78 57.23 58.15 58.91 59.39 59.24 59.15 59.82 59.95 60.00 61.96 63.68 64.94 66.56 66.13 66.61 65.24 63.80 62.76 62.50 61.93 62.10 60.97 61.03 61.56 62.40 62.73 62.12 61.74 59.90 58.77 58.69 57.83 57.17 57.78 57.19 56.49 55.95 55.53
46.50 42.48 44.78 46.21 51.84 51.13 50.61 46.48 52.66 57.45 57.38 57.13 57.70 58.23 58.60 58.83 59.58 61.29 61.86 62.02 62.05 63.58 65.32 65.79 66.06 63.77 63.64 61.47 60.53 59.97 59.51 59.96 59.91 60.11 59.25 59.20 59.18 59.07 58.94 58.27 58.16 58.42 57.54 57.27 56.40 55.25 54.51 52.90 52.51
42.74 43.90 45.77 45.76 49.68 49.75 47.60 48.12 53.47 56.63 56.43 57.59 58.48 59.10 59.17 58.49 59.57 61.67 62.71 63.69 64.17 64.82 66.07 66.11 64.14 62.18 62.16 62.84 60.23 60.56 58.94 58.31 58.32 58.57 58.08 58.52 58.49 58.63 58.33 57.98 57.68 57.44 56.35 55.80 54.71 53.39 52.62 51.25 50.50
46.49 45.26 44.38 46.49 48.65 47.67 47.15 48.58 50.95 55.63 56.25 56.67 57.60 57.90 58.70 59.42 60.94 62.58 63.50 64.26 64.83 65.67 65.72 64.71 62.48 63.66 63.98 63.25 61.94 60.75 59.68 58.89 58.56 58.45 58.76 58.56 58.27 58.00 58.02 57.49 56.97 56.56 54.55 53.99 53.44 51.61 50.28 49.27 49.97
47.12 45.11 44.21 47.19 48.49 48.61 47.53 47.55 50.60 53.78 55.08 56.27 56.85 57.98 58.83 59.70 60.81 61.97 63.58 64.34 64.62 64.67 64.34 63.18 63.14 63.52 64.37 63.55 63.31 62.20 60.52 59.24 58.87 58.76 58.55 58.20 58.09 57.22 56.89 56.87 55.73 54.95 53.24 52.24 51.49 50.54 48.47 48.42 48.91
46.96 45.52 46.20 45.64 47.81 48.56 48.79 47.66 49.44 53.29 55.78 57.20 58.29 59.14 59.83 60.14 60.61 61.78 62.69 62.60 62.29 61.92 63.50 64.19 64.35 64.27 63.87 62.55 61.25 60.81 59.66 58.85 57.44 57.60 57.60 57.20 57.19 56.60 56.38 55.47 54.26 53.10 52.00 50.12 50.40 49.79 48.00 45.51 46.81
44.26 49.19 47.62 46.61 46.10 41.84 49.19 39.68 47.93 50.75 52.35 54.50 56.54 58.05 59.09 60.10 60.72 61.29 61.85 62.61 63.28 63.24 63.79 62.87 62.81 62.60 61.53 61.09 59.44 58.53 56.52 55.31 57.48 57.69 57.74 57.65 56.92 55.62 54.42 53.41 52.63 52.22 51.44 50.48 50.11 49.23 48.56 47.31 44.24
47.04 49.83 48.22 47.40 46.21 44.85 46.12 42.46 45.62 51.34 49.61 51.69 55.00 57.21 58.71 59.27 59.73 58.49 59.21 60.16 61.00 61.73 61.75 62.14 61.78 60.50 60.33 59.75 59.46 58.43 57.86 58.24 58.15 56.89 55.68 55.39 55.25 54.45 52.98 52.30 51.75 51.63 51.08 50.67 50.03 49.18 48.15 47.19 45.26
50.92 48.99 48.70 48.48 46.71 40.82 44.28 44.19 43.78 48.43 50.08 52.41 54.52 56.44 57.67 58.78 58.31 57.58 58.17 58.49 58.98 60.28 60.07 59.85 59.15 58.63 59.08 59.00 58.78 57.90 56.85 55.81 55.23 54.35 52.66 52.56 52.18 51.90 51.89 51.43 51.80 51.39 50.76 50.24 49.50 49.31 47.78 46.91 45.50
49.81 47.08 40.46 39.03 39.35 38.29 46.06 43.64 44.89 50.30 51.42 53.37 54.23 55.84 57.89 58.87 57.06 56.65 56.66 57.20 58.15 58.42 59.02 59.06 58.32 57.46 58.47 58.51 57.62 56.31 54.69 52.77 51.85 51.97 51.66 50.44 49.90 50.00 50.54 50.96 50.28 49.56 49.70 49.65 49.38 48.63 47.53 46.52 45.07
47.98 47.02 41.16 33.15 35.57 39.30 45.63 39.83 45.77 52.32 52.60 54.49 56.29 56.94 58.01 57.28 56.62 56.62 57.20 57.67 58.01 58.16 58.50 58.41 58.08 57.17 57.34 56.34 54.61 54.00 52.29 53.06 52.25 51.58 50.88 50.30 49.94 50.12 50.86 50.02 49.51 49.19 49.25 49.81 48.53 47.77 47.31 46.46 46.18
47.61 44.12 48.72 42.80 43.14 39.51 41.55 45.96 50.01 51.56 51.53 53.43 54.83 56.07 56.34 55.83 56.41 56.79 57.54 58.12 58.29 58.16 58.41 58.26 57.58 56.43 55.00 53.22 51.94 51.30 51.99 50.89 50.37 50.90 51.05 50.25 50.26 49.03 48.65 48.62 48.08 47.78 47.61 47.41 47.70 46.64 45.96 45.47 44.69
48.95 50.75 42.70 43.51 34.13 33.31 39.95 41.20 43.76 47.20 49.24 51.62 53.59 54.85 55.24 55.91 56.48 57.13 57.77 58.07 58.60 58.47 58.30 58.37 57.31 54.24 51.19 51.13 50.40 48.43 49.39 50.98 50.69 50.11 48.85 48.21 47.72 47.01 46.25 45.83 45.65 45.46 45.75 46.18 45.92 45.67 45.51 44.46 43.93
47.11 45.30 45.71 45.78 43.79 36.45 34.77 40.63 49.10 48.24 50.56 50.85 53.26 54.76 55.11 55.80 56.51 57.14 57.70 58.28 58.36 58.06 56.91 54.95 53.36 51.42 50.63 48.49 48.56 48.67 49.82 48.93 48.48 47.71 47.12 46.31 46.32 45.72 44.98 44.72 44.67 44.76 44.66 44.97 44.57 44.39 43.52 42.14 42.12
49.41 47.10 47.02 41.33 39.42 41.60 40.91 40.41 49.45 50.43 51.72 52.53 53.06 54.54 55.79 56.66 56.93 57.33 57.19 56.44 55.90 54.95 54.02 52.60 51.71 49.68 47.85 47.89 48.47 47.86 47.62 47.60 46.85 45.88 45.77 46.12 45.23 45.44 44.76 44.46 44.25 44.04 43.78 43.94 42.85 42.09 42.36 40.70 39.00

GFSSGP_sfc_wetblb_054.txt.gz
Wetbulb
62.87 61.12 59.86 55.71 47.04 47.85 44.71 47.56 52.71 54.69 57.89 62.30 62.97 62.30 60.21 61.39 59.66 54.78 67.07 69.90 70.04 68.67 69.67 70.36 71.36 72.06 72.22 72.51 72.61 72.43 72.44 72.30 72.05 72.04 71.86 71.77 71.48 71.27 70.64 70.56 70.25 68.91 68.09 67.94 67.36 66.07 64.94 64.70 64.57
59.74 60.15 56.53 50.68 44.32 41.99 44.71 51.77 54.24 58.65 59.31 60.82 60.07 62.62 61.63 59.00 64.84 64.70 66.31 70.18 70.64 69.26 68.76 70.00 71.12 71.69 72.26 72.34 72.27 72.13 72.12 71.97 71.65 71.19 70.88 70.66 70.52 70.40 69.52 69.25 69.13 68.60 67.18 66.36 65.41 64.91 64.96 64.72 64.64
57.93 57.33 50.34 46.88 44.74 43.26 44.70 56.55 56.63 59.62 59.75 59.88 58.27 61.72 60.89 60.13 64.00 65.64 68.58 69.48 70.97 69.01 69.48 70.24 70.63 71.12 71.83 71.68 71.73 71.84 71.45 71.19 71.08 70.63 70.38 70.39 70.14 69.44 68.69 68.87 68.11 67.55 66.00 65.26 64.89 65.13 64.67 64.70 65.18
54.98 53.59 50.18 45.19 44.67 47.80 48.35 56.16 54.82 56.42 60.00 61.43 59.45 55.55 60.27 64.32 64.69 67.32 69.21 69.18 69.67 69.62 69.76 69.42 69.88 70.40 71.43 71.67 71.56 71.23 70.84 70.76 70.64 70.53 69.79 68.89 68.93 68.42 67.81 67.92 67.35 65.98 65.16 64.56 64.68 64.74 64.61 64.94 65.11
54.84 51.45 44.41 44.57 46.36 49.42 52.42 59.19 57.77 57.07 57.25 58.29 60.39 56.44 56.64 63.93 67.57 68.07 68.13 68.75 68.56 68.45 69.25 70.02 68.85 69.67 71.44 71.49 71.10 70.65 70.56 70.74 70.24 69.43 68.83 68.43 67.88 67.49 67.28 67.17 66.55 65.69 64.74 64.65 64.65 64.45 64.61 64.77 64.80
49.64 49.66 43.74 43.62 46.79 50.61 52.29 58.77 56.81 56.52 57.04 57.02 56.64 57.41 58.24 63.41 64.97 66.94 68.31 67.72 68.50 68.16 69.31 69.79 69.69 69.91 70.29 70.33 69.92 69.50 69.90 69.55 69.10 68.56 68.16 67.91 67.63 67.03 66.69 66.47 66.24 65.51 64.98 64.44 64.34 64.47 64.45 64.41 64.19
47.75 47.08 44.46 46.35 47.35 49.99 55.19 59.16 55.24 54.81 54.87 56.40 59.09 56.53 59.29 62.29 64.69 65.81 68.33 66.19 66.83 68.66 68.53 68.98 69.24 69.45 68.78 68.31 68.19 68.33 68.64 68.12 67.98 67.66 67.23 67.09 66.74 66.59 66.41 66.14 65.93 65.58 65.27 64.90 64.42 64.45 64.54 64.04 63.33
50.09 48.49 45.83 47.48 46.96 49.71 55.87 55.28 56.71 57.61 55.96 60.78 61.15 55.60 56.87 62.89 66.56 67.37 67.17 64.37 66.66 68.20 68.31 68.40 68.66 68.89 68.43 67.91 67.37 67.21 66.96 66.55 66.32 65.92 65.67 65.52 65.35 65.71 65.90 65.58 65.60 65.57 65.16 64.66 64.07 64.75 64.30 64.23 63.30
52.97 45.79 44.53 47.02 50.09 52.60 53.26 52.85 56.99 58.87 57.06 58.78 60.59 56.78 58.97 65.53 64.79 61.89 62.96 64.79 65.13 66.70 67.82 68.21 67.99 68.23 67.54 67.33 67.09 66.42 66.44 65.80 65.17 64.98 65.08 63.75 63.76 63.93 64.89 64.70 65.25 65.31 64.95 64.74 64.48 64.30 64.05 63.64 63.65
49.12 46.09 46.28 52.39 53.78 52.30 52.15 51.79 53.08 54.47 52.27 56.69 59.72 60.39 61.73 64.45 61.31 59.63 59.87 60.86 63.30 63.98 65.40 66.43 66.54 66.70 66.86 65.50 66.06 65.20 64.55 63.67 63.96 64.00 63.95 64.60 66.37 65.10 65.61 64.35 64.76 65.16 64.86 64.84 64.64 64.42 63.48 63.07 61.02
49.41 46.09 50.16 55.38 55.45 55.43 52.60 51.96 53.48 54.78 52.34 54.26 59.16 61.99 64.05 64.29 61.57 58.43 58.66 62.60 62.52 63.91 64.16 64.40 65.56 65.63 64.52 63.60 65.04 63.75 63.20 65.00 65.79 66.73 67.16 66.91 66.43 66.47 65.25 65.34 64.67 64.35 64.36 64.23 63.29 62.36 61.94 62.27 61.12
47.24 50.46 52.94 54.70 55.95 53.55 53.42 54.24 53.85 54.86 55.16 58.99 63.32 63.29 63.43 62.46 62.22 61.54 58.95 63.17 62.42 61.81 62.21 63.53 64.54 64.92 64.21 63.89 63.84 63.66 64.02 66.09 65.92 66.76 66.61 66.18 65.54 65.68 64.81 64.37 64.84 64.38 63.34 62.42 62.41 61.54 62.32 60.95 60.65
48.90 50.48 54.06 55.00 54.40 53.61 55.04 52.15 51.27 54.15 57.25 62.84 62.99 62.59 62.30 62.81 63.21 63.94 63.59 61.83 60.94 60.66 61.99 62.84 63.89 64.75 64.50 64.93 65.94 65.31 66.43 66.08 66.11 66.70 67.16 66.64 65.59 63.91 64.13 64.35 64.00 63.31 62.48 60.92 59.80 59.34 58.98 58.14 58.20
51.34 51.18 52.97 53.73 53.60 54.21 53.49 52.44 53.71 55.45 58.57 59.77 60.24 61.38 62.00 61.85 58.55 61.62 60.83 59.18 59.71 61.25 62.45 63.18 63.96 65.51 66.49 65.82 66.07 64.71 63.80 62.56 62.68 64.13 64.56 65.65 65.12 64.66 63.95 63.33 62.67 60.62 59.80 59.26 57.98 58.20 56.27 56.05 56.59
52.44 49.57 51.40 51.94 53.57 50.27 52.76 50.58 51.19 57.10 59.27 58.04 58.65 60.01 59.63 60.66 62.03 59.38 59.01 59.22 60.67 62.79 63.47 63.34 64.17 66.03 65.21 63.95 63.67 62.25 61.74 61.12 60.48 61.94 63.20 63.01 63.14 62.85 61.67 59.26 57.94 57.45 57.58 55.85 55.66 55.19 55.28 54.31 54.43
48.52 49.01 44.33 48.98 51.18 52.81 51.79 43.75 52.83 56.91 57.06 56.50 57.68 58.07 58.69 59.31 58.64 58.98 59.73 60.04 61.64 63.49 63.73 64.14 64.97 64.90 63.72 62.72 61.75 60.98 60.42 59.90 60.63 60.15 60.76 60.81 60.72 60.03 59.15 57.86 56.02 56.17 55.36 54.67 54.06 53.25 51.56 50.85 49.97
46.35 40.50 43.67 46.51 50.75 51.34 49.97 46.85 53.18 56.55 56.06 55.36 56.43 56.92 56.96 57.05 57.89 58.94 59.84 60.02 61.84 64.08 64.61 64.21 63.99 62.79 61.85 60.36 60.38 59.70 59.85 60.51 59.58 59.12 58.48 58.40 57.95 58.25 56.73 56.29 55.96 56.02 54.83 54.54 52.62 51.04 49.88 47.75 47.26
41.24 42.53 44.59 44.43 47.97 50.06 47.79 47.35 51.96 55.22 55.81 55.03 55.46 56.26 56.50 55.92 57.17 60.01 61.05 62.37 61.99 64.15 65.45 64.19 62.90 60.75 60.44 61.07 60.66 60.41 60.67 59.25 58.49 57.77 57.49 57.67 57.44 57.67 56.67 55.93 54.93 54.92 53.29 52.37 51.08 49.33 48.46 47.14 46.18
46.85 45.22 44.86 46.75 49.06 47.45 46.41 47.32 49.89 52.97 54.64 54.91 55.66 56.40 56.88 57.42 60.09 61.42 62.69 63.66 63.12 63.82 64.64 63.01 60.99 61.24 61.56 60.68 59.69 58.78 58.08 58.17 57.13 57.26 57.73 57.34 56.99 56.69 55.94 55.34 54.43 53.55 51.63 50.26 49.37 47.55 46.05 45.16 45.69
46.38 45.08 43.90 46.26 47.26 47.02 46.35 46.44 49.23 51.76 52.62 55.53 56.34 56.84 57.50 58.13 59.11 60.62 62.24 63.54 64.09 64.25 62.90 62.48 62.25 61.45 62.23 62.62 62.16 60.87 58.94 57.44 56.84 57.03 56.89 57.08 56.37 55.62 55.42 54.19 52.53 51.81 49.85 48.92 48.16 46.57 44.71 43.89 44.65
46.59 45.09 45.15 44.59 46.24 47.59 47.24 44.45 47.55 51.16 53.56 55.13 56.18 57.51 58.26 58.58 58.89 60.67 61.98 62.78 63.76 62.58 62.91 62.91 62.66 62.48 63.17 62.65 60.66 60.10 59.21 57.14 55.55 55.65 55.29 55.58 55.85 55.35 53.86 52.87 51.47 49.76 48.66 46.95 46.62 45.88 44.57 41.65 42.84
43.66 48.62 46.93 46.49 44.89 39.64 47.62 37.42 45.65 49.27 50.96 53.49 55.30 56.20 57.57 58.93 60.39 61.28 61.69 61.07 61.64 62.05 62.83 63.31 63.57 63.03 62.48 60.40 59.07 57.41 55.06 53.82 55.20 55.30 55.73 55.46 55.50 53.91 53.02 51.45 49.90 49.13 48.63 47.28 46.69 46.37 44.48 43.19 40.79
45.31 48.31 48.59 46.71 44.59 44.16 42.61 40.23 43.87 48.55 48.24 51.37 54.57 56.72 58.24 59.56 60.13 60.38 61.09 61.18 62.29 62.93 62.98 62.47 61.65 60.75 60.01 59.49 58.66 57.30 56.54 56.29 55.95 55.36 54.57 53.89 53.54 53.48 52.23 50.69 49.65 48.39 48.45 47.65 46.99 46.82 45.28 43.50 41.49
51.55 48.52 48.44 47.52 45.70 37.17 41.77 41.49 42.27 44.97 48.61 51.43 54.17 56.22 57.88 58.79 59.36 59.46 60.77 60.77 60.12 61.69 61.39 61.30 59.43 58.67 58.98 58.36 58.30 57.27 56.03 53.73 52.55 51.78 50.33 51.36 50.47 49.88 49.76 49.82 48.96 48.46 47.66 46.94 47.12 45.17 44.55 43.65 42.59
49.00 46.01 39.41 34.32 36.10 37.34 44.56 42.41 44.01 48.33 50.75 52.92 53.68 55.44 57.51 58.23 57.47 57.02 56.90 57.06 57.77 57.99 58.59 58.57 57.77 56.82 57.69 57.69 57.24 56.09 53.63 51.63 50.80 51.06 49.79 48.74 48.29 47.90 47.93 48.35 47.36 46.59 46.48 46.28 46.18 45.44 44.05 43.56 41.87
46.53 44.97 38.43 32.54 32.63 38.48 44.60 39.66 44.71 51.44 52.97 55.39 55.65 56.28 57.37 57.75 56.62 56.00 56.01 56.58 57.12 57.53 57.65 57.65 56.88 56.34 57.17 56.76 54.67 53.71 52.09 51.48 50.70 49.67 48.63 48.50 47.88 47.78 48.39 47.28 46.62 46.05 46.05 45.23 44.65 44.64 43.75 43.45 42.03
46.71 43.47 48.13 41.95 43.23 39.29 41.13 43.37 49.94 51.20 50.81 53.18 54.44 55.56 56.24 57.18 55.85 55.67 56.39 56.99 57.02 57.20 57.52 57.81 57.07 56.32 56.00 53.64 52.64 51.44 50.73 49.50 49.02 49.55 49.24 48.22 47.59 46.57 45.18 44.50 44.11 43.78 43.60 43.60 43.26 42.03 42.81 41.65 40.96
47.66 48.91 42.66 43.23 33.96 32.48 38.25 40.36 42.62 46.82 48.10 51.18 52.92 54.39 56.07 56.76 55.79 55.79 56.28 57.07 57.44 57.77 57.96 58.26 57.53 54.01 51.63 51.17 50.32 49.45 48.34 48.65 49.79 48.40 47.24 46.39 45.15 44.84 43.91 43.15 42.87 42.67 42.68 42.57 41.87 40.91 41.75 40.61 40.47
46.23 44.50 44.94 43.86 43.39 36.30 34.79 38.85 49.69 48.28 49.96 50.26 52.69 54.84 55.98 55.50 55.30 55.94 56.58 57.22 58.02 56.82 57.17 56.89 55.80 51.04 50.08 48.81 48.60 48.44 48.84 48.63 47.31 46.12 45.33 44.34 44.18 43.61 43.13 42.98 42.46 42.23 41.88 41.79 40.95 40.91 40.18 39.35 38.89
48.19 46.37 45.98 41.13 38.53 42.67 40.25 39.42 49.85 51.14 51.67 51.97 52.03 54.62 55.96 55.90 55.88 56.45 57.01 56.68 57.05 56.32 55.63 54.58 52.69 50.68 48.70 48.66 48.52 48.52 48.68 46.72 45.64 44.85 44.36 44.32 43.21 43.65 42.93 42.88 42.55 42.30 41.93 41.52 40.29 39.07 38.77 37.95 36.41

GFSSGP_sfc_wetblb_057.txt.gz
Wetbulb
59.13 57.07 54.10 50.25 39.57 37.78 35.02 40.57 45.66 54.80 55.78 58.37 61.14 59.64 58.15 60.16 58.23 52.73 67.04 66.82 68.17 69.09 71.05 71.44 71.32 72.05 72.21 72.43 72.39 72.38 72.34 72.49 72.31 72.10 71.84 71.40 71.07 70.54 69.75 69.65 69.29 68.41 67.15 66.01 65.45 65.62 65.43 65.26 65.23
54.73 57.03 52.92 45.64 35.53 30.49 35.47 46.07 53.15 55.40 57.72 59.76 60.76 59.67 58.71 58.43 63.37 64.56 66.06 67.30 67.77 68.85 70.05 70.83 71.02 71.70 72.09 71.93 71.89 71.81 71.98 71.87 71.42 71.18 71.13 71.15 70.01 69.31 68.49 68.51 68.34 67.61 65.68 65.56 65.91 65.89 65.34 64.83 64.77
56.49 55.43 44.10 38.19 34.11 33.86 36.32 53.52 53.50 56.05 58.17 58.58 56.80 59.41 60.32 59.46 64.26 65.57 68.46 67.86 67.31 68.22 69.65 70.88 70.65 70.97 71.63 71.66 71.64 71.38 71.22 70.92 70.83 70.84 70.96 70.22 69.24 68.25 67.74 67.97 67.45 66.71 65.26 65.68 65.87 65.42 64.83 64.47 64.93
50.39 46.43 44.30 36.17 35.12 40.82 42.84 52.62 57.10 56.41 57.30 58.71 57.10 54.01 59.80 63.34 64.65 66.69 68.27 67.95 67.35 68.68 69.77 69.26 69.69 70.42 71.24 71.45 71.19 70.90 70.76 70.33 69.93 69.88 70.00 69.11 68.36 67.57 66.93 67.49 66.74 65.40 65.22 65.55 65.16 64.88 64.53 64.99 64.64
47.41 43.68 36.17 34.50 37.56 44.19 52.03 55.06 54.39 53.81 55.47 56.82 58.08 53.75 55.90 64.25 66.47 66.36 67.43 68.04 67.53 68.13 69.02 69.00 68.82 70.24 70.76 70.78 70.61 70.50 70.10 69.50 68.91 68.89 68.73 68.64 67.53 66.69 66.22 66.89 66.34 65.56 64.97 64.83 64.92 64.72 64.53 64.61 64.27
44.20 42.00 34.31 34.09 39.43 51.97 54.40 55.13 55.09 54.14 55.43 56.55 55.02 54.81 55.69 64.76 65.29 66.51 67.09 67.32 67.33 67.00 67.66 68.06 69.60 69.49 69.24 69.36 69.62 69.22 68.83 68.46 68.07 68.14 68.15 67.77 67.15 66.81 66.64 66.51 66.14 65.66 65.10 64.96 64.70 64.82 64.40 63.95 63.64
41.29 37.94 35.82 37.72 40.28 50.69 52.68 55.81 53.47 52.97 53.70 54.96 57.86 53.10 56.79 58.74 63.57 66.45 66.51 66.95 66.44 67.23 67.32 68.21 68.06 68.20 68.03 67.67 67.88 67.76 67.47 67.28 67.10 67.17 66.76 66.42 66.13 65.88 66.22 66.15 66.18 65.61 65.43 65.24 64.81 64.10 63.80 63.70 63.21
44.10 39.75 36.85 39.63 43.74 47.52 52.76 54.32 55.59 54.48 54.19 58.04 58.81 53.49 54.28 59.10 62.86 63.13 65.01 66.16 66.33 66.94 67.27 66.71 67.69 67.52 66.87 66.95 66.71 66.29 66.04 65.84 65.68 65.71 65.25 65.08 64.90 65.08 65.32 65.11 65.50 65.54 65.24 64.91 64.77 64.41 63.88 63.59 63.39
45.32 37.49 36.61 39.48 47.99 48.14 52.83 52.38 55.06 57.90 54.43 56.20 57.28 56.80 61.04 63.19 63.10 61.53 62.37 63.41 64.16 65.31 66.31 66.44 67.36 66.61 66.29 66.29 66.35 65.80 65.81 65.08 64.59 64.76 64.55 63.00 62.97 63.05 63.86 63.85 64.76 65.37 64.89 64.48 64.44 63.84 63.49 62.81 62.53
41.34 36.77 40.24 50.03 51.10 49.39 51.07 53.09 53.18 53.46 54.16 53.44 55.09 58.80 62.76 61.22 61.67 61.65 60.68 60.37 62.23 62.77 65.17 65.48 66.67 65.81 65.63 66.22 64.18 63.41 64.12 62.43 61.95 62.07 62.38 61.50 62.05 62.17 63.84 63.54 64.23 64.84 64.54 64.38 64.08 63.95 63.42 62.42 59.42
43.37 40.16 48.18 52.25 52.95 52.43 50.60 51.41 54.12 51.27 47.74 52.81 51.59 57.61 60.35 58.43 59.14 60.02 61.16 61.21 61.25 62.52 63.86 64.62 65.54 65.08 62.38 63.44 62.87 61.68 61.10 61.13 61.79 61.29 61.54 62.99 64.11 63.17 64.08 62.55 63.34 62.92 64.00 62.60 63.29 62.16 61.08 60.59 58.42
42.54 49.62 53.90 53.57 53.40 52.39 50.59 51.04 51.82 51.71 52.59 56.35 57.02 60.22 60.20 57.71 57.85 58.65 60.61 61.32 61.93 61.18 61.23 61.35 61.50 61.09 60.45 62.27 61.24 60.04 60.50 62.73 63.94 64.62 64.20 63.17 62.61 62.15 61.79 61.53 62.65 62.62 61.40 58.68 58.36 57.47 57.04 56.40 56.70
45.12 51.52 52.19 52.50 52.11 51.58 53.42 49.75 49.74 50.21 57.32 60.52 60.88 62.12 60.65 59.10 58.22 59.52 61.21 61.99 60.10 59.38 60.01 60.08 60.18 59.81 59.87 61.81 62.75 63.46 63.09 64.04 63.85 63.85 65.29 63.72 62.62 61.44 62.19 61.24 58.83 57.82 57.96 56.50 55.49 55.55 54.04 54.43 54.97
48.39 50.56 50.63 50.74 50.73 53.21 51.45 50.44 50.06 51.33 56.47 58.27 60.87 59.84 59.43 59.67 59.19 60.40 61.54 60.62 58.64 59.75 59.34 59.69 60.41 60.18 63.74 62.56 60.52 59.70 59.37 60.24 61.60 61.92 62.79 63.27 62.20 60.75 60.00 58.31 57.33 56.55 55.53 53.44 53.38 52.27 52.49 51.98 51.56
49.59 46.30 49.68 50.73 51.33 50.29 51.96 47.69 47.62 51.65 56.23 55.86 58.27 58.58 57.80 58.40 57.03 58.50 60.09 59.09 58.69 59.85 60.12 59.89 60.80 62.92 62.81 60.17 59.79 59.17 58.47 58.37 59.69 60.23 60.75 60.58 60.02 58.34 56.61 55.52 53.94 53.31 52.43 52.31 52.12 50.27 49.47 48.74 49.29
45.18 45.44 41.13 48.67 50.76 51.31 49.43 41.68 49.34 54.21 53.63 52.71 53.77 57.11 56.06 58.88 57.59 59.31 60.16 58.19 60.41 60.34 60.28 61.67 64.00 61.75 60.41 59.42 58.83 58.72 58.14 57.98 57.84 58.26 57.85 57.65 56.99 56.31 54.76 52.56 52.14 52.68 52.25 52.09 49.93 48.55 47.38 46.23 45.52
43.78 38.09 41.18 43.93 50.60 49.56 47.31 42.09 49.19 53.42 53.23 52.13 51.92 52.44 55.67 53.84 55.49 56.14 58.49 60.42 61.08 61.00 61.09 60.86 60.47 59.63 59.16 58.44 57.54 57.69 57.63 57.14 56.22 56.08 55.20 55.05 55.10 55.03 53.32 52.72 51.99 52.44 51.52 49.89 49.36 47.34 45.57 43.89 43.48
38.98 40.00 42.09 41.06 45.17 47.64 43.86 43.27 48.41 51.27 52.02 50.70 51.19 51.55 51.68 51.71 53.25 55.51 56.63 59.96 61.63 61.60 61.70 61.00 59.52 58.47 57.82 57.80 56.98 57.13 56.80 56.00 56.06 54.20 54.95 54.75 54.71 54.74 53.58 52.40 51.63 51.02 49.12 48.01 47.29 44.97 44.71 43.54 42.62
44.88 42.85 41.52 43.68 45.74 44.69 43.34 45.37 48.79 50.31 51.56 50.62 49.34 51.50 51.68 52.31 55.81 56.48 57.74 57.52 60.59 61.02 60.56 59.43 58.15 58.48 58.44 57.30 56.34 56.04 54.79 54.93 53.82 53.68 54.59 54.04 53.48 53.63 52.07 51.27 50.06 48.94 47.46 46.01 45.84 43.97 42.97 42.05 41.99
44.53 43.06 41.76 45.51 46.12 44.74 42.46 42.55 46.52 50.04 49.13 49.51 50.49 50.79 51.28 54.19 55.29 57.38 57.87 58.30 61.24 60.80 59.85 59.17 58.50 59.23 58.78 58.22 57.86 55.90 54.83 53.50 52.70 52.92 52.99 53.19 52.77 52.54 52.46 49.84 48.25 47.37 45.66 44.96 43.77 42.92 41.46 41.06 41.45
44.45 41.96 42.32 42.39 44.33 43.04 41.42 40.23 43.35 47.33 50.62 50.83 51.98 53.71 54.03 54.62 54.85 57.20 58.85 59.80 60.07 59.64 59.53 59.29 59.33 59.60 59.33 59.86 59.83 55.60 54.01 52.49 51.43 51.01 50.75 51.79 52.66 51.77 50.11 48.71 47.35 46.00 45.18 43.56 42.82 42.52 41.52 39.36 40.19
41.06 47.23 46.67 44.69 41.26 35.29 43.06 33.92 41.26 45.78 47.33 49.97 52.45 52.91 53.95 55.59 57.41 58.70 58.68 58.72 59.76 59.80 60.31 60.84 60.44 59.77 60.18 60.60 56.18 54.13 50.83 49.78 50.22 50.85 51.54 51.49 52.05 50.88 50.12 48.26 46.72 46.17 45.96 44.45 43.63 44.40 41.86 40.82 39.02
44.03 48.46 46.53 45.50 41.61 39.30 40.04 35.60 39.90 45.16 44.62 47.19 49.54 51.70 53.01 56.00 57.04 57.79 58.52 58.80 58.95 60.03 59.18 59.60 59.79 59.76 59.17 56.61 54.49 52.35 50.91 51.68 53.06 53.83 52.95 52.41 52.18 51.69 49.66 48.00 46.18 45.63 45.32 44.40 43.84 43.68 42.11 40.92 39.29
49.65 46.41 45.66 44.14 41.45 33.74 40.57 38.55 35.98 40.64 45.31 48.89 50.70 52.17 54.03 55.27 57.22 59.08 58.89 59.17 58.20 58.49 58.90 59.13 56.95 55.47 54.14 54.16 53.00 51.89 50.51 48.86 47.37 47.11 48.24 47.95 47.08 46.70 46.48 46.50 44.96 44.37 43.50 42.84 42.52 42.35 41.66 41.24 40.68
46.03 41.93 33.43 31.14 30.44 31.15 43.41 39.31 40.06 45.46 49.12 50.49 50.42 51.64 53.17 54.37 54.31 56.33 56.95 55.76 55.01 54.07 53.98 53.50 53.60 53.09 53.50 53.08 51.11 48.54 47.34 46.80 46.22 46.17 46.90 46.40 45.03 45.63 44.82 44.50 43.32 42.76 42.79 42.79 42.40 41.64 41.69 41.50 40.08
43.07 42.08 33.43 28.31 29.19 32.34 42.78 37.21 42.35 47.58 50.31 51.95 52.61 52.23 53.53 52.45 53.29 53.14 53.34 53.26 52.95 53.28 52.77 52.40 52.55 52.62 53.13 51.05 49.06 47.98 48.02 46.87 47.74 47.58 46.83 45.90 45.19 45.19 42.15 41.31 41.32 41.09 41.01 40.35 40.14 39.50 39.27 40.47 39.49
43.05 39.96 44.81 38.44 38.66 31.00 36.80 40.71 46.40 47.76 48.36 49.36 49.71 52.57 51.76 51.86 51.20 52.06 52.56 53.34 52.89 52.97 52.99 52.38 52.06 52.69 51.88 49.00 47.55 46.51 46.54 47.03 47.09 47.38 46.91 46.86 43.34 43.32 40.59 40.18 39.75 39.80 39.79 39.71 39.30 38.33 37.96 38.65 38.44
45.68 46.66 37.36 36.96 27.51 25.97 33.07 34.92 37.70 43.06 46.06 48.91 49.14 49.96 51.59 52.02 50.89 51.49 52.50 53.29 54.05 54.03 53.69 53.04 53.59 52.11 48.52 46.77 45.97 46.54 46.42 47.11 47.78 46.92 45.91 43.20 40.83 40.74 40.12 39.50 39.40 39.38 39.35 39.40 38.56 37.78 38.33 37.45 36.83
42.22 39.94 40.96 39.87 36.41 28.43 26.32 32.75 44.31 44.94 46.33 47.00 48.90 51.55 51.97 51.83 50.73 50.48 51.43 53.88 54.66 55.11 55.38 51.45 49.06 48.88 46.85 44.51 44.94 46.03 46.57 47.71 46.52 44.74 42.18 40.49 40.25 40.16 40.06 40.15 39.72 39.65 39.10 39.24 38.05 37.50 37.31 36.51 35.38
44.72 42.58 42.46 31.21 33.40 34.91 30.51 32.64 44.63 45.69 46.90 47.94 48.65 52.35 52.77 52.60 51.59 50.97 51.75 54.32 54.66 54.58 53.74 48.86 47.91 45.78 44.04 45.98 46.76 47.30 48.02 46.72 44.10 42.41 40.58 40.09 39.40 40.14 39.93 40.31 39.80 39.94 39.27 37.99 36.88 36.26 36.02 35.17 33.89

GFSSGP_sfc_wetblb_060.txt.gz
Wetbulb
57.24 55.99 52.14 49.04 38.91 35.58 33.00 37.83 42.73 49.71 53.55 58.52 59.78 59.02 58.35 59.80 57.23 51.05 65.62 67.31 69.02 69.83 71.17 71.51 71.43 72.06 72.20 72.24 72.06 72.15 72.11 71.93 71.55 71.55 71.15 70.98 69.93 68.95 68.34 68.49 68.32 67.27 65.90 66.02 66.00 65.62 65.35 65.08 64.91
54.94 55.83 50.82 43.07 34.16 29.43 33.10 41.35 46.00 54.12 56.82 59.50 59.76 60.26 59.04 58.15 63.50 63.25 64.07 67.77 69.64 70.19 70.75 70.96 71.01 71.39 71.80 71.70 71.60 71.32 71.69 71.53 71.43 71.19 70.46 69.81 68.61 68.22 67.71 67.23 66.96 66.88 66.12 66.08 65.74 65.32 64.84 64.52 64.59
54.13 53.34 44.03 38.32 31.45 30.68 32.77 49.92 52.08 54.58 56.99 57.74 55.68 59.07 59.18 59.96 64.41 64.93 65.29 66.83 69.14 69.75 70.37 70.73 70.38 70.79 71.51 71.40 71.11 71.11 71.15 70.90 70.73 70.64 69.88 68.49 67.96 67.30 66.60 66.75 66.68 66.71 66.00 65.71 65.26 64.74 64.26 64.13 65.08
48.45 44.60 41.50 35.05 32.25 37.72 41.90 48.50 55.61 55.91 55.99 56.54 55.85 53.62 59.94 64.99 64.33 66.67 66.74 67.38 67.31 68.90 70.03 69.38 69.71 70.60 71.24 70.97 71.06 70.86 70.69 70.28 70.11 69.85 69.26 68.12 67.38 66.60 66.12 66.78 66.29 66.07 65.64 65.29 64.70 64.24 64.28 64.85 64.66
45.57 40.81 35.24 31.34 34.57 45.91 52.48 53.69 53.65 52.43 54.41 54.75 55.30 52.65 56.96 64.42 66.40 67.03 66.04 67.43 67.61 68.59 68.60 68.91 68.68 69.81 70.21 70.99 70.62 70.07 69.66 69.23 69.39 69.10 68.60 68.05 66.63 66.10 66.03 66.50 66.47 66.28 65.23 64.90 64.68 64.02 64.48 64.20 64.05
42.81 39.32 32.28 32.04 36.54 51.04 53.19 54.32 54.39 52.95 53.86 54.37 53.46 54.20 55.82 65.42 65.27 66.42 67.52 67.33 67.04 65.91 66.66 67.20 67.97 67.95 68.62 69.72 69.62 68.85 68.35 68.28 68.27 68.26 68.03 67.54 66.69 66.46 66.27 66.35 66.16 65.84 65.49 65.10 64.68 64.36 64.26 63.87 64.11
40.24 36.78 33.33 36.93 36.97 48.89 52.02 54.72 52.93 53.29 52.67 52.14 56.02 52.94 56.60 63.12 65.70 66.71 66.08 66.29 66.16 66.13 66.16 66.69 66.77 67.04 67.85 67.74 67.52 66.98 66.97 67.15 67.22 67.03 66.57 66.25 66.08 65.95 66.06 65.99 66.06 65.66 65.45 64.97 64.39 63.68 63.76 63.96 64.02
42.25 38.46 33.66 37.74 37.83 44.78 51.98 53.77 55.71 54.65 51.72 57.13 57.42 52.94 52.69 60.33 64.98 65.36 65.35 65.38 65.44 65.77 65.91 65.69 65.86 67.23 66.76 66.83 66.09 65.78 65.82 65.64 65.70 65.62 65.32 64.68 64.70 65.20 65.38 65.27 65.45 65.43 65.08 64.71 63.91 63.48 63.28 63.12 63.02
43.30 36.49 34.39 37.10 42.00 47.40 52.20 51.83 54.29 57.05 54.99 56.09 57.60 56.69 59.40 61.91 63.69 63.09 62.87 63.82 63.77 64.65 65.22 65.55 66.17 66.17 66.04 65.69 65.59 65.40 65.59 65.04 64.66 64.46 64.51 62.66 61.80 62.32 63.09 63.33 64.49 65.12 64.74 64.25 63.77 63.73 62.95 62.50 61.83
39.82 35.27 36.79 46.01 49.80 47.94 50.09 51.86 52.15 52.89 52.60 53.38 55.74 60.53 61.41 60.64 60.94 59.54 60.08 60.54 61.50 62.55 63.90 65.55 65.57 65.39 65.40 65.68 63.78 62.92 63.44 62.27 62.12 61.99 61.56 61.08 61.27 61.38 63.03 62.94 63.86 64.37 64.19 64.32 64.13 63.70 62.78 60.77 57.56
39.25 38.11 46.21 50.16 50.70 50.52 48.70 50.34 52.80 50.61 46.67 52.12 53.34 58.90 60.38 59.70 59.45 58.08 59.82 60.56 60.23 61.46 63.93 65.03 65.16 64.98 63.79 63.04 61.82 61.12 60.57 60.11 60.34 60.46 60.65 60.78 62.60 62.15 62.10 61.60 62.61 62.19 63.98 60.99 59.34 57.97 56.99 56.20 55.47
40.04 46.20 50.54 51.81 51.92 50.64 48.54 51.21 50.81 49.42 51.16 56.15 55.18 59.66 59.68 59.30 58.92 57.69 58.84 59.19 59.54 61.29 62.75 63.63 64.02 62.56 61.19 62.06 60.69 59.40 59.60 60.77 61.92 63.09 63.31 62.22 61.42 60.82 60.72 60.84 59.99 58.23 57.44 56.55 55.79 54.58 54.47 53.79 53.70
43.10 49.75 51.17 51.92 51.55 51.84 52.70 48.17 49.12 50.15 56.85 57.24 59.65 58.97 57.27 56.80 58.31 58.39 59.56 60.39 59.98 61.00 61.36 61.30 62.49 58.78 59.79 60.42 60.31 61.86 62.61 62.82 62.90 63.39 63.22 62.15 60.93 60.73 58.91 57.69 57.29 55.73 54.90 53.44 52.20 52.11 51.63 50.73 50.18
48.04 49.38 48.86 48.21 49.99 50.98 49.21 47.96 50.12 49.81 55.16 56.87 57.24 57.08 57.13 57.73 59.54 60.17 60.58 60.78 60.10 60.28 58.95 59.24 59.47 59.83 62.08 60.56 60.34 59.75 60.75 60.74 61.52 62.08 62.27 61.61 60.65 58.71 57.02 56.04 55.03 53.84 52.61 51.83 50.32 48.86 47.83 46.88 47.26
49.00 46.03 47.43 47.55 49.33 47.37 48.87 45.52 46.73 50.77 53.89 57.00 58.18 57.85 57.29 57.42 58.75 58.66 60.32 60.33 59.05 59.29 59.00 58.80 59.77 62.02 60.13 59.05 58.78 57.50 59.15 60.26 60.13 60.11 60.08 59.10 57.86 56.20 54.40 53.33 52.00 51.37 51.19 49.51 48.54 47.44 46.43 45.38 46.07
43.44 43.20 39.51 46.52 49.28 50.16 48.55 40.72 47.87 51.87 53.77 54.51 57.40 57.65 56.96 57.38 58.31 59.50 60.47 60.74 59.24 59.18 59.00 60.04 63.44 60.20 59.17 58.24 57.63 57.37 57.35 57.30 57.63 57.72 57.19 56.70 56.09 54.12 51.92 51.12 50.81 51.41 50.38 48.68 47.55 46.09 44.45 43.46 43.02
41.71 36.72 39.31 43.37 49.25 47.55 46.22 41.36 49.10 52.55 53.40 52.93 54.98 55.93 55.43 54.27 55.55 56.96 60.64 57.96 58.85 59.01 58.97 60.36 60.07 58.65 58.06 57.84 57.04 56.36 56.32 55.80 55.64 55.11 54.21 54.38 54.10 53.42 51.58 50.87 50.53 50.69 49.04 47.97 47.65 44.69 43.46 41.99 41.61
37.77 39.15 40.86 40.26 46.21 46.21 43.69 42.49 47.87 50.83 51.78 50.53 53.09 54.61 53.63 53.42 55.18 57.62 59.24 58.48 59.46 59.13 59.95 60.05 59.36 58.13 57.50 57.22 56.52 56.18 55.38 54.69 54.24 53.25 52.82 53.27 53.87 53.80 52.06 50.60 49.25 48.52 46.83 46.27 44.69 42.86 42.54 41.55 40.77
44.27 42.50 39.70 42.08 44.91 44.44 42.51 41.96 45.32 48.70 49.06 49.59 52.34 53.71 54.75 54.19 55.89 58.00 58.72 58.93 58.99 59.16 59.64 59.38 58.08 57.48 57.11 56.26 55.28 54.45 53.38 53.73 52.93 52.54 53.51 52.81 52.48 52.13 50.36 49.35 47.87 46.71 45.38 44.66 43.80 42.52 41.18 40.31 39.88
44.15 41.75 40.92 43.49 44.04 44.46 40.69 41.28 45.78 48.44 50.25 50.73 49.53 49.39 50.29 51.59 52.50 54.89 57.08 58.56 59.21 59.06 58.99 58.08 58.10 57.82 57.48 56.83 56.36 55.80 54.14 53.51 52.48 52.32 52.05 51.73 51.71 51.17 49.68 47.81 46.50 45.39 44.38 43.36 42.52 41.65 40.25 39.91 39.72
43.07 41.07 39.98 40.26 42.45 43.18 40.08 39.65 43.20 48.06 49.30 49.79 50.67 51.02 51.23 52.86 53.52 54.90 56.45 58.73 58.94 58.70 57.90 57.79 57.94 58.02 57.76 57.26 57.39 53.95 52.19 51.02 50.15 49.86 49.49 50.40 51.11 50.56 49.23 47.92 46.28 44.62 43.98 42.81 41.73 41.26 40.41 38.31 38.99
38.77 45.16 44.66 42.44 38.67 33.86 40.78 31.39 39.34 43.96 48.09 48.82 49.55 50.45 50.94 53.21 55.27 57.56 58.14 59.04 59.25 58.89 58.04 58.21 58.58 58.06 57.80 58.44 57.11 53.37 50.48 49.26 49.11 49.46 49.71 50.17 50.46 49.30 48.54 47.17 45.75 44.57 44.22 42.82 42.25 42.99 40.56 39.76 38.31
42.35 46.42 44.77 43.42 38.93 37.08 38.17 34.10 37.00 43.91 43.38 46.88 49.21 50.36 52.06 54.34 55.39 57.52 58.44 58.70 59.08 59.06 58.69 58.45 58.39 58.22 58.67 58.82 56.57 53.77 49.61 49.28 49.81 50.38 49.75 50.00 49.35 48.97 48.19 46.13 44.51 43.91 43.93 42.49 41.81 41.94 40.58 39.79 38.47
47.39 44.19 43.38 41.80 38.71 32.58 38.03 35.91 35.07 39.40 44.41 46.25 48.72 51.20 52.69 54.28 55.17 57.61 58.84 59.67 59.13 59.09 57.81 57.93 57.62 58.36 58.17 56.23 53.43 51.40 49.92 49.07 48.91 48.04 47.12 47.52 47.00 46.97 45.95 44.73 43.22 42.39 41.78 41.40 40.85 40.37 40.10 39.74 39.41
44.19 39.29 30.99 29.30 29.31 30.10 40.52 36.70 38.36 43.00 45.64 46.49 47.88 49.47 51.87 53.88 56.15 56.43 56.54 57.30 57.38 57.16 57.64 56.52 55.64 52.41 51.95 50.74 49.85 49.07 47.17 46.61 46.00 45.92 46.60 46.04 45.74 45.44 44.63 44.05 41.23 40.60 40.25 39.78 39.19 38.35 37.75 38.33 38.44
41.98 39.39 31.18 26.68 26.92 31.14 40.44 34.51 40.11 46.83 47.84 49.44 50.31 51.23 52.98 54.86 56.60 56.44 56.69 56.02 56.13 55.56 54.76 54.24 51.93 51.06 49.98 48.27 46.84 46.31 46.27 45.61 46.20 46.89 46.66 45.99 45.35 43.55 43.02 41.32 39.60 38.93 38.78 38.35 37.93 37.05 36.53 37.43 37.67
41.35 37.51 43.00 36.43 35.41 30.28 33.69 38.42 44.30 46.03 45.75 47.40 48.20 50.74 51.00 52.36 54.75 54.92 54.42 53.95 52.45 51.08 50.78 51.10 51.27 51.18 49.05 47.10 46.38 45.67 46.50 47.04 45.70 47.21 47.10 46.29 45.26 42.81 40.66 39.30 38.24 38.23 38.34 38.15 38.17 36.58 36.51 36.38 36.26
43.27 45.27 36.75 36.28 27.17 25.53 31.09 32.92 36.40 41.88 44.69 46.02 46.56 48.75 50.02 50.65 51.87 52.79 53.49 52.78 52.91 52.48 51.74 50.61 51.40 50.57 47.30 45.98 45.43 45.90 46.19 47.29 46.75 45.84 46.78 44.03 42.46 41.39 39.32 38.17 38.23 38.07 38.13 38.87 37.90 36.27 36.43 35.59 34.78
40.59 38.80 39.57 38.52 33.65 27.61 25.17 31.19 41.04 43.32 46.08 46.03 47.10 50.14 50.86 49.90 50.66 51.85 53.12 53.03 53.23 52.89 52.08 50.71 49.44 47.15 45.61 44.40 44.47 45.63 46.06 47.02 46.44 44.69 42.80 41.99 40.30 39.41 38.83 38.90 38.45 38.53 38.67 39.10 36.85 36.21 35.97 34.98 33.95
42.41 40.73 40.27 31.15 32.14 32.44 28.99 31.31 42.72 44.98 46.10 47.83 48.37 50.85 51.61 51.55 50.73 51.52 52.52 52.42 52.00 52.14 49.53 48.34 47.86 46.97 45.44 46.04 46.80 46.95 47.12 46.80 45.06 42.54 41.19 41.02 39.19 38.93 38.76 38.90 38.93 39.30 39.42 38.09 36.51 35.57 35.80 35.02 33.75

GFSSGP_sfc_wetblb_063.txt.gz
Wetbulb
56.55 53.31 50.86 47.54 38.28 35.17 31.95 35.94 42.67 42.45 51.74 57.92 59.92 58.98 57.47 58.41 55.04 49.38 63.90 65.05 68.36 70.36 70.94 71.04 71.06 71.40 71.32 71.58 71.70 71.83 71.68 70.94 70.54 70.17 69.85 69.16 68.49 68.15 67.40 67.54 67.44 67.07 66.24 66.16 65.63 65.19 65.05 65.83 66.60
53.41 54.32 48.28 40.26 33.36 29.04 31.72 38.02 46.00 49.24 55.08 59.49 59.50 58.79 58.81 57.33 63.22 63.31 63.63 67.41 69.38 70.09 70.45 70.64 70.81 70.99 71.13 71.35 71.50 71.47 71.30 70.78 70.29 69.54 68.80 68.44 67.93 67.38 66.24 66.48 67.35 67.37 66.01 65.48 65.25 65.03 65.27 65.37 66.07
51.65 50.58 43.61 37.06 30.13 29.35 31.72 42.74 50.81 54.19 55.86 56.55 55.82 58.40 58.88 59.83 62.76 64.13 66.10 68.57 69.06 69.64 70.07 70.75 69.93 70.40 71.01 70.96 71.24 71.32 71.20 70.96 70.46 69.54 68.44 67.93 67.23 66.43 66.11 66.94 67.15 67.06 65.62 65.14 65.11 64.88 64.67 64.96 65.61
47.27 43.78 40.21 33.93 30.91 35.63 41.84 48.35 53.50 54.52 54.46 56.09 54.98 53.22 61.03 65.08 64.46 64.68 66.70 68.63 69.06 69.54 70.27 68.83 68.32 70.24 70.62 70.94 70.80 70.67 70.64 70.25 69.62 68.92 68.59 67.62 66.55 66.04 65.81 67.17 67.06 66.53 65.37 65.08 64.71 64.60 64.37 64.87 64.50
43.91 39.55 33.66 30.41 32.96 41.79 51.54 52.30 52.25 51.08 52.97 54.16 54.14 52.79 56.73 64.43 66.21 65.19 66.03 68.10 68.53 68.88 69.34 68.59 68.09 69.37 70.44 70.80 70.63 70.15 69.93 69.63 69.05 68.69 68.13 67.70 66.65 65.74 66.27 66.91 66.79 66.52 65.30 64.80 64.39 64.56 65.42 64.74 64.31
41.53 37.67 30.97 29.94 33.86 49.75 51.81 52.88 53.60 52.25 53.00 52.84 53.60 53.81 57.06 65.31 64.06 65.20 67.53 66.66 66.48 66.27 66.59 67.26 67.99 67.83 68.29 69.31 69.44 68.70 68.80 68.73 68.38 68.17 67.64 67.17 66.82 66.57 66.53 66.61 66.45 65.98 65.38 65.17 64.77 64.76 64.96 65.19 64.40
39.45 35.87 31.56 31.64 35.14 42.14 50.94 53.37 51.61 51.10 51.27 53.22 56.35 51.89 57.89 63.14 65.33 66.18 66.19 65.72 65.69 65.67 65.43 65.93 66.25 66.77 67.07 67.51 67.15 66.99 67.55 67.61 67.63 67.26 66.78 66.35 65.99 65.91 66.14 66.05 66.03 65.57 65.24 64.98 64.66 64.38 64.26 64.39 64.47
41.02 37.85 31.19 33.42 35.08 38.20 51.18 52.84 54.51 53.00 50.89 57.28 57.43 51.57 54.20 62.42 65.03 65.28 65.22 64.64 64.89 64.94 65.24 65.11 65.63 66.12 66.45 66.25 65.97 65.77 65.90 66.03 66.07 65.87 65.33 64.81 64.89 64.95 65.19 64.96 65.29 65.32 65.20 64.96 64.60 64.16 63.71 63.24 63.67
40.41 35.73 32.73 35.51 37.58 43.04 51.07 50.87 53.66 55.41 53.62 55.19 57.39 56.38 60.30 63.65 64.14 63.53 63.03 63.16 63.42 64.50 64.66 64.63 65.03 64.96 65.48 65.16 65.43 65.30 65.67 65.14 64.61 64.43 64.15 62.08 61.62 61.52 61.44 64.05 64.53 64.89 64.61 64.64 64.61 63.82 62.47 60.87 60.87
38.45 33.42 35.86 41.04 46.25 47.24 49.61 51.06 50.83 51.17 51.61 52.86 56.57 60.50 62.53 62.40 62.18 61.14 60.56 60.63 61.31 62.15 59.91 60.85 63.68 65.10 64.95 65.18 63.67 62.82 63.44 62.06 61.87 61.67 60.54 60.30 60.44 61.18 62.20 62.98 63.93 64.37 64.24 64.31 62.86 61.45 59.86 57.75 54.83
38.77 37.24 40.21 49.13 50.58 49.43 47.84 48.97 51.67 49.45 46.69 50.96 54.78 57.06 59.48 59.94 60.07 60.11 60.12 60.95 59.50 60.90 61.85 62.81 63.68 64.68 63.85 62.95 61.55 60.82 59.97 59.88 60.08 60.17 59.98 60.63 61.44 61.99 61.30 61.37 61.47 60.95 60.18 56.97 56.59 55.26 54.18 52.78 51.71
38.01 41.90 46.20 48.88 50.42 49.23 47.92 50.26 49.47 47.88 50.15 54.84 58.55 58.83 58.31 57.49 58.57 58.61 58.83 59.45 59.64 60.29 61.18 62.87 63.56 63.94 62.41 61.35 60.01 59.05 58.88 59.59 59.84 59.93 60.94 61.53 60.44 60.01 59.40 57.92 57.09 56.41 55.23 53.68 52.92 52.29 51.29 50.31 50.04
39.92 47.12 49.41 51.00 50.63 49.05 51.03 47.46 48.24 48.88 55.50 57.10 59.75 59.20 58.26 57.05 57.86 59.26 59.62 58.78 59.24 59.39 61.47 61.97 63.24 60.84 60.27 59.14 58.26 59.42 60.88 61.78 62.49 62.46 62.31 60.86 59.49 57.80 57.00 55.80 54.59 53.28 52.62 51.14 50.08 48.96 48.33 47.39 47.04
46.71 47.46 46.48 48.15 48.86 49.94 47.30 46.43 47.59 50.99 55.16 57.63 57.75 57.19 57.78 56.89 57.40 57.69 58.57 57.93 57.69 59.69 60.53 60.80 61.10 58.46 60.29 59.62 60.23 60.95 61.52 61.56 61.66 61.48 61.23 61.13 59.26 57.04 55.57 54.18 53.08 52.22 50.70 49.18 47.86 46.39 45.49 44.46 44.42
48.01 44.56 46.75 47.04 47.06 46.42 48.50 44.00 45.41 52.02 53.28 55.38 56.04 56.50 57.50 56.65 56.72 55.18 57.66 58.58 59.66 59.88 59.69 59.37 58.59 60.72 60.06 59.49 59.48 59.31 60.32 60.82 60.62 59.95 59.38 58.28 56.78 54.97 53.15 51.77 50.53 50.23 49.12 47.76 46.39 44.99 44.04 43.37 43.98
42.56 42.27 38.81 45.67 47.28 49.15 47.10 39.24 47.84 51.90 53.87 54.98 55.47 55.98 56.44 56.46 57.11 57.90 59.63 60.14 60.68 60.14 58.18 58.49 61.87 59.29 58.51 57.56 57.31 57.90 58.70 58.21 58.45 58.00 57.01 56.17 55.10 52.95 51.34 50.72 50.43 49.75 48.08 46.80 45.24 43.90 42.73 42.13 41.71
38.60 34.09 37.45 42.83 47.98 46.47 44.37 40.55 48.49 50.59 54.23 54.36 55.40 54.95 55.56 56.17 57.48 57.76 59.76 59.91 59.21 58.88 57.74 60.00 59.38 57.74 57.06 56.40 56.24 56.10 56.42 56.22 55.88 55.05 54.44 53.75 52.45 51.82 50.36 50.28 49.31 48.53 47.72 47.21 45.51 43.39 42.31 40.72 40.40
35.25 35.60 38.44 39.51 43.12 44.30 41.18 40.23 46.78 50.82 52.55 53.48 54.62 54.79 54.73 55.03 55.88 57.45 58.81 59.95 57.72 57.35 57.77 60.00 58.31 57.18 56.22 55.98 55.38 54.86 54.42 53.98 53.33 52.63 52.53 52.68 52.67 52.36 50.34 49.43 48.67 47.81 46.20 44.48 42.95 41.82 41.64 40.40 39.70
42.72 39.82 38.16 41.43 42.93 43.11 41.82 40.85 43.88 49.51 48.51 50.73 52.17 53.97 53.48 53.88 54.67 55.83 58.75 57.79 56.51 56.17 58.41 58.55 57.27 56.80 56.32 55.39 54.36 53.04 52.64 52.55 51.54 51.58 52.32 52.45 52.46 51.86 49.81 47.82 46.51 45.33 44.69 43.20 42.58 41.54 40.15 39.41 39.07
42.58 39.62 39.12 42.34 43.67 43.28 40.56 39.53 41.75 46.85 48.34 50.99 51.80 53.01 53.07 52.73 52.67 54.77 56.01 55.16 55.86 57.14 57.90 57.62 57.77 56.80 56.49 56.19 55.24 54.96 53.27 52.68 51.38 51.68 51.44 51.48 50.93 49.68 48.80 46.91 45.39 44.55 43.71 42.52 41.77 40.95 39.61 39.13 38.72
41.11 39.35 39.11 39.47 40.12 41.29 39.62 38.46 41.55 47.17 49.42 50.43 53.10 53.83 54.53 53.35 52.72 54.17 55.71 54.99 56.51 56.95 57.18 57.50 57.43 57.13 56.90 56.23 55.36 52.97 51.68 50.74 50.00 49.64 49.16 49.66 50.58 49.64 48.36 46.75 45.14 43.53 43.04 41.64 40.64 40.21 39.45 38.01 38.21
37.39 43.29 42.39 41.09 36.60 32.83 39.02 31.25 38.25 43.81 47.12 47.45 49.63 49.08 50.65 52.83 53.68 53.97 54.34 55.90 56.69 57.37 57.81 57.49 57.63 57.37 57.53 56.93 55.92 53.81 50.67 49.10 49.02 48.88 48.59 49.14 49.92 49.06 47.84 45.92 44.51 43.55 42.90 41.82 41.97 41.99 39.57 38.84 37.69
40.76 44.60 42.75 41.81 37.63 34.92 35.40 32.44 36.06 41.88 44.17 46.74 47.27 49.05 48.69 51.61 52.02 52.43 54.32 56.90 57.72 57.75 56.94 57.10 57.63 57.83 57.70 57.74 56.66 52.91 49.60 48.74 48.71 48.77 48.57 48.45 47.68 47.33 46.38 45.02 43.58 43.10 42.19 41.60 40.66 40.17 39.42 38.84 37.51
45.72 42.85 41.48 39.39 36.88 30.24 35.37 34.09 33.37 37.50 43.48 47.64 49.20 49.04 49.74 51.09 52.60 54.65 55.37 57.69 58.51 58.18 57.10 57.08 57.85 57.49 57.37 57.14 55.66 53.09 50.03 48.51 48.32 47.96 47.40 45.51 44.80 44.90 44.99 44.65 42.69 42.37 43.10 40.69 39.21 38.15 37.80 37.79 37.73
41.96 37.46 29.73 28.37 28.08 28.53 37.80 35.12 37.08 41.96 43.12 45.13 48.21 49.24 50.05 52.31 53.75 56.06 56.28 57.46 58.19 57.98 57.22 57.58 57.58 56.60 56.64 55.92 53.70 52.04 49.43 48.94 48.58 47.10 44.48 43.46 43.65 44.12 44.16 44.14 43.78 42.01 38.96 38.26 38.26 36.93 35.86 35.83 35.73
39.95 37.54 30.21 26.26 26.13 28.99 38.02 33.01 38.12 43.96 46.80 45.96 47.21 48.64 50.73 52.24 55.09 56.08 56.88 57.40 57.89 57.72 57.52 57.34 56.36 52.43 52.18 51.21 50.69 47.87 47.13 46.13 45.85 45.04 44.24 45.02 45.22 43.13 44.12 43.78 41.78 40.07 38.58 37.54 36.79 35.79 35.90 36.26 35.59
39.70 36.54 40.20 33.94 32.53 29.05 32.11 36.22 41.67 43.94 44.10 46.21 47.92 48.99 49.98 52.42 54.88 55.70 56.34 56.72 56.96 56.74 56.40 54.10 51.88 49.63 47.54 46.75 46.61 45.87 47.22 46.67 46.26 46.74 46.79 45.56 45.86 45.37 42.83 41.18 38.93 37.92 37.68 37.67 36.79 35.82 35.26 35.13 35.24
41.27 43.63 34.74 33.75 26.63 25.02 29.10 30.92 33.49 39.91 42.22 44.07 45.31 48.66 49.79 52.64 54.76 55.68 55.63 55.25 55.49 55.58 54.60 51.23 51.17 48.60 46.26 46.15 47.45 46.90 46.69 46.71 47.02 47.79 46.77 46.23 44.62 42.63 40.77 39.41 38.48 37.81 37.63 37.54 37.84 36.22 35.64 34.94 33.95
39.59 37.18 37.29 36.83 32.03 26.89 24.70 29.97 38.99 41.90 43.48 44.94 45.06 48.27 49.66 50.85 53.38 54.40 54.82 54.44 54.24 52.94 51.42 51.15 50.24 47.35 45.34 45.47 45.66 46.25 46.31 46.28 46.47 45.28 45.19 43.81 42.13 40.78 39.87 38.95 37.34 37.38 37.74 38.05 36.59 35.42 35.39 34.28 33.65
41.41 39.38 38.28 29.99 30.72 30.60 28.50 30.16 40.55 42.78 44.60 45.89 46.27 47.75 49.52 50.53 52.13 53.63 54.04 52.82 51.12 50.63 50.73 50.43 49.81 47.11 45.66 45.43 44.50 45.18 45.55 44.46 45.08 45.47 43.88 41.50 38.59 39.99 38.66 38.07 37.99 38.04 37.81 37.24 35.87 34.42 35.02 33.82 32.83

GFSSGP_sfc_wetblb_066.txt.gz
Wetbulb
55.87 51.20 49.67 45.40 38.13 34.52 30.54 34.37 42.02 42.63 45.29 57.69 59.60 57.74 55.00 58.36 54.43 49.34 63.42 65.49 69.35 70.37 70.68 70.69 70.49 70.99 71.27 71.52 71.65 71.53 71.54 71.42 70.55 69.89 69.40 68.97 68.52 67.99 67.77 68.16 68.03 67.74 66.38 65.71 66.39 67.02 68.25 68.36 67.94
52.17 53.17 47.02 39.24 33.25 27.75 30.35 36.04 42.68 51.18 54.73 58.71 58.67 58.62 58.27 56.85 62.56 62.42 61.84 67.30 70.00 70.40 70.46 70.02 70.32 70.72 71.08 71.19 71.16 71.21 71.30 71.00 70.32 69.33 68.52 68.23 67.40 67.35 67.01 67.43 67.55 67.37 66.64 66.26 66.35 67.05 68.20 67.95 68.55
51.59 48.65 42.76 34.83 28.56 29.09 30.70 36.04 48.01 53.02 55.19 55.69 55.06 57.68 57.83 58.66 63.00 63.57 66.34 67.97 69.94 69.72 69.74 69.90 69.77 70.17 70.92 71.02 71.09 71.02 70.69 70.22 69.63 69.05 68.47 68.06 67.13 66.56 66.62 67.76 67.11 67.03 67.02 65.88 65.80 66.50 67.55 67.44 67.24
45.72 42.88 38.86 33.14 29.52 35.13 36.20 46.56 50.55 53.31 53.41 55.06 54.91 52.91 60.50 64.79 64.34 65.34 67.67 68.94 68.97 68.69 69.67 68.56 68.69 69.86 70.80 71.31 71.21 70.86 70.44 69.87 68.93 68.72 68.65 67.72 66.27 66.35 66.75 67.49 66.94 67.08 66.39 65.06 65.06 65.03 65.14 65.74 66.51
42.36 38.84 32.98 29.31 30.42 36.26 50.48 51.39 51.43 50.39 52.18 52.64 53.83 53.10 54.68 64.17 64.83 66.32 67.24 68.36 68.34 68.36 68.18 68.24 68.10 69.71 70.58 70.81 70.70 70.23 69.90 69.12 68.69 68.49 67.94 67.45 66.92 66.34 67.03 67.13 66.86 66.33 66.08 65.18 64.76 64.81 65.06 64.98 64.79
40.54 36.97 30.53 28.86 32.15 42.56 51.05 52.36 52.46 51.36 52.16 52.04 53.61 52.80 57.19 64.32 64.54 66.03 66.74 66.24 67.82 67.12 67.32 67.86 68.56 68.55 68.70 68.13 68.65 69.15 68.99 68.42 68.16 68.00 67.54 67.27 66.99 66.97 66.72 66.62 66.20 65.91 65.87 65.68 65.44 65.44 65.05 64.44 64.37
38.52 35.21 30.08 31.19 33.99 36.63 49.28 52.87 50.86 50.05 49.79 51.95 54.57 51.19 58.65 62.79 65.36 65.64 65.41 65.35 65.35 65.67 65.69 66.11 66.56 67.12 66.72 67.18 67.71 67.66 67.77 67.52 67.65 67.08 66.81 66.54 66.12 66.23 66.13 66.16 65.88 65.74 65.53 65.47 65.36 64.86 64.73 64.08 63.60
39.36 37.00 31.51 33.64 34.34 36.53 49.45 52.18 53.79 52.10 49.42 55.55 56.18 51.81 55.76 62.43 64.80 64.75 64.67 64.67 64.43 64.68 65.19 65.17 65.40 65.75 65.87 66.01 66.41 66.36 66.34 66.39 66.16 65.87 65.36 64.68 64.87 65.08 65.37 64.81 65.56 65.68 65.56 65.47 64.89 63.86 64.08 63.17 62.19
39.28 35.28 31.18 34.75 35.43 39.21 50.58 50.31 52.90 54.38 52.14 55.06 58.12 55.86 60.86 64.13 64.31 63.12 62.54 62.88 63.15 64.07 64.63 64.95 65.10 64.44 65.26 65.24 65.54 65.67 66.18 65.65 64.85 64.54 64.08 62.07 61.28 60.95 61.54 64.05 64.79 65.40 65.17 64.61 63.16 62.03 60.80 59.79 60.27
38.29 32.93 35.12 40.10 40.81 45.88 49.11 50.29 49.38 50.09 50.63 53.96 56.14 60.86 62.46 63.28 62.44 61.03 60.47 60.56 61.48 60.04 61.21 62.48 63.23 63.12 64.70 64.91 62.93 62.80 63.40 62.00 61.86 61.21 60.36 60.13 60.04 60.72 61.83 63.20 64.54 64.72 63.15 61.86 60.66 59.25 57.64 54.54 51.61
36.52 36.91 39.30 41.63 48.53 49.51 48.00 48.35 50.42 48.01 45.22 51.61 55.15 58.53 60.74 60.59 60.66 60.22 60.40 60.68 58.11 59.35 60.60 61.79 62.89 63.30 63.05 62.57 61.27 60.64 60.14 60.22 60.35 59.64 59.77 60.38 61.22 60.44 60.97 60.77 60.13 57.38 57.49 54.32 53.53 51.92 50.68 49.83 49.41
37.15 40.83 41.32 45.89 48.88 48.65 47.38 48.83 48.29 45.53 50.40 55.49 57.82 59.29 59.19 58.95 59.63 59.59 58.69 58.19 57.38 58.22 59.40 59.58 60.19 62.36 62.41 61.62 59.93 59.15 58.91 59.07 59.07 59.49 60.61 60.99 60.45 59.68 57.49 56.93 55.97 54.07 52.71 51.18 50.33 49.24 48.36 47.78 47.61
38.31 43.76 46.64 49.54 49.75 48.81 50.27 46.47 47.12 49.38 55.40 58.20 58.39 58.11 57.09 58.40 58.83 59.48 59.89 59.26 58.27 58.05 58.57 57.92 58.95 61.83 60.95 59.57 58.44 58.04 58.96 59.62 60.33 60.64 61.73 60.55 59.12 56.21 55.80 53.94 52.76 51.62 50.39 49.05 47.58 46.67 46.19 45.48 45.27
45.51 45.42 45.42 47.51 48.50 48.52 45.99 45.58 46.25 50.91 57.48 56.96 56.96 56.15 57.42 58.05 57.97 58.16 58.71 58.24 57.46 57.48 58.74 60.54 61.79 60.61 59.98 58.31 58.12 58.73 60.66 61.10 61.21 61.05 60.67 60.12 57.59 55.72 53.91 52.53 51.44 49.96 48.55 47.03 45.94 44.74 43.68 42.91 43.15
46.27 43.96 45.62 45.44 45.84 45.28 46.14 42.61 45.62 52.29 55.43 54.89 56.46 56.63 57.00 57.40 57.85 56.73 57.35 57.07 57.98 58.55 60.76 60.12 59.89 58.94 59.14 58.49 59.19 59.76 60.41 60.64 60.55 59.99 59.92 58.34 56.77 54.63 52.13 50.88 49.03 48.26 48.70 47.34 45.85 43.85 43.04 42.31 42.73
42.67 41.09 37.89 43.28 45.50 46.31 45.07 38.75 47.46 51.55 53.75 50.63 53.52 55.93 56.26 56.15 55.90 57.09 57.45 57.01 57.26 58.30 58.72 58.54 61.06 59.76 58.92 58.36 58.71 59.18 59.34 58.58 58.22 57.96 57.90 57.04 54.71 52.28 51.27 51.13 50.22 50.07 48.67 47.23 45.70 43.53 41.67 41.10 40.70
37.73 33.12 35.70 41.25 45.36 44.66 42.68 39.76 46.45 50.27 53.71 53.00 53.07 54.45 55.73 55.07 55.21 55.85 57.47 57.88 58.91 59.11 57.98 57.74 59.45 57.95 57.43 56.35 56.61 56.85 56.75 57.22 56.41 56.43 55.75 54.41 52.03 51.49 52.42 50.48 48.63 48.78 47.66 46.96 46.28 43.74 41.92 40.23 40.30
34.47 35.02 36.92 37.15 41.62 43.35 39.73 39.62 45.96 48.66 52.87 53.15 53.30 53.76 54.59 54.70 54.81 57.65 58.80 59.06 58.32 57.85 56.92 58.70 57.59 56.19 55.35 55.07 54.55 54.43 54.41 54.61 54.31 53.22 52.36 51.35 50.95 50.91 50.23 49.63 47.97 47.70 45.99 43.48 42.53 41.64 41.22 40.43 39.69
41.14 38.67 36.67 38.64 42.22 41.15 40.98 40.67 45.94 48.26 49.49 51.50 52.44 53.06 53.21 54.36 56.67 57.04 57.45 57.86 56.16 55.70 57.48 57.51 56.27 55.57 55.92 55.03 53.03 52.38 52.48 52.08 51.96 52.83 52.45 52.90 51.43 50.17 49.03 47.30 45.73 45.49 44.13 42.33 42.00 41.14 40.20 39.70 38.92
41.13 39.55 37.89 41.05 41.60 41.32 38.71 39.73 41.83 47.89 50.26 50.69 52.87 53.05 53.12 53.55 52.41 54.12 55.92 56.14 54.97 55.06 57.24 56.91 56.65 55.85 55.82 55.68 53.77 53.41 52.54 51.99 50.84 52.22 51.93 51.65 51.12 49.90 48.18 46.28 44.82 44.21 42.65 41.99 41.56 40.69 39.69 39.06 38.97
39.19 37.95 37.08 38.53 39.09 39.46 38.77 36.46 39.66 44.80 49.11 49.46 52.21 54.34 54.51 53.56 52.65 52.39 54.60 55.62 54.65 55.50 56.59 57.82 56.89 56.23 55.91 55.40 54.74 53.73 53.46 50.59 49.88 49.67 49.02 49.72 50.20 49.33 47.42 45.93 44.16 42.93 42.52 41.28 40.49 40.30 39.81 38.13 38.61
35.78 42.13 41.07 39.21 35.48 31.56 36.53 29.95 36.56 41.80 46.07 46.99 49.34 51.26 53.08 53.85 53.22 52.77 53.74 54.94 54.64 55.58 56.51 57.74 57.19 56.57 56.17 56.00 54.66 53.84 52.85 50.31 50.10 49.32 48.54 48.54 49.18 47.96 47.10 45.35 43.58 42.91 42.57 42.67 41.32 43.06 39.68 39.19 37.92
39.89 42.67 41.28 39.88 35.93 33.38 33.30 31.31 35.48 41.83 43.09 45.80 47.46 50.18 51.88 53.93 53.37 52.58 53.48 55.40 55.47 55.32 55.79 56.43 56.73 56.71 56.83 56.71 55.96 55.34 53.91 50.14 48.82 48.25 48.02 47.26 46.47 46.25 45.24 44.11 43.42 44.74 42.80 42.16 41.24 40.07 39.22 38.88 37.77
43.81 41.53 39.41 37.25 35.69 29.96 33.56 32.72 32.78 36.43 42.92 46.08 48.52 48.85 50.71 50.45 51.37 52.27 52.08 54.69 55.10 55.09 54.85 55.59 56.31 57.21 56.79 56.61 56.61 55.54 53.04 48.70 47.59 47.20 46.52 45.43 44.78 44.11 44.45 45.33 44.44 41.92 43.30 42.04 39.10 37.83 37.50 37.30 37.14
40.92 35.69 28.98 27.38 27.29 28.07 36.16 33.58 35.81 39.77 42.40 44.63 47.15 48.75 49.08 49.63 49.23 50.35 52.62 55.14 55.61 56.33 55.93 56.47 56.87 56.47 57.05 56.47 56.95 55.76 51.59 48.60 48.08 47.02 44.95 43.29 43.23 42.52 43.18 44.24 44.28 42.79 41.44 40.04 37.43 36.60 35.90 35.64 35.14
38.48 36.46 29.36 25.52 25.54 28.41 35.57 31.52 37.02 42.68 44.69 44.96 44.90 48.29 48.17 48.09 51.05 52.60 53.37 55.82 56.49 56.97 57.57 57.07 56.95 56.75 56.13 56.13 56.15 53.17 50.67 49.23 47.72 46.25 43.92 43.59 43.73 44.03 45.09 45.31 43.93 41.35 40.22 37.70 37.72 36.02 35.67 36.06 35.94
38.41 34.85 38.47 32.22 30.25 28.54 31.01 34.95 39.50 40.47 42.12 44.43 46.41 45.05 46.25 48.42 51.05 53.75 55.04 55.74 56.27 56.69 57.41 56.95 57.27 55.80 54.72 54.00 51.77 49.44 49.27 47.42 45.83 45.76 46.29 46.00 43.90 45.48 45.27 44.12 41.63 39.74 39.33 38.91 36.53 35.65 35.71 35.46 35.13
39.71 42.17 33.50 32.16 26.79 24.87 27.58 29.14 32.19 38.61 41.10 42.61 45.40 45.93 47.02 48.82 50.67 53.59 55.30 55.78 56.89 57.15 57.93 57.69 55.77 53.53 49.89 48.99 48.92 47.73 45.46 46.06 47.14 46.10 45.54 45.75 45.55 45.24 44.45 41.86 39.79 39.38 38.68 37.88 36.35 35.55 35.22 35.25 34.83
38.28 36.00 35.67 35.45 30.66 26.52 23.95 28.98 37.39 39.64 41.90 42.87 44.45 46.01 48.01 49.56 52.00 53.74 55.12 55.94 56.21 57.11 55.53 54.09 51.66 48.25 46.41 46.25 46.00 46.12 45.58 45.50 46.42 46.20 45.92 45.59 45.15 44.65 41.50 40.24 39.31 38.91 36.58 37.93 37.25 36.16 36.14 35.08 34.14
39.69 38.42 37.06 30.20 29.63 29.44 27.26 28.68 39.60 40.49 41.41 42.96 44.57 45.62 48.16 50.08 52.38 53.85 54.59 54.70 53.94 53.36 53.10 52.18 50.05 46.27 44.14 43.84 44.79 44.09 44.38 44.55 45.31 44.61 45.21 44.75 42.93 41.40 38.52 38.71 39.15 38.29 37.51 37.29 36.88 35.76 35.76 34.34 33.45

GFSSGP_sfc_wetblb_072.txt.gz
Wetbulb
62.33 59.29 59.27 56.36 47.76 46.66 44.27 44.75 48.79 48.42 51.16 55.01 58.67 60.69 60.38 62.13 58.54 56.06 68.38 69.14 70.76 71.15 70.54 71.87 70.66 71.28 71.52 71.66 71.77 71.94 72.06 71.79 71.28 70.43 70.09 69.30 69.13 69.08 68.98 68.78 68.85 69.13 68.66 68.94 69.74 70.42 70.02 69.42 69.21
59.05 58.20 58.30 54.32 44.70 42.47 43.78 47.03 47.23 52.72 55.25 60.05 60.13 60.98 60.24 58.53 64.66 64.04 65.69 69.46 72.14 71.06 70.38 70.69 70.44 70.71 71.13 71.33 71.52 71.62 71.62 71.18 70.72 70.16 69.29 69.18 69.08 69.18 68.79 68.64 68.79 69.40 69.77 69.89 69.57 69.97 69.69 69.31 69.07
58.09 57.06 53.18 49.45 45.76 42.36 43.33 46.42 49.35 56.07 58.09 59.23 55.98 60.71 61.27 60.80 64.27 65.43 68.77 69.81 70.99 70.43 69.70 70.58 69.98 70.29 70.94 71.08 71.34 71.03 70.69 70.15 69.82 69.16 69.13 69.18 69.15 68.86 68.42 68.64 68.69 69.38 69.81 69.91 70.20 69.73 69.36 69.04 68.34
55.83 54.88 52.76 45.18 43.63 45.15 45.71 48.93 54.61 57.09 58.22 60.48 59.78 54.41 62.90 65.62 65.64 67.05 69.27 71.27 69.91 69.93 69.80 69.43 69.17 70.17 70.86 71.08 70.96 70.45 70.01 69.35 68.82 68.41 68.83 69.03 68.82 68.55 68.47 68.06 68.23 69.23 69.74 69.06 69.67 69.37 68.82 68.11 67.17
55.82 52.83 46.38 44.14 43.71 45.60 47.96 51.79 55.79 56.50 57.48 58.31 58.87 56.93 56.48 64.09 68.12 68.11 69.28 70.21 68.89 69.30 70.13 70.98 68.50 69.68 70.60 71.19 70.43 69.76 69.28 68.84 68.07 68.04 68.46 68.44 68.54 68.30 67.78 67.44 67.37 67.66 68.22 67.98 68.28 68.44 67.68 66.65 65.91
51.49 51.29 44.37 42.70 43.60 46.68 48.73 54.59 55.99 56.62 57.63 58.48 58.24 56.60 55.47 64.80 66.21 68.14 69.69 70.97 70.94 70.48 70.83 70.43 69.05 69.31 69.89 69.95 69.31 68.58 68.30 67.93 67.35 67.55 67.96 68.20 67.85 67.51 67.46 67.30 67.19 67.06 66.71 67.05 67.16 67.05 66.29 65.56 65.34
50.12 48.34 44.38 43.79 44.56 47.43 49.51 57.58 55.95 56.33 56.39 57.54 60.68 57.11 61.28 63.80 66.78 68.45 69.52 70.00 69.86 69.04 70.10 69.92 69.41 68.96 67.39 67.26 67.61 67.38 67.23 67.05 66.86 67.25 67.22 66.93 66.48 66.25 66.41 66.32 66.62 66.60 66.37 66.01 65.71 65.59 65.09 64.50 63.49
51.79 49.32 44.19 45.22 45.49 46.49 52.66 56.05 58.28 57.04 56.38 61.39 61.49 57.35 58.71 63.18 66.45 67.38 67.99 67.23 67.61 66.24 66.87 65.86 65.28 65.34 65.31 66.05 66.29 66.34 66.29 66.13 66.04 65.94 65.32 64.93 65.10 65.50 65.76 65.71 66.19 66.54 66.09 64.69 64.14 64.36 63.77 62.41 61.36
52.40 47.17 44.71 44.52 46.47 47.36 54.46 54.25 57.65 59.69 58.23 59.41 61.11 60.96 63.92 65.23 65.40 65.47 64.86 64.58 64.69 64.77 64.57 63.23 62.38 61.99 63.57 64.44 66.40 65.93 65.80 65.27 64.75 64.59 64.04 63.17 62.83 63.50 64.29 65.13 65.46 65.43 64.50 63.08 61.98 61.57 60.67 59.71 58.27
50.10 47.23 45.18 48.53 49.16 48.56 52.75 55.08 56.38 56.18 56.02 57.35 59.09 62.27 65.06 64.12 63.40 61.64 61.97 61.59 61.73 61.13 61.34 61.87 61.47 59.76 59.69 61.71 64.18 65.51 64.02 63.40 63.50 63.64 64.18 63.35 64.51 64.97 64.82 64.42 63.75 63.05 62.01 60.72 59.42 59.49 59.51 61.69 61.52
50.53 47.00 49.16 49.46 50.65 51.47 53.04 54.81 56.62 54.90 53.74 56.69 57.57 60.72 62.24 63.26 62.59 62.18 61.66 61.44 61.50 61.45 61.19 61.11 60.63 60.41 60.00 59.99 60.99 64.62 63.62 63.96 63.76 64.46 64.22 65.01 65.50 65.42 66.03 64.34 63.59 62.61 61.81 59.97 60.24 60.50 60.95 60.29 60.19
48.19 50.33 49.96 50.43 53.87 54.35 53.96 56.06 54.54 55.75 56.98 60.12 60.29 62.08 61.56 61.01 60.69 60.32 59.44 59.51 59.92 60.60 60.75 61.41 60.41 60.33 60.56 60.05 60.61 62.92 62.68 63.30 63.08 64.07 65.27 65.61 65.63 66.09 66.36 65.10 63.88 61.93 61.98 60.69 60.65 59.69 59.29 58.27 57.54
49.30 50.32 53.91 52.66 54.69 55.42 54.84 53.50 54.03 55.47 59.26 60.97 61.04 61.45 59.90 59.67 59.47 59.27 59.14 58.82 58.74 57.58 58.10 57.85 59.73 60.82 61.63 62.45 62.56 62.93 62.65 62.77 63.62 64.47 65.87 66.90 66.58 66.63 65.77 63.90 61.51 61.81 60.86 61.36 60.19 59.07 57.81 56.15 55.17
52.78 53.37 54.19 55.22 55.15 54.78 52.50 53.21 54.67 57.03 58.03 57.82 58.14 58.30 59.13 59.44 58.77 57.96 57.37 56.90 56.62 57.29 57.74 58.83 57.84 59.63 60.33 60.78 63.06 62.65 62.82 63.21 64.23 65.52 67.26 67.89 67.17 65.38 62.15 61.94 62.15 61.09 61.46 60.63 59.16 57.32 55.63 54.82 54.56
53.83 51.28 53.26 53.82 54.39 53.03 54.62 51.86 52.10 57.35 58.09 57.29 57.42 56.68 57.24 58.72 58.54 56.68 57.94 56.98 57.15 57.67 58.55 59.30 60.00 62.28 63.38 63.24 62.99 62.38 63.18 63.95 64.92 66.05 66.90 65.24 64.04 63.65 63.69 62.55 61.66 60.60 59.56 58.29 56.93 55.78 55.13 54.21 53.48
50.73 51.05 46.60 51.82 52.86 52.84 52.85 47.05 53.83 57.67 56.99 56.26 57.36 57.94 56.61 57.96 57.54 58.13 57.07 59.74 59.41 60.72 60.23 62.22 61.08 63.88 64.65 63.36 62.55 62.08 63.82 65.32 65.87 66.72 67.08 65.79 64.85 64.13 63.16 61.65 60.37 59.32 58.29 57.17 56.21 55.17 53.82 54.09 54.26
48.95 44.06 44.56 46.96 51.90 51.61 50.95 47.78 54.44 57.21 54.96 54.79 56.59 56.77 57.34 57.49 57.29 59.83 60.30 59.30 61.43 60.65 60.42 60.19 62.20 64.57 65.10 64.71 63.20 64.11 65.41 66.10 66.24 66.16 66.53 65.91 64.38 63.52 62.47 61.08 59.52 59.14 57.59 57.28 55.40 54.86 56.03 54.12 55.03
43.18 43.64 44.74 45.10 49.16 50.25 48.93 48.70 53.28 56.56 55.44 54.84 55.16 56.87 57.98 58.16 58.38 58.79 60.02 62.32 62.19 60.58 60.97 61.50 63.27 64.40 65.60 64.79 64.35 64.80 65.07 65.04 65.17 65.50 65.61 64.31 63.28 62.11 61.74 60.61 59.70 58.87 57.36 55.69 54.71 54.47 55.25 55.31 54.33
47.10 45.55 44.58 47.27 49.52 48.23 48.02 48.70 51.21 55.60 55.56 54.49 54.96 55.90 57.90 58.18 59.87 60.32 61.13 61.28 61.78 61.86 61.85 63.07 64.01 65.26 65.12 63.59 61.94 62.57 62.73 63.19 63.85 64.27 64.18 62.60 58.51 60.95 61.82 60.02 58.77 58.07 56.63 55.51 55.61 55.24 54.18 54.82 55.29
46.99 45.27 45.20 47.55 48.79 47.53 48.24 47.93 50.71 54.79 55.49 56.39 56.07 56.27 56.92 58.33 57.70 59.26 60.31 61.19 61.35 61.56 62.39 63.33 63.96 64.75 64.94 63.32 62.98 63.99 64.45 62.78 63.82 64.36 61.47 60.93 59.91 60.23 59.05 59.18 57.98 57.49 56.18 55.18 54.97 54.73 54.87 55.33 54.95
46.74 45.38 45.35 44.65 47.97 48.94 47.51 46.50 48.34 52.06 55.57 56.59 57.44 58.39 58.74 58.24 58.31 58.30 59.51 60.61 61.25 61.12 62.19 63.00 64.07 64.75 65.18 65.00 63.58 64.18 64.23 62.74 62.34 62.29 58.71 57.74 57.50 58.55 59.12 58.67 58.05 57.37 56.27 54.86 55.09 54.49 53.47 53.14 53.19
44.05 48.60 47.46 46.13 45.27 42.34 46.74 39.47 46.05 49.71 51.29 53.89 56.24 58.20 58.70 59.52 59.52 60.10 59.88 60.63 61.85 62.64 63.25 63.47 64.16 64.72 65.24 65.37 63.63 62.35 61.50 60.93 61.60 60.82 58.71 56.57 57.09 58.59 58.61 58.11 57.90 57.06 55.88 55.08 54.80 54.46 54.15 52.33 50.75
45.95 48.62 47.80 47.15 45.90 44.78 44.66 41.81 45.43 48.19 47.92 50.61 54.66 57.09 59.33 60.57 60.81 59.97 60.63 61.35 62.18 63.28 63.92 64.80 64.72 65.05 65.31 65.15 64.50 63.20 62.45 62.34 60.30 56.59 55.13 56.53 57.39 58.63 57.78 57.52 57.33 56.38 55.40 54.93 53.70 53.20 52.47 52.30 49.73
49.41 47.83 47.35 47.45 46.14 39.44 43.45 42.64 44.82 46.10 47.78 50.24 52.96 55.21 58.53 60.28 61.44 61.78 61.92 61.86 61.90 64.02 63.82 63.97 63.74 63.70 64.16 63.80 63.93 63.41 62.74 60.46 57.83 55.24 54.98 56.78 57.95 57.95 57.43 57.02 56.90 56.21 54.24 53.64 52.91 50.38 48.90 49.27 48.76
48.46 46.20 40.00 37.90 38.23 37.69 44.04 42.17 44.70 48.32 50.33 51.31 52.23 53.69 56.67 59.54 61.00 61.86 62.00 61.94 61.64 62.16 63.11 63.13 63.40 62.93 63.88 63.31 62.96 61.85 61.73 60.74 58.67 56.68 55.85 57.42 56.66 56.04 56.49 56.57 55.79 54.05 53.51 48.17 45.58 46.35 49.50 48.89 47.93
46.90 46.45 40.63 32.23 34.91 38.48 42.40 38.96 44.99 50.36 52.18 52.61 54.09 54.99 55.77 57.27 59.56 61.36 62.55 62.76 62.06 61.83 62.32 62.93 63.04 62.70 63.39 63.12 62.12 62.34 62.29 61.63 60.12 58.14 58.03 57.73 56.79 57.07 57.20 55.81 54.74 53.55 45.54 45.51 46.16 47.81 49.04 49.11 48.07
46.34 43.57 47.04 40.98 40.97 38.91 41.54 44.36 47.87 49.59 49.52 52.32 53.49 54.81 56.20 56.25 57.95 59.71 61.57 63.06 62.61 62.40 62.46 62.84 62.63 62.98 62.57 61.67 62.02 61.83 61.54 60.70 59.88 59.48 60.37 59.15 58.73 57.19 55.55 54.60 52.47 47.73 46.03 46.23 46.41 48.19 48.70 48.27 47.90
48.30 49.70 41.90 43.32 33.38 32.31 38.99 40.28 42.02 45.51 47.43 50.79 51.05 52.29 56.25 55.89 56.87 58.59 60.00 61.77 62.88 63.47 63.47 63.47 63.63 63.03 63.02 62.73 61.67 60.21 61.54 61.43 59.38 60.02 59.93 58.91 57.66 55.03 53.73 51.42 48.18 46.01 45.56 47.04 48.68 48.49 48.43 47.36 47.27
45.83 44.81 45.15 44.79 42.47 36.16 34.53 40.43 47.70 47.20 48.81 49.88 51.62 53.81 54.81 57.31 56.92 57.96 59.15 60.73 62.07 63.29 63.38 63.14 63.18 62.98 63.38 62.62 60.84 59.96 60.61 59.62 59.08 58.30 57.31 56.02 54.00 51.79 49.89 47.79 47.88 51.08 48.64 48.75 48.35 47.93 47.39 46.31 46.30
49.05 46.63 46.71 40.32 38.77 41.28 39.90 39.61 50.17 50.57 51.15 51.67 52.28 53.45 55.11 56.24 58.33 59.15 59.89 60.62 61.15 62.22 62.63 62.63 63.08 63.01 63.00 62.43 60.51 59.74 57.68 55.42 52.58 52.65 52.21 52.08 49.90 49.35 49.03 49.22 49.46 48.09 48.15 48.28 47.41 46.65 46.27 45.71 45.14

GFSSGP_sfc_wetblb_075.txt.gz
Wetbulb
63.35 62.59 59.52 56.14 48.43 48.38 44.59 46.50 50.13 48.42 50.11 55.13 56.44 54.09 57.02 59.27 56.68 53.97 70.30 71.47 72.17 69.56 71.14 72.35 71.52 71.91 72.03 72.15 72.28 72.11 72.24 72.04 71.28 70.36 70.05 69.66 69.45 69.25 69.55 69.67 69.74 70.62 71.23 71.19 70.63 70.17 69.79 69.28 68.59
62.15 58.04 57.22 53.51 46.10 42.92 43.51 48.28 47.06 49.99 54.88 58.19 56.63 55.96 55.37 54.90 56.85 64.24 67.38 70.54 71.41 69.95 70.93 72.22 70.91 71.35 71.87 71.68 71.66 71.71 71.70 71.35 70.49 69.95 69.66 69.42 69.30 69.42 69.60 69.77 69.67 70.11 70.32 70.88 70.58 70.03 69.60 68.68 68.26
60.24 58.32 54.03 50.61 47.14 43.68 43.46 47.94 49.21 53.15 57.91 58.52 56.91 59.26 58.76 59.81 64.33 66.47 69.41 71.28 71.39 69.37 70.46 71.85 70.48 70.72 71.35 71.38 71.32 71.08 70.86 70.13 69.61 69.29 69.52 69.57 69.33 69.33 69.77 69.66 70.05 70.82 70.29 70.33 70.36 69.87 69.08 68.27 68.16
57.02 55.56 53.92 46.35 44.38 47.11 46.78 49.42 52.28 54.79 57.67 59.15 59.18 54.56 60.11 66.59 66.40 69.08 69.87 71.51 71.15 69.22 69.81 69.75 69.22 70.09 70.92 71.11 71.06 70.54 70.13 69.22 68.85 68.74 69.39 69.25 69.01 69.47 69.12 69.47 70.29 70.55 70.65 70.76 70.13 69.24 68.10 67.57 66.83
56.18 53.48 47.50 46.12 45.94 47.40 49.85 53.62 55.39 55.00 56.19 57.99 60.33 56.65 57.54 62.74 63.39 69.17 69.46 70.77 69.77 69.69 70.22 71.04 68.98 69.94 70.45 70.85 70.36 69.66 69.14 68.36 68.33 68.66 68.43 68.52 69.03 68.68 68.41 68.35 69.12 69.36 70.12 70.49 69.40 68.12 66.84 66.29 66.03
52.03 52.88 45.51 42.29 44.96 47.90 53.12 51.75 53.03 56.37 57.19 59.26 58.85 55.65 55.21 60.89 59.30 64.68 70.44 71.12 71.82 70.12 70.29 69.78 69.59 69.76 69.67 69.81 69.19 68.65 67.93 67.78 67.89 68.13 68.33 68.29 67.83 67.71 67.65 67.61 67.61 68.20 68.68 68.97 68.23 67.04 66.19 65.94 65.12
50.61 49.77 45.73 45.73 45.32 48.44 52.32 57.52 55.94 56.10 56.02 56.34 61.02 55.30 60.14 61.55 60.84 65.76 69.73 70.67 69.84 68.41 67.94 68.44 69.42 69.23 68.24 67.64 67.46 67.25 67.02 67.13 67.41 67.35 67.27 66.85 66.45 66.59 66.76 66.56 67.03 67.05 67.30 67.31 66.57 65.57 65.22 64.42 63.61
51.81 50.41 46.38 46.60 45.27 46.27 53.45 55.85 58.03 57.93 56.74 61.95 62.00 56.39 57.00 63.62 66.95 67.83 68.76 68.57 67.72 66.25 66.92 67.01 66.69 67.94 67.12 66.54 65.98 65.99 66.17 66.63 66.72 66.34 65.65 65.27 65.44 65.75 65.80 66.06 66.49 66.17 66.04 65.89 64.96 64.32 63.68 62.32 61.50
54.08 47.63 44.17 45.47 46.36 46.84 53.79 53.82 59.47 60.53 58.59 59.50 61.99 62.29 64.28 66.18 67.05 66.57 65.19 64.44 63.83 63.51 63.90 65.21 63.40 62.90 63.82 64.32 65.86 65.87 65.90 65.81 65.10 64.88 64.02 62.97 63.25 62.91 64.65 65.47 65.53 64.87 64.42 64.36 63.46 62.56 61.31 59.89 58.98
50.98 48.16 46.75 49.89 50.31 49.50 51.47 53.85 55.75 56.25 56.89 57.20 59.56 63.55 65.35 65.20 65.12 62.31 62.54 61.83 61.44 61.39 61.53 61.99 61.27 60.54 61.79 62.93 63.83 64.68 64.42 64.31 63.88 62.78 63.82 62.34 64.12 64.99 64.44 64.24 63.71 63.00 62.51 62.27 62.57 61.69 61.14 61.66 61.24
51.91 47.97 50.35 50.38 52.33 53.32 52.12 54.61 57.12 55.56 53.20 57.51 57.08 61.13 63.96 64.06 63.62 62.33 61.60 61.28 60.40 61.28 60.84 60.54 61.16 61.07 60.77 62.43 63.17 63.42 63.33 63.78 63.80 64.24 63.38 64.87 65.35 65.20 64.59 63.46 63.07 62.13 62.34 60.90 61.07 60.23 62.00 62.16 61.91
48.82 51.34 51.19 52.20 53.16 54.60 53.81 56.14 54.58 55.29 56.79 60.08 60.70 62.63 63.71 62.61 61.77 60.65 60.30 60.66 60.00 59.98 59.48 59.80 60.82 60.21 59.42 60.50 58.32 60.77 62.98 63.53 62.96 63.77 66.05 66.41 64.53 65.57 64.98 63.55 63.77 63.35 62.90 62.50 62.18 61.38 61.19 60.53 58.90
50.43 50.65 52.11 54.89 54.16 56.05 55.64 53.85 54.24 55.04 59.46 62.11 62.24 61.60 61.50 61.14 58.98 59.99 60.24 60.29 59.98 58.94 59.32 59.19 59.43 59.31 58.54 58.62 57.22 58.34 61.75 63.27 63.93 64.82 65.70 65.55 65.19 66.13 66.01 65.84 63.98 63.60 63.04 62.13 61.86 61.27 60.01 57.59 56.52
53.28 52.86 53.46 55.08 55.43 55.77 53.44 53.64 54.92 58.29 59.89 59.50 59.87 60.20 59.83 59.07 58.13 57.91 58.13 57.69 57.15 56.69 56.81 57.39 58.47 59.50 59.93 60.24 60.92 61.46 62.97 63.60 64.18 64.91 66.17 68.11 67.87 66.12 65.91 63.87 63.08 62.19 62.76 62.84 61.99 60.01 57.58 56.29 56.03
54.68 51.02 52.75 53.88 54.41 53.78 54.87 50.01 46.60 57.90 58.78 58.85 57.99 58.23 57.88 58.76 58.19 56.69 57.56 56.46 56.30 56.33 56.57 56.55 56.30 57.09 57.24 57.44 57.85 58.79 61.97 63.57 63.56 65.95 68.00 67.01 66.73 65.72 65.04 63.50 63.13 63.03 62.86 61.70 59.61 57.47 56.77 55.35 54.74
51.54 51.67 46.57 49.53 53.77 53.95 52.89 44.04 50.07 58.49 57.47 56.72 57.71 57.46 56.97 57.60 57.56 57.51 57.24 57.00 57.14 56.81 56.20 57.42 57.66 57.36 57.38 59.30 60.37 60.83 62.53 63.67 65.34 65.72 67.24 66.63 66.18 65.43 64.97 63.88 63.07 62.34 60.91 59.69 57.86 56.79 55.24 55.58 55.87
49.84 44.20 46.04 48.70 52.02 51.80 51.47 48.22 54.25 57.78 56.55 56.18 57.36 55.83 57.03 57.08 55.40 56.60 57.24 57.58 57.84 59.28 57.31 58.04 59.12 58.66 61.09 63.09 63.17 63.50 64.91 66.13 65.84 66.66 66.29 65.95 65.67 65.35 64.70 63.63 62.61 61.74 59.76 58.59 57.30 56.53 56.95 55.43 55.47
44.71 45.31 46.07 45.37 49.17 50.93 48.83 48.62 52.81 56.70 55.79 55.39 56.81 56.49 53.78 55.08 56.56 58.28 59.41 59.77 61.10 61.11 60.67 61.04 61.76 62.09 63.03 64.23 64.12 63.64 63.99 65.38 66.21 66.32 66.18 65.60 65.66 64.91 64.45 63.21 61.84 60.86 58.94 57.52 56.84 56.52 56.28 56.59 56.03
48.29 46.73 45.67 47.98 50.58 48.82 48.46 48.99 50.20 55.96 56.32 55.63 54.69 57.09 55.12 55.10 58.40 59.98 58.93 60.13 60.82 61.52 61.00 60.93 61.81 62.57 64.00 63.80 62.23 61.65 61.73 63.78 64.78 65.15 65.69 65.86 64.91 64.47 64.15 62.78 61.29 60.36 58.35 57.32 57.16 56.60 55.94 55.22 56.47
47.81 46.28 46.18 48.95 49.95 48.95 48.82 48.43 50.70 54.42 55.45 56.57 56.41 55.90 57.40 57.65 57.88 58.74 60.26 60.52 59.98 60.17 60.39 61.19 62.67 63.87 64.43 64.10 62.65 62.20 62.97 64.35 65.50 65.90 64.59 64.34 61.68 61.51 63.57 62.38 60.48 59.24 57.80 57.06 56.98 56.48 55.20 56.06 55.75
47.60 46.48 46.69 46.63 48.94 50.38 48.55 47.02 49.07 52.83 55.95 57.14 57.97 57.82 58.34 58.16 57.52 58.39 59.83 60.99 61.36 60.44 60.93 61.58 62.89 64.20 65.02 64.30 62.55 62.84 65.05 63.89 62.79 63.49 62.83 62.89 62.59 63.01 62.75 61.56 60.21 58.86 58.15 56.31 56.85 56.65 55.86 54.27 54.95
45.13 49.79 48.19 47.46 46.23 40.99 49.45 39.28 47.19 50.02 52.03 55.07 56.67 57.89 57.78 58.64 58.88 58.76 59.75 60.32 61.23 61.95 63.21 63.36 64.14 63.91 64.75 65.80 63.07 62.80 62.41 61.23 62.70 62.95 62.43 59.29 59.21 59.86 60.72 60.65 59.71 59.10 57.95 57.24 56.79 56.53 56.40 54.84 52.48
47.28 49.97 48.57 48.41 46.97 46.40 45.74 42.09 45.24 49.18 48.27 51.56 55.12 57.73 58.91 59.36 59.92 59.17 59.74 60.47 61.78 62.83 63.06 63.74 64.44 64.75 65.07 65.38 64.91 63.50 62.79 62.53 63.66 62.51 61.32 58.73 57.30 58.95 60.02 59.72 59.02 58.54 57.41 57.31 56.77 55.37 54.16 53.56 49.92
50.83 48.88 48.69 48.82 47.13 40.26 44.22 43.92 42.91 46.05 47.18 49.81 53.10 56.34 58.42 59.82 60.28 60.67 61.54 61.71 61.79 65.08 65.04 65.21 64.05 64.14 65.26 65.41 65.23 64.53 63.24 62.99 61.90 60.57 58.26 57.81 56.71 57.80 59.74 58.55 58.57 58.34 57.49 56.09 54.94 54.06 52.83 48.60 49.77
49.67 47.03 40.34 38.56 39.41 38.38 46.03 43.27 45.48 49.56 50.35 51.33 51.72 54.02 57.22 59.56 60.80 60.90 60.47 61.05 61.66 62.66 64.27 64.80 64.33 64.00 65.02 65.38 64.85 65.24 64.59 63.89 61.50 60.01 58.89 58.01 57.48 57.62 58.95 58.57 58.34 57.54 56.29 55.14 53.16 50.30 48.48 49.15 50.07
47.63 47.21 41.40 34.13 35.67 38.90 45.55 40.30 44.62 50.51 51.95 52.15 52.98 54.53 55.92 57.74 60.24 61.56 62.16 61.82 61.94 63.49 64.44 64.23 64.17 63.73 64.44 64.55 64.53 64.46 64.71 63.51 61.87 61.23 60.32 59.18 57.88 59.44 59.77 58.45 58.22 56.66 55.07 52.27 49.99 48.87 47.54 49.40 50.32
47.56 44.64 49.34 43.69 43.76 40.23 43.12 45.82 49.29 50.51 49.82 50.88 52.56 54.21 55.97 57.76 58.25 59.97 61.93 63.29 63.11 63.40 63.95 64.79 64.16 63.87 64.17 64.22 65.06 64.35 63.71 63.14 62.43 62.44 61.80 59.73 58.65 58.99 58.54 58.56 56.87 55.13 52.57 49.22 47.26 45.94 48.32 49.65 49.63
48.89 50.93 43.14 44.18 35.01 33.60 40.49 42.26 42.70 46.76 48.12 50.76 51.45 52.53 55.82 57.32 58.26 59.35 60.62 62.58 64.14 64.58 63.93 64.92 64.62 63.81 64.35 64.65 64.57 63.14 62.55 62.77 62.34 62.09 60.35 58.89 57.81 58.85 57.81 56.57 54.33 50.63 47.31 46.90 46.15 47.86 49.58 49.43 49.25
46.65 45.93 46.86 46.57 43.42 37.28 36.01 40.50 48.76 47.95 49.34 49.79 51.65 52.69 53.84 56.33 57.91 59.21 60.55 62.11 63.62 65.03 64.73 64.27 64.03 63.67 63.88 64.54 64.31 62.14 61.25 62.00 60.81 60.16 58.03 57.59 56.75 55.78 54.12 50.14 47.91 47.65 48.33 49.12 48.04 49.07 49.09 48.34 47.94
49.53 47.10 46.97 41.41 39.85 42.98 41.40 41.79 51.19 51.02 51.59 52.00 52.23 52.99 54.48 55.99 57.43 59.36 60.29 61.11 62.14 63.61 64.35 64.51 64.41 63.89 64.07 64.33 63.69 61.08 60.64 57.36 55.48 53.42 53.51 53.42 51.55 51.12 48.99 48.39 49.61 50.83 49.84 48.64 48.29 48.04 48.04 47.16 46.26

GFSSGP_sfc_wetblb_078.txt.gz
Wetbulb
62.94 61.24 60.79 56.17 46.41 46.35 43.15 44.67 49.03 48.30 49.17 53.84 55.06 53.57 52.68 56.56 55.15 52.44 60.33 62.62 68.13 69.40 71.61 72.03 71.43 71.86 72.00 72.01 71.98 72.09 72.15 71.86 71.50 70.71 70.28 70.09 70.00 70.05 70.15 70.60 71.21 71.51 71.70 70.80 70.37 69.56 68.48 67.78 67.14
62.19 61.78 57.10 51.45 44.16 41.09 42.32 47.76 47.09 49.73 55.36 57.16 55.97 55.33 53.90 53.71 56.71 57.70 58.81 62.29 61.14 69.61 71.56 72.10 71.00 71.50 71.74 71.48 71.57 71.68 71.84 71.45 70.62 70.11 69.71 69.59 69.69 69.81 70.18 70.64 70.98 71.48 71.53 70.17 70.12 69.01 68.13 67.48 67.55
59.39 58.98 51.72 48.89 45.86 41.95 43.11 47.70 49.19 51.11 56.46 55.12 53.08 56.06 55.20 54.81 60.19 62.43 65.91 66.19 65.22 68.64 70.86 71.83 70.47 70.77 71.29 71.18 71.19 71.35 71.08 70.15 69.71 69.33 69.49 69.52 69.79 70.05 70.42 70.19 70.21 71.11 71.39 70.41 69.79 68.79 67.95 67.39 66.96
56.64 54.65 52.37 45.44 42.79 45.88 46.77 49.59 51.66 52.80 55.27 54.70 54.11 53.54 62.57 64.40 59.30 60.14 62.87 68.68 68.46 68.38 70.84 69.59 69.61 70.37 70.43 70.63 71.11 70.65 70.03 69.10 68.82 68.90 69.14 69.59 70.02 70.04 70.41 70.50 70.36 70.67 71.09 70.01 69.20 68.08 67.08 66.64 65.60
56.28 52.11 45.92 44.62 44.70 47.70 50.64 52.41 52.82 50.77 52.35 51.35 51.81 49.87 57.87 63.42 64.73 65.48 68.57 69.62 68.38 68.13 70.09 70.23 68.72 69.74 70.09 70.85 70.51 69.69 69.02 68.57 68.70 68.71 68.67 69.39 69.58 69.90 69.98 69.59 70.16 70.43 70.54 69.66 68.13 66.91 66.24 65.91 65.24
50.62 51.53 44.08 42.60 45.35 49.72 51.60 53.21 55.68 53.52 52.32 51.09 48.88 53.66 56.84 62.35 61.20 64.42 69.33 70.05 70.05 68.51 69.93 69.96 69.63 69.28 69.45 69.62 69.22 68.25 68.20 68.21 68.10 68.05 68.46 68.61 68.34 68.27 68.64 68.79 69.54 69.89 69.32 68.55 67.53 66.49 66.01 65.49 64.88
49.06 47.73 44.70 44.88 45.14 48.25 49.79 54.33 53.67 53.20 49.41 49.29 51.60 52.88 57.76 61.75 63.63 67.26 68.72 69.06 65.88 64.33 68.69 69.40 68.94 68.75 68.00 67.51 67.17 66.88 67.36 67.48 67.50 67.43 67.15 67.04 66.70 66.86 67.46 67.87 68.64 68.62 68.14 67.21 66.41 65.80 65.19 64.63 63.24
51.07 48.27 44.79 45.80 44.96 46.38 52.20 54.13 55.37 56.29 54.44 57.53 56.29 51.99 49.53 60.30 67.03 66.62 66.28 64.57 62.42 61.16 61.99 65.25 67.38 67.31 66.82 66.57 65.97 65.99 66.49 66.42 66.57 66.08 65.63 65.28 65.38 65.74 66.25 66.42 67.11 67.38 66.84 65.79 65.10 64.59 63.76 62.70 61.37
52.92 45.70 43.75 46.09 46.25 47.41 52.54 51.71 54.89 59.24 57.07 56.46 57.40 55.76 61.18 65.95 66.24 64.17 62.46 62.24 61.74 61.32 62.90 64.73 63.67 64.27 65.33 65.66 66.24 66.20 66.28 65.53 65.13 64.79 64.28 62.55 62.31 63.32 64.28 65.08 65.66 66.16 65.54 64.85 63.75 63.12 61.81 60.59 59.69
49.69 46.08 46.66 50.33 49.43 48.74 50.70 51.18 52.96 54.54 53.74 52.68 51.82 60.76 64.65 65.18 63.77 61.98 60.71 59.39 60.73 61.59 62.41 62.61 62.07 62.79 63.88 64.60 64.29 64.71 64.99 63.81 63.48 62.38 62.02 61.26 62.64 63.42 63.77 63.65 64.13 64.60 64.29 63.71 63.27 62.46 61.03 60.53 57.11
50.32 46.57 49.95 50.36 51.44 51.62 51.22 53.41 55.51 53.84 51.45 51.77 51.66 59.41 62.98 63.35 62.37 61.35 60.84 61.07 60.29 60.19 59.87 60.21 60.91 61.04 61.10 61.38 61.46 61.41 61.72 60.84 61.02 61.67 62.36 62.42 62.98 62.94 62.33 60.88 60.39 60.06 61.44 59.05 59.94 59.73 58.70 59.66 58.33
48.42 50.46 50.25 51.12 52.05 52.09 51.21 54.03 53.68 54.48 56.44 59.09 60.65 62.75 62.56 61.31 60.58 59.81 58.93 59.01 59.63 59.31 58.88 59.29 59.56 58.72 57.84 58.20 58.22 59.70 61.12 61.33 59.24 62.39 63.25 63.33 62.55 62.07 61.30 61.34 60.40 59.95 59.68 58.82 59.04 59.22 58.95 56.84 55.46
49.70 50.74 50.94 51.82 53.08 52.32 54.60 52.31 53.27 53.00 58.12 60.45 61.44 61.43 60.66 59.47 59.24 59.55 60.04 59.60 58.91 58.55 58.76 58.87 59.65 59.09 58.17 57.65 59.00 60.79 60.99 60.64 61.35 62.68 64.50 63.89 62.55 61.83 62.02 61.96 61.02 60.16 60.48 60.27 59.00 58.55 57.38 54.68 53.77
51.66 51.50 52.05 52.26 53.06 54.15 52.77 52.78 54.27 50.46 56.48 58.98 59.40 59.10 59.03 58.07 57.96 58.06 56.85 56.67 57.56 57.79 57.71 58.68 58.40 58.82 57.23 57.87 59.05 60.32 60.45 61.12 62.24 63.74 64.03 64.44 63.28 63.50 63.32 62.29 61.67 60.20 60.47 59.96 59.41 57.82 55.01 53.55 52.70
52.66 48.93 51.25 52.31 52.64 51.66 54.04 50.07 48.77 52.76 54.55 56.95 57.78 57.87 58.38 57.85 57.79 57.06 56.72 55.79 55.97 56.03 56.73 56.55 56.87 57.98 57.27 56.77 56.16 57.24 60.25 61.68 61.42 63.03 63.06 63.40 64.23 63.65 63.02 61.50 60.54 59.72 61.13 59.72 57.32 54.58 53.26 51.67 52.03
49.44 49.40 45.45 50.45 51.24 52.61 52.59 44.17 50.15 52.37 54.42 55.99 56.54 56.84 57.65 57.36 56.38 56.45 55.66 55.61 56.14 56.46 56.36 56.69 58.04 56.70 56.44 55.81 55.49 56.62 57.25 60.57 61.73 62.05 63.12 62.52 63.38 63.40 62.48 61.54 60.81 61.00 58.45 56.89 54.82 53.30 52.00 51.66 51.51
47.46 43.18 45.31 47.88 52.75 51.32 50.74 46.74 50.51 52.83 54.24 55.50 54.10 55.99 56.30 55.57 55.59 55.94 56.29 56.20 56.02 56.38 56.25 56.67 57.03 56.39 56.34 55.85 55.17 55.36 57.74 60.97 61.23 62.36 62.25 62.87 63.87 64.20 63.08 62.33 61.03 59.40 58.22 56.34 54.67 52.81 52.53 51.10 50.74
43.14 44.21 46.77 45.85 49.90 50.65 48.76 47.49 51.80 54.15 54.70 54.93 52.64 54.19 54.27 54.14 54.90 55.95 56.19 56.96 56.27 56.59 56.48 56.36 56.74 56.87 56.29 55.93 55.65 58.30 60.64 61.00 62.28 62.60 63.01 63.55 63.85 64.21 62.63 62.08 59.58 59.04 56.51 55.34 53.74 52.60 52.34 52.27 51.30
47.69 46.22 44.96 47.75 50.41 48.97 48.23 47.01 49.59 54.11 54.29 54.33 52.34 51.85 53.12 53.97 56.55 57.19 57.52 58.53 57.95 56.89 56.92 57.04 56.91 57.40 57.35 58.90 58.20 59.03 59.04 60.85 62.23 62.40 62.69 63.88 63.72 63.50 62.64 60.88 59.36 58.65 55.96 54.03 54.61 53.32 51.71 50.79 51.58
47.19 45.22 44.88 48.02 49.89 49.44 47.69 46.62 50.43 53.13 53.79 54.77 54.84 52.25 52.93 55.37 55.87 57.03 58.54 58.65 58.16 56.95 58.01 58.76 59.20 59.65 60.29 60.58 61.02 60.12 60.60 61.57 62.29 62.82 63.36 63.57 63.21 63.08 62.17 60.43 58.87 58.07 55.65 54.32 53.89 52.96 52.14 52.25 51.59
46.25 45.04 45.74 45.96 48.62 50.11 48.03 45.30 48.04 51.58 53.97 55.84 55.80 56.75 55.16 55.19 55.71 56.30 57.31 58.31 58.59 58.08 58.83 59.74 60.56 60.91 61.81 62.18 62.45 60.65 61.54 61.90 61.70 61.78 62.34 62.83 61.35 60.96 60.74 61.22 58.85 57.04 55.61 53.76 53.92 53.01 52.17 50.46 51.49
43.97 49.03 48.50 46.46 45.28 41.17 47.68 38.65 46.25 49.06 50.75 53.55 55.57 55.55 56.49 56.23 57.34 57.62 57.52 57.98 58.09 58.61 59.58 59.89 60.46 62.06 63.17 63.31 60.59 59.16 58.72 58.94 60.77 61.50 61.90 61.97 61.03 60.32 61.40 60.93 58.75 56.47 55.73 54.17 54.13 54.72 52.72 50.76 48.72
46.23 50.18 48.71 47.43 45.44 44.79 44.67 41.76 44.69 49.13 47.76 50.96 54.37 56.41 56.50 57.72 57.50 57.04 58.04 59.47 60.04 59.23 59.17 60.00 61.13 62.40 63.15 63.43 63.04 60.20 60.63 60.69 61.64 61.70 60.92 58.94 58.49 58.65 59.39 59.01 58.41 56.93 56.34 55.71 54.06 53.45 51.52 50.69 48.58
50.49 48.64 48.23 47.44 45.53 38.93 44.11 42.89 42.34 44.71 47.88 50.12 53.59 55.94 57.25 57.59 57.93 58.35 59.36 60.05 59.90 60.85 60.38 60.94 62.11 62.70 63.28 63.62 63.40 62.44 61.34 60.72 60.31 60.19 59.05 58.26 58.06 57.80 57.77 58.27 57.56 56.78 56.09 55.26 53.38 52.50 51.10 48.25 47.04
48.79 45.66 38.91 36.82 37.67 37.37 44.98 42.39 45.16 48.41 50.82 51.20 51.58 54.38 57.31 58.50 58.44 57.79 58.25 58.69 59.64 60.02 60.81 61.79 61.95 61.52 62.97 63.13 63.33 62.81 62.28 61.28 60.71 60.17 58.54 57.02 56.25 56.46 56.36 56.91 55.93 55.80 55.65 53.60 52.10 50.16 48.12 47.36 46.38
46.59 45.66 40.23 32.71 31.65 37.48 44.65 40.04 43.79 50.64 52.04 52.48 52.58 53.78 56.78 57.78 59.23 59.12 58.97 58.89 59.50 60.20 61.28 61.46 61.65 61.55 62.55 63.50 63.46 63.44 63.66 62.58 61.90 61.02 59.08 57.80 57.54 56.45 56.49 56.94 56.39 55.94 53.94 51.09 49.66 48.43 47.98 47.00 46.62
46.63 43.17 48.29 42.86 43.00 39.14 41.94 43.77 49.60 50.52 49.79 50.59 51.13 53.12 54.62 56.15 58.12 59.86 60.47 60.15 59.89 60.33 61.46 61.97 62.38 62.39 62.83 63.64 63.75 63.20 63.24 63.09 61.82 60.53 59.93 59.33 58.53 57.86 57.60 56.74 55.53 53.82 50.97 49.08 48.97 46.18 45.88 46.22 46.87
48.03 49.93 42.64 43.62 34.58 32.87 39.07 41.41 39.69 46.39 47.85 49.84 50.82 52.71 55.45 57.92 58.27 58.54 60.48 61.41 60.94 61.38 61.98 62.61 62.98 62.67 63.12 63.32 63.38 63.30 62.43 63.38 62.35 60.94 59.84 59.37 58.22 57.44 55.96 55.05 51.62 49.47 48.65 47.00 46.34 45.97 46.45 46.61 47.24
45.46 44.52 46.67 45.87 42.96 36.28 34.68 39.53 47.70 47.82 48.93 50.22 52.15 53.34 54.40 57.61 57.78 58.50 59.30 60.69 62.87 62.15 62.01 62.89 63.17 63.27 63.13 63.14 63.30 62.92 62.98 62.09 61.07 60.15 58.74 57.75 55.37 53.16 49.91 49.69 48.57 47.81 47.50 47.70 46.55 46.79 46.87 46.90 46.41
48.08 46.20 46.23 40.96 39.32 42.84 40.67 40.50 51.00 51.86 51.98 51.91 52.78 53.55 55.01 55.48 57.10 57.99 59.25 60.39 61.42 62.97 62.41 62.58 62.93 63.04 63.07 63.21 63.20 62.02 60.99 60.33 59.20 56.77 54.59 52.68 50.71 50.15 49.15 48.96 48.52 48.54 49.64 50.01 47.64 46.22 46.46 45.79 45.44

GFSSGP_sfc_wetblb_081.txt.gz
Wetbulb
58.42 57.64 54.89 51.35 39.64 36.83 34.86 39.44 44.84 44.08 49.62 53.82 52.90 51.43 51.53 54.38 54.33 49.57 60.41 62.92 65.59 63.61 64.33 71.50 71.47 71.95 71.94 71.98 72.13 72.09 71.99 71.93 71.58 71.19 70.80 70.88 70.85 71.20 71.52 71.58 71.17 71.24 71.09 69.24 68.44 67.51 67.51 67.87 67.87
57.21 58.55 53.68 45.93 35.62 30.61 36.37 42.84 43.41 49.64 50.34 53.77 53.90 53.85 52.60 52.77 57.11 57.69 59.55 63.28 65.42 65.81 64.84 69.38 71.11 71.48 71.75 71.69 71.72 71.73 71.70 71.36 70.80 70.54 70.42 70.39 70.71 71.08 71.59 71.36 70.65 70.78 70.77 68.82 68.10 67.03 67.01 66.87 67.46
57.80 56.13 45.07 40.28 36.36 34.87 35.97 45.72 47.53 51.72 52.07 51.44 49.44 52.62 56.59 54.98 59.94 62.70 63.07 63.72 64.02 63.56 64.95 63.47 69.84 70.42 71.28 71.39 71.40 71.21 70.74 70.12 69.84 69.70 70.17 70.22 70.71 71.27 71.47 71.12 70.32 70.36 70.53 68.49 67.74 66.67 66.44 66.68 66.07
51.94 48.13 45.51 38.01 37.00 41.12 45.32 48.83 50.82 51.59 51.65 51.89 51.00 49.56 55.08 59.54 60.53 61.22 62.17 63.86 62.23 62.46 63.55 64.13 68.85 69.70 71.08 71.39 71.21 70.57 69.90 69.30 69.05 69.06 69.89 70.31 70.56 70.78 70.83 70.80 70.49 70.45 70.41 68.14 67.12 66.15 65.76 65.76 65.31
50.73 45.20 36.68 35.38 39.40 44.32 49.05 49.88 50.94 49.06 50.84 50.19 51.43 48.50 52.70 59.28 62.15 62.68 64.36 66.44 63.17 64.76 65.91 68.75 68.44 69.55 70.78 71.28 70.83 69.61 68.95 68.67 68.74 69.04 69.28 69.90 70.43 70.50 70.10 70.15 70.24 69.90 69.44 67.67 66.23 65.64 65.75 65.28 64.71
44.29 43.53 35.65 36.62 40.30 46.03 48.52 49.24 52.67 52.62 50.78 50.76 51.69 50.36 54.12 59.92 60.28 65.05 64.82 63.76 62.85 61.73 67.24 69.49 69.16 69.46 70.08 70.13 69.12 68.45 68.33 68.40 68.37 68.72 69.15 69.91 69.83 69.73 70.05 69.88 69.84 69.37 68.54 67.56 66.69 65.98 65.48 64.49 63.84
42.91 38.78 36.22 37.82 40.42 44.65 47.56 51.60 51.12 50.65 50.92 51.23 52.66 48.83 54.65 56.98 62.38 63.94 62.58 62.14 61.71 62.07 61.54 62.47 69.03 69.02 68.55 67.64 67.30 67.25 67.47 67.41 67.67 67.80 67.88 67.84 67.91 68.38 69.17 69.38 69.18 68.55 67.44 66.70 65.95 65.46 64.48 63.37 62.66
45.48 40.91 37.18 38.62 40.56 41.91 49.31 51.40 53.18 53.01 49.95 54.89 54.96 51.73 51.23 56.96 63.93 63.65 61.85 61.25 61.63 62.00 61.66 61.44 64.58 67.47 66.75 66.53 66.73 66.51 66.40 66.40 66.48 66.41 66.15 65.77 66.33 67.18 68.03 67.93 67.84 67.40 66.56 66.11 65.31 64.47 63.15 62.25 61.07
46.92 37.59 36.24 39.58 42.94 43.43 50.11 50.50 52.12 55.95 53.81 54.26 55.61 53.86 57.42 63.43 63.06 61.67 61.54 60.14 60.27 60.89 60.81 61.96 62.92 65.57 65.95 66.15 66.37 66.17 66.11 65.46 65.20 65.02 64.53 63.34 63.68 64.06 65.02 66.46 66.43 66.44 65.62 65.16 64.67 63.55 62.00 60.88 59.70
41.79 36.31 39.87 46.41 45.60 44.84 48.84 52.08 50.07 52.60 53.15 52.12 53.96 56.95 58.50 62.97 61.70 60.00 58.83 58.47 58.72 59.46 60.26 62.96 64.10 64.52 65.11 65.59 64.95 64.68 64.02 62.62 62.23 61.42 60.55 62.44 62.51 62.95 64.31 65.13 65.26 65.13 64.66 64.08 63.66 62.53 61.40 59.11 55.32
44.81 40.16 45.54 46.91 47.50 47.65 47.17 50.39 54.45 52.27 51.48 53.61 52.69 57.04 61.47 61.53 60.69 60.51 59.77 60.18 59.59 60.86 61.41 62.18 63.11 64.02 63.91 63.99 63.66 61.97 62.01 61.52 60.57 60.00 60.94 62.68 62.56 61.26 61.20 61.21 60.96 61.00 61.72 59.67 60.24 58.93 56.72 55.93 54.43
43.22 47.25 47.13 47.23 48.62 49.25 46.10 49.80 51.41 52.47 53.46 57.80 59.93 59.88 60.09 60.06 58.82 59.37 59.80 59.58 59.01 58.99 59.67 60.06 60.13 59.64 58.40 58.81 59.10 59.69 59.65 59.12 59.35 59.89 61.30 61.70 61.18 59.36 59.01 58.35 57.83 57.63 56.83 56.34 56.25 56.68 54.86 52.51 52.19
46.59 47.17 49.09 50.35 51.26 50.93 51.50 49.44 51.12 48.88 54.59 58.88 59.93 59.64 58.80 59.02 58.95 59.34 59.09 59.15 58.59 57.49 57.80 57.70 57.55 57.06 56.69 56.55 56.40 56.62 56.95 57.51 59.21 61.44 62.44 61.73 60.49 59.67 59.67 58.22 58.21 57.65 57.00 57.05 56.03 55.65 54.23 51.36 50.87
48.27 48.39 47.82 49.17 50.09 50.64 51.04 50.27 49.74 50.34 54.98 58.13 58.88 57.53 58.05 58.16 58.07 57.79 57.68 57.29 57.83 57.14 57.18 57.39 57.34 57.26 57.17 57.05 57.75 59.12 59.41 60.05 61.15 62.05 62.22 62.36 61.99 60.54 60.44 58.86 58.82 58.28 58.10 57.54 56.49 55.99 51.97 50.47 49.73
49.71 45.67 47.00 49.34 49.57 48.22 49.55 45.68 46.41 52.11 53.54 56.00 57.28 56.72 56.38 56.96 57.11 56.13 57.08 56.45 56.82 57.17 57.36 57.30 56.54 56.95 57.07 56.44 57.78 59.32 60.65 61.03 60.79 61.32 62.07 61.83 62.20 61.53 61.16 59.56 57.64 57.76 57.82 57.52 56.68 53.66 51.10 49.42 50.16
45.96 44.34 39.32 47.00 49.50 50.18 48.40 41.55 50.41 50.73 53.13 52.29 54.90 55.87 55.42 55.72 56.25 55.91 56.04 55.95 56.02 55.95 55.73 56.28 57.53 56.46 56.01 55.57 55.98 57.68 58.13 58.60 59.47 60.20 60.83 60.49 62.42 61.90 60.07 59.22 57.54 58.12 56.27 53.93 51.52 50.04 48.74 47.75 47.26
42.61 37.34 40.22 45.02 50.79 48.67 46.48 42.82 49.26 51.92 52.31 51.65 52.89 54.16 54.03 54.47 54.65 55.19 55.87 56.04 56.17 55.91 55.54 55.49 55.78 55.33 55.87 55.35 55.51 56.33 56.85 57.48 58.76 59.00 60.40 59.38 60.08 61.91 60.66 59.59 58.61 57.03 55.17 53.11 52.16 50.68 49.21 48.61 47.97
38.20 40.14 44.11 43.60 46.24 47.59 45.87 44.19 47.68 49.79 51.66 50.02 52.36 51.86 52.70 53.08 53.83 55.31 55.46 56.19 56.37 56.08 55.76 55.67 55.35 55.48 55.33 54.50 54.12 54.72 54.75 57.59 59.52 58.75 60.36 59.95 60.51 61.75 61.44 60.55 58.03 57.43 54.97 52.81 51.19 49.76 49.99 48.61 48.52
45.22 43.89 41.86 44.36 48.90 46.65 44.87 43.38 47.95 50.20 50.99 49.70 49.46 51.57 51.54 52.08 54.80 55.30 54.94 55.57 55.59 55.76 55.24 55.26 54.66 54.64 54.17 52.69 51.67 52.76 53.54 57.71 58.47 59.34 60.67 60.79 61.16 61.66 60.92 58.86 57.90 55.98 53.40 51.71 51.27 49.59 48.50 47.97 48.32
46.20 42.48 40.31 44.28 48.38 46.80 43.78 42.60 47.19 50.61 49.72 49.15 48.19 48.72 50.36 52.51 53.00 53.68 54.25 54.71 54.65 53.88 54.39 54.97 54.74 54.44 54.06 53.58 53.01 54.68 56.51 57.75 59.00 60.47 60.68 60.94 61.14 60.96 60.34 57.91 56.88 56.26 53.55 51.43 50.70 49.89 48.98 49.17 48.43
44.30 41.52 41.56 42.01 45.69 45.29 43.16 40.89 44.05 49.16 51.24 50.17 50.28 51.64 52.73 52.61 52.55 53.70 54.48 54.56 53.92 53.60 54.05 54.53 55.09 54.88 54.95 56.11 56.62 57.56 57.32 58.22 59.06 59.39 59.74 61.19 61.34 60.82 60.54 58.58 57.20 55.68 53.13 50.80 50.36 50.21 49.74 47.69 48.27
40.68 46.33 46.09 45.45 41.24 35.21 42.76 32.98 40.54 46.31 49.13 49.89 49.45 50.08 52.29 52.93 54.40 54.61 55.13 54.66 54.33 53.97 55.16 54.95 55.63 55.46 56.22 58.15 58.05 58.00 56.55 56.78 58.05 58.43 59.12 59.98 59.73 59.25 59.44 59.17 57.77 55.97 53.62 51.96 51.54 52.07 50.20 48.69 47.15
43.99 48.00 47.09 45.55 41.01 38.05 39.62 37.14 39.83 45.32 45.20 49.09 50.62 49.91 51.69 53.68 53.91 54.47 55.59 55.92 55.82 54.69 55.11 56.18 57.69 58.39 58.76 59.40 59.28 58.78 55.74 58.33 58.47 58.99 58.64 58.30 58.16 58.39 58.70 58.27 56.52 55.05 52.88 52.11 52.49 51.16 49.84 48.78 46.00
48.90 46.14 44.91 43.87 40.18 33.15 40.01 40.44 37.37 40.17 46.23 48.49 51.97 52.29 52.04 53.70 54.18 54.70 55.64 56.53 56.67 56.20 56.44 57.46 57.88 58.95 59.89 60.40 60.62 58.91 56.99 58.14 58.44 58.63 58.26 56.96 56.11 56.31 57.04 57.81 56.49 54.85 54.12 52.98 52.86 50.64 48.33 46.99 46.29
45.56 40.62 32.54 31.38 31.48 30.65 42.79 40.49 40.97 46.00 47.40 49.07 52.15 52.70 53.65 53.97 54.52 54.66 54.78 55.30 56.20 56.03 56.59 57.13 57.01 57.30 60.39 60.40 60.70 60.45 58.62 58.46 58.40 58.38 58.15 56.21 55.91 55.43 56.17 56.61 55.50 55.35 54.41 52.73 52.15 50.73 48.20 46.08 44.68
42.45 41.54 33.56 28.62 27.67 34.21 42.39 36.50 40.74 47.68 49.78 48.65 49.63 53.98 54.45 54.60 55.11 54.92 55.57 56.44 56.80 56.71 56.32 56.50 56.85 56.98 59.81 60.84 60.79 61.08 59.45 59.25 59.07 59.28 58.79 57.77 56.78 55.94 55.49 55.37 54.54 54.58 53.14 51.81 50.56 49.11 47.44 46.84 45.57
43.43 39.20 44.22 38.81 40.09 35.28 38.16 41.44 47.11 49.09 47.54 47.33 46.97 48.30 52.54 54.26 54.94 55.20 55.97 57.05 57.67 57.77 57.44 56.78 57.35 58.49 59.49 59.81 61.03 60.87 60.73 59.26 59.23 59.19 58.63 57.51 56.64 55.91 54.52 55.45 54.75 52.35 50.53 50.42 48.91 47.73 46.36 46.20 46.25
45.13 47.08 38.59 38.22 30.98 29.50 37.30 37.54 39.02 43.08 45.61 47.26 46.53 48.48 50.95 52.05 54.91 55.72 56.20 56.71 57.75 58.33 58.82 59.19 59.56 59.75 59.91 59.81 61.04 61.23 61.01 60.64 59.37 58.94 57.89 57.13 56.69 56.17 55.37 53.76 50.98 49.31 48.39 47.73 46.94 46.26 46.75 46.15 45.90
42.80 41.32 43.73 43.17 38.06 29.42 27.47 33.19 44.06 44.56 46.27 46.29 47.12 48.46 49.58 51.89 52.03 53.04 56.86 57.50 57.78 58.53 58.89 59.19 59.05 59.37 59.65 59.90 61.46 61.50 61.05 60.00 59.33 58.67 57.50 57.37 56.62 54.91 52.95 49.44 47.95 48.08 49.01 48.29 47.03 46.73 46.89 46.41 46.19
46.24 42.97 42.77 35.12 35.47 37.02 34.01 33.82 46.77 46.61 46.97 47.48 47.52 49.09 48.87 49.54 52.16 52.36 53.50 55.12 58.01 57.75 58.29 58.86 59.67 59.65 60.37 60.67 60.49 61.16 60.81 59.75 59.23 58.96 57.99 55.53 52.43 50.56 49.64 49.20 49.67 49.25 48.14 48.02 47.55 47.03 47.64 46.29 45.06

GFSSGP_sfc_wetblb_084.txt.gz
Wetbulb
57.45 56.14 53.25 49.65 38.59 34.92 32.02 36.59 41.67 44.30 47.38 51.70 52.40 51.89 51.37 52.90 53.04 48.38 60.59 63.00 65.51 66.35 71.09 71.60 71.31 71.56 71.82 72.14 71.93 71.73 71.92 71.81 71.61 71.46 71.45 71.62 71.67 71.67 71.48 71.19 70.43 69.83 69.58 69.25 68.72 68.38 68.13 68.16 67.94
55.17 56.85 51.73 44.05 34.47 28.98 31.95 39.07 44.50 48.10 50.74 52.67 52.87 53.54 53.58 52.05 57.26 57.46 59.00 62.84 65.12 65.99 69.28 70.68 70.89 71.34 71.56 71.57 71.54 71.53 71.70 71.19 70.97 70.99 71.14 71.46 71.76 71.55 71.45 71.14 69.92 69.50 69.28 69.45 68.34 68.14 67.81 67.07 67.32
54.41 54.48 44.57 39.14 32.46 30.77 32.87 41.86 46.74 49.89 50.85 51.13 47.92 51.84 55.29 54.36 58.80 59.54 62.10 63.36 63.68 64.81 65.72 69.75 69.81 70.36 71.08 71.42 71.27 71.09 70.71 70.32 70.17 70.30 70.94 71.14 71.54 71.38 71.25 70.39 69.42 69.21 69.09 68.45 67.75 67.21 66.44 66.18 66.13
50.61 46.22 43.29 36.37 33.74 38.34 41.12 43.98 49.99 51.15 50.58 50.26 49.91 48.33 53.98 57.16 60.06 61.09 63.02 63.10 63.12 63.33 64.94 64.33 68.68 68.46 70.00 71.49 71.27 70.71 70.16 69.59 69.28 69.51 70.52 71.12 71.28 71.29 70.66 69.87 69.27 69.21 68.82 67.97 66.82 66.18 65.85 65.60 64.94
48.89 42.28 35.91 33.08 35.70 40.19 44.19 49.34 49.85 48.87 49.91 50.43 50.94 49.04 50.95 58.68 61.45 64.34 62.27 63.58 62.22 63.44 63.49 64.20 66.24 69.34 70.50 71.27 70.78 69.76 69.21 68.79 69.05 69.42 69.86 70.73 71.00 70.91 70.06 69.46 69.15 68.37 67.99 67.05 65.96 65.86 65.74 64.68 64.24
43.41 40.91 33.42 30.90 36.72 42.34 46.97 49.19 52.35 51.31 50.94 50.17 50.63 51.06 52.71 59.73 62.78 63.18 63.97 62.99 63.39 62.14 64.89 65.19 65.37 67.58 68.87 70.36 69.63 68.53 68.43 68.59 68.64 68.94 69.44 70.16 70.28 70.09 69.89 69.42 68.75 67.95 67.37 66.74 66.10 65.51 64.94 64.28 63.52
41.10 38.13 33.75 34.75 38.93 40.36 46.37 49.88 50.25 50.21 50.50 50.98 52.57 50.30 53.51 59.64 62.39 62.32 62.02 61.60 61.86 61.97 61.94 62.52 62.42 65.81 66.82 68.41 67.62 67.13 67.50 67.82 68.13 68.35 68.69 69.01 68.84 69.01 69.12 68.81 68.35 67.51 66.46 66.05 65.73 64.65 63.82 63.54 62.67
43.52 40.08 34.71 36.06 37.55 39.07 47.09 49.46 52.55 51.98 48.38 54.77 55.23 50.99 50.44 56.67 63.29 62.08 61.12 61.22 61.86 61.94 62.36 61.13 61.64 62.18 66.35 66.95 66.53 66.53 66.97 67.06 67.60 67.69 67.38 67.24 67.63 68.28 68.23 67.66 67.22 66.44 66.12 65.85 64.91 63.54 63.05 62.52 61.66
44.18 36.83 33.74 36.85 38.09 41.92 47.43 48.42 52.80 54.26 52.02 54.19 56.02 53.67 56.53 62.20 62.91 61.76 60.03 58.46 59.12 60.52 59.56 60.57 62.73 63.77 65.15 66.42 66.51 66.46 66.46 66.33 66.01 66.13 65.90 65.63 67.61 67.68 66.51 66.23 66.09 66.11 65.59 64.98 64.02 63.05 61.99 60.08 60.69
41.62 34.97 38.15 43.06 43.57 44.55 47.40 50.78 50.15 51.85 51.97 52.12 54.58 56.80 57.30 59.83 60.26 59.08 59.02 57.36 57.33 58.38 59.05 62.68 64.46 65.21 65.28 65.90 65.61 65.19 64.81 63.89 63.78 63.23 62.53 63.51 64.91 65.84 65.95 65.46 65.41 65.34 64.65 64.04 63.45 62.32 60.50 57.78 51.74
40.73 39.19 44.98 45.56 45.74 46.72 46.11 49.86 52.56 50.73 48.92 53.59 52.69 56.30 57.56 61.47 60.58 59.83 59.36 58.54 58.48 59.55 60.97 63.06 63.43 64.06 63.91 63.91 63.78 62.63 62.10 61.07 59.93 61.62 62.20 62.71 63.28 63.25 63.90 63.47 62.57 61.31 61.96 59.98 59.41 56.42 55.51 53.74 51.02
40.08 45.01 45.64 45.63 48.18 48.22 44.40 49.78 51.40 50.83 52.02 58.68 59.10 59.67 60.51 59.31 59.21 59.57 59.49 59.63 59.40 60.19 60.96 61.72 62.83 63.07 63.18 62.70 60.95 60.44 59.65 59.54 60.06 61.88 61.31 60.78 60.12 59.69 59.44 59.94 58.28 56.89 56.90 56.55 55.10 54.92 51.64 50.65 50.32
44.13 45.16 47.41 49.07 49.59 48.67 51.01 48.30 49.82 50.91 54.32 59.56 59.24 59.56 58.55 57.89 58.16 58.86 59.50 58.99 58.99 58.06 57.60 58.56 59.79 59.45 60.13 60.03 59.58 59.27 58.79 59.11 60.97 61.41 61.18 59.95 58.75 58.07 57.96 57.10 55.83 55.46 55.99 55.57 55.47 53.16 51.19 49.92 49.06
46.67 46.89 46.99 46.82 47.68 48.48 48.77 48.28 48.29 48.76 55.51 57.88 57.24 56.78 57.70 58.21 58.07 57.44 57.90 57.24 57.48 57.56 56.58 57.23 56.97 56.91 56.72 55.98 56.84 56.33 57.23 60.03 60.93 61.65 61.29 60.46 59.56 58.66 57.30 56.31 55.69 55.68 56.20 55.74 55.02 52.52 49.58 48.78 48.05
47.62 43.72 44.84 45.82 46.24 46.64 48.41 44.06 45.29 49.59 52.84 56.69 56.07 55.82 55.56 56.14 57.51 57.30 57.34 56.78 56.86 57.08 56.50 55.98 56.21 56.82 56.56 56.72 56.15 56.51 59.97 60.89 60.83 61.41 61.70 60.89 60.14 59.53 57.53 56.94 56.31 56.64 56.22 55.80 54.85 51.39 49.99 48.41 48.60
44.11 42.19 37.49 43.72 47.35 48.76 47.24 39.47 47.81 49.61 52.05 53.01 54.52 54.37 54.28 56.34 56.24 56.58 56.92 56.78 56.66 56.78 56.00 56.13 56.96 56.19 56.26 57.25 58.44 58.73 59.51 59.69 60.02 60.05 60.87 61.54 60.48 60.27 58.54 57.77 56.77 56.81 56.49 55.57 53.26 50.13 48.38 47.62 46.71
39.71 35.82 38.23 42.03 47.95 46.71 45.51 41.63 47.27 48.56 51.76 51.96 53.16 53.16 53.62 54.17 54.89 55.62 56.30 56.06 55.92 56.21 56.20 55.86 55.90 55.43 55.57 56.40 56.87 56.71 57.09 57.62 58.71 59.15 59.58 59.13 61.50 60.51 59.05 57.57 56.70 56.35 54.54 53.36 50.89 48.41 47.74 45.81 45.80
35.72 36.95 41.00 40.66 43.90 45.39 42.65 43.39 44.40 47.66 49.93 50.54 51.29 52.26 52.32 52.70 53.66 55.19 55.86 56.25 55.86 55.81 55.79 55.54 56.06 55.60 55.94 56.25 56.40 55.92 55.79 56.45 57.76 58.06 59.52 58.90 58.74 60.48 58.89 58.05 57.19 54.98 52.99 50.99 49.47 48.66 48.11 47.07 46.69
42.51 41.00 39.84 42.64 46.73 44.85 43.47 43.24 45.34 47.18 49.98 50.22 50.64 51.53 51.63 51.98 54.69 55.38 55.76 56.29 55.80 55.57 55.36 55.11 55.09 55.09 54.72 54.51 53.97 54.03 53.63 54.99 57.00 57.97 58.57 58.34 57.80 59.57 59.61 58.85 56.55 55.13 53.15 51.26 49.84 48.15 48.02 46.62 47.19
42.59 40.65 40.29 42.84 45.27 44.57 43.03 41.34 44.37 47.82 49.34 50.99 50.27 50.07 50.94 51.55 52.75 53.83 53.17 54.54 55.05 54.94 54.86 54.64 54.49 53.65 53.20 53.51 54.37 53.91 53.90 54.36 56.20 57.55 58.08 59.12 59.74 60.16 60.34 58.44 57.48 55.74 53.31 50.45 49.72 49.01 47.67 47.21 47.13
42.33 40.40 40.52 40.47 42.89 43.52 41.24 38.72 42.36 47.34 49.36 49.90 50.34 50.84 51.42 51.26 51.07 52.29 52.85 52.61 53.04 53.44 53.62 53.71 53.37 53.31 52.84 52.89 51.47 53.46 54.11 55.62 55.86 56.64 56.88 58.18 59.55 59.69 60.51 58.30 57.77 55.79 53.80 51.15 49.72 48.53 48.57 47.28 46.76
39.37 45.03 44.16 43.11 39.48 34.18 40.54 31.83 38.43 43.67 45.70 47.43 47.47 48.29 50.37 51.64 52.48 52.26 52.70 52.99 52.16 52.77 53.70 54.22 53.83 53.44 53.35 53.04 51.91 52.12 52.22 52.72 55.44 56.25 57.26 58.09 59.38 59.85 60.71 59.14 57.15 55.85 53.42 51.06 50.30 50.61 48.84 48.14 46.15
42.49 46.57 44.61 44.50 39.92 36.23 37.95 34.30 37.93 44.53 44.05 45.02 46.87 48.69 50.40 51.82 52.22 51.89 52.55 54.26 53.17 53.32 53.18 53.77 54.26 54.18 53.77 53.90 53.58 53.26 54.77 55.61 56.08 56.56 56.97 57.98 58.26 59.35 59.83 58.51 57.01 55.17 53.27 51.42 50.85 50.02 49.70 48.32 46.96
47.80 44.37 43.25 42.15 38.89 31.66 38.36 36.96 35.93 38.66 44.57 46.88 47.74 49.33 51.06 51.67 52.40 53.00 54.11 55.08 54.28 53.90 53.46 53.73 53.51 53.99 54.22 54.78 55.30 55.18 55.50 56.04 56.58 57.52 57.58 57.92 58.25 58.47 58.01 58.63 56.68 55.60 53.58 52.53 52.55 51.67 49.46 47.60 46.33
44.12 39.14 31.21 30.32 30.51 29.36 41.08 38.27 39.25 44.48 45.42 49.47 49.29 48.96 51.54 52.36 52.31 52.98 53.88 54.04 54.38 53.46 53.15 53.48 53.55 53.83 54.75 55.17 55.70 56.81 57.42 56.52 56.60 57.44 57.80 57.38 56.86 56.44 56.98 57.33 55.41 54.24 53.73 52.38 52.76 51.67 49.43 47.72 45.88
40.95 40.08 31.58 28.33 27.31 31.79 41.10 34.49 39.88 46.43 47.66 48.58 52.53 52.27 51.15 52.45 53.02 53.17 54.33 54.67 54.62 53.74 53.06 53.46 53.80 54.66 56.44 57.17 57.37 58.12 58.54 57.76 57.89 57.97 58.66 57.91 57.78 57.95 58.36 57.28 55.49 53.83 53.17 52.99 51.65 48.95 48.02 47.37 47.17
40.88 36.78 42.62 36.80 38.23 32.58 36.49 40.26 44.77 45.95 46.02 46.62 48.27 51.75 50.96 51.31 53.21 53.23 54.21 55.07 55.48 55.17 52.99 53.13 54.55 55.90 57.21 57.95 58.71 59.14 59.74 58.83 57.77 58.25 59.03 58.52 58.78 58.37 55.80 56.22 54.75 52.73 51.56 50.17 49.13 48.12 47.10 47.28 46.61
43.74 45.23 36.01 36.70 29.94 28.24 33.88 35.87 37.42 41.65 43.92 45.23 44.84 49.68 51.46 52.75 53.04 54.17 54.59 54.65 55.49 56.43 56.11 55.36 56.04 56.30 56.76 57.60 59.39 59.67 59.92 59.45 58.87 58.17 58.25 58.38 57.78 56.95 55.22 55.36 52.87 49.73 48.95 48.36 48.34 47.65 46.94 47.35 46.79
40.54 39.47 40.41 40.91 36.99 30.13 27.02 32.06 41.37 42.94 45.09 44.59 45.80 47.85 50.55 52.59 53.14 54.04 54.83 55.80 56.44 56.54 56.68 56.53 56.53 56.58 56.63 56.91 58.64 59.45 59.93 59.97 59.27 58.44 58.17 57.94 56.68 55.84 55.24 53.72 51.01 49.39 49.10 49.31 49.21 48.33 47.30 46.58 45.89
42.68 41.50 41.89 35.02 34.48 35.50 32.37 32.81 44.53 44.94 45.64 45.98 45.24 47.34 47.34 51.70 53.89 54.73 55.09 55.54 55.89 56.59 57.33 56.99 56.84 56.62 57.14 58.08 58.44 58.92 59.57 59.71 58.94 58.34 57.52 56.68 55.60 55.16 52.90 51.77 50.35 49.54 49.55 49.25 48.27 47.06 46.83 46.00 46.19

GFSSGP_sfc_wetblb_087.txt.gz
Wetbulb
56.23 55.74 51.66 47.27 37.59 34.45 30.75 35.58 39.69 41.82 45.75 49.72 50.95 49.48 49.34 52.01 51.45 44.64 59.32 63.17 66.41 69.09 70.41 70.85 70.89 71.46 71.69 71.78 71.70 71.86 72.25 72.22 72.04 71.68 71.58 71.52 71.47 70.98 70.33 69.85 69.06 69.72 69.78 68.65 68.67 68.49 68.43 67.64 67.03
54.39 54.87 49.05 41.09 33.38 28.74 31.98 36.83 40.01 46.17 49.75 51.44 51.60 51.24 53.15 50.71 56.68 57.20 57.42 62.10 65.65 66.54 70.49 70.27 70.59 71.08 71.45 71.45 71.53 71.54 71.83 71.90 71.80 71.66 71.47 71.44 71.17 70.76 70.19 69.36 68.87 69.60 69.92 69.13 68.90 68.89 68.54 68.16 67.21
52.40 51.64 43.55 37.20 30.57 30.38 32.42 38.69 42.41 48.60 50.59 49.85 46.53 50.97 53.60 52.46 59.27 60.44 61.20 62.96 64.33 65.03 66.26 70.18 69.72 70.22 71.11 71.22 71.26 71.15 70.88 70.85 70.97 70.94 71.32 71.28 71.28 70.84 70.09 69.05 68.68 69.53 69.99 69.04 68.26 67.48 66.43 66.00 66.62
48.96 45.15 41.57 35.52 32.16 36.67 38.72 41.96 44.04 49.40 49.50 49.28 48.85 47.41 53.02 56.94 59.87 61.12 61.70 62.40 63.12 63.79 64.24 68.57 68.51 68.54 68.58 69.23 69.88 70.87 70.33 70.13 70.25 70.32 70.90 71.20 71.32 70.81 69.76 68.77 68.41 69.29 69.14 67.87 66.70 65.26 64.98 65.66 66.02
46.76 40.95 34.40 31.36 33.25 38.21 41.71 43.57 47.49 48.19 48.43 49.35 49.94 48.06 49.85 58.93 61.19 64.34 62.05 62.63 61.19 61.98 63.08 65.35 67.17 67.92 68.30 69.12 69.82 69.27 69.77 69.57 69.62 70.21 70.59 70.87 70.74 70.08 69.16 68.35 68.02 67.83 67.95 67.64 65.63 64.80 66.24 66.16 65.42
42.09 39.19 32.52 30.42 33.91 40.16 42.50 45.04 50.71 49.72 49.95 49.75 49.81 50.07 51.43 60.00 62.30 63.48 64.10 62.24 62.53 62.70 62.58 64.00 66.60 68.12 67.78 67.80 68.75 68.60 68.31 68.76 68.97 69.69 69.81 70.26 69.82 69.39 68.76 68.11 67.50 67.29 67.03 66.16 65.44 64.74 65.50 65.24 64.79
40.41 36.89 32.69 31.48 36.12 38.85 41.70 48.03 49.22 49.11 49.66 50.64 52.03 49.12 53.40 59.56 62.07 62.86 62.17 61.97 61.41 61.95 62.49 62.40 61.51 66.28 67.42 67.27 67.18 67.26 67.32 68.13 68.35 68.93 69.28 69.00 68.62 68.48 68.17 67.70 67.31 66.67 66.20 65.29 64.62 63.77 64.20 64.71 64.49
41.88 38.82 33.64 34.45 35.99 37.08 42.41 48.36 51.19 50.74 49.19 53.85 54.18 50.07 49.17 57.06 62.10 61.69 61.47 61.71 62.01 62.13 61.98 60.89 61.94 63.82 65.84 66.66 66.39 66.19 66.51 67.22 67.75 68.16 67.87 67.67 67.89 67.67 67.37 66.67 66.17 65.97 65.57 64.75 63.96 63.16 63.70 64.13 63.45
41.53 36.15 32.27 35.63 36.17 39.32 44.17 46.84 51.84 53.01 50.91 52.60 55.02 53.36 56.91 62.17 61.53 60.42 58.62 58.60 59.26 60.69 60.82 60.89 60.32 60.38 64.25 65.34 65.72 66.06 66.33 67.02 67.18 67.47 66.79 66.37 67.66 66.71 65.15 64.99 65.28 65.49 64.89 64.30 63.13 62.00 62.58 62.40 62.21
39.67 34.11 36.97 41.18 41.48 41.90 45.19 48.57 50.21 50.44 51.21 51.36 53.40 56.87 56.74 60.57 60.78 59.19 58.84 56.88 56.96 58.18 58.37 61.13 62.89 62.66 60.67 64.65 64.91 64.52 64.48 65.88 66.52 67.03 66.94 67.19 66.93 65.59 64.33 64.55 64.95 64.78 64.17 63.50 62.25 60.31 58.48 55.55 54.32
39.39 38.20 41.89 44.43 45.01 44.03 42.57 47.79 51.26 49.08 47.96 52.52 52.31 55.47 55.32 60.34 59.53 59.22 58.83 58.08 56.80 57.36 59.69 62.71 61.66 62.94 61.84 61.03 63.18 63.31 64.04 64.30 64.19 64.97 65.67 65.83 65.86 65.21 63.86 62.66 61.38 61.44 61.01 58.47 56.74 55.23 51.11 49.53 49.80
38.35 43.27 43.30 44.49 45.96 47.07 43.90 49.03 49.98 49.01 50.04 57.44 58.51 56.51 59.48 59.46 59.73 59.41 58.68 58.41 57.89 59.26 60.32 61.30 60.57 62.30 62.32 63.43 63.01 62.71 62.36 61.34 62.45 63.25 64.20 64.44 64.28 63.05 62.28 60.26 58.62 57.92 56.75 54.89 54.10 52.31 49.60 48.61 48.85
41.54 43.54 45.40 46.74 46.96 47.58 49.65 48.29 48.66 50.67 56.11 58.53 59.27 59.23 58.78 58.40 58.47 59.01 59.61 59.56 59.66 58.73 58.77 59.69 61.02 61.61 61.46 60.81 60.51 60.23 59.82 61.03 61.86 62.06 62.70 62.95 62.15 60.94 60.39 57.05 56.10 56.02 54.58 54.44 51.68 49.88 49.40 48.51 47.91
44.69 44.80 45.36 45.27 45.80 46.81 47.30 47.16 47.46 49.14 56.51 57.26 57.04 56.34 57.44 57.13 57.35 57.46 58.06 58.06 58.46 57.32 57.18 58.01 57.99 61.09 61.13 60.72 59.54 58.61 58.56 60.22 61.11 60.84 60.45 61.20 60.82 59.39 58.64 55.37 54.63 54.51 54.19 54.14 52.15 49.40 48.34 47.24 47.09
45.42 42.13 43.66 45.39 44.10 45.75 46.81 42.32 44.25 47.58 56.21 55.78 55.46 55.02 56.32 55.47 57.41 57.26 57.92 57.24 57.38 57.02 56.98 56.77 56.82 57.49 58.27 58.57 57.33 57.16 59.44 60.87 60.64 60.47 60.09 59.37 59.28 58.70 57.94 55.17 54.96 54.77 54.67 54.08 51.29 48.83 47.47 46.48 47.05
42.47 40.14 35.73 42.65 44.72 46.79 45.30 39.45 45.18 48.83 55.01 53.60 53.90 53.72 54.03 55.08 56.18 56.90 57.59 57.23 57.01 56.38 55.68 56.58 57.33 56.72 56.72 55.86 56.93 59.07 59.95 60.24 60.58 60.41 60.29 59.61 59.32 57.69 56.98 55.82 54.89 55.29 54.79 54.30 51.08 48.86 47.11 46.00 45.40
37.72 33.46 35.95 40.43 45.20 44.34 43.30 41.10 43.03 47.29 51.89 52.13 52.51 52.47 52.45 52.51 53.42 55.94 56.80 56.62 56.57 55.90 55.80 55.70 56.23 56.59 56.61 56.83 57.23 57.95 57.80 59.18 59.29 59.89 60.20 60.00 60.30 58.57 57.71 56.35 55.40 55.48 54.56 53.40 51.43 47.98 47.40 45.15 44.42
33.82 34.78 38.14 37.73 41.85 43.23 41.35 42.21 43.79 46.61 49.88 51.15 52.59 52.17 50.42 50.72 52.05 55.28 55.68 56.08 56.52 56.44 55.96 55.94 55.80 56.12 56.47 55.98 55.90 56.16 56.47 57.04 58.05 58.63 59.05 59.94 60.69 59.93 57.76 56.26 55.50 55.03 53.54 51.33 49.14 47.51 46.56 45.57 45.04
39.78 38.16 36.65 40.82 44.67 42.33 42.40 41.72 44.63 45.76 47.00 48.85 51.42 51.23 48.90 50.26 53.24 55.24 55.68 55.66 55.44 55.54 55.15 55.34 54.88 55.90 55.87 55.34 54.58 54.56 54.45 55.70 56.53 57.58 58.93 58.49 59.37 59.89 57.97 56.70 55.36 53.81 53.30 51.63 48.78 47.15 46.55 45.53 45.93
39.98 37.83 37.59 40.86 44.20 41.89 41.22 40.93 41.05 45.32 47.24 49.38 50.60 49.36 48.68 49.83 52.45 54.40 55.21 54.85 54.52 54.50 54.57 54.85 55.26 55.38 55.15 54.65 54.20 53.99 54.75 55.32 55.84 57.75 57.53 58.82 57.68 58.66 58.78 57.45 56.02 53.97 52.05 50.10 48.38 48.00 46.81 46.45 46.23
39.70 37.86 38.09 38.06 42.57 42.12 39.40 38.00 40.77 44.48 47.91 50.26 50.55 50.01 49.91 49.53 50.04 52.80 53.44 54.32 54.75 53.96 54.42 54.51 54.69 54.20 54.65 54.99 54.30 53.58 53.93 55.03 54.54 56.30 56.63 57.42 58.35 57.94 59.37 58.62 57.50 55.77 53.95 51.15 49.00 48.17 48.11 46.39 45.76
36.99 43.09 42.54 40.95 37.72 33.78 38.71 30.49 37.16 40.94 44.51 47.75 48.46 48.87 49.26 50.31 50.92 52.20 51.95 52.00 52.92 54.06 53.73 53.48 53.58 53.11 52.28 52.11 51.80 51.81 51.33 51.14 53.17 53.09 56.38 55.66 57.47 57.81 58.83 58.86 57.60 55.36 53.42 50.79 50.24 49.27 47.90 47.47 45.78
40.80 44.82 42.48 41.40 38.58 34.28 35.41 32.58 35.70 42.49 42.12 44.46 46.30 47.62 49.06 50.78 50.78 51.17 51.76 52.36 52.66 53.25 52.64 52.77 53.07 52.87 52.78 51.95 51.54 50.73 50.37 50.77 53.67 54.76 55.34 55.58 56.99 58.68 59.10 59.11 57.26 55.68 54.00 52.60 50.80 49.02 49.16 49.79 48.27
46.09 42.58 41.10 39.59 36.79 30.18 36.70 35.18 33.93 36.58 42.69 45.22 47.12 47.59 48.39 50.52 51.05 51.70 52.23 52.46 52.08 52.62 52.51 52.42 52.43 52.64 52.76 52.16 51.89 50.91 51.36 52.60 53.37 54.45 54.58 55.26 56.14 56.97 57.59 58.13 56.57 56.35 54.93 52.32 51.43 51.63 51.55 50.33 48.91
41.63 37.00 29.31 27.80 28.43 28.22 38.40 36.64 37.81 42.65 44.21 46.96 47.32 48.03 48.51 50.37 51.16 51.25 50.99 51.67 52.40 51.70 52.06 52.59 52.72 52.46 53.03 52.24 52.18 52.28 52.09 53.13 54.02 54.42 55.48 55.21 55.52 55.62 56.36 56.42 55.80 55.54 54.89 53.12 52.85 51.88 50.96 50.10 47.58
37.86 37.88 30.65 26.40 25.83 29.49 38.77 33.21 38.10 45.07 47.07 46.46 49.87 49.79 49.73 49.92 51.28 51.41 51.74 52.39 53.12 52.86 52.05 52.43 52.41 52.47 53.14 52.72 52.52 53.00 53.56 53.83 55.14 55.43 56.22 56.61 56.68 56.89 56.76 56.66 57.41 55.82 53.93 52.86 51.01 50.25 49.20 48.62 47.91
37.97 35.34 41.09 33.79 34.97 31.21 33.87 37.95 43.28 45.02 45.32 44.63 47.33 48.45 48.04 50.43 50.84 51.18 52.35 53.12 53.52 54.10 53.25 52.45 52.59 52.85 53.10 53.13 53.10 53.16 53.94 54.65 55.32 56.22 56.90 57.41 57.86 57.95 57.39 57.09 56.44 54.87 53.18 52.34 50.19 48.54 48.54 47.94 48.15
41.65 43.28 34.76 34.32 28.73 27.26 31.44 33.47 35.56 41.40 42.17 43.23 44.70 47.98 48.63 50.50 51.76 51.98 52.40 53.51 54.39 54.60 54.62 54.16 53.56 53.05 53.33 53.79 54.07 54.34 54.92 55.80 56.23 57.19 56.89 57.45 58.13 57.76 56.73 55.44 55.24 53.50 51.56 50.64 49.95 49.20 48.79 48.36 47.74
38.05 38.09 38.55 38.00 34.05 29.21 26.72 30.76 41.18 42.59 43.92 42.80 42.95 47.48 49.66 49.68 51.25 52.65 53.40 54.09 55.01 55.16 54.97 53.86 53.58 53.55 53.82 54.57 55.50 56.03 56.65 57.51 58.11 58.08 57.57 57.56 57.86 56.22 55.34 55.10 54.80 52.48 50.87 50.58 49.87 48.93 48.69 48.00 47.25
41.10 40.19 40.21 33.21 32.26 33.06 30.95 32.15 42.97 43.47 43.42 44.65 44.44 45.41 46.44 50.98 51.75 52.68 53.72 54.17 54.30 54.86 55.19 54.14 53.50 53.41 54.61 55.94 56.47 56.42 57.55 58.17 58.46 58.20 58.26 57.35 56.48 55.92 55.62 54.47 53.07 52.00 50.91 50.33 49.86 48.27 48.14 48.12 46.89

GFSSGP_sfc_wetblb_090.txt.gz
Wetbulb
55.33 53.04 50.62 45.52 37.41 33.82 30.62 34.24 37.85 39.47 42.82 47.69 49.15 48.41 47.70 50.73 50.20 42.97 58.34 60.83 66.17 69.78 70.13 70.41 70.90 71.61 71.66 71.65 71.77 71.68 72.03 72.33 72.26 72.32 71.87 71.85 71.49 71.10 70.48 69.77 69.65 69.59 69.85 68.35 68.20 68.12 67.70 67.15 66.42
53.40 53.29 47.63 39.90 33.42 28.77 31.88 35.13 37.84 43.15 48.29 50.31 49.77 50.09 51.22 50.29 55.58 56.26 56.62 61.22 66.12 69.77 69.96 70.10 70.45 71.17 71.52 71.48 71.47 71.54 71.89 72.03 71.95 72.00 71.85 71.36 71.05 70.43 69.92 69.85 69.31 69.58 69.97 69.29 68.60 68.28 67.51 66.40 65.85
50.99 49.68 42.70 35.82 29.41 30.12 31.65 37.64 40.16 44.22 49.48 48.71 45.73 50.54 53.15 51.42 57.52 59.24 60.32 61.92 64.88 66.66 69.71 70.04 70.23 70.60 71.07 71.20 71.39 71.34 71.31 71.13 71.15 71.15 71.26 70.97 70.45 69.87 69.75 69.33 69.04 69.68 70.14 69.30 69.01 68.45 67.19 67.17 66.02
47.39 44.51 40.10 35.03 31.03 35.80 37.57 40.78 42.48 44.57 47.97 48.40 47.39 46.27 51.55 56.36 58.30 61.17 61.94 63.11 63.92 64.31 65.97 69.06 69.43 70.04 70.67 70.97 71.11 70.95 70.84 70.41 70.37 70.51 70.76 70.68 70.23 69.77 69.62 68.99 69.16 69.68 69.72 69.47 67.99 66.98 67.19 66.22 65.02
44.49 39.96 33.76 30.78 32.09 36.91 39.76 41.81 41.85 45.57 46.92 48.09 48.70 46.80 49.28 56.26 60.98 61.71 61.94 62.44 62.73 62.65 64.67 68.42 68.20 69.61 70.35 70.64 70.29 69.98 70.28 70.16 70.07 70.33 70.39 70.21 69.91 69.28 69.18 69.01 68.79 68.65 68.38 67.51 66.25 65.96 67.13 65.40 64.75
40.96 38.22 31.65 29.38 33.00 38.60 40.74 42.10 47.38 47.71 48.75 47.99 48.34 49.12 50.37 58.80 61.23 61.79 62.32 61.62 62.39 61.72 62.80 64.48 68.09 67.55 68.83 69.46 69.28 69.05 69.25 69.43 69.53 69.80 69.90 69.91 69.13 68.60 68.46 68.31 67.76 67.44 66.43 66.37 66.89 66.86 66.16 64.99 64.38
39.78 35.78 31.40 30.72 34.91 37.67 40.09 45.97 47.18 47.69 47.48 49.60 51.18 47.93 50.80 57.78 60.12 61.52 61.91 62.16 61.72 61.75 61.11 63.07 64.63 66.99 67.46 67.38 67.51 67.55 68.00 68.13 68.74 69.17 69.04 68.79 68.05 67.77 67.65 67.60 67.28 66.15 65.70 66.21 66.67 65.85 64.70 64.66 63.97
40.39 38.08 31.84 32.71 34.17 36.01 40.86 46.87 49.56 49.04 48.20 52.57 52.96 48.54 48.04 55.66 61.10 61.94 61.75 61.88 61.68 62.12 61.35 60.63 61.79 63.99 65.24 64.87 66.39 66.27 66.20 66.58 67.44 67.74 67.99 67.35 67.21 67.13 66.83 66.44 65.71 65.37 64.90 65.44 65.78 64.97 64.49 64.21 63.69
40.32 35.04 31.58 34.53 35.07 38.89 42.06 44.27 49.62 51.54 49.51 50.97 53.68 53.20 56.10 60.91 61.21 60.05 59.36 59.64 60.43 61.03 61.95 60.76 60.58 61.44 63.45 65.42 66.26 66.17 66.02 65.97 66.20 66.57 66.95 66.01 66.59 65.36 64.42 64.48 64.90 64.60 64.12 64.42 65.11 64.72 63.84 63.05 62.74
39.35 33.56 36.16 40.13 40.33 41.01 44.30 44.19 48.89 49.49 49.97 50.20 52.46 55.58 60.07 60.22 59.59 58.68 57.65 55.81 57.57 58.65 59.12 59.97 60.98 60.99 61.84 65.30 65.61 65.12 64.90 63.34 64.88 67.15 66.82 66.69 65.59 63.46 63.01 64.01 64.33 63.96 63.04 63.37 64.35 63.51 62.64 60.16 57.59
38.38 37.26 40.08 42.95 43.18 42.74 41.19 43.61 49.74 48.26 46.34 49.96 50.31 53.17 54.28 58.32 59.54 59.30 59.48 58.80 56.73 57.01 59.83 62.10 62.66 62.39 61.34 61.91 64.72 64.24 63.88 62.31 62.86 65.43 66.12 66.11 65.15 62.85 62.17 62.16 61.22 59.97 60.25 57.46 57.83 55.27 53.91 53.05 51.30
36.78 41.56 41.75 43.34 43.97 44.37 42.77 45.41 48.72 47.91 49.32 54.28 55.10 56.01 55.46 58.70 58.94 58.27 58.31 58.57 55.79 57.29 59.40 61.02 60.85 61.59 62.09 62.03 64.30 63.24 61.50 61.17 61.64 64.22 64.97 65.43 64.28 61.38 60.16 59.23 58.23 57.62 55.69 53.18 51.71 49.70 49.69 48.87 48.76
39.38 41.60 43.03 45.40 45.00 43.81 47.67 47.74 47.87 48.26 53.38 57.86 58.45 57.84 58.28 57.53 56.21 57.95 58.59 59.59 58.86 58.94 59.04 60.15 61.19 61.00 61.66 62.04 62.53 61.67 60.58 60.73 61.83 63.47 64.37 65.08 63.67 61.07 59.54 57.41 56.11 55.76 53.63 52.49 49.43 49.16 48.59 47.85 48.54
43.16 43.04 43.95 44.04 44.26 44.36 45.79 44.43 46.87 48.29 56.43 56.35 56.53 56.85 57.30 56.13 57.30 58.11 58.22 58.48 58.84 58.48 57.98 58.98 60.21 60.62 60.53 61.34 61.15 61.04 61.01 60.96 62.41 63.07 63.38 64.14 62.67 60.68 58.46 56.39 55.79 55.02 54.46 51.51 50.01 48.71 47.50 46.83 47.79
43.75 40.57 41.77 42.50 41.93 42.53 44.52 41.45 43.98 47.41 55.70 55.04 54.76 54.67 55.44 55.81 57.46 57.13 58.24 58.02 57.98 57.86 57.63 57.97 58.65 59.57 59.72 59.35 59.63 60.21 60.62 61.57 62.30 62.52 61.23 60.30 60.42 59.49 57.16 55.89 55.46 54.98 54.42 51.38 49.51 47.46 46.49 45.73 46.70
40.63 38.94 34.77 39.95 42.25 44.25 45.09 37.96 43.57 47.23 53.96 52.78 53.11 53.77 54.00 55.08 55.72 57.29 57.88 57.39 57.27 56.67 56.67 57.68 58.79 57.92 58.21 58.39 58.55 59.03 60.42 60.86 60.48 60.56 59.86 59.78 59.76 58.66 56.17 55.17 55.00 55.37 54.12 51.33 48.83 47.46 45.91 45.45 45.44
36.37 32.18 33.63 38.51 42.69 42.23 41.98 39.91 43.01 46.55 52.94 51.61 51.91 52.24 52.68 53.31 54.00 56.37 57.23 57.31 56.71 56.13 56.17 56.09 56.95 56.79 56.42 57.26 57.69 58.75 59.91 60.03 59.87 59.14 59.34 59.10 58.98 57.68 56.61 55.55 55.13 55.70 54.33 51.61 49.54 47.47 46.83 45.15 44.73
32.75 33.35 35.58 36.11 39.79 41.61 38.66 40.74 44.83 45.57 46.50 50.24 50.66 51.85 51.68 51.37 52.23 54.96 56.11 56.65 56.29 56.31 56.09 56.04 56.81 56.39 56.69 57.41 57.90 57.43 57.53 58.70 59.21 58.88 58.79 59.32 58.88 58.17 57.13 55.58 55.45 55.52 53.75 51.33 49.09 47.24 46.62 46.00 45.22
37.86 36.43 34.82 37.77 41.61 39.35 39.22 38.59 41.84 43.56 44.51 46.16 49.04 51.14 49.75 49.04 53.19 55.45 55.70 55.98 56.06 55.38 55.10 55.32 55.72 55.72 56.26 56.71 56.25 55.89 56.17 56.27 56.71 58.60 58.95 59.42 59.30 58.37 57.04 55.83 55.54 54.31 53.82 52.03 49.11 47.17 47.10 45.89 45.75
38.68 36.47 35.88 38.80 42.25 40.80 39.22 39.23 42.35 42.36 44.55 45.17 47.66 48.39 48.24 49.33 52.62 54.45 54.84 54.90 54.96 54.68 55.08 55.00 55.48 55.52 55.60 56.30 56.24 55.76 56.04 55.43 56.31 57.68 58.41 58.78 59.75 59.33 57.83 56.58 55.24 54.30 52.95 50.86 48.98 48.15 46.52 46.31 46.14
37.62 37.23 35.92 36.50 39.83 40.14 37.25 36.06 39.67 42.13 45.65 48.32 49.30 49.32 49.27 49.41 49.84 52.33 54.05 54.24 54.37 54.21 54.29 54.59 54.89 55.26 55.09 55.26 54.47 54.45 54.70 54.71 54.60 55.91 56.45 57.40 57.92 58.88 58.79 57.17 56.13 54.43 53.45 51.82 49.40 48.32 47.73 45.96 45.59
35.69 41.08 40.29 38.77 35.61 31.25 36.99 28.81 36.18 39.42 42.60 46.19 48.02 48.34 48.50 49.05 50.29 51.20 52.64 53.75 53.91 54.31 54.70 55.11 54.95 54.98 55.12 54.77 53.63 53.91 54.13 52.23 53.33 54.24 55.80 56.16 57.52 57.33 58.11 57.97 56.67 55.42 53.70 51.43 50.50 50.07 49.47 48.04 45.53
39.10 42.71 40.21 39.34 35.60 32.99 34.30 30.98 34.78 39.96 40.76 43.05 45.59 48.30 48.62 49.20 50.19 50.20 52.35 53.02 54.37 54.55 54.33 54.43 54.31 53.97 54.06 53.31 53.23 51.64 51.91 52.97 52.70 53.94 54.45 54.65 55.91 57.19 56.96 57.49 56.75 55.48 55.14 53.96 52.16 50.82 48.97 49.48 48.05
44.69 40.82 39.34 37.70 35.00 28.42 34.41 33.32 32.31 35.60 40.84 43.05 45.28 47.27 49.00 49.00 49.90 50.58 52.05 52.90 52.66 54.02 53.77 52.90 53.28 53.00 52.19 51.46 50.68 50.90 50.24 49.66 50.38 51.52 52.55 53.00 53.70 54.82 56.11 57.47 57.25 57.53 55.76 54.12 52.91 51.77 50.67 49.77 49.07
40.14 36.53 28.24 26.87 27.36 27.64 35.40 34.77 36.35 40.84 42.87 44.57 45.81 46.56 47.86 49.37 50.01 50.03 50.22 51.44 51.45 52.01 52.41 52.99 52.72 52.10 52.44 51.40 51.17 50.54 50.43 50.43 50.92 51.24 52.60 52.85 53.60 53.94 54.86 55.49 55.33 55.38 55.26 54.43 53.17 51.62 52.04 50.49 49.72
38.43 37.04 29.03 25.63 24.93 28.48 37.06 32.60 37.17 43.90 45.45 45.87 46.58 46.67 47.34 47.95 50.18 50.16 50.81 51.35 51.66 51.64 51.71 52.02 52.23 51.92 52.17 51.81 51.28 51.44 51.31 51.31 52.16 52.33 52.74 53.36 54.49 54.98 54.90 55.08 56.27 56.11 55.46 54.92 53.38 53.11 52.27 51.22 50.86
36.60 33.40 39.27 31.60 32.38 29.69 32.31 36.25 41.41 43.75 44.69 44.35 43.69 46.17 46.16 47.63 49.31 50.18 51.07 51.43 52.18 51.95 51.89 52.01 52.17 52.40 52.39 52.30 51.92 51.32 51.45 51.54 51.55 52.32 53.32 54.51 54.86 55.85 54.58 55.02 55.40 55.74 55.44 54.51 53.23 52.56 51.13 50.09 49.70
39.15 40.93 32.84 32.34 26.43 25.92 29.74 31.79 33.78 39.58 42.10 43.39 43.15 45.59 45.98 48.19 49.19 50.14 50.99 51.66 52.41 53.33 52.66 52.36 52.56 52.18 52.66 52.54 52.58 52.06 51.71 51.89 52.41 52.39 53.60 54.63 55.38 55.14 55.34 54.96 55.90 55.20 53.51 52.58 52.10 51.40 50.45 49.89 49.41
35.84 36.00 36.23 36.46 32.75 27.33 25.58 29.61 39.42 41.50 43.37 43.30 42.97 44.64 46.79 47.36 49.45 50.31 51.21 52.13 52.76 53.59 53.78 53.03 52.72 52.64 52.37 52.62 52.53 52.43 52.37 52.41 52.91 53.11 53.71 55.02 55.38 55.87 55.87 55.87 55.20 54.40 52.46 51.71 51.28 50.58 50.08 49.87 49.11
38.18 36.87 37.94 31.99 29.57 30.85 29.27 32.24 41.11 42.50 42.92 43.74 43.76 44.27 45.51 48.43 48.48 50.69 50.97 51.33 52.27 52.87 53.59 53.51 53.24 52.95 53.58 53.67 53.71 53.42 53.35 53.30 53.51 53.88 54.64 55.32 55.44 56.06 56.07 55.70 55.48 55.19 53.17 51.87 51.69 51.16 51.10 49.68 48.79

GFSSGP_sfc_wetblb_093.txt.gz
Wetbulb
59.84 56.33 56.13 51.77 45.80 44.28 41.15 42.24 44.12 44.51 47.38 52.51 52.41 51.43 52.27 53.88 52.40 48.61 62.19 65.90 67.64 69.78 70.34 71.24 71.08 71.61 71.72 72.22 72.61 72.58 72.71 72.76 72.49 72.41 71.93 71.98 71.82 71.61 71.47 70.93 70.54 70.49 70.30 68.79 68.39 67.99 67.57 67.25 66.60
57.50 55.94 53.11 47.72 44.03 40.71 41.74 42.60 43.00 47.10 50.93 52.91 52.28 52.29 52.49 53.31 57.81 59.26 61.05 63.84 68.22 70.85 70.87 70.37 70.82 71.12 71.58 71.74 72.25 72.42 72.78 72.59 72.36 72.26 71.93 71.84 71.35 70.85 70.66 70.03 69.51 69.70 69.67 68.63 68.17 67.73 67.03 66.31 65.58
54.71 52.50 50.52 45.08 41.06 40.71 41.10 43.54 46.11 46.85 51.24 52.10 51.17 53.86 55.60 54.95 59.15 61.24 62.98 64.35 68.75 70.88 71.33 70.68 70.32 70.52 71.18 71.45 71.91 71.97 72.06 71.86 71.70 71.55 71.61 71.30 70.88 70.49 70.12 69.46 69.07 69.37 69.92 68.63 68.19 67.19 66.36 65.58 65.44
52.33 51.57 46.69 44.43 40.33 42.76 43.46 46.32 45.95 46.29 51.82 52.33 51.53 50.17 54.46 58.46 61.02 62.71 63.69 65.06 67.72 68.09 70.77 69.70 69.34 70.20 71.00 71.31 71.56 71.64 71.37 71.02 70.96 70.84 70.89 70.69 70.29 70.36 69.87 69.26 69.36 69.76 69.71 69.56 68.07 66.62 65.89 65.45 64.73
50.54 48.33 43.53 41.08 40.46 42.80 44.83 46.00 46.09 46.69 50.38 51.26 51.71 50.78 52.60 57.94 62.20 63.96 64.48 64.11 66.36 66.69 66.19 69.03 68.70 69.45 70.95 71.33 71.36 70.95 70.78 70.53 70.34 70.33 70.00 69.77 70.04 69.86 69.30 69.08 69.11 69.02 69.32 69.17 67.99 67.65 66.09 65.18 64.57
48.31 46.60 41.95 39.86 40.34 43.07 45.51 46.91 47.81 49.13 51.13 51.15 50.94 51.29 54.11 60.80 62.10 63.38 64.05 65.27 65.06 66.00 65.06 65.04 68.83 68.98 68.56 70.41 70.27 69.81 69.86 69.74 69.66 69.59 69.25 69.18 69.21 68.84 69.04 68.99 68.83 68.59 68.08 67.49 67.99 66.21 65.64 64.84 64.33
47.06 44.90 40.90 39.68 40.70 42.54 45.29 49.72 50.87 50.87 51.68 52.11 54.30 51.31 55.42 58.73 62.47 62.88 63.33 64.21 64.36 65.01 64.68 64.26 65.56 66.19 66.88 67.06 67.62 68.41 68.71 68.95 69.01 68.76 68.38 68.19 67.99 68.02 68.32 68.15 67.71 67.06 67.09 66.97 67.25 65.66 64.95 64.55 63.72
47.23 46.54 40.01 41.02 40.95 42.22 46.14 49.54 52.46 51.62 50.79 54.75 56.06 52.54 53.34 57.83 62.31 62.94 62.62 62.55 63.18 63.11 64.75 64.38 65.44 64.87 66.52 66.77 66.35 67.22 67.68 67.92 68.22 68.10 67.52 66.92 66.93 67.28 67.15 66.86 66.34 66.61 67.51 67.25 66.59 65.02 64.41 63.88 63.29
47.25 44.14 40.94 41.47 40.70 44.34 46.33 46.97 51.71 55.05 53.75 53.68 55.71 55.47 57.62 61.57 61.90 61.46 61.77 61.69 62.85 62.74 62.88 63.67 63.60 66.25 67.03 66.39 67.28 66.50 67.73 67.79 67.68 67.79 66.64 66.02 68.21 68.03 67.32 65.44 65.32 66.36 66.75 66.17 65.22 64.61 63.89 63.16 62.70
47.03 43.13 42.73 45.37 45.28 45.49 47.38 46.25 47.66 52.48 52.66 53.55 54.61 57.73 60.70 60.96 60.25 59.17 60.00 60.51 61.00 61.24 61.39 62.56 64.15 63.51 63.28 65.60 66.57 66.14 68.43 69.81 69.11 69.05 67.95 67.66 67.96 67.82 66.00 64.58 64.64 65.10 65.71 65.18 64.67 64.15 63.31 62.49 62.58
44.93 43.86 45.01 46.54 46.98 47.02 46.58 46.81 51.16 51.94 50.35 53.60 53.94 55.48 58.69 59.52 59.83 59.78 60.18 60.17 59.30 60.55 61.57 62.19 63.31 63.93 63.61 63.50 64.96 64.74 63.67 66.08 66.55 69.33 66.77 66.81 66.51 65.70 65.72 64.65 63.20 64.49 65.39 64.97 63.99 63.22 62.38 61.92 61.48
43.61 45.70 46.10 47.39 47.09 46.92 46.91 49.77 51.13 52.24 52.77 57.61 56.45 59.34 57.09 57.79 58.88 59.90 60.51 60.84 59.67 58.94 61.22 62.37 62.66 62.80 64.14 63.36 64.52 63.74 62.84 63.31 66.59 66.80 67.26 64.76 64.15 64.77 64.65 63.10 61.87 61.79 63.55 63.92 62.82 61.02 60.41 59.83 60.03
43.42 45.22 45.94 46.93 46.94 47.65 48.79 48.82 49.82 51.46 54.87 59.05 59.72 57.90 57.18 59.35 60.33 60.47 60.81 60.58 59.61 59.22 60.39 62.05 62.00 62.58 62.62 62.27 62.24 63.23 62.00 62.85 64.46 64.70 65.85 64.64 63.86 63.15 63.17 62.00 60.77 59.79 59.96 60.14 60.11 59.78 58.32 57.41 57.05
46.76 45.66 46.75 47.78 48.09 47.81 47.31 48.31 50.00 51.97 55.02 57.81 58.38 57.83 58.90 58.58 58.75 59.45 59.28 59.53 59.33 59.31 59.80 60.43 60.80 61.41 61.15 61.44 62.10 62.94 62.02 62.55 62.93 64.21 63.91 64.92 64.65 62.73 62.14 61.09 59.81 58.54 58.97 59.41 58.73 57.99 56.66 54.85 54.53
47.47 44.68 46.40 46.73 47.56 46.37 47.95 45.26 47.11 52.10 57.05 56.67 56.48 56.16 56.95 57.03 57.76 58.21 59.16 58.84 59.29 58.86 58.69 59.06 60.39 60.86 59.89 60.82 62.07 61.75 60.89 61.24 62.72 63.61 64.40 64.62 63.74 62.31 61.89 60.16 59.43 58.64 57.00 56.36 56.47 55.46 54.93 54.38 53.89
44.78 43.85 41.08 44.57 46.44 47.52 47.75 43.73 48.92 50.14 55.08 55.27 56.06 55.90 55.84 55.95 56.26 57.33 58.62 58.20 58.89 58.14 58.20 58.80 59.44 59.07 59.30 59.98 60.68 60.64 61.04 61.39 62.83 63.33 63.44 63.34 63.12 62.15 61.38 60.08 59.69 59.43 56.98 56.09 54.63 54.02 53.67 53.61 53.76
41.49 37.92 39.27 42.27 46.89 47.11 47.17 45.16 48.77 50.99 53.39 53.44 55.25 55.38 54.95 55.17 54.99 56.89 58.48 58.19 57.86 57.77 57.22 57.51 58.75 57.62 57.89 58.57 60.30 60.86 60.97 61.28 62.18 62.04 61.36 61.77 62.29 61.41 59.74 59.89 59.04 59.05 56.74 55.11 54.31 53.24 53.73 52.60 53.49
37.41 38.19 39.12 40.64 44.81 45.03 44.15 44.48 48.04 48.62 51.09 52.52 54.55 55.09 54.06 53.99 54.11 55.94 57.11 57.63 57.11 57.37 56.76 57.10 56.97 57.90 57.62 58.85 58.73 60.37 60.21 60.09 60.86 61.23 60.66 61.38 61.33 60.94 60.08 59.43 59.48 59.01 57.12 55.22 54.33 53.72 53.59 53.43 52.69
41.60 40.08 39.69 42.26 44.99 43.43 43.63 43.14 45.85 48.85 48.04 48.83 52.64 54.63 53.51 53.79 54.88 55.69 56.36 56.82 56.39 56.70 56.27 56.47 56.11 57.11 57.05 56.98 57.37 57.82 57.44 58.61 59.00 59.72 59.95 60.66 60.79 60.40 60.06 59.18 59.30 59.03 57.34 56.13 55.16 54.00 53.19 51.51 52.37
42.33 40.38 39.90 42.87 44.53 43.45 43.25 43.26 46.88 47.62 48.57 49.62 50.37 52.85 54.36 53.38 53.43 54.64 54.59 56.09 55.67 55.67 56.53 56.28 56.07 56.59 57.25 57.78 57.92 57.64 57.70 58.30 58.74 59.56 60.14 60.10 60.29 59.99 58.94 59.02 58.84 58.94 57.94 56.51 54.80 53.98 52.33 52.59 52.55
41.08 39.99 40.37 39.93 42.77 44.05 42.52 41.51 44.63 47.16 48.36 49.79 50.81 52.90 54.48 53.45 52.75 54.00 54.47 54.64 55.53 55.10 55.88 55.63 55.96 56.20 57.08 57.52 56.91 56.15 56.03 56.11 58.01 59.04 59.02 60.69 60.55 58.84 59.16 59.30 58.84 58.85 58.50 57.32 55.48 54.36 53.64 52.33 51.72
37.41 43.14 42.43 41.00 39.60 35.57 42.67 34.94 42.10 46.16 46.87 47.99 50.50 51.56 52.64 53.16 53.59 54.30 54.85 54.46 54.43 55.80 56.08 55.88 56.20 55.69 56.04 56.36 56.52 56.28 55.30 55.29 56.41 58.18 58.13 58.48 59.92 59.52 59.38 58.72 59.20 59.11 59.01 57.73 57.22 56.42 55.45 54.85 51.61
40.41 44.32 42.57 42.34 39.10 38.66 39.40 37.34 41.07 43.22 44.48 47.54 50.01 51.40 52.53 53.53 53.76 53.60 54.53 55.65 55.80 56.64 56.01 55.77 55.85 55.58 55.69 56.40 56.08 55.78 54.51 56.18 54.69 56.45 58.11 57.06 57.33 58.01 58.20 59.63 59.08 59.89 59.00 59.46 58.03 56.44 55.11 55.90 55.07
45.46 43.05 42.29 41.10 39.35 33.08 37.97 38.23 39.18 41.94 45.22 47.75 49.71 50.55 52.37 53.00 53.50 54.26 55.05 56.00 55.37 56.07 55.98 55.82 55.15 54.79 55.06 54.90 55.82 56.26 55.43 55.28 54.21 54.63 55.03 56.40 57.05 58.00 58.35 58.42 59.52 60.42 60.25 59.52 58.24 57.97 56.43 56.05 55.33
43.13 40.02 32.79 31.32 31.39 31.54 39.17 36.83 40.73 45.28 47.38 48.23 49.55 50.88 52.21 53.41 53.31 53.60 53.46 53.98 54.02 54.18 55.40 55.23 55.36 54.44 54.21 54.10 54.41 54.94 55.51 55.98 56.01 55.75 56.37 55.97 56.42 57.20 58.37 59.69 60.06 60.19 60.75 60.34 60.12 58.80 57.30 56.46 55.80
39.51 39.29 33.26 27.11 29.43 33.51 39.06 35.77 41.18 48.12 50.02 49.93 50.42 51.10 51.88 52.78 53.57 53.62 53.99 54.12 53.78 53.69 54.28 54.76 54.53 55.17 54.96 54.42 54.55 55.19 55.23 55.28 55.97 56.59 57.00 56.99 57.83 58.02 58.71 59.08 59.78 60.25 60.56 60.38 60.06 59.20 58.43 57.46 54.76
39.25 36.17 41.90 35.45 35.76 33.60 36.92 40.21 45.14 47.77 48.47 48.17 48.95 49.20 50.68 51.63 53.11 53.93 54.07 54.28 54.35 53.54 53.40 53.54 53.89 53.98 54.95 55.38 55.14 54.83 55.18 55.13 55.07 56.03 56.60 56.77 57.55 58.05 58.58 59.33 59.26 59.61 59.77 59.84 59.69 59.28 58.90 58.21 57.37
41.35 43.29 35.31 36.09 28.67 27.36 33.14 35.89 38.45 43.04 46.31 48.29 48.59 49.36 50.84 51.26 52.23 53.68 54.23 54.59 54.92 55.39 54.28 53.41 53.79 53.36 54.45 55.69 55.63 55.29 55.33 55.31 55.81 56.09 56.02 56.67 57.78 58.12 58.37 58.83 58.96 59.21 59.44 59.37 59.08 58.55 58.77 56.59 56.41
38.27 37.38 38.86 38.93 35.75 30.79 29.71 34.62 44.93 45.86 48.20 47.61 49.76 49.55 50.00 51.95 52.25 53.24 54.37 55.08 55.47 55.94 55.59 54.85 53.96 55.03 55.16 55.76 55.93 55.57 55.57 55.52 56.02 55.98 56.32 56.80 57.87 57.86 58.04 58.37 58.68 58.94 59.14 58.46 57.52 57.10 56.31 52.87 52.52
41.15 38.67 39.30 33.49 32.60 35.51 34.43 35.71 45.59 47.44 48.34 48.04 49.29 49.49 49.13 52.80 53.18 53.62 54.43 54.68 54.77 55.15 55.50 55.23 55.38 55.20 55.98 56.13 56.04 55.84 56.14 55.45 55.70 56.04 56.53 57.50 57.16 58.54 58.66 58.34 58.53 58.60 58.29 56.40 53.99 53.59 53.86 52.14 52.07

GFSSGP_sfc_wetblb_096.txt.gz
Wetbulb
61.36 61.16 62.12 57.68 49.52 49.18 46.71 46.40 49.44 48.41 49.72 54.53 55.61 54.44 53.90 56.33 52.65 50.07 66.37 69.91 70.56 71.55 71.98 72.02 71.61 72.38 72.75 72.75 72.35 72.48 72.66 72.72 72.52 72.18 72.25 72.25 72.44 72.32 71.96 71.64 70.98 70.79 70.60 69.21 68.92 68.48 67.99 67.69 66.79
61.03 60.26 59.89 55.65 47.66 44.31 46.01 48.52 47.46 49.96 51.58 54.88 54.96 55.20 54.85 54.20 60.52 61.86 63.89 68.06 71.06 71.75 72.27 72.17 71.04 71.57 72.53 72.28 72.01 72.30 72.79 72.59 72.02 72.27 72.29 72.17 72.27 71.95 71.71 71.03 70.20 70.10 69.96 68.50 68.14 67.83 67.42 66.43 66.15
59.68 59.12 54.26 51.53 48.60 44.67 46.40 48.41 49.98 51.11 52.19 53.22 53.28 56.75 56.41 55.58 61.63 63.50 67.03 66.82 69.20 70.55 72.49 72.00 70.40 70.85 71.97 72.22 72.05 72.13 72.23 71.87 71.76 71.71 72.11 71.94 71.75 71.56 71.10 70.05 69.44 69.39 69.74 68.32 67.77 67.34 66.19 65.68 65.90
56.60 55.79 53.95 47.93 45.55 47.41 47.67 50.20 50.50 50.81 53.77 54.88 55.30 53.51 57.84 61.58 61.53 65.53 66.96 67.06 68.13 69.98 71.55 70.24 69.52 70.25 71.36 72.32 72.07 72.10 71.78 71.31 71.17 71.20 71.51 71.50 71.29 70.90 70.07 69.24 69.02 69.39 69.55 68.15 67.02 66.34 65.37 65.44 64.99
57.81 54.25 47.35 45.97 46.08 47.95 49.77 50.63 50.98 50.55 51.87 54.35 55.65 53.38 55.80 60.86 63.72 66.31 66.87 67.11 67.80 69.65 70.76 66.25 67.55 69.32 70.72 72.21 72.08 71.51 71.18 70.78 70.59 70.58 70.41 70.50 70.24 69.87 69.16 68.77 68.95 68.63 68.64 68.00 66.60 65.47 64.87 65.02 64.47
52.29 52.49 45.44 43.51 46.06 48.38 49.78 51.38 51.14 52.11 53.07 53.97 54.01 54.94 56.88 63.38 63.84 65.29 66.76 67.12 68.02 67.92 68.21 65.77 65.20 65.71 67.92 70.75 71.07 70.58 70.41 70.11 69.94 69.91 69.62 69.88 69.37 69.07 68.95 68.90 68.57 68.69 68.29 67.34 66.60 65.73 65.08 64.45 63.99
50.14 48.46 45.16 45.22 45.61 47.14 49.16 52.34 52.10 52.00 52.05 53.30 57.13 53.62 57.42 61.41 64.83 66.40 65.96 67.28 67.14 67.15 66.68 64.60 64.42 64.69 65.14 67.63 69.10 68.57 69.31 69.26 69.20 68.85 68.58 68.62 68.37 68.32 68.62 68.33 68.81 68.39 67.98 67.78 66.11 65.40 64.73 64.11 63.34
52.39 50.04 45.58 45.73 44.62 46.38 50.47 50.97 53.63 53.14 52.36 58.31 58.40 53.28 54.96 61.72 65.25 66.20 66.25 66.53 63.22 66.05 67.06 65.46 63.68 63.42 62.21 67.30 65.89 65.60 67.42 67.72 67.92 67.84 67.71 67.15 67.36 67.78 68.06 67.59 67.54 67.61 67.82 66.88 65.68 65.03 64.18 63.68 62.93
53.44 47.00 45.03 45.70 45.45 46.91 51.26 49.72 53.32 56.20 55.17 56.97 58.80 58.71 61.12 63.35 64.03 64.01 64.58 65.82 64.63 63.18 64.68 65.64 62.78 62.19 62.68 66.82 66.68 65.21 65.53 67.27 67.08 67.40 66.97 66.35 69.11 68.81 68.56 67.08 66.69 67.22 67.08 66.05 65.23 64.55 63.48 62.96 62.48
49.84 46.82 46.83 49.06 49.26 48.41 50.68 50.89 52.12 52.51 53.79 55.30 57.21 60.77 62.19 63.57 63.20 62.50 62.82 63.18 64.14 64.28 62.72 64.80 64.52 64.65 64.74 65.93 67.39 66.21 65.38 67.89 69.15 67.96 68.97 68.17 69.06 68.75 67.83 66.36 66.43 66.96 66.40 65.26 64.73 64.10 63.04 62.51 62.60
49.74 46.61 49.47 49.61 50.46 51.21 50.41 50.93 53.32 52.45 51.10 53.65 53.84 56.40 60.39 62.73 62.68 62.66 62.81 63.21 63.52 64.40 65.19 63.37 65.39 65.40 66.76 67.29 68.72 66.76 65.78 66.89 67.62 67.51 67.23 67.57 68.99 68.64 67.41 65.96 66.48 67.64 65.77 65.51 64.30 63.69 63.17 63.89 63.10
47.64 49.98 50.25 50.51 51.16 50.85 49.87 52.34 51.57 52.82 53.66 56.16 59.13 59.79 61.32 61.75 61.93 61.80 62.62 63.38 63.49 63.82 63.87 64.74 64.53 66.17 66.77 66.70 66.23 65.83 65.04 66.89 66.20 67.30 66.61 68.65 67.98 67.81 65.82 64.73 66.10 66.79 66.25 65.43 64.74 63.79 64.61 64.12 63.08
48.53 49.40 50.52 50.99 50.95 50.79 51.61 50.76 51.12 51.99 54.62 56.39 59.54 61.05 61.15 61.14 61.59 63.11 62.61 61.90 63.35 62.76 62.09 63.75 65.28 65.54 64.92 66.30 66.38 65.21 67.01 64.91 66.43 66.00 66.52 67.52 66.51 64.13 64.88 65.25 66.03 66.00 66.20 65.81 64.99 64.66 63.45 62.79 61.91
49.60 49.65 49.76 50.57 50.46 51.14 50.03 50.44 51.43 52.85 54.96 56.54 59.30 60.42 61.53 61.56 61.54 62.02 61.46 60.64 60.26 60.46 61.75 63.45 64.33 64.47 64.83 64.67 64.78 63.81 63.51 64.77 65.94 66.63 65.67 65.45 64.99 63.40 63.19 64.32 64.28 65.39 66.15 65.81 65.03 63.85 61.89 60.99 60.73
49.85 46.93 48.51 49.63 50.31 49.84 51.32 48.03 48.71 52.93 55.99 56.73 58.38 60.12 60.96 60.95 61.25 60.45 61.25 60.30 61.58 60.98 61.19 61.97 61.86 63.79 63.05 63.07 63.11 63.89 63.09 63.06 64.43 64.82 64.89 63.68 63.24 62.81 62.83 63.58 63.05 63.19 64.48 64.54 63.94 62.69 61.02 59.12 58.35
47.01 47.85 44.07 48.88 49.23 50.17 50.40 45.24 51.53 54.52 55.25 54.73 57.08 59.52 59.57 60.03 60.42 60.47 61.10 60.98 61.54 60.44 59.48 60.54 60.86 62.15 62.30 60.43 61.11 62.17 62.92 63.02 63.39 64.57 64.60 63.02 62.62 62.23 63.95 62.84 62.25 62.80 63.02 62.72 61.36 60.36 58.90 58.21 57.62
45.70 41.74 44.24 46.14 49.87 49.02 49.67 47.28 52.39 54.76 54.07 54.23 55.80 58.77 59.48 59.79 59.81 60.11 60.57 60.90 60.29 60.77 59.22 59.32 61.58 60.74 59.07 59.74 61.54 61.73 61.85 62.25 62.77 63.44 63.70 62.70 61.97 62.16 63.33 62.80 62.07 62.04 60.83 60.37 59.73 59.07 59.21 58.17 57.71
42.09 42.81 44.12 43.32 47.91 49.01 47.98 48.26 51.68 53.38 52.38 53.49 55.45 57.96 59.09 59.33 59.40 59.91 59.95 60.45 59.83 59.81 58.96 59.18 60.71 59.94 59.79 60.08 60.66 60.94 61.59 62.10 62.67 62.22 62.81 62.34 61.35 61.97 62.45 62.17 62.15 61.30 60.08 59.47 59.59 59.25 59.47 59.25 58.38
45.72 43.79 43.42 45.99 48.25 46.86 46.98 46.72 48.97 52.46 53.21 53.29 54.77 57.27 58.45 59.05 60.29 59.98 59.73 60.11 58.32 59.17 58.47 57.82 58.39 59.34 59.61 59.03 58.40 58.92 58.54 59.92 60.69 61.39 61.39 61.88 61.06 61.62 62.64 61.57 61.63 61.68 60.30 60.12 59.71 59.13 58.45 57.78 57.36
44.76 42.71 42.59 45.84 47.96 46.94 46.48 45.87 49.22 51.34 52.42 53.58 54.15 55.92 57.71 58.95 59.15 58.65 58.55 59.30 58.49 58.28 59.03 57.50 57.45 58.56 58.56 58.94 58.59 58.99 59.62 59.45 59.91 60.51 60.88 61.01 61.30 62.31 61.83 61.64 61.40 61.59 60.41 60.17 59.39 58.72 57.34 56.91 55.77
43.23 41.93 42.36 42.66 46.36 47.63 46.18 44.32 45.89 49.61 52.68 53.81 55.25 56.38 57.57 58.42 58.51 58.27 57.33 57.06 58.14 57.27 58.34 58.28 58.49 57.55 58.13 58.77 57.77 57.35 57.97 58.83 58.62 59.33 59.67 60.03 61.10 62.14 62.14 61.72 61.38 61.95 61.57 59.74 59.51 58.27 58.00 55.71 54.33
39.23 44.44 43.79 43.14 42.69 39.56 45.44 37.81 43.64 48.46 49.78 51.65 52.97 55.93 57.14 58.15 58.89 59.02 58.54 56.92 56.51 57.19 60.24 59.79 58.84 57.80 58.41 58.54 58.28 57.08 56.28 55.01 57.67 59.14 59.94 60.17 60.54 60.00 61.26 61.84 61.86 61.91 61.48 60.58 59.89 58.79 58.83 58.04 54.80
41.41 45.20 44.12 44.06 42.84 42.71 42.89 40.14 42.42 47.88 47.55 50.07 52.39 54.00 57.36 58.77 59.00 58.93 59.10 58.43 57.17 57.51 58.08 58.55 59.14 57.33 57.65 58.68 58.33 56.88 56.62 56.69 58.27 58.64 60.63 60.67 59.87 60.31 59.62 59.99 59.58 60.82 60.99 60.92 60.99 59.82 59.45 59.25 58.46
46.39 44.76 45.00 45.21 43.61 36.84 41.32 40.86 41.36 45.27 48.37 49.54 51.73 54.09 56.89 58.27 59.06 59.71 59.98 59.80 59.39 59.00 59.09 58.08 58.28 57.29 57.20 58.69 59.24 57.51 57.85 56.05 56.39 57.27 57.77 59.97 59.96 61.64 60.64 59.81 59.94 60.56 61.48 61.41 61.81 62.03 61.15 60.06 59.47
43.75 42.17 35.98 35.15 35.20 34.65 42.51 40.45 42.53 48.28 50.66 51.54 51.76 53.60 56.63 58.50 58.90 59.11 58.76 58.38 59.22 58.38 58.42 58.29 57.83 56.53 58.00 59.50 58.46 57.87 58.63 58.28 56.70 57.41 57.47 59.19 58.46 58.16 58.74 59.99 59.86 60.23 61.49 62.17 62.38 62.24 61.77 61.63 59.84
40.95 41.45 35.63 30.02 33.58 37.06 42.55 38.36 43.76 50.29 52.31 53.21 54.21 54.78 56.33 57.88 58.92 59.30 59.42 59.07 58.94 58.85 57.78 57.68 57.88 57.43 56.94 56.18 56.83 58.37 59.69 57.94 58.38 59.60 59.42 59.08 58.61 59.28 60.79 60.51 60.27 60.09 59.67 62.10 62.71 62.79 62.19 62.24 61.51
41.34 38.38 43.54 38.11 39.94 36.17 40.95 44.13 48.37 50.18 50.79 52.35 52.81 52.98 55.06 57.09 58.60 59.15 59.80 59.74 59.21 59.12 58.71 58.12 58.14 57.39 57.59 57.69 57.23 57.30 58.90 58.23 58.73 59.93 59.82 59.28 59.93 59.91 60.67 61.35 61.50 61.71 61.61 61.72 62.21 61.64 61.56 62.14 61.70
42.83 45.01 37.35 39.58 30.78 30.50 37.24 39.77 41.72 45.59 47.56 50.68 51.86 52.87 54.48 56.74 57.85 59.25 59.72 59.81 59.65 59.47 59.68 59.17 59.40 58.83 58.90 58.60 58.81 58.34 58.64 59.04 59.35 59.86 59.42 59.82 60.04 59.99 60.12 60.66 61.04 60.85 61.03 61.27 61.21 61.15 61.54 60.95 61.60
39.46 39.34 40.53 41.10 39.95 33.79 33.16 38.74 47.65 47.40 48.64 50.17 52.16 53.33 54.59 56.64 57.33 58.73 59.91 60.36 59.96 59.62 59.48 57.59 57.51 58.46 58.75 59.77 59.80 59.43 59.32 59.41 59.54 59.06 59.32 59.36 59.97 59.93 59.64 59.80 60.14 60.26 60.48 60.86 61.09 60.96 60.59 60.06 60.43
44.09 41.75 41.13 36.05 35.13 38.97 38.16 38.81 49.30 50.09 50.81 52.16 52.60 53.70 54.22 56.34 57.99 58.62 59.50 60.12 59.74 59.47 59.21 57.69 56.04 57.10 58.39 59.43 59.81 59.79 60.03 59.94 59.34 59.48 59.41 59.84 59.31 60.22 60.03 60.03 59.82 60.03 60.16 60.97 61.25 60.30 59.89 59.30 58.78

GFSSGP_sfc_wetblb_099.txt.gz
Wetbulb
62.94 61.56 61.87 59.30 50.38 50.30 47.79 48.46 51.10 49.42 50.21 54.49 55.58 53.76 53.43 54.59 52.48 50.30 67.08 69.98 72.09 72.10 73.09 72.24 71.83 72.38 73.01 72.81 72.59 72.43 72.60 72.81 72.84 72.34 72.48 72.27 72.24 71.93 71.69 71.55 71.16 70.99 70.55 69.40 69.01 68.73 68.18 67.91 67.35
62.42 60.39 60.40 56.59 47.94 46.79 48.41 50.52 48.76 50.85 52.54 54.92 54.78 54.64 53.97 53.41 58.24 60.36 64.04 69.81 71.81 72.12 72.83 73.46 71.21 71.90 72.78 72.60 72.29 72.24 72.91 72.84 72.24 72.32 72.44 72.42 72.07 71.91 71.87 71.21 70.47 70.23 70.56 69.13 69.17 68.37 67.72 67.25 67.03
62.62 60.64 55.70 52.07 49.39 46.46 47.11 50.32 50.62 51.93 53.23 53.21 52.70 55.91 55.36 54.30 60.27 62.22 68.56 68.60 70.13 70.43 72.07 72.70 70.65 71.25 72.33 72.27 72.01 72.09 72.16 71.96 71.48 71.72 72.34 72.56 72.10 71.98 71.42 70.44 69.79 69.91 69.95 68.40 68.09 67.57 66.82 66.44 66.47
57.66 55.77 53.88 47.68 47.08 50.16 49.27 51.01 51.64 51.62 53.10 54.63 54.49 52.67 56.86 60.38 60.48 65.84 67.98 67.96 68.11 69.29 70.90 69.63 69.48 70.59 71.64 72.14 72.03 71.99 71.80 71.11 71.08 71.28 71.94 72.16 71.85 71.22 70.66 69.43 69.30 69.42 69.32 68.27 67.15 66.27 65.80 65.82 65.59
57.40 54.52 48.67 47.68 47.73 50.16 51.50 52.13 52.54 51.39 52.11 53.48 54.79 53.31 54.13 60.35 64.32 67.55 67.71 68.07 67.74 68.90 70.94 72.10 66.59 69.82 70.92 71.33 71.31 71.63 71.26 70.67 70.89 71.08 71.36 71.36 70.72 70.45 69.57 68.77 68.73 68.61 68.45 67.74 66.17 65.40 64.97 65.28 64.97
52.52 52.76 46.93 46.02 48.25 49.97 51.59 52.73 52.45 52.09 53.33 53.74 53.64 53.86 55.26 64.86 64.69 66.06 68.26 67.88 68.84 68.66 70.54 70.21 66.34 67.64 66.31 65.58 66.51 69.92 70.37 69.98 70.25 70.55 70.56 70.69 70.03 69.24 68.83 68.57 68.31 67.83 67.53 66.77 66.12 65.32 64.60 64.22 64.17
51.80 50.48 47.50 47.73 47.60 48.45 50.83 53.84 52.12 52.51 52.88 53.05 55.81 53.06 56.12 60.87 66.48 67.99 67.37 68.45 69.10 69.10 68.80 69.02 67.69 66.39 64.78 64.43 63.48 66.15 69.15 69.54 69.44 69.36 69.41 69.17 68.39 68.09 68.56 68.27 67.93 67.46 66.95 66.24 65.74 65.18 64.52 63.88 63.32
53.00 51.19 47.66 48.54 47.06 47.14 51.86 52.35 53.77 53.12 52.50 56.72 57.53 51.95 53.72 64.13 67.09 67.35 67.38 67.64 67.48 67.51 67.49 67.93 65.81 65.50 65.78 65.15 63.23 62.78 68.05 67.89 68.31 68.43 67.90 67.41 67.20 67.55 67.63 67.92 67.75 67.17 66.61 66.06 65.58 64.62 64.11 63.54 62.84
54.44 47.34 46.13 48.10 48.58 49.00 51.79 50.77 54.18 55.58 54.50 55.18 56.64 57.78 59.62 64.11 65.45 65.70 66.36 67.14 66.79 66.24 66.68 67.85 66.31 64.83 63.63 64.49 64.63 65.34 67.40 67.45 67.47 67.64 66.99 66.45 68.73 68.21 68.39 67.38 67.11 67.34 65.79 65.40 64.95 64.44 63.46 62.86 62.17
50.39 47.59 47.42 51.93 51.33 49.58 51.01 51.64 52.36 52.48 52.93 53.50 55.54 58.32 61.09 64.36 64.45 63.65 64.04 64.18 65.49 65.76 65.36 66.94 66.37 63.90 63.01 65.46 62.98 65.19 65.40 66.52 68.67 69.58 69.02 68.80 68.92 68.14 67.94 67.07 66.75 66.36 65.29 64.79 64.49 63.65 62.75 61.71 60.60
50.83 47.17 50.44 51.57 51.98 51.84 50.78 51.18 53.19 51.58 50.89 53.65 53.87 56.03 58.96 61.20 63.60 63.88 64.14 64.48 64.59 65.64 65.58 65.48 66.13 65.04 64.21 65.32 66.13 67.96 64.75 63.26 67.00 68.72 69.16 67.55 68.82 68.56 68.71 67.89 67.52 66.68 64.55 63.28 63.10 62.53 61.38 62.34 61.20
48.71 50.90 51.36 51.82 52.31 51.37 50.42 52.43 51.06 52.00 52.69 55.23 55.99 57.35 59.88 60.99 62.87 63.94 63.85 64.67 64.55 64.20 64.65 65.76 66.55 66.46 66.66 66.63 68.06 68.31 66.15 62.79 66.50 69.37 68.71 68.60 68.12 67.34 68.29 67.41 66.73 66.50 65.37 63.60 63.07 62.01 64.22 63.39 62.72
50.23 50.83 52.10 52.42 52.49 51.99 52.17 50.48 50.46 51.29 53.82 55.29 56.00 57.11 59.66 61.84 62.56 63.93 64.68 64.31 64.20 63.21 63.90 65.11 66.29 66.80 67.09 66.52 67.97 68.16 66.79 67.47 65.79 66.60 69.20 67.86 66.66 66.35 65.71 66.44 66.81 66.08 66.10 64.46 64.15 63.18 63.92 63.90 62.72
51.44 51.39 51.31 52.15 51.75 52.09 50.17 50.36 51.48 52.50 54.51 54.49 55.50 57.86 60.58 62.07 62.97 63.96 64.40 63.34 63.48 63.74 64.17 64.75 65.20 65.57 66.34 67.03 67.32 67.39 65.24 65.69 65.61 65.57 67.14 68.73 68.18 66.59 63.86 65.77 66.68 66.55 66.52 65.46 64.77 64.46 63.87 63.24 62.13
51.05 48.23 50.06 50.46 51.31 50.66 52.20 48.95 49.67 53.32 54.07 53.03 56.09 58.23 60.87 62.31 63.35 63.14 63.75 63.24 63.63 63.35 63.87 63.74 64.26 65.45 65.35 65.22 66.16 67.17 66.88 66.73 66.15 64.37 65.52 67.46 65.65 65.87 64.51 64.59 66.09 65.67 66.49 67.29 65.86 65.04 63.69 61.85 60.96
48.45 49.03 44.74 49.97 51.42 51.72 51.25 45.74 51.39 54.05 53.83 55.13 56.26 57.11 60.15 61.83 62.53 63.14 63.29 63.30 63.47 63.59 62.80 63.04 62.64 63.74 64.47 64.46 65.42 65.55 64.32 66.17 64.53 64.59 64.13 63.88 63.85 65.39 64.50 62.97 62.43 65.64 65.08 66.00 64.74 63.47 61.06 59.97 59.08
46.56 42.88 45.44 47.82 52.16 50.84 49.37 47.25 51.62 55.63 55.15 54.41 55.42 56.23 58.17 61.20 62.49 63.12 63.21 63.12 62.53 62.85 61.61 60.48 61.13 62.64 63.43 62.51 62.88 64.71 64.62 64.17 64.83 64.33 63.90 63.80 62.57 61.51 60.92 60.86 61.73 65.40 65.19 64.80 64.13 62.67 61.56 59.46 58.76
41.35 43.84 45.68 45.95 50.21 50.57 48.45 48.16 51.14 53.23 54.34 54.19 54.71 55.37 57.28 59.36 61.43 63.16 63.07 63.36 61.91 62.19 61.36 61.36 60.47 61.49 61.13 61.40 62.42 61.78 61.45 63.01 63.22 64.09 63.08 62.71 61.65 61.34 60.59 60.42 61.86 63.85 63.32 63.19 62.29 61.38 61.02 60.28 59.51
45.32 45.57 46.28 48.29 51.15 49.00 48.27 48.77 50.04 52.13 52.66 53.61 54.41 54.95 56.25 58.57 62.01 63.24 62.83 62.90 61.84 60.57 60.55 59.31 60.35 60.36 60.72 59.57 60.08 60.08 59.74 60.91 62.02 63.32 62.57 61.46 61.18 61.01 60.92 60.07 62.12 62.74 61.41 60.60 60.55 61.37 61.32 59.94 60.80
44.11 44.00 44.79 47.68 49.76 49.09 48.19 47.99 50.06 51.24 51.58 52.71 54.02 54.78 55.72 57.73 60.87 61.60 61.84 61.94 60.55 59.61 60.44 58.09 59.20 60.02 60.23 60.19 59.33 59.84 59.61 61.19 61.64 61.98 61.63 61.02 60.65 60.60 60.21 60.54 61.54 61.58 60.09 60.53 61.20 61.81 59.29 59.71 59.86
44.33 43.52 44.48 44.50 47.76 49.25 47.53 45.90 47.99 50.71 51.94 52.19 53.57 55.53 55.96 56.99 59.81 60.87 60.72 61.09 61.26 59.15 59.58 59.72 59.24 60.17 59.53 58.81 59.36 59.19 59.15 59.58 59.40 59.91 60.12 60.05 59.60 59.28 59.42 60.35 61.16 61.33 61.39 60.45 61.16 61.61 60.47 57.67 57.72
40.25 45.61 45.01 44.21 43.82 40.61 47.84 39.41 46.65 49.17 49.26 50.91 53.70 55.04 55.93 56.88 59.15 61.50 61.02 60.17 61.12 60.36 61.04 61.42 60.21 59.35 58.81 59.06 58.46 58.54 57.31 56.48 58.08 58.66 59.58 59.76 59.91 59.61 60.08 60.77 61.47 61.77 62.39 60.95 60.83 60.91 60.98 60.59 56.38
41.88 45.64 44.29 43.98 43.30 43.40 43.62 41.13 44.68 48.94 47.46 49.40 52.54 54.12 55.44 57.61 59.46 60.85 61.18 60.84 61.23 61.58 60.17 59.75 59.78 59.23 59.79 59.15 59.91 57.94 57.32 57.68 58.53 58.97 58.84 59.42 59.95 60.12 60.23 61.00 62.19 63.07 61.97 62.79 62.43 61.44 60.43 60.11 59.41
45.83 44.34 44.21 44.81 43.23 37.47 42.40 42.24 43.14 45.84 48.08 51.19 53.21 53.58 55.54 57.66 59.88 61.11 62.10 61.54 60.76 60.90 59.53 59.28 58.50 58.14 58.72 58.51 59.01 58.48 56.97 57.04 58.03 58.04 57.26 57.95 59.10 59.59 59.98 60.15 61.77 62.38 62.53 62.14 61.80 61.72 60.70 60.74 61.16
43.76 40.80 34.35 34.66 36.09 35.69 44.21 42.64 44.50 48.43 50.41 52.10 52.29 53.71 56.55 58.25 59.93 60.69 60.96 60.64 60.59 59.90 58.94 59.39 58.34 57.31 58.37 58.40 58.30 57.94 57.31 57.14 57.01 58.45 58.36 57.40 57.83 58.38 58.27 58.87 59.36 60.44 61.99 62.01 61.94 60.92 61.62 61.74 60.77
41.92 39.96 35.21 29.30 33.05 36.78 45.10 39.90 44.52 50.49 51.75 53.46 54.47 54.59 56.43 58.08 60.14 60.66 61.26 61.04 60.85 60.79 60.75 59.38 58.52 57.56 58.18 58.50 59.14 59.50 59.41 58.01 56.43 58.73 59.58 58.31 58.65 60.61 59.27 58.37 58.24 58.90 60.46 59.92 61.73 62.68 61.21 61.50 61.88
40.93 38.91 44.55 37.97 39.95 35.97 40.07 44.70 48.85 50.58 50.93 52.52 52.72 53.93 55.03 57.62 59.64 60.47 61.38 61.56 61.20 61.17 60.92 60.45 60.00 59.65 59.23 59.12 59.84 60.09 60.04 59.37 58.35 58.28 59.05 60.22 60.90 60.97 61.14 60.92 60.04 60.32 60.10 60.81 59.43 60.53 60.67 61.44 61.99
41.77 44.28 37.79 39.82 30.55 30.29 37.91 39.98 41.78 47.24 47.70 51.11 52.33 53.39 54.59 56.59 59.16 60.46 61.17 61.64 61.84 61.67 61.50 61.16 61.17 60.47 60.26 59.52 59.49 59.21 59.92 60.42 60.29 60.88 60.51 60.95 61.55 60.98 61.04 61.21 60.91 60.83 60.67 60.99 61.37 61.34 61.87 61.28 61.53
38.48 38.19 40.51 41.57 39.53 33.36 32.41 38.22 48.19 48.71 49.08 49.98 52.37 54.11 54.98 56.23 58.38 60.06 61.27 62.14 62.21 62.00 61.57 60.92 60.94 60.66 60.39 60.53 60.09 60.29 60.05 60.31 60.44 60.90 61.38 61.16 61.61 61.50 61.02 61.16 61.16 61.23 61.21 61.68 61.83 61.59 61.40 60.84 61.02
44.75 41.38 41.14 35.76 34.63 38.31 38.32 39.14 49.67 50.43 50.51 50.78 53.06 54.20 55.59 56.39 58.52 59.82 61.26 61.79 61.83 61.36 61.13 60.74 60.84 60.58 61.12 61.09 60.62 60.29 60.45 60.30 59.81 60.34 61.10 62.00 61.64 61.94 61.42 61.19 60.37 60.55 60.82 61.52 61.34 61.11 61.11 60.87 60.63

GFSSGP_sfc_wetblb_102.txt.gz
Wetbulb
61.52 60.83 59.33 57.92 48.95 48.72 46.15 48.25 51.34 49.34 49.80 53.94 54.97 52.88 51.46 52.32 50.60 49.39 67.11 70.42 71.16 71.62 71.83 71.59 72.19 73.07 72.63 72.66 72.69 72.62 72.68 72.75 72.80 72.77 72.51 72.33 72.12 71.82 71.49 71.44 71.06 70.90 70.90 69.90 69.42 68.87 68.28 68.46 68.19
59.81 60.13 58.70 54.78 47.00 43.56 46.30 50.57 49.01 50.51 52.78 54.67 53.94 53.24 52.61 52.04 57.81 60.50 66.00 70.27 71.62 70.79 71.94 71.87 71.41 72.25 72.97 72.57 72.44 72.36 72.89 72.65 72.65 72.59 72.33 71.95 72.11 71.65 71.70 71.37 70.44 70.27 70.46 69.31 68.85 68.46 67.96 67.61 68.12
60.32 61.71 53.43 51.01 48.14 44.45 46.34 49.89 50.46 51.99 53.36 52.62 51.75 54.24 54.10 53.56 60.25 63.93 67.89 69.56 69.99 70.22 71.84 72.86 70.61 71.20 72.43 72.34 72.11 72.16 72.40 72.24 72.14 72.06 71.52 71.34 71.45 71.63 71.53 70.53 69.82 70.05 70.36 68.89 68.43 67.99 67.46 67.07 67.04
58.11 55.62 52.74 46.07 44.45 48.30 49.47 51.13 52.03 51.27 52.52 53.67 53.71 51.53 55.41 59.53 59.18 66.06 67.85 67.89 68.06 69.58 71.08 69.02 69.56 70.57 71.79 71.53 72.14 71.89 71.32 71.59 71.14 70.28 69.13 71.06 70.96 71.63 70.79 69.69 69.60 69.73 69.43 68.17 67.83 67.27 66.58 66.38 65.71
56.80 53.00 47.09 46.00 46.52 49.31 51.48 52.12 52.20 50.51 51.41 52.40 53.43 51.46 53.64 58.39 65.78 67.23 67.73 67.98 68.61 70.74 71.51 71.20 67.43 69.14 71.31 72.05 71.72 71.51 71.12 71.11 70.78 70.72 70.44 70.36 70.10 70.39 69.97 69.17 68.92 68.78 68.51 67.93 66.47 66.20 65.58 65.69 64.94
51.33 51.73 44.82 43.54 46.94 50.07 51.70 52.96 52.03 51.59 52.58 52.69 52.75 52.81 54.33 63.45 64.12 66.33 68.72 68.51 70.29 70.48 71.82 71.52 67.46 67.81 69.79 70.95 70.66 70.14 70.28 69.63 70.34 70.52 70.09 69.35 69.23 68.85 68.71 68.80 68.56 67.91 67.36 66.71 66.24 65.66 65.31 64.94 64.33
49.54 48.86 45.88 46.66 47.16 48.61 50.45 53.84 51.66 51.61 51.87 52.50 54.78 51.92 55.25 62.04 66.45 68.14 68.15 69.82 70.60 70.37 70.16 70.05 69.62 67.84 67.15 65.59 66.37 65.61 64.84 63.79 68.65 69.35 67.66 67.09 67.56 67.98 68.37 68.21 68.03 67.30 66.69 66.22 65.74 65.29 64.69 64.39 63.45
51.79 49.83 45.96 46.57 46.23 47.14 51.79 52.05 53.68 52.03 51.18 55.87 56.03 51.24 53.06 63.97 66.94 67.38 67.86 68.41 68.68 68.44 68.60 68.71 67.90 66.75 65.93 66.75 63.53 63.95 63.91 62.83 61.66 68.09 67.43 67.26 67.31 67.45 67.72 67.22 66.94 66.62 66.14 65.84 65.36 64.43 64.01 63.66 62.39
53.87 46.63 44.19 45.76 47.14 49.31 52.34 50.49 53.51 54.68 52.63 53.82 55.15 55.31 58.49 64.20 65.84 65.57 65.93 66.88 66.93 66.96 67.73 67.82 67.04 66.03 66.01 64.99 64.59 63.49 63.49 63.64 59.40 67.50 67.19 66.26 67.04 67.25 66.83 66.20 66.28 66.37 65.58 65.31 64.70 64.04 63.19 62.22 61.45
50.02 46.45 46.01 49.62 50.42 50.22 51.14 50.93 51.32 51.68 51.86 52.28 54.50 57.06 60.28 63.47 63.44 63.16 63.62 63.89 65.97 66.21 65.98 67.50 67.10 65.80 64.92 64.52 63.21 62.71 62.13 61.66 59.72 66.94 66.74 66.85 67.02 66.87 66.64 65.77 65.58 65.36 65.03 64.63 64.15 63.30 62.09 60.68 58.01
49.98 46.55 49.19 49.99 51.34 51.90 50.61 50.34 52.14 50.64 49.12 52.21 52.37 54.82 58.73 62.33 63.25 63.50 64.29 64.46 65.22 67.36 66.76 66.23 66.35 65.35 63.24 64.25 62.85 63.37 62.13 61.67 62.58 66.16 66.08 66.55 66.96 66.25 66.32 65.79 64.12 63.69 63.67 62.08 61.76 60.40 58.09 56.76 56.63
47.41 49.85 50.08 50.60 51.80 51.29 50.15 51.57 50.22 51.15 51.27 53.92 54.36 55.17 56.69 59.80 61.32 63.35 64.01 64.95 64.99 65.74 65.33 65.98 65.85 64.25 63.58 64.61 62.62 63.46 63.10 62.30 63.20 66.68 66.68 66.42 65.70 65.50 65.63 64.88 62.99 61.50 60.80 60.06 59.18 57.96 58.41 57.73 57.94
49.03 50.08 51.26 52.21 51.90 51.70 52.32 50.45 50.39 50.67 53.16 54.08 54.30 55.20 56.82 60.19 61.12 63.55 65.36 66.87 66.06 64.47 64.66 65.02 65.90 65.43 65.03 64.42 64.16 64.33 62.87 61.51 62.18 64.60 66.18 65.84 64.91 65.30 65.41 64.63 63.94 60.59 61.11 60.10 58.62 58.46 60.38 59.65 58.68
51.85 51.37 50.88 51.51 51.36 51.93 50.28 50.46 50.75 51.42 54.01 54.11 54.24 55.13 56.92 59.74 61.53 63.46 64.68 63.96 63.34 64.33 64.06 64.68 65.12 65.75 65.98 65.24 64.33 64.17 63.82 61.52 63.58 65.21 65.45 65.81 65.22 65.43 64.73 63.94 63.78 62.30 61.64 61.27 59.78 59.31 61.28 60.12 58.92
50.94 47.55 49.00 49.49 50.14 49.71 51.17 47.96 48.35 52.59 53.87 53.28 53.56 54.27 56.82 59.86 61.65 62.55 64.15 63.74 63.79 63.72 64.14 62.95 64.61 65.40 65.10 64.25 65.17 65.14 65.14 64.11 64.34 64.41 64.40 64.99 65.70 64.96 63.42 63.17 63.34 62.97 62.32 61.95 61.22 61.32 60.75 59.32 58.78
47.32 47.51 43.73 48.99 50.25 50.78 50.33 44.41 50.53 53.32 53.23 52.17 52.56 55.42 56.97 59.88 61.30 63.16 63.86 63.69 63.92 63.60 62.76 63.00 62.91 64.50 64.37 64.23 64.95 64.94 65.10 65.15 64.50 63.64 64.40 64.30 64.88 64.27 62.81 62.70 62.59 63.57 62.86 62.75 61.59 61.41 59.10 57.69 56.84
43.95 40.38 42.76 45.31 50.53 50.48 49.93 46.64 50.72 53.19 53.10 52.99 54.47 54.98 55.75 59.21 61.86 62.67 63.36 63.65 63.51 63.22 62.28 62.15 62.56 62.46 63.49 63.69 63.65 64.63 64.81 64.63 64.70 63.53 63.79 63.86 63.34 62.15 62.23 62.50 62.68 63.70 62.74 62.33 62.21 59.72 58.07 55.83 55.00
39.12 40.95 42.99 42.92 47.43 48.83 48.46 47.96 50.18 52.20 52.18 53.04 54.21 54.80 55.03 56.37 60.80 62.59 62.94 63.35 62.42 62.91 61.82 61.72 61.40 62.49 62.40 61.93 61.95 62.86 63.52 64.11 64.65 63.42 62.82 62.50 62.38 61.38 60.42 60.90 61.76 62.24 61.86 61.61 60.87 59.23 58.31 55.90 55.19
42.61 41.88 41.76 44.78 47.87 46.69 48.13 48.46 49.51 51.91 52.23 51.85 52.56 53.86 54.70 55.70 60.72 63.05 62.72 62.82 61.59 61.71 60.40 59.78 60.57 61.07 61.12 60.15 59.99 60.17 59.98 61.32 62.98 63.46 62.02 62.07 61.73 60.81 59.24 59.65 59.88 59.96 60.76 60.16 60.31 58.61 56.75 56.29 57.78
41.73 41.18 41.02 44.55 47.15 46.70 47.15 46.87 49.47 51.04 51.67 52.06 51.74 52.48 53.80 55.87 59.99 61.74 61.72 61.83 60.54 59.67 59.45 59.52 60.33 60.05 60.42 60.31 59.97 59.91 60.05 60.53 61.73 63.04 62.29 62.13 60.93 60.34 58.13 58.98 58.79 58.70 58.79 59.19 58.66 57.29 56.10 56.97 57.40
41.48 40.01 41.08 40.64 44.71 46.77 46.16 44.89 47.26 50.17 51.61 52.66 53.14 53.47 54.15 55.53 58.94 60.39 60.61 60.74 59.95 58.67 58.67 59.05 59.35 59.78 60.36 60.47 59.69 59.34 60.34 60.51 60.46 61.20 61.31 61.09 60.49 60.07 59.25 59.43 59.28 58.45 58.42 58.04 57.71 58.03 57.08 55.47 55.16
38.51 43.45 42.62 41.72 40.72 36.57 45.37 37.33 45.25 48.25 49.31 51.36 52.54 52.98 52.93 55.36 57.01 60.65 60.32 60.32 59.69 58.73 59.36 60.04 59.50 59.50 59.84 60.02 59.63 58.42 57.71 57.51 58.86 60.59 60.46 60.11 60.21 59.36 59.24 59.73 59.55 58.71 58.71 57.88 57.87 58.89 57.84 56.44 53.26
42.02 44.85 42.37 42.04 40.65 40.55 40.79 38.57 42.59 47.37 46.56 49.11 51.44 52.72 54.63 56.01 56.67 60.25 60.06 60.51 61.00 59.65 58.73 59.47 59.74 59.02 59.03 59.15 59.86 58.92 57.31 58.03 58.62 58.84 58.49 58.76 58.69 58.42 58.14 59.05 59.12 58.73 58.97 58.95 58.41 57.77 57.59 57.56 55.26
46.65 43.35 42.44 42.16 40.01 33.78 39.17 39.10 40.42 44.22 46.65 48.83 51.96 52.90 54.86 55.50 57.46 60.61 61.11 60.99 60.49 60.59 58.83 59.09 58.67 58.39 59.19 58.98 59.62 58.78 57.78 57.71 57.33 57.65 57.33 57.13 57.36 57.71 57.86 57.73 58.88 58.98 58.97 58.72 58.58 58.61 57.43 57.91 56.86
43.88 40.03 32.37 30.37 31.48 31.25 41.17 39.70 42.15 47.49 49.48 50.59 51.53 53.73 55.70 58.53 58.64 59.54 59.91 59.26 59.37 59.00 58.28 58.32 57.87 56.90 58.81 58.35 59.24 58.44 57.63 57.95 57.36 57.54 57.40 56.83 56.59 56.78 57.17 57.76 58.47 58.55 58.46 58.74 59.11 58.75 58.00 57.72 57.55
40.23 40.32 32.87 25.65 28.03 32.91 39.36 35.77 42.84 50.06 51.36 52.05 53.81 54.91 56.23 56.77 59.01 59.33 60.24 59.38 59.19 59.02 58.01 57.77 57.59 56.75 57.72 57.99 58.11 58.08 57.68 58.21 57.79 57.56 57.69 57.51 57.09 57.28 57.98 57.97 58.47 58.70 58.73 58.83 58.98 58.94 59.17 58.96 58.38
38.86 36.87 42.75 36.25 37.50 33.07 35.95 42.18 48.60 50.69 49.90 51.14 51.79 53.86 54.73 56.84 58.11 59.26 60.49 60.21 59.53 59.03 58.45 58.79 57.69 57.09 57.28 57.95 58.14 58.03 57.74 57.83 57.85 58.24 58.24 57.70 58.05 58.85 58.40 58.24 58.28 58.28 58.40 58.41 58.20 58.21 57.97 57.91 57.65
40.40 42.23 35.13 37.25 27.22 26.35 34.05 37.25 39.68 45.68 47.93 50.49 51.01 52.59 54.02 56.00 58.13 59.35 60.26 60.56 60.50 60.18 59.96 59.05 59.27 58.34 57.85 58.77 58.68 57.98 58.22 57.80 57.25 58.53 58.27 57.91 58.26 58.62 58.56 57.73 57.63 57.13 57.16 57.92 57.92 57.40 57.19 57.31 56.97
38.17 36.88 38.34 38.49 36.49 30.13 29.34 34.90 46.77 47.23 49.56 49.81 50.96 53.55 54.90 55.10 57.17 59.24 60.15 60.99 60.98 60.75 60.46 59.49 59.19 58.88 58.51 58.98 58.91 58.60 58.07 58.42 57.48 57.14 57.98 58.84 58.96 59.04 59.18 58.71 58.20 57.73 57.50 57.97 57.24 56.67 56.69 56.63 56.91
43.24 40.04 38.85 33.03 32.43 36.88 35.47 35.80 48.28 48.82 49.95 50.76 50.96 53.00 55.10 55.96 57.30 59.24 60.17 60.79 60.60 60.05 60.07 59.62 59.69 59.42 59.19 59.47 58.81 58.18 58.46 58.75 58.14 57.88 56.60 58.14 59.01 58.97 58.49 59.04 58.51 58.16 57.90 57.79 57.29 57.13 57.76 57.59 56.89

GFSSGP_sfc_wetblb_105.txt.gz
Wetbulb
57.51 56.82 53.98 51.19 42.33 39.03 36.41 41.62 46.11 44.27 46.46 49.94 51.04 50.18 47.24 48.02 48.14 45.50 64.36 67.96 70.49 69.70 71.95 72.39 71.60 72.14 72.42 72.65 72.71 72.61 72.79 73.19 73.13 72.93 72.49 72.16 71.83 71.45 71.33 71.14 71.00 71.10 71.26 70.29 70.16 69.77 69.60 68.87 68.96
54.97 56.05 52.11 47.59 38.89 33.82 38.74 44.22 43.65 48.30 50.70 51.78 51.69 51.22 49.78 49.77 60.25 63.30 64.13 68.60 70.06 70.11 70.98 71.94 71.64 71.86 72.26 72.34 72.54 72.49 72.78 73.02 72.83 72.70 72.37 72.19 71.86 71.54 71.51 70.97 70.43 70.56 70.65 69.37 69.28 69.25 68.72 68.48 68.46
57.05 57.54 46.76 42.38 38.70 35.88 37.90 44.01 45.70 48.56 51.32 50.85 47.98 49.53 51.17 51.82 60.81 63.09 65.61 68.03 67.62 69.24 69.90 71.00 71.06 71.31 72.02 72.20 72.34 72.38 72.32 72.36 72.13 72.23 72.43 71.85 71.58 71.74 71.55 70.47 70.03 70.19 70.38 68.87 68.81 68.43 68.26 68.39 67.89
53.61 50.39 46.27 38.08 37.07 41.95 44.15 45.32 49.69 49.19 49.24 50.15 50.56 48.83 52.63 56.94 61.11 64.74 66.08 66.26 64.89 67.26 70.02 69.54 69.51 71.01 71.64 72.11 72.19 72.18 72.17 71.79 71.47 71.23 71.51 71.38 71.21 70.84 70.30 70.02 69.81 69.80 69.87 69.07 68.11 67.75 68.00 67.08 66.53
49.78 45.09 37.71 36.58 39.37 44.41 48.01 48.30 48.85 47.55 49.18 51.25 51.02 48.67 50.20 59.04 64.82 64.99 64.80 65.58 64.01 66.35 68.29 68.90 68.81 70.02 71.79 72.19 72.10 71.51 71.52 71.18 71.14 69.83 69.70 68.62 69.52 69.61 68.80 68.85 69.71 69.08 68.99 68.75 67.86 67.47 66.91 66.05 65.48
45.31 43.36 34.86 33.76 40.11 45.47 47.70 49.06 50.39 49.88 52.05 50.40 50.23 50.63 50.56 62.53 63.42 63.99 64.98 64.33 65.29 66.15 68.35 67.51 68.96 69.51 70.38 71.52 71.44 70.74 70.53 70.42 69.67 69.29 68.65 68.39 67.91 68.04 68.46 68.39 68.71 68.48 68.01 67.60 67.13 66.84 66.01 65.45 64.86
42.49 38.95 36.24 38.25 41.60 44.21 47.17 48.97 49.14 48.65 49.86 51.93 52.56 49.07 55.70 60.42 63.49 64.74 64.49 64.67 66.10 66.11 66.96 66.89 65.69 66.27 68.29 68.42 67.78 69.06 69.34 68.90 68.60 67.44 68.14 68.01 67.10 67.50 68.38 68.46 68.21 67.61 67.16 66.80 66.55 66.10 65.18 64.61 63.63
45.77 41.22 37.84 41.26 41.23 41.33 48.03 50.11 51.02 49.37 47.52 52.61 54.18 48.01 48.82 60.61 63.88 63.91 63.59 63.84 64.35 64.74 64.62 64.95 64.42 63.94 62.75 63.30 64.75 65.52 67.11 66.55 67.28 67.25 66.95 66.61 66.84 67.38 67.48 67.53 67.23 66.86 66.56 66.44 66.04 65.17 64.36 63.69 62.53
45.76 39.81 38.30 40.32 41.69 44.27 48.57 48.83 50.47 51.10 49.26 50.64 52.06 51.81 54.74 64.07 63.60 62.42 61.52 62.36 62.49 63.92 63.72 64.09 63.17 62.22 62.52 62.47 63.22 64.06 65.11 65.41 65.64 64.29 63.25 65.06 66.07 66.80 66.83 66.37 66.29 66.44 66.00 65.47 65.18 64.32 63.12 62.24 61.66
42.85 39.27 40.12 45.46 46.64 46.03 48.58 48.43 47.57 47.62 49.85 49.58 51.57 53.67 60.22 62.97 61.94 60.91 60.46 61.06 62.12 62.05 62.69 63.61 63.14 62.67 62.47 63.26 62.09 61.93 62.97 63.07 63.07 63.51 60.80 65.08 65.75 65.84 65.73 65.72 65.64 65.61 65.08 64.62 64.11 63.30 62.47 60.67 57.21
44.32 41.28 45.25 46.91 48.34 48.77 47.66 46.51 47.73 46.33 44.31 48.55 48.23 51.10 59.69 61.06 60.69 60.19 60.10 59.81 62.40 63.61 63.12 63.66 63.54 62.83 62.32 61.55 60.85 62.00 61.79 62.11 60.83 61.16 61.07 64.71 66.18 65.73 65.24 64.31 63.96 63.34 63.61 61.73 60.99 60.15 57.44 56.37 55.80
43.74 47.01 47.37 47.39 48.64 48.29 46.74 46.52 46.83 44.69 46.58 50.29 50.09 49.90 52.84 59.03 59.00 58.88 59.02 59.38 61.46 63.48 62.67 62.67 62.62 61.18 60.51 61.39 61.03 61.77 60.86 60.46 60.96 60.37 63.53 63.89 65.02 64.83 64.07 62.95 61.93 61.23 60.12 58.98 57.11 55.63 56.05 55.12 56.32
45.71 46.89 48.41 49.17 48.81 47.92 49.36 47.63 47.52 46.25 49.47 51.17 51.21 51.81 51.22 56.23 56.64 59.26 60.04 60.77 60.84 61.97 62.34 62.06 62.28 61.75 61.17 61.85 61.31 62.78 62.20 61.78 62.21 61.17 64.33 65.00 64.56 64.39 63.43 61.36 60.48 59.24 58.95 57.71 55.50 55.31 56.08 54.85 55.64
48.81 48.31 48.16 48.57 47.88 47.48 47.06 46.98 45.96 48.60 50.66 51.02 51.76 51.29 51.46 53.49 57.13 59.44 60.42 60.06 60.13 61.11 61.34 62.04 62.66 62.80 62.67 62.29 61.85 62.72 61.41 61.17 62.68 61.27 64.55 65.02 64.58 64.49 63.06 60.65 59.08 58.48 58.21 57.06 55.94 56.66 56.36 55.43 55.52
47.65 44.23 46.05 47.33 47.19 46.56 47.33 44.74 44.76 48.52 49.69 49.75 51.22 51.76 51.70 54.81 57.51 59.52 61.03 60.49 59.78 60.25 61.26 61.51 63.19 63.43 62.59 63.23 62.59 63.11 61.30 61.39 62.65 64.20 64.99 64.47 64.95 64.31 63.37 60.69 58.64 59.16 58.74 57.19 56.25 56.43 57.30 56.27 57.12
40.80 40.92 37.74 45.34 46.87 47.99 47.19 41.05 47.72 49.83 49.14 49.17 49.88 51.17 51.67 54.02 57.16 58.72 61.51 60.23 59.82 60.06 59.63 61.14 62.99 62.71 61.84 63.06 62.99 63.76 61.62 61.41 63.29 64.04 64.36 64.37 64.71 64.29 63.06 62.14 59.69 60.64 59.29 58.13 57.57 57.28 57.63 55.60 55.19
36.60 33.27 35.97 40.21 46.46 46.61 46.66 42.72 47.28 50.19 49.97 48.97 48.53 49.10 51.29 51.91 56.53 59.29 60.03 59.17 59.56 59.59 59.45 59.92 61.11 61.39 61.27 60.98 62.86 62.89 63.13 62.59 63.36 63.48 64.04 64.05 63.66 62.89 62.64 62.51 61.50 61.53 59.60 59.70 58.65 58.08 57.50 54.82 53.87
31.95 33.99 37.74 38.08 42.68 44.77 43.72 43.80 47.10 49.60 49.42 46.67 48.38 49.88 50.14 50.29 56.32 58.70 59.03 59.77 59.89 59.29 59.63 59.19 59.72 59.46 60.35 59.03 60.88 61.76 63.23 63.49 62.91 62.49 63.40 63.45 63.22 62.47 61.64 62.14 61.36 61.92 60.01 60.86 59.51 58.09 56.63 54.86 53.77
36.53 36.07 35.62 39.12 43.56 43.11 42.73 42.84 46.06 48.46 49.73 46.69 46.47 48.46 49.73 50.31 57.99 58.89 59.19 58.95 58.95 58.70 58.57 58.99 59.92 60.37 58.65 57.23 57.13 57.11 59.34 62.33 62.80 62.03 62.26 62.56 62.23 62.18 61.39 61.69 61.23 62.10 60.61 60.44 59.46 57.84 55.06 52.92 52.46
36.86 35.90 35.73 39.19 43.08 42.77 41.18 41.38 44.83 46.88 48.36 49.42 47.07 47.38 47.43 48.18 57.57 58.15 57.88 57.86 58.08 57.64 57.57 58.73 59.40 59.65 58.09 57.83 58.45 58.35 57.61 58.81 63.05 62.45 62.31 62.07 61.79 61.29 60.11 60.46 60.13 61.14 60.70 59.38 58.32 56.72 54.92 53.33 54.03
38.56 36.81 35.74 35.81 40.13 42.55 40.50 39.12 42.72 46.63 48.73 50.21 49.31 49.19 49.34 50.79 56.42 57.18 57.54 56.85 56.92 56.05 56.37 58.10 59.18 58.79 57.55 59.70 59.16 58.01 58.05 58.86 59.49 61.73 61.08 61.53 61.37 60.92 59.18 59.40 58.89 60.58 60.17 58.36 56.79 56.34 54.98 53.38 53.43
35.73 40.99 40.50 39.13 36.11 31.14 40.54 31.19 38.44 42.63 44.69 47.78 48.93 49.10 49.54 50.37 57.59 57.58 56.96 56.12 56.07 55.47 56.87 58.42 59.03 59.15 59.42 59.32 58.38 58.09 57.34 56.75 59.00 59.00 61.09 60.77 61.09 60.66 58.43 59.29 58.74 58.78 59.93 58.24 57.14 57.15 55.80 54.11 52.32
38.10 42.58 40.89 39.28 35.30 33.47 36.16 34.23 37.04 42.82 42.85 45.53 47.70 48.47 50.47 50.01 56.89 56.78 57.08 56.63 56.56 56.35 56.77 58.80 58.64 58.74 58.97 58.77 58.68 57.63 57.59 58.14 59.43 60.20 59.96 60.11 60.19 59.97 58.41 59.15 58.46 58.09 58.42 57.94 57.40 57.26 56.86 55.12 54.25
43.48 40.50 40.15 38.01 34.59 28.36 35.27 34.86 34.08 38.85 42.38 45.72 48.96 49.32 49.01 50.17 56.93 57.37 57.72 57.37 56.27 56.23 56.62 58.09 58.54 58.18 58.08 58.25 58.53 57.86 57.59 57.65 57.57 59.35 58.37 59.06 59.19 58.72 58.19 58.73 58.25 58.21 58.40 58.01 57.73 57.23 56.95 56.62 55.32
39.22 34.54 27.45 25.69 25.71 26.32 37.32 35.43 36.20 43.05 46.10 47.26 48.10 49.82 50.51 51.02 56.31 56.41 56.34 56.48 55.93 55.33 56.17 57.68 57.61 57.25 57.62 57.98 57.66 56.67 56.81 57.69 57.03 57.47 58.06 57.11 57.05 57.39 57.66 58.23 58.14 58.25 58.22 58.30 57.86 57.26 56.84 56.79 56.23
35.52 34.27 27.74 22.51 22.99 27.79 38.16 32.25 36.79 46.49 49.12 51.13 50.63 51.29 52.22 55.90 56.46 56.32 56.45 56.47 56.08 55.67 55.96 57.45 56.77 56.61 57.78 57.81 57.58 56.75 57.13 57.32 57.81 57.04 57.14 57.29 57.10 57.36 57.46 57.10 57.71 58.21 58.39 57.80 57.58 57.24 57.35 57.25 57.05
34.94 32.28 37.78 32.44 33.02 28.88 32.75 37.29 43.09 48.39 47.92 50.27 50.01 49.94 50.87 54.70 56.15 56.10 56.12 56.52 56.11 55.90 56.03 56.12 55.96 56.61 57.49 57.58 57.23 55.65 56.69 57.10 57.41 57.75 57.01 57.03 57.21 57.60 56.84 56.05 56.27 57.80 58.14 57.92 57.18 57.41 56.62 57.30 57.08
36.67 39.02 29.91 33.68 25.53 23.59 29.94 32.59 35.09 42.51 43.71 47.58 49.07 50.05 50.92 53.84 55.68 56.53 56.00 56.35 56.85 56.26 56.22 55.91 56.50 56.75 57.13 56.93 57.27 56.43 56.66 57.93 57.96 57.71 57.33 56.88 56.86 57.04 56.71 56.02 56.15 57.22 57.76 57.78 57.42 57.10 57.27 56.67 56.89
35.80 32.32 33.25 34.11 34.10 25.91 24.27 30.03 44.33 43.97 45.68 46.28 48.52 50.45 50.56 51.33 55.34 56.89 56.58 56.78 57.00 56.75 56.26 56.09 55.76 55.46 56.47 56.92 56.67 56.39 56.09 56.69 57.23 57.45 57.16 57.25 57.55 57.12 56.95 56.63 56.52 57.14 57.07 57.35 56.78 56.81 56.74 56.07 55.94
39.43 36.13 36.30 27.52 27.72 31.87 30.32 30.72 45.39 46.13 47.39 47.92 48.20 50.72 51.87 52.94 54.46 57.06 57.21 57.03 56.81 56.85 56.27 56.32 56.00 55.81 56.00 57.90 57.76 56.48 56.62 55.70 55.52 57.00 57.03 57.38 57.09 57.83 57.65 57.78 56.88 56.83 56.68 56.52 55.80 55.46 56.11 55.41 54.50

GFSSGP_sfc_wetblb_108.txt.gz
Wetbulb
57.05 54.59 52.04 50.12 41.35 37.12 34.01 39.05 43.31 42.79 44.72 48.36 49.38 48.84 46.79 46.77 47.07 42.31 62.24 68.78 69.53 70.23 71.11 71.16 71.28 72.06 72.43 72.39 72.24 72.52 73.00 73.24 72.87 72.52 72.08 72.02 71.80 71.56 71.57 71.53 71.54 71.57 71.65 70.43 69.86 70.21 70.32 70.05 69.90
52.73 54.34 50.56 44.69 37.31 32.41 35.71 41.98 42.13 46.31 49.32 49.75 50.09 49.57 48.30 49.27 61.59 62.66 63.63 69.22 69.79 70.51 71.03 70.81 71.10 71.70 72.20 72.20 72.19 72.39 72.92 73.03 72.49 72.18 71.99 71.71 71.49 71.57 71.58 71.29 70.82 70.95 71.06 70.29 70.54 69.84 69.44 69.26 69.07
53.65 55.67 46.64 40.35 35.01 33.97 36.12 42.48 43.67 47.57 50.26 49.55 47.03 48.34 49.79 51.66 62.67 63.49 64.73 68.92 69.67 69.60 71.22 70.87 70.38 71.03 71.81 72.11 72.17 72.10 72.50 72.29 71.95 71.60 71.72 71.61 71.47 71.40 71.26 70.62 70.01 70.39 70.59 69.79 69.87 69.24 68.49 68.33 67.68
52.23 48.47 45.21 36.77 35.69 39.72 42.10 44.95 46.50 47.33 46.71 47.96 48.91 47.29 51.56 60.64 62.81 64.26 66.81 67.93 68.85 68.27 69.99 70.09 69.45 70.38 71.26 72.15 72.10 72.12 72.23 71.50 71.39 71.27 71.27 71.71 71.64 71.43 70.92 70.21 70.03 70.02 70.07 69.50 68.91 68.51 68.44 67.80 67.61
47.66 42.24 36.25 32.82 36.03 40.32 44.60 45.84 47.63 46.36 47.68 49.44 49.79 47.84 49.09 60.02 63.58 65.08 65.29 65.01 64.61 67.18 68.38 69.70 68.99 70.08 71.29 72.12 71.99 71.57 71.47 71.01 71.00 70.74 69.66 68.58 70.57 70.69 70.11 69.59 69.51 69.36 69.44 69.02 68.75 68.49 67.79 66.98 66.37
44.00 40.46 32.64 31.27 36.80 42.54 45.25 47.41 48.05 47.95 50.05 48.75 48.41 48.45 52.10 61.37 62.95 63.07 63.39 62.82 65.32 66.81 67.30 68.34 69.61 70.11 70.60 71.31 71.21 70.70 69.78 70.35 69.85 68.89 67.88 67.84 68.88 69.51 69.35 69.32 69.15 68.56 68.44 67.97 67.88 67.33 66.61 65.88 64.83
40.73 37.54 33.10 34.74 38.25 41.84 45.47 47.34 47.51 46.99 48.24 49.94 50.97 48.03 54.98 58.66 61.82 63.30 62.67 63.47 66.76 67.17 66.22 66.35 67.48 68.76 69.37 69.28 69.51 68.92 69.27 68.92 68.47 67.37 66.91 67.83 67.46 67.52 68.25 68.45 68.53 68.11 67.69 67.53 67.29 66.38 65.70 65.06 63.99
44.23 40.04 34.81 36.80 37.76 39.13 45.23 47.73 49.40 47.68 46.80 51.22 52.76 47.63 52.87 59.11 62.27 62.39 63.23 63.98 64.35 64.97 65.03 64.78 64.02 64.28 63.79 65.70 66.97 67.39 68.16 66.90 67.12 66.47 66.01 65.43 64.85 65.75 67.37 67.59 68.05 67.72 67.20 66.96 66.58 65.57 64.79 63.92 62.88
44.14 35.50 33.13 37.96 38.63 41.86 46.73 46.41 48.33 49.82 48.05 48.83 50.74 50.78 52.95 61.74 62.36 61.15 61.25 61.36 62.10 63.03 63.03 63.88 62.74 61.65 61.60 62.11 63.23 65.47 65.22 65.68 65.96 66.21 65.27 64.23 63.11 65.18 67.38 66.89 66.77 67.00 66.61 66.44 65.90 64.88 63.90 62.58 62.35
41.44 34.92 37.77 41.91 43.65 43.58 46.95 46.91 47.02 45.63 48.03 48.22 49.92 52.78 61.24 62.12 61.32 60.31 59.62 60.17 60.52 61.44 61.50 62.47 61.69 61.08 61.15 62.99 61.61 61.52 62.75 64.61 65.67 64.91 64.85 65.32 64.45 65.70 66.25 65.67 65.84 65.98 65.69 65.56 65.16 63.94 62.94 60.99 58.29
41.08 39.52 41.81 44.22 45.32 45.96 45.89 44.63 46.12 44.63 42.73 46.71 46.95 48.99 59.64 60.49 60.45 59.66 59.94 60.74 61.26 62.30 62.04 62.36 61.89 61.56 60.88 61.26 60.29 60.52 61.96 62.05 63.71 63.57 64.98 65.34 64.91 65.31 65.27 64.67 64.61 63.99 64.63 62.51 62.37 61.27 58.61 56.48 56.23
41.47 45.73 44.55 44.82 46.66 45.79 44.90 46.72 44.54 44.50 46.16 49.28 48.50 48.68 59.11 59.34 59.49 59.36 59.44 59.62 60.38 61.75 62.07 62.14 62.16 61.30 60.02 60.31 59.45 59.90 61.28 61.95 62.11 62.65 63.42 63.68 63.84 64.18 64.49 63.81 63.13 62.21 61.63 59.05 58.22 55.81 55.05 55.06 55.66
43.97 45.49 47.24 47.48 46.50 45.46 46.81 44.40 45.44 44.88 48.14 49.90 49.66 50.29 55.93 58.83 59.44 59.99 59.75 58.52 61.32 61.87 61.75 61.72 61.30 60.17 59.68 59.53 59.47 59.93 60.21 60.63 61.51 61.71 61.53 62.76 63.89 63.85 63.63 62.69 61.83 60.24 58.29 56.54 54.27 54.59 53.83 54.11 55.23
46.23 46.07 45.73 45.18 45.05 45.82 45.92 46.16 43.76 46.29 49.43 49.62 49.97 49.92 50.20 55.94 58.62 58.56 58.45 59.06 61.60 62.03 61.38 61.26 61.07 60.31 60.16 60.72 59.74 61.15 62.22 61.25 61.18 61.48 61.46 61.75 63.62 63.85 62.61 61.43 59.63 58.07 57.56 55.58 53.85 53.62 52.55 53.48 54.71
43.70 40.30 41.35 42.88 43.80 43.78 45.51 43.29 42.41 46.40 47.51 47.89 49.34 50.18 49.91 50.18 55.60 58.04 59.93 59.58 61.05 61.94 61.61 60.85 61.11 60.97 60.67 61.13 60.72 61.70 61.56 61.24 61.35 61.11 61.97 61.75 63.27 63.39 61.75 59.92 57.77 57.43 56.03 53.20 53.37 54.37 53.84 54.60 55.06
39.41 38.99 34.92 43.36 43.77 45.23 42.94 39.59 45.69 47.34 48.14 47.82 49.96 50.57 50.25 49.39 54.93 59.35 60.53 60.14 60.03 61.03 60.71 60.29 62.62 61.15 61.03 61.73 62.10 62.15 60.91 61.78 62.13 61.62 63.20 63.18 63.22 63.62 61.16 58.47 56.98 57.54 56.41 54.44 54.68 54.79 55.22 54.66 54.54
34.17 33.33 34.61 38.25 42.74 41.86 42.04 39.88 44.04 47.80 47.91 47.64 48.46 49.36 49.47 49.49 53.28 58.56 60.26 59.56 59.55 60.54 59.82 59.38 60.34 60.08 60.00 62.31 62.40 62.50 60.69 61.44 62.96 62.42 63.81 63.88 63.88 63.28 60.60 58.03 57.32 57.27 56.61 54.42 55.92 55.90 56.26 54.46 53.32
29.97 31.02 34.08 33.79 37.59 40.68 39.75 40.28 43.77 45.68 46.40 45.82 48.21 48.82 48.14 47.74 52.06 57.62 58.51 59.00 59.37 59.21 59.61 59.18 58.91 59.65 59.87 59.53 62.05 62.64 60.78 61.80 62.95 63.48 63.33 64.03 63.95 63.20 61.34 58.30 58.09 57.40 57.37 54.35 56.90 56.67 56.07 55.22 53.47
34.33 32.29 31.15 34.05 38.70 37.05 38.40 39.42 41.62 43.96 45.32 45.89 47.68 48.40 47.00 48.75 50.82 57.51 58.57 58.53 58.28 58.52 58.31 58.11 57.54 58.22 58.12 56.70 58.79 60.76 60.08 61.21 61.37 62.70 63.07 63.76 63.56 63.01 62.09 59.52 59.32 58.30 58.13 55.30 57.66 57.46 55.09 51.91 52.37
33.73 32.04 31.74 35.24 38.24 38.08 37.83 37.84 41.39 42.86 44.93 46.49 47.55 48.14 48.53 48.05 54.47 56.94 57.67 57.89 57.93 57.63 57.93 57.20 58.09 58.32 57.80 57.02 56.98 58.74 59.77 61.53 61.75 62.07 63.17 63.30 62.62 62.40 62.32 60.87 59.89 58.96 57.92 58.16 57.71 56.63 53.44 52.60 51.99
33.88 31.75 32.20 33.34 37.04 37.79 36.30 36.27 38.89 43.38 45.81 47.64 48.58 48.75 48.98 48.85 54.04 55.75 57.03 56.60 56.80 56.84 56.94 57.33 58.37 59.11 58.84 57.42 57.32 56.36 57.94 59.35 60.82 60.74 61.08 62.36 62.25 61.95 62.13 61.74 60.74 60.47 59.30 58.84 57.99 56.82 55.68 53.55 52.20
33.82 38.78 38.07 37.16 34.56 31.02 37.23 28.61 36.50 40.24 42.17 44.93 46.38 47.37 48.34 48.61 55.63 56.53 56.63 55.90 56.44 56.38 56.30 57.31 58.64 58.61 58.67 58.00 57.28 56.64 54.93 56.90 58.56 60.97 61.00 62.01 61.64 61.29 61.50 61.50 61.30 61.24 60.42 59.47 58.51 57.11 55.35 54.46 52.30
36.82 39.78 38.53 37.94 34.11 30.36 32.49 28.33 35.26 39.34 39.44 42.51 45.03 46.78 48.02 47.83 54.91 56.12 56.36 56.65 56.41 55.70 55.90 57.14 58.17 58.34 59.27 58.81 58.42 57.87 57.06 57.45 56.90 58.89 60.06 60.93 61.14 60.77 59.79 59.93 60.27 60.72 60.16 59.33 57.78 56.22 56.42 54.83 53.30
40.12 37.70 37.62 35.96 32.79 26.84 32.44 30.82 32.99 34.24 39.10 42.93 46.16 47.70 49.08 47.75 54.31 56.73 57.35 56.42 55.30 55.88 55.72 56.79 57.58 58.16 58.46 58.45 58.34 57.85 57.42 57.74 57.62 58.43 58.41 59.58 60.31 60.10 59.11 58.89 59.32 60.25 59.63 58.16 57.58 57.25 56.60 55.84 55.18
36.60 32.71 25.73 24.48 24.30 25.71 34.88 32.02 34.52 39.01 42.59 44.74 47.25 48.67 50.80 52.52 52.85 55.82 55.12 55.12 54.65 54.98 55.38 56.28 57.10 56.72 57.76 57.67 58.15 57.85 57.89 58.03 57.87 58.91 59.12 58.76 59.36 59.00 57.88 58.24 58.07 58.58 59.22 59.00 58.51 57.73 56.98 56.62 55.80
33.18 32.95 26.51 21.75 22.84 26.69 34.53 28.15 34.49 42.43 45.71 48.97 50.64 50.82 51.29 50.98 53.45 55.70 55.54 55.53 54.97 55.11 55.30 56.45 56.53 56.58 57.37 57.44 57.97 57.80 56.50 57.55 57.35 58.71 58.81 58.64 58.61 58.75 58.23 58.24 58.25 58.08 58.24 58.20 58.03 57.20 56.72 56.64 56.28
33.49 30.08 36.38 29.68 30.35 26.87 29.99 35.09 40.00 43.19 46.00 48.08 48.60 50.55 50.04 52.39 54.04 55.52 56.08 55.51 55.31 55.03 55.32 55.84 55.90 56.59 57.22 57.63 57.92 57.27 56.99 56.12 57.11 57.23 58.32 57.87 58.46 58.99 58.17 58.09 57.90 58.07 57.81 57.67 57.30 56.78 56.22 56.28 56.16
35.58 36.92 28.32 29.55 22.37 21.70 27.59 29.30 31.48 38.83 42.24 45.89 47.31 48.24 49.68 51.79 54.11 55.97 56.23 55.46 55.87 55.45 55.91 55.42 55.76 56.23 56.96 57.72 57.56 57.03 56.46 56.50 56.54 56.45 56.64 57.47 57.85 57.67 57.16 57.53 57.55 57.62 57.68 57.54 57.06 56.40 56.56 56.02 56.29
34.23 33.84 34.26 31.68 30.57 24.74 23.17 27.14 41.14 41.78 43.49 44.02 46.43 48.83 48.82 50.22 51.12 55.44 55.91 56.50 55.80 55.85 55.46 55.17 55.10 55.35 56.30 56.76 57.12 56.43 56.10 56.60 56.95 56.79 56.62 56.14 57.22 57.17 56.44 56.34 56.44 56.87 57.42 57.49 56.86 56.36 56.30 55.85 55.47
38.83 34.95 35.21 28.14 25.46 28.79 28.60 28.98 42.37 45.13 46.54 46.49 45.93 47.17 50.18 50.63 49.49 53.79 55.26 56.36 55.23 55.12 55.05 54.85 54.81 55.00 55.81 56.73 57.03 56.56 55.70 56.63 57.04 57.02 56.68 56.41 55.93 56.71 56.39 56.00 55.66 55.87 56.58 56.67 56.46 56.00 56.18 55.67 55.09

GFSSGP_sfc_wetblb_111.txt.gz
Wetbulb
57.97 53.40 50.41 49.07 40.80 36.51 33.33 37.38 40.75 41.57 43.07 47.28 48.11 47.30 45.94 45.86 45.50 41.49 58.06 64.80 68.58 69.24 70.21 70.65 71.33 71.83 71.94 72.03 72.51 72.56 72.87 72.84 72.68 72.71 72.72 72.53 72.56 72.40 72.23 72.15 72.02 72.28 71.71 71.49 71.42 71.71 71.57 70.88 70.32
51.22 52.97 49.05 42.91 36.27 31.54 34.68 39.76 40.58 44.38 47.73 48.89 48.28 47.92 46.72 48.72 59.50 60.22 62.33 68.12 69.15 69.90 70.06 70.21 70.95 71.52 71.92 71.86 72.22 72.49 72.77 72.46 72.36 72.29 72.32 72.11 72.14 71.99 72.00 71.88 71.39 71.39 71.69 70.86 71.20 71.40 70.75 69.70 69.62
52.23 53.55 45.78 38.75 33.31 32.81 35.56 40.90 41.82 46.02 47.50 48.27 45.07 46.86 48.83 51.92 61.12 62.37 64.39 68.62 69.05 69.79 70.14 70.11 70.45 70.92 71.68 71.78 72.05 72.26 72.19 71.79 71.75 71.53 71.82 71.76 71.77 71.83 71.85 71.16 70.70 70.73 70.80 70.06 70.17 70.19 69.68 69.27 68.27
50.53 48.55 43.36 36.13 33.68 38.14 40.16 43.39 46.00 45.74 47.17 46.68 47.13 45.44 49.74 57.18 61.70 64.28 65.35 68.87 68.12 69.08 70.04 69.19 69.40 70.45 71.57 71.83 72.06 72.19 71.79 71.40 71.01 70.96 71.26 71.57 71.60 71.44 71.20 70.41 70.28 70.48 69.78 69.78 69.70 69.19 69.07 67.87 67.57
45.44 41.49 35.49 31.10 33.45 38.58 42.25 44.39 44.64 44.55 45.53 47.75 48.04 46.15 47.45 57.99 61.98 64.01 66.40 68.76 67.29 67.67 69.31 69.06 68.57 70.02 71.36 72.01 71.86 71.71 71.26 71.03 70.65 70.61 70.74 70.70 70.72 70.06 70.01 69.71 69.79 69.52 69.77 69.96 69.25 68.64 67.80 67.67 66.86
42.21 38.84 31.70 30.78 34.30 40.09 42.55 45.60 46.26 45.95 47.04 47.61 47.57 47.37 48.77 59.23 61.76 64.01 64.86 67.26 67.17 66.79 67.58 68.82 69.24 69.66 70.54 71.21 71.07 70.76 70.48 70.32 70.00 69.40 70.01 69.79 68.74 68.48 68.22 69.47 69.18 68.74 68.63 68.30 68.14 67.77 67.58 66.33 65.33
40.07 36.02 31.83 32.54 35.13 39.32 42.77 45.90 44.92 44.92 46.37 48.21 49.16 46.82 53.36 58.08 61.17 62.97 62.05 61.89 65.75 66.01 66.45 67.28 68.64 69.40 69.47 69.20 69.34 69.20 69.33 69.27 68.76 67.83 67.49 67.64 67.02 67.18 67.93 68.18 68.09 68.64 67.97 67.78 67.58 66.69 65.84 64.96 64.57
42.24 39.11 33.09 34.74 35.90 38.75 43.89 45.56 47.61 45.70 45.32 49.85 51.29 49.49 50.92 57.67 60.50 61.24 62.46 63.60 64.28 64.52 64.85 65.52 66.29 67.33 68.25 69.82 68.32 68.16 67.92 68.12 67.37 66.10 65.61 66.30 66.25 66.45 66.90 67.03 67.36 67.88 67.70 67.62 66.69 65.80 64.77 63.94 64.17
42.29 35.08 32.26 36.27 36.79 39.55 44.46 44.82 46.36 47.36 45.87 47.16 49.01 51.97 55.06 59.85 61.29 61.16 60.27 61.18 61.51 63.44 63.25 63.36 63.44 63.80 64.23 65.42 66.88 67.80 68.64 65.91 66.42 65.64 65.94 64.97 65.35 65.45 65.85 66.62 67.16 67.50 67.09 66.74 66.03 65.07 63.71 62.86 63.45
40.88 33.91 35.62 40.97 41.52 42.09 44.89 45.18 45.83 44.43 45.99 46.23 47.85 52.09 59.58 60.47 60.12 59.84 59.91 60.07 60.40 61.03 61.20 62.84 61.87 61.36 60.94 62.79 62.38 62.94 65.34 66.33 66.01 65.21 65.39 64.35 63.11 63.34 64.62 66.09 66.46 66.41 66.39 66.01 65.34 64.17 62.71 61.90 60.83
39.30 38.48 39.89 42.29 43.55 43.74 43.71 42.01 44.21 42.84 41.87 45.12 45.56 47.71 58.07 58.96 59.57 59.71 60.06 60.47 61.12 62.18 61.16 61.71 61.54 60.56 60.04 60.89 59.91 59.85 60.22 63.95 65.23 64.55 63.96 63.56 62.80 63.45 65.43 65.37 65.63 64.43 64.93 63.60 63.23 61.83 58.26 57.88 58.86
39.76 42.28 42.85 42.59 45.16 43.87 41.95 44.47 42.32 42.86 44.46 47.80 47.36 47.23 57.20 58.11 58.98 59.33 59.16 59.72 59.60 60.05 61.31 61.36 61.51 60.65 59.94 60.45 59.61 61.29 61.23 62.26 64.21 64.55 63.77 63.45 62.73 63.88 62.99 63.92 63.87 62.73 61.98 60.01 59.64 57.74 55.31 55.18 56.92
41.31 43.44 45.52 46.51 46.22 44.97 45.28 42.92 43.84 43.73 46.19 48.13 47.90 48.40 55.42 57.82 59.03 60.08 60.43 59.82 59.20 60.05 60.78 61.23 61.49 60.70 60.07 59.35 58.36 59.36 60.47 61.47 63.04 63.24 64.00 64.12 63.01 62.89 63.40 64.12 63.31 61.41 58.52 58.67 56.03 54.35 55.21 54.91 55.72
44.54 44.13 44.31 44.40 44.53 44.59 44.55 44.82 42.30 44.81 47.80 47.50 48.10 48.25 49.90 56.45 58.22 59.14 58.49 57.90 58.50 60.49 60.73 61.56 61.59 60.97 59.54 59.29 58.34 58.78 59.21 60.79 61.67 62.50 63.06 64.31 63.34 63.06 63.70 63.17 62.17 59.69 58.52 55.97 55.93 54.87 53.84 54.10 55.38
42.30 38.62 40.20 41.75 43.55 42.95 42.81 42.50 40.90 45.43 45.77 47.61 48.48 48.93 49.44 49.24 53.20 57.94 59.13 58.93 59.21 60.60 61.23 61.20 61.54 59.98 59.26 59.52 58.56 59.61 60.59 60.58 60.30 61.01 62.45 62.75 63.61 63.31 63.30 62.48 60.18 58.34 55.97 53.36 53.01 52.89 52.33 53.64 55.19
37.62 36.78 33.80 42.17 43.08 44.17 42.85 39.13 43.48 46.94 45.51 45.48 46.85 47.49 48.37 49.20 49.08 53.95 58.58 59.00 59.25 60.66 60.76 61.13 61.92 59.88 58.78 59.91 59.50 60.35 60.94 60.84 60.88 61.13 61.27 62.05 62.90 63.65 62.09 60.64 58.74 57.12 54.18 53.19 53.32 53.22 52.44 52.37 54.90
33.28 32.22 32.74 36.28 42.75 41.71 39.94 37.29 40.04 44.48 45.59 44.72 45.55 45.43 46.91 48.56 49.99 49.88 55.30 58.85 59.84 60.99 60.39 59.95 60.77 59.80 59.52 59.50 60.51 60.94 59.47 60.67 62.23 61.91 61.42 61.34 63.03 62.26 61.19 59.56 57.14 55.95 54.00 53.07 53.10 52.71 53.29 52.53 54.05
30.75 29.75 32.36 33.04 37.36 38.08 35.91 36.62 39.33 42.68 43.79 42.92 43.53 44.58 45.27 46.41 49.21 50.05 54.43 58.59 59.80 60.42 60.07 59.73 60.23 59.48 58.92 61.34 61.94 61.29 59.45 61.54 61.68 61.86 61.30 61.36 62.79 61.75 60.84 58.55 56.55 55.59 53.55 52.32 53.01 54.02 53.36 52.49 54.10
33.89 32.19 30.96 31.71 36.42 33.84 34.51 35.01 37.81 40.37 40.86 41.50 42.49 44.43 45.80 46.77 49.70 49.94 56.92 57.38 57.79 58.85 58.92 58.78 58.60 58.20 58.92 59.06 59.68 59.45 59.29 60.95 61.18 62.30 61.99 61.84 62.46 61.66 59.29 57.53 56.71 55.35 52.92 52.25 54.14 54.07 53.55 51.34 52.97
32.30 31.00 30.67 33.04 35.71 34.77 33.68 34.73 38.65 39.10 39.85 42.01 43.12 45.05 46.50 47.72 47.49 54.44 55.42 57.07 57.67 58.22 58.43 58.11 58.63 58.10 57.58 58.14 58.94 60.16 60.09 60.93 61.42 62.08 63.00 62.76 62.68 61.74 59.83 57.35 56.63 55.06 53.23 52.71 54.72 55.25 52.34 51.86 52.67
32.83 30.90 30.34 31.18 34.15 35.14 33.42 34.05 37.09 39.92 41.19 44.06 45.21 46.30 47.28 47.57 46.51 52.88 55.74 56.02 57.17 57.17 57.37 57.79 57.78 58.16 56.84 56.48 56.56 57.64 59.57 60.43 60.20 60.88 61.47 62.54 62.84 62.09 60.62 58.02 57.34 55.75 55.30 53.40 55.51 55.71 55.16 52.51 50.64
32.37 36.01 35.20 33.39 31.14 28.58 35.81 27.95 36.68 37.33 38.66 40.75 42.73 44.40 45.24 45.55 49.39 54.14 56.20 55.50 55.74 57.07 57.46 57.29 57.78 57.30 56.82 56.70 55.85 57.24 58.20 58.22 59.67 60.22 61.46 62.05 62.65 62.47 62.01 59.31 58.18 56.59 56.59 54.63 55.94 57.07 55.92 53.35 51.29
35.88 39.57 37.02 36.40 32.55 28.66 31.19 26.34 34.23 37.00 37.80 39.58 41.48 43.25 44.06 46.32 50.85 53.84 56.03 56.43 56.57 56.59 56.58 56.94 57.46 57.55 58.06 57.26 56.44 55.38 54.07 56.42 58.80 60.44 60.17 61.30 61.67 62.14 62.01 61.28 59.14 58.15 57.46 57.73 56.48 57.03 54.88 54.53 53.13
39.32 35.63 35.27 34.11 31.22 24.91 30.95 28.97 31.96 32.23 36.90 39.40 42.82 45.18 49.04 49.18 48.34 51.99 56.20 56.74 56.20 55.31 55.45 56.42 56.58 57.65 58.57 58.31 56.18 55.60 54.46 54.87 55.51 57.70 58.97 60.16 61.04 61.24 61.31 61.58 60.54 60.20 59.35 58.81 57.96 56.87 55.28 54.41 53.28
35.01 31.10 23.49 22.29 22.84 24.43 32.29 29.34 32.99 36.98 40.32 42.12 45.58 47.71 49.49 50.52 51.32 50.08 54.11 55.14 55.28 54.49 55.05 56.12 56.66 56.74 57.89 58.06 57.36 56.42 56.51 57.44 56.08 55.90 57.13 58.15 59.84 60.00 60.24 60.41 60.34 60.59 60.34 58.58 57.32 56.71 55.91 55.43 54.02
32.39 31.27 24.44 19.48 20.28 24.30 32.16 26.22 31.40 40.52 42.73 46.67 48.03 48.58 49.70 50.38 50.83 53.23 54.69 55.26 54.73 55.06 54.96 55.86 56.28 57.02 57.39 57.55 57.56 57.93 57.70 57.84 58.03 57.89 57.95 58.82 58.71 59.89 59.39 59.20 59.99 60.42 59.06 57.87 57.62 57.00 56.67 56.62 55.96
33.05 28.56 33.78 27.02 27.27 25.30 27.34 31.30 36.63 40.47 42.93 45.30 46.16 48.11 47.97 48.80 49.50 52.14 55.27 55.33 55.08 54.88 54.94 55.38 55.64 56.77 57.09 57.24 56.91 57.55 57.70 57.61 57.86 58.36 59.29 59.51 60.04 59.58 59.29 58.94 59.09 59.41 58.95 58.46 57.89 57.11 56.80 56.80 56.74
35.59 37.02 26.73 27.54 21.66 20.48 24.22 26.18 28.82 35.98 39.94 43.37 43.52 46.10 47.35 47.52 48.16 50.82 55.40 55.00 55.06 55.51 55.42 55.66 55.88 56.19 55.90 57.21 57.36 56.84 57.13 56.93 56.91 57.85 57.67 58.18 58.88 58.59 58.59 58.37 58.52 58.65 58.61 58.39 58.03 57.30 56.88 56.15 56.03
31.63 31.04 31.51 31.34 27.46 22.75 20.85 23.99 37.37 39.49 42.08 41.67 43.25 45.56 46.43 47.06 49.33 50.38 53.00 55.43 55.22 55.26 55.60 55.42 55.12 55.38 55.40 56.92 57.40 55.80 56.81 56.48 56.20 56.04 57.43 57.61 57.82 58.19 57.82 57.77 57.65 57.47 57.40 57.67 57.28 56.84 56.52 55.62 55.19
34.42 33.33 33.31 27.97 26.27 28.11 26.61 25.21 38.36 39.20 43.79 44.19 45.03 45.90 47.14 48.76 49.61 50.18 50.83 55.00 54.39 54.84 55.40 55.04 54.69 55.16 55.64 56.33 57.07 56.44 56.38 56.81 56.32 55.78 55.72 56.97 56.78 57.13 57.26 57.38 57.49 56.97 56.77 56.44 56.18 55.74 56.34 55.54 54.75

GFSSGP_sfc_wetblb_117.txt.gz
Wetbulb
61.19 55.25 55.78 54.52 48.25 46.43 43.30 44.34 45.66 46.13 47.35 50.32 50.99 50.18 51.01 51.19 52.24 48.30 62.01 67.99 70.03 71.01 71.66 71.72 70.24 70.86 71.27 72.53 72.34 71.91 72.84 73.92 73.89 73.51 73.36 73.22 73.00 73.13 73.31 73.05 72.69 72.87 73.39 73.11 72.92 73.44 72.45 71.86 71.65
57.64 54.64 53.91 49.74 45.18 41.72 43.60 45.16 45.60 48.10 49.57 50.84 50.61 50.25 50.06 50.15 56.92 60.78 63.45 69.08 70.82 70.98 71.40 71.68 70.30 70.70 71.36 72.32 71.95 71.76 72.49 73.30 73.51 73.43 73.29 73.05 73.10 72.98 73.33 73.09 72.38 72.47 72.82 72.84 72.49 72.42 71.98 71.36 70.82
55.94 54.72 51.85 46.77 42.65 40.44 42.92 45.68 47.63 49.11 49.80 49.97 49.67 51.43 51.69 52.64 60.97 62.94 65.67 69.36 70.73 70.58 71.01 71.28 70.11 70.58 71.51 72.12 72.35 71.65 71.89 72.37 72.82 72.85 72.97 73.02 72.98 72.98 72.79 72.11 71.80 71.91 72.37 72.49 72.10 71.61 71.25 70.48 69.69
54.47 53.87 48.00 44.04 41.15 43.97 44.98 47.86 47.69 47.92 48.78 49.79 50.58 49.42 52.47 57.04 62.40 66.02 66.79 69.37 70.62 70.70 71.02 69.97 69.53 70.20 71.11 71.95 72.43 71.42 71.39 71.30 71.47 72.18 72.54 72.90 72.17 71.56 70.99 70.10 70.59 70.72 70.95 72.22 71.49 70.93 70.08 68.97 68.24
50.47 49.59 44.22 41.39 40.76 43.35 46.06 47.80 48.11 47.43 47.79 48.79 49.88 49.30 51.93 57.26 64.09 65.89 67.48 69.37 69.95 70.64 70.96 71.07 68.93 69.90 71.05 71.97 72.26 71.60 70.60 70.63 71.01 71.76 71.63 71.80 70.40 69.49 69.84 69.06 69.85 70.13 70.21 70.43 70.33 69.83 68.87 68.06 67.38
48.27 46.94 41.13 38.83 40.36 42.60 45.68 47.83 47.68 47.98 48.56 49.39 48.76 49.74 52.64 60.44 63.46 65.88 68.27 69.51 70.50 70.40 70.59 71.48 69.49 69.93 70.26 71.13 71.15 70.74 70.64 70.10 70.52 70.72 70.72 70.43 69.63 69.32 68.82 68.99 69.18 69.14 69.74 69.30 68.76 68.73 68.22 67.41 66.71
45.26 44.14 40.54 39.83 39.66 41.20 44.41 48.25 47.50 47.85 47.45 49.01 51.65 49.46 53.84 58.65 62.63 65.81 68.19 69.61 69.94 70.79 70.50 70.85 70.71 70.36 69.42 69.29 69.42 69.09 69.47 69.62 69.10 69.61 68.92 69.29 68.38 67.95 68.25 68.41 68.60 68.40 68.34 68.48 67.77 67.84 67.33 66.83 65.92
46.93 45.90 39.79 40.37 40.36 41.16 46.39 47.60 48.99 48.21 47.55 50.98 53.88 50.38 50.20 55.87 63.09 65.02 66.25 68.65 69.20 69.79 70.63 69.78 69.54 69.61 71.43 71.23 68.41 68.39 68.21 68.41 68.54 68.49 67.93 67.08 67.06 67.45 67.76 67.91 68.07 68.29 68.12 67.86 67.89 67.22 66.66 65.95 64.77
47.32 42.43 39.04 40.66 40.66 42.70 46.62 46.41 48.60 49.88 48.40 49.32 51.00 52.37 54.59 59.76 63.02 63.74 64.60 66.10 67.93 68.10 69.16 69.59 68.18 68.62 69.21 70.58 70.38 68.86 68.55 68.05 67.60 67.86 66.97 66.12 68.46 68.54 67.67 66.27 66.90 67.72 67.53 67.38 66.73 66.19 65.62 64.55 63.67
46.29 41.48 40.64 44.99 44.94 44.22 46.15 46.49 47.59 47.25 47.28 48.80 50.03 52.79 54.52 60.87 61.77 62.13 63.06 64.07 65.38 67.04 67.74 68.21 67.64 68.06 68.46 68.81 69.81 71.09 69.68 71.22 70.95 70.10 69.05 69.25 67.84 67.63 67.03 66.22 66.47 67.36 66.83 66.50 65.72 65.26 64.86 64.15 64.78
45.36 41.63 43.13 44.94 46.37 46.49 45.57 45.75 48.02 47.35 46.37 49.20 50.00 52.18 53.49 56.99 59.74 61.09 62.72 64.03 64.73 66.20 67.26 67.69 66.70 67.46 67.47 67.91 68.92 70.18 69.85 69.78 69.32 70.07 69.68 68.37 66.31 66.30 67.28 67.23 67.96 68.31 66.82 65.89 65.37 64.97 65.77 65.57 64.74
42.40 44.39 45.85 45.90 46.93 46.62 45.63 47.69 47.25 47.60 49.15 51.92 52.21 52.16 50.41 52.57 56.73 60.05 61.73 63.20 63.80 64.09 65.96 67.06 67.62 66.53 66.71 67.20 67.89 68.54 69.21 68.35 67.62 67.36 67.97 66.44 65.68 66.41 66.02 66.98 67.45 67.34 66.99 65.85 65.36 64.77 64.78 65.00 64.47
42.59 44.75 45.62 46.68 47.21 46.78 47.66 46.85 46.94 46.68 49.59 50.93 50.47 50.34 51.63 51.98 53.59 59.34 61.97 63.01 63.29 63.18 64.79 66.39 67.30 67.41 66.37 65.64 66.03 66.35 66.77 67.11 67.29 66.12 65.26 65.41 65.64 65.86 63.85 64.48 65.41 65.87 65.28 65.67 64.11 63.09 62.28 63.09 62.55
46.02 45.06 45.88 46.87 46.70 47.35 46.06 46.87 47.13 48.05 49.42 48.99 49.71 51.23 51.63 52.34 54.50 58.26 60.57 61.66 62.72 63.24 64.02 65.69 66.63 67.10 67.07 66.53 65.84 64.89 64.80 65.34 65.94 65.75 64.78 65.57 65.73 65.46 64.50 63.79 64.30 64.48 64.27 64.91 62.76 61.45 60.43 61.87 62.24
44.76 41.66 43.34 43.58 45.16 45.20 46.64 43.49 43.33 48.99 49.38 47.61 48.75 50.50 51.43 52.23 53.35 55.34 58.63 59.07 60.08 62.29 63.62 64.24 65.44 66.73 65.85 65.69 65.39 63.80 63.80 64.57 65.97 66.79 65.22 64.70 64.37 63.50 64.17 63.18 63.31 63.43 63.19 61.72 60.94 60.88 60.73 61.28 61.84
40.15 40.51 37.29 42.64 43.30 44.85 45.20 40.41 46.99 47.05 46.18 44.80 45.67 47.09 48.82 51.04 51.82 53.78 55.61 56.47 58.03 60.16 61.30 63.67 64.05 65.18 65.53 65.14 64.57 62.30 62.69 63.26 63.66 64.26 64.81 64.47 64.46 63.85 63.21 62.83 62.70 62.33 61.32 60.53 58.78 60.68 59.62 60.49 60.83
37.14 35.02 36.34 38.63 44.31 44.20 43.81 41.10 45.70 45.39 43.07 43.14 44.67 46.07 47.18 49.06 51.28 52.54 53.54 54.60 55.65 57.10 57.94 61.92 63.80 64.35 64.94 64.97 64.15 62.64 62.31 61.42 61.42 62.33 63.38 64.12 63.99 64.13 63.54 62.64 62.29 60.48 59.53 59.25 60.04 60.28 60.35 59.30 59.86
32.62 33.42 35.32 36.70 40.39 40.95 41.04 40.42 43.09 42.31 41.47 41.95 43.79 45.24 46.52 48.04 49.82 52.21 53.18 54.51 54.83 56.30 57.37 61.77 63.68 63.82 64.40 64.16 62.85 62.39 61.78 60.95 60.85 61.22 62.15 62.74 63.68 63.43 62.94 62.74 61.10 59.77 58.67 58.78 59.31 59.52 59.92 59.72 59.49
37.33 36.00 35.43 36.94 40.24 39.00 39.24 39.05 40.32 41.46 40.80 41.75 43.58 45.39 46.64 48.56 51.09 51.96 52.93 53.74 54.94 59.60 60.65 62.09 62.77 63.12 62.92 61.42 60.40 60.15 59.30 59.20 60.35 61.42 62.18 63.01 62.89 62.82 62.83 62.48 59.86 59.70 57.87 59.37 60.72 59.17 58.56 58.54 59.84
36.08 34.95 34.88 36.79 38.79 37.49 37.05 37.48 40.31 41.12 42.25 43.59 44.64 45.67 47.05 48.77 49.60 52.07 53.91 53.64 56.23 59.32 61.28 61.97 62.47 61.71 63.07 62.83 62.11 62.20 60.83 61.20 60.76 62.34 62.76 62.69 62.68 61.59 62.02 61.60 59.35 58.55 57.77 57.55 57.94 58.74 58.06 58.24 58.95
34.28 33.42 34.03 33.79 36.39 38.06 36.49 37.01 39.13 41.42 41.90 43.99 45.62 46.99 46.87 46.98 51.53 53.14 53.96 55.10 56.52 58.66 60.58 61.23 62.15 61.00 63.05 63.48 62.66 62.70 61.65 61.47 61.17 61.48 61.37 61.58 61.16 61.60 60.43 60.12 59.35 57.91 56.37 55.78 58.43 58.96 58.56 56.21 57.97
32.09 36.41 35.41 34.07 34.07 31.43 38.39 30.62 36.85 40.11 41.12 42.60 44.16 44.94 48.19 51.99 52.86 53.03 53.21 54.04 56.77 57.80 61.25 61.84 61.47 61.09 61.68 62.74 62.04 61.18 59.71 58.35 60.16 61.30 60.99 61.33 60.44 59.69 59.58 59.43 57.91 56.56 56.22 55.61 58.28 57.83 57.89 57.31 56.45
35.01 39.18 36.44 36.65 34.90 33.59 34.35 31.66 35.00 38.58 38.10 40.74 43.71 47.97 50.91 52.25 52.00 51.83 52.90 53.99 57.02 58.58 60.21 61.57 61.16 60.26 59.87 60.72 61.42 61.46 59.50 59.80 62.46 62.13 60.64 61.67 61.27 59.34 59.15 58.15 57.10 55.27 55.39 57.12 57.04 58.47 59.03 59.61 58.59
41.28 38.26 37.13 35.69 34.54 27.65 32.89 32.75 33.11 36.12 38.66 40.51 46.68 49.78 50.94 51.49 52.24 52.41 53.76 54.72 55.90 59.15 59.61 60.12 60.10 58.90 58.60 59.64 60.39 60.64 59.60 59.20 60.35 60.97 60.07 61.22 60.96 60.02 59.41 57.84 56.86 55.37 55.12 55.63 56.53 57.29 58.49 58.85 59.42
38.39 34.52 27.07 24.98 25.49 25.67 33.38 31.44 34.30 39.01 42.11 45.62 46.42 48.16 49.94 50.53 50.45 51.08 52.07 53.05 54.32 57.23 56.89 58.09 58.55 57.68 58.41 58.81 59.51 59.71 60.26 61.31 60.92 60.54 60.95 59.66 60.58 60.81 59.46 59.08 57.30 56.55 56.35 55.79 56.24 57.31 57.88 58.48 58.48
35.42 34.71 28.36 22.08 23.76 26.90 32.47 29.15 34.71 42.81 45.68 46.32 46.90 47.94 48.56 49.41 50.02 50.71 52.05 52.98 53.84 54.92 57.65 56.94 57.11 57.30 57.79 58.77 59.30 60.71 61.51 61.03 61.31 61.22 61.38 60.81 60.28 60.52 61.28 60.23 59.68 57.86 56.78 55.41 56.51 57.60 57.47 58.41 58.92
33.53 30.62 37.17 30.57 30.12 27.86 30.87 33.28 39.55 42.63 42.87 43.45 44.42 46.70 47.37 48.59 49.54 50.72 52.43 53.29 54.88 54.93 55.89 56.44 56.85 57.52 57.98 58.27 59.63 60.09 59.97 58.95 58.69 59.06 60.01 61.36 61.23 61.65 61.27 60.42 60.13 59.80 57.27 57.83 57.47 58.19 57.87 58.69 58.48
36.64 38.36 30.05 31.36 23.43 21.92 27.44 29.55 31.70 35.41 37.40 39.62 41.34 44.49 47.85 49.71 49.92 51.04 52.78 53.95 54.70 57.03 57.01 57.98 57.17 57.18 57.76 58.63 59.97 60.21 60.32 59.97 59.36 59.53 59.02 59.67 59.98 60.26 60.66 61.00 60.53 59.34 58.56 57.80 56.87 56.85 58.16 57.06 57.21
33.37 32.46 33.07 33.38 31.07 25.62 24.24 28.94 37.99 36.90 38.52 37.92 40.16 42.80 47.10 49.32 49.73 50.07 51.76 53.62 53.54 55.86 58.20 57.25 56.80 57.17 57.22 58.85 59.89 59.93 58.92 59.04 58.97 58.62 59.19 60.23 60.53 60.94 60.52 60.65 60.45 59.61 58.59 57.80 57.03 56.71 56.55 55.35 55.31
36.13 33.60 33.38 28.79 26.84 29.96 29.10 29.58 41.16 38.76 38.61 38.96 39.42 40.89 46.03 49.65 50.06 49.94 51.47 52.50 52.55 51.01 56.09 56.67 56.72 56.57 57.10 58.81 59.10 59.20 58.88 58.27 57.83 58.04 58.94 60.00 59.22 60.07 59.98 59.68 59.53 59.43 59.55 58.26 57.13 55.96 55.66 55.11 54.72

GFSSGP_sfc_wetblb_120.txt.gz
Wetbulb
62.16 60.12 59.97 58.77 50.55 50.42 47.61 49.16 52.00 50.81 51.18 54.43 54.91 55.07 54.24 54.46 52.64 50.12 65.58 70.84 71.63 70.97 73.34 72.68 71.02 71.51 72.32 72.51 72.86 73.49 73.84 74.07 73.87 73.67 73.39 73.42 73.53 73.58 73.53 73.61 73.29 73.33 73.15 73.32 72.80 72.48 72.53 71.89 71.90
62.46 57.65 59.29 56.33 47.81 45.16 46.80 51.24 50.19 51.88 52.53 53.77 54.25 54.38 53.30 52.76 56.79 60.57 65.57 71.83 72.09 71.96 73.29 73.47 70.55 71.23 72.05 72.71 72.40 72.95 73.74 74.03 73.55 72.77 73.52 73.40 73.36 73.37 73.28 73.16 72.47 72.20 72.51 72.70 72.41 72.38 71.99 71.54 71.14
59.52 58.33 54.44 50.51 47.80 44.79 45.92 51.13 52.13 52.31 52.98 53.36 53.62 55.63 54.72 54.25 59.94 61.94 66.48 72.32 72.13 71.92 72.77 73.20 70.16 70.56 71.06 72.22 72.04 72.26 72.62 73.18 72.74 72.67 73.27 73.28 73.36 73.37 73.16 72.32 71.50 71.99 72.56 72.80 72.15 71.74 71.34 70.78 69.99
57.08 56.20 53.29 46.66 45.93 48.15 48.12 51.94 52.76 51.46 52.44 53.79 54.35 52.43 55.63 58.91 61.40 65.03 67.81 71.90 71.52 71.58 72.03 70.23 69.28 70.27 71.01 72.22 72.20 72.02 72.18 72.57 72.40 72.44 72.79 73.18 72.59 72.49 70.17 69.55 69.24 70.19 71.52 71.20 71.47 70.69 70.65 69.56 68.84
56.21 54.23 47.20 45.88 46.61 48.18 50.44 52.92 52.89 50.81 51.29 52.36 53.23 52.94 54.09 59.89 63.92 67.06 67.76 70.27 70.63 71.79 72.58 73.26 68.80 69.92 71.25 72.33 72.20 71.46 71.51 71.46 71.97 72.15 72.18 72.42 71.76 69.61 67.45 68.80 68.20 68.06 69.48 71.20 70.97 70.39 69.30 68.61 67.87
50.89 52.00 45.33 44.12 46.26 48.15 49.74 51.64 51.27 50.40 51.66 52.16 51.73 52.54 55.12 61.95 63.60 66.79 68.92 70.01 72.24 72.66 73.27 73.37 70.18 69.61 70.34 71.41 71.59 70.38 70.42 70.45 70.85 71.58 71.69 71.46 69.98 69.15 69.08 68.83 68.67 69.06 68.80 70.15 69.59 69.29 68.57 67.72 67.29
50.18 48.79 45.61 46.13 46.23 46.63 48.30 51.55 50.27 50.56 51.30 51.65 53.69 51.87 56.06 58.62 63.61 67.95 69.69 71.22 72.59 73.85 73.41 73.55 72.20 71.52 69.32 69.50 69.73 69.43 69.36 69.54 69.91 70.43 70.15 69.30 68.58 68.56 68.59 68.75 69.40 69.19 69.29 69.25 69.02 68.37 67.59 67.14 66.25
51.84 49.75 46.30 46.58 45.14 46.31 49.62 50.58 52.45 51.72 51.17 53.55 54.26 52.40 54.17 57.38 63.55 67.96 70.46 71.41 72.02 73.08 73.45 73.20 72.82 71.52 72.54 71.74 68.76 68.47 68.65 68.36 68.85 69.25 68.35 67.70 67.74 67.65 68.17 68.27 68.79 68.81 68.78 68.76 68.43 67.52 66.72 66.18 65.05
53.08 46.78 45.41 46.59 45.96 47.85 49.73 49.05 52.19 53.23 51.81 52.00 53.37 54.13 56.08 59.00 62.54 64.67 66.77 69.94 70.63 71.57 72.91 73.43 72.90 71.74 72.34 71.63 71.34 69.14 68.81 68.65 68.13 68.74 67.57 66.96 70.91 70.41 69.36 67.82 67.57 68.54 68.04 67.95 67.59 66.70 65.76 64.79 64.01
49.54 46.85 47.11 50.48 49.98 48.53 49.17 49.99 50.87 50.12 50.49 51.23 53.13 55.91 57.70 57.93 60.23 60.38 61.88 64.84 68.70 70.01 71.44 72.93 72.89 72.22 71.62 71.08 71.54 71.84 71.74 72.68 72.75 72.60 71.67 70.75 71.12 70.54 69.01 67.59 67.06 67.74 67.28 67.26 66.79 65.83 64.74 64.84 66.54
49.45 46.40 50.31 49.11 49.75 50.46 49.38 49.38 51.28 49.54 48.44 51.24 51.65 54.10 56.23 57.26 58.84 60.07 61.88 63.15 65.78 69.27 70.71 71.90 71.90 72.33 71.57 70.63 70.83 71.37 71.03 72.06 71.78 72.11 72.21 71.45 70.51 70.56 68.90 68.15 68.14 68.56 67.47 66.16 66.78 66.24 66.97 67.72 66.43
46.28 49.14 49.51 49.92 50.44 49.80 49.09 51.08 49.72 50.70 51.40 54.13 54.97 55.96 56.17 56.13 57.26 58.29 60.34 62.67 64.46 67.30 69.65 71.52 71.73 70.27 70.78 70.05 70.03 70.56 71.96 71.09 72.32 71.70 72.19 71.47 69.71 68.76 67.82 67.56 66.26 68.05 68.18 67.54 67.27 65.87 66.63 66.27 65.67
47.32 48.29 49.81 50.38 50.46 50.56 51.09 49.74 49.88 50.98 53.68 54.66 54.93 55.57 55.54 56.38 57.19 58.22 61.10 63.31 64.80 65.84 67.93 69.74 71.57 70.38 69.60 69.39 69.72 69.77 70.51 71.63 71.66 71.40 71.44 71.12 69.26 68.09 67.64 66.62 67.51 66.87 68.12 68.13 66.08 65.54 65.55 65.78 65.04
48.98 48.61 48.90 49.80 49.55 50.00 48.42 49.06 50.53 51.92 54.39 53.75 54.13 54.79 55.89 56.01 56.57 58.22 59.92 61.25 62.21 64.10 65.95 68.73 70.11 71.01 70.10 68.39 68.73 68.80 69.62 70.44 70.38 69.93 70.12 70.86 69.14 67.30 65.50 65.17 68.37 65.54 66.71 66.87 64.96 65.47 65.36 65.61 65.52
48.27 45.19 47.15 48.37 49.32 49.14 50.84 47.64 48.34 52.68 53.65 52.96 53.01 53.73 54.51 54.39 55.08 56.35 58.39 58.60 59.64 59.96 61.09 65.36 67.81 70.14 70.74 70.12 67.87 67.55 68.23 68.55 69.52 68.85 69.51 69.86 68.53 68.18 66.39 64.94 65.45 65.34 64.82 64.63 64.23 64.82 64.78 64.60 64.66
43.85 45.20 41.64 46.96 48.05 48.89 48.98 43.69 49.43 52.51 51.42 51.32 50.61 50.32 51.11 52.73 53.42 54.97 56.54 57.26 58.03 59.06 59.71 61.99 64.24 67.61 69.73 70.22 70.64 68.50 67.58 66.71 67.78 69.42 68.02 68.49 67.71 67.06 65.75 65.01 64.16 65.40 64.07 63.12 62.26 63.64 63.44 63.98 63.67
41.72 38.22 41.07 43.15 47.62 47.80 47.25 45.20 49.12 51.57 49.39 48.80 49.23 49.60 50.12 51.64 53.47 55.35 56.01 56.87 57.84 59.08 59.57 61.04 63.14 65.83 67.91 69.33 69.98 69.95 69.24 66.99 66.80 69.18 68.41 66.89 66.29 66.62 64.74 64.63 63.58 64.87 62.70 61.43 60.70 62.19 63.86 63.15 63.20
36.86 37.85 39.49 40.56 45.49 46.40 45.50 45.55 48.33 49.10 48.85 48.56 48.08 47.96 49.70 50.65 51.88 54.17 55.54 58.24 59.51 60.81 60.55 60.90 61.13 64.63 67.03 68.42 68.86 67.81 65.76 64.52 65.52 66.57 66.89 67.66 66.36 64.78 64.54 63.92 63.30 63.30 61.60 60.27 60.36 60.57 63.49 63.58 63.52
39.85 38.95 38.52 41.80 44.34 43.35 43.35 44.26 45.81 47.65 47.40 46.02 46.43 48.81 50.07 51.40 53.15 54.43 58.38 60.53 61.57 62.50 62.39 63.14 63.42 65.08 66.51 66.02 65.55 63.68 62.38 62.17 62.81 64.25 65.19 64.22 65.58 64.74 63.80 63.27 62.67 61.59 60.51 60.05 60.82 60.78 63.10 62.13 63.19
39.04 37.26 37.46 40.28 42.76 41.75 41.92 41.79 44.67 45.38 46.12 47.46 47.97 48.96 50.31 50.73 52.38 56.15 58.49 59.96 60.92 62.57 63.21 63.81 64.38 65.61 66.34 65.03 64.85 64.48 63.70 63.56 63.59 62.87 64.20 63.52 64.13 64.87 63.67 63.20 62.00 61.06 60.06 59.64 59.85 60.45 61.56 61.99 63.28
38.60 37.27 37.23 36.59 39.68 40.48 39.79 38.87 41.74 45.37 46.99 47.79 49.00 49.74 49.79 51.83 54.00 56.07 57.77 59.19 60.56 61.80 63.35 63.60 64.62 65.28 65.41 66.14 64.26 65.06 64.18 63.92 61.61 62.11 62.10 63.09 65.02 65.42 64.39 63.21 61.49 60.40 60.01 58.39 58.83 60.10 59.66 60.34 61.73
35.81 40.83 38.83 36.75 35.54 33.19 41.18 33.70 40.49 43.34 44.04 46.19 47.15 48.24 52.04 54.21 55.50 56.25 57.09 58.16 59.29 62.01 63.95 64.18 64.57 64.52 62.96 64.53 63.44 64.31 63.47 62.56 63.55 63.46 63.79 64.41 65.09 64.51 62.96 62.15 61.65 60.23 59.96 59.03 58.45 59.49 60.50 62.80 60.40
37.55 40.61 38.46 37.60 37.17 36.73 37.89 35.32 39.42 42.28 42.09 43.77 46.99 50.82 53.05 54.74 55.05 54.73 55.88 57.60 58.86 61.32 63.30 64.17 64.15 62.38 62.52 63.44 65.41 65.10 64.92 64.68 64.61 62.41 63.09 63.88 62.15 62.27 63.00 61.63 59.62 59.75 59.37 59.36 58.90 59.31 62.54 62.99 61.64
41.14 38.78 39.13 39.07 37.60 31.47 36.85 36.42 37.38 39.96 41.90 43.47 49.15 51.03 52.27 52.63 53.70 54.78 56.33 57.74 58.37 60.13 61.74 61.89 61.72 61.48 61.82 62.76 64.79 64.93 65.16 63.93 63.56 62.70 63.26 63.31 60.50 60.12 60.25 58.90 58.37 57.99 58.25 58.20 58.35 58.91 61.48 62.50 62.79
38.53 35.48 29.32 27.04 28.48 28.80 37.81 35.20 37.70 42.40 45.19 47.67 48.39 49.74 51.01 52.63 53.53 54.40 55.24 56.45 57.80 59.15 59.89 60.44 59.15 59.64 60.17 60.81 62.83 63.96 63.84 63.72 62.72 62.98 62.84 62.52 60.73 58.86 58.18 58.31 56.96 56.72 57.02 57.35 58.30 58.31 61.90 62.02 62.47
36.17 35.87 28.92 22.10 26.38 30.92 36.97 32.17 37.84 46.66 48.07 48.48 48.53 48.86 50.46 51.95 53.22 53.71 55.33 56.91 57.91 59.10 61.25 60.84 60.41 58.76 59.61 59.78 60.85 62.61 63.44 62.44 62.32 63.20 62.91 62.30 61.31 60.69 60.00 58.58 57.47 55.92 55.88 56.59 57.03 57.86 60.81 62.49 62.99
35.13 32.71 39.63 32.26 32.89 29.53 34.35 38.38 43.37 45.34 44.16 45.10 46.01 47.43 49.62 51.33 52.30 53.35 54.35 56.42 57.31 57.82 59.17 61.36 60.57 60.28 59.32 59.08 60.10 61.11 62.27 63.86 63.15 63.70 63.78 64.04 62.41 61.49 61.57 60.69 58.67 57.46 55.86 55.50 56.72 58.01 59.21 60.26 62.48
37.52 39.76 31.34 32.77 24.22 24.16 31.55 33.86 35.58 39.95 39.83 40.51 40.82 42.05 45.48 49.27 51.10 52.66 53.82 55.25 56.13 56.84 57.26 56.54 61.31 59.63 59.36 58.97 59.73 62.01 62.72 63.84 63.88 63.22 63.76 63.77 62.32 62.15 61.11 60.09 59.73 58.66 58.06 56.63 56.47 57.12 58.26 59.21 59.65
34.80 34.42 34.39 34.87 33.11 27.05 27.10 32.15 43.40 41.66 41.35 39.89 41.17 41.89 43.72 46.79 49.67 52.08 53.69 54.39 55.33 56.68 56.84 55.47 56.69 58.42 58.31 58.95 59.08 61.63 61.82 62.49 63.18 60.95 61.23 61.77 61.15 60.69 60.35 60.63 59.93 59.27 58.59 58.62 57.43 56.43 57.27 58.67 59.36
36.51 34.05 34.56 30.62 29.44 33.69 33.02 32.56 44.30 44.57 42.98 41.46 41.74 42.42 43.85 45.22 50.28 51.91 52.94 54.14 54.70 55.23 55.64 55.04 52.07 57.53 58.12 58.84 59.10 60.53 61.90 62.14 62.25 61.19 61.54 61.60 60.59 62.57 62.28 60.93 60.45 59.79 57.83 57.98 57.62 56.58 57.99 59.67 59.00

GFSSGP_sfc_wetblb_123.txt.gz
Wetbulb
63.14 62.18 60.17 58.27 51.16 50.70 47.74 49.99 53.32 52.17 52.95 56.17 56.95 56.80 55.48 56.24 54.18 51.96 63.80 69.05 69.06 69.75 73.10 72.74 71.45 72.28 72.51 72.80 73.15 73.78 73.93 73.96 73.77 73.78 73.65 73.45 73.85 73.92 73.83 73.84 73.01 73.04 73.09 73.06 72.91 72.61 72.51 72.32 71.88
64.09 59.63 58.29 55.95 48.41 46.11 47.91 52.17 51.32 53.18 55.47 56.62 56.17 57.26 54.56 53.37 57.58 59.68 63.91 71.12 70.10 69.92 72.89 73.51 70.99 71.94 72.64 73.03 73.03 73.86 74.19 73.99 73.76 73.73 73.40 73.49 73.68 73.71 73.73 73.55 72.74 71.73 72.57 72.76 72.61 72.39 71.70 71.80 71.32
62.83 58.39 54.48 51.78 48.64 46.00 47.37 51.90 52.96 54.90 55.27 55.32 55.17 57.29 56.37 55.14 58.91 60.85 66.38 71.07 69.86 69.76 71.63 73.56 70.42 70.82 72.31 72.67 72.68 73.28 73.55 73.43 73.30 73.07 73.09 73.13 73.47 73.50 73.44 71.55 71.11 71.19 71.70 72.44 72.24 71.58 71.67 71.06 70.33
58.88 55.79 54.59 48.53 47.24 50.02 49.88 52.12 54.31 53.50 54.46 55.99 56.49 53.77 57.32 59.99 60.98 62.70 66.71 69.69 69.19 69.52 70.67 69.74 69.68 70.22 71.74 72.45 72.51 72.56 73.09 72.59 72.46 72.54 72.98 73.32 73.30 73.14 71.35 68.75 68.87 68.25 68.87 70.22 71.19 70.84 70.59 69.74 69.25
57.85 54.86 49.22 47.49 47.62 50.16 51.94 53.25 54.99 53.31 53.66 54.42 55.92 54.00 55.16 59.78 63.87 65.46 66.49 68.88 68.74 69.80 72.05 73.05 69.13 70.15 71.46 72.35 72.25 71.95 72.09 72.18 71.87 72.41 72.52 72.56 72.70 71.87 69.95 66.68 66.07 67.20 65.26 68.35 69.66 70.25 69.74 68.94 68.37
52.21 52.80 47.22 46.07 48.11 50.91 51.98 53.10 54.12 53.71 53.95 54.80 53.84 54.72 56.40 63.54 62.74 65.52 67.45 68.77 70.68 71.17 72.52 74.31 70.11 70.13 70.94 71.75 71.60 70.83 71.08 71.20 71.44 71.82 71.99 71.92 71.64 70.22 66.66 68.13 68.30 68.40 68.80 68.67 69.46 69.27 69.03 68.29 67.90
51.38 50.96 47.75 48.58 48.69 49.71 50.83 53.48 51.80 52.50 53.04 53.86 55.99 53.22 57.05 60.28 63.47 66.86 68.52 69.45 72.00 73.56 73.86 74.04 72.98 71.57 69.87 70.00 70.23 69.49 69.78 69.94 70.72 70.59 70.46 70.68 69.05 67.75 68.26 68.67 68.58 68.70 68.73 69.00 69.24 68.54 67.58 67.68 66.92
53.74 52.20 48.46 49.42 48.22 48.86 52.93 52.16 53.06 52.01 51.88 56.52 56.04 52.66 54.69 59.65 63.31 66.68 69.39 70.16 72.21 73.66 74.58 73.98 73.54 73.14 72.61 72.69 69.18 68.56 68.60 68.62 69.50 69.94 69.26 68.18 67.88 67.61 68.43 68.25 68.33 69.06 69.39 69.00 68.86 67.62 66.86 66.19 65.68
56.03 48.73 46.96 48.60 49.05 50.15 53.39 50.39 53.61 54.91 53.08 53.89 55.50 55.54 58.50 59.14 61.19 64.37 67.53 69.53 70.93 72.31 73.89 74.10 73.71 73.28 73.58 73.06 71.93 69.46 68.70 68.47 68.50 69.70 68.05 67.17 71.11 70.14 69.66 68.18 68.24 69.20 68.73 68.57 68.11 66.84 66.04 64.99 64.64
51.80 48.85 48.73 52.46 52.94 51.87 52.41 51.06 52.45 51.76 52.15 52.47 54.00 56.57 57.84 58.40 59.17 60.50 61.55 64.32 68.45 70.08 72.07 73.45 73.92 73.37 73.33 71.46 72.73 72.33 72.36 72.06 72.02 72.56 72.57 72.33 72.14 71.30 69.84 68.24 66.98 68.20 67.95 67.80 66.93 66.06 64.54 64.99 66.00
52.20 48.03 51.92 52.58 53.61 53.11 51.97 51.67 52.97 51.93 50.51 52.60 52.26 54.36 57.00 57.97 58.83 59.67 60.73 61.71 63.55 68.47 70.89 72.35 73.48 73.85 73.21 71.90 71.60 71.52 71.94 71.92 71.95 72.35 72.86 72.76 70.92 71.43 70.65 70.45 68.38 69.23 67.44 68.40 67.45 65.81 67.27 67.75 67.09
49.16 51.54 51.86 52.30 53.26 51.86 50.75 52.85 51.53 52.06 52.31 54.88 55.48 56.20 56.49 57.03 57.87 58.63 59.49 60.91 62.34 64.64 69.06 71.74 73.01 73.31 73.05 72.57 70.93 71.51 71.81 72.19 72.28 72.03 73.76 72.61 71.45 71.56 69.62 70.01 69.43 68.10 68.35 68.25 67.21 66.20 65.78 67.09 67.08
49.09 50.30 51.50 52.26 51.93 51.82 52.26 50.89 51.33 52.30 54.83 55.63 56.05 56.17 56.30 56.88 57.64 58.94 60.17 60.85 62.85 63.99 66.94 70.43 72.61 72.94 72.44 72.62 70.80 71.15 72.29 71.57 72.18 72.54 73.47 73.03 71.07 69.98 69.88 69.52 67.44 67.63 68.90 67.01 67.14 66.43 66.89 66.20 64.91
50.68 50.26 50.57 51.27 51.05 51.50 49.76 50.18 51.27 52.64 55.09 54.80 54.92 55.72 56.43 57.06 57.96 59.17 59.49 60.06 61.48 63.90 65.90 69.03 70.79 72.46 72.36 71.60 70.23 70.63 72.59 72.46 72.14 72.61 72.12 73.37 71.54 70.83 68.97 68.87 69.07 68.07 68.48 67.10 65.44 66.84 63.81 64.63 65.08
49.85 47.07 48.84 49.51 50.62 50.11 51.52 48.42 48.82 52.77 54.08 53.65 54.44 55.33 56.29 56.78 57.76 58.06 59.50 59.70 60.81 62.18 63.79 65.97 68.65 70.58 72.03 71.02 69.69 69.91 71.40 72.16 72.09 72.16 73.44 72.66 71.87 70.74 69.61 68.10 68.57 67.43 66.32 64.84 64.54 66.51 63.29 63.15 64.18
46.16 46.69 42.94 48.22 49.21 49.68 49.50 44.13 50.70 53.78 53.56 53.17 54.11 55.10 55.17 55.95 56.38 56.76 58.25 59.39 60.15 60.88 60.93 61.79 61.80 68.37 70.80 71.82 70.40 68.72 69.71 70.47 71.73 71.36 71.05 71.89 71.97 70.57 69.84 68.10 67.50 66.87 65.15 64.07 63.30 63.01 62.53 63.28 64.14
44.01 39.69 42.40 44.88 49.50 49.09 48.24 45.41 50.26 52.77 52.73 52.26 53.34 53.67 53.45 53.78 55.05 55.97 56.88 57.72 58.44 59.41 59.40 61.36 63.37 66.06 69.28 70.87 71.35 70.66 68.53 68.25 69.36 71.17 70.42 68.94 70.23 69.98 68.71 67.47 66.02 66.37 66.15 63.60 62.65 62.08 61.81 63.19 62.97
37.75 38.92 41.39 41.54 44.81 46.98 45.72 46.44 49.53 51.84 51.71 51.81 51.57 52.04 51.69 51.61 52.73 55.06 55.79 56.65 59.12 62.00 62.82 63.55 63.13 65.31 66.75 69.25 70.86 71.08 69.94 68.54 67.17 68.64 70.34 70.12 70.03 69.30 68.44 66.52 65.54 66.39 64.08 62.82 61.86 60.88 61.87 63.76 63.63
41.13 39.94 38.90 42.33 44.93 43.72 44.34 45.19 47.35 50.06 50.95 50.37 50.88 51.16 50.77 51.21 53.31 55.00 56.21 58.88 60.44 62.22 63.33 63.33 63.60 65.50 64.02 65.06 66.84 68.79 68.61 66.87 65.59 66.91 70.14 69.18 68.07 68.65 66.39 66.21 64.79 63.81 62.29 61.27 61.26 60.62 59.97 62.04 62.93
41.64 39.45 39.15 41.60 42.95 41.87 42.06 42.48 45.46 47.27 48.96 49.60 49.80 49.67 49.81 51.48 53.17 54.27 57.05 59.22 60.87 61.73 63.29 64.88 64.70 65.02 65.13 65.25 66.92 68.40 67.98 63.77 63.92 65.37 67.64 68.31 67.84 66.61 66.35 65.58 63.33 63.65 61.83 60.82 60.39 60.13 59.01 59.52 62.63
39.88 38.98 39.11 38.30 40.79 42.07 41.49 39.87 41.78 44.63 46.53 48.19 49.22 49.75 50.79 51.57 52.42 54.99 56.86 58.67 60.56 61.37 63.62 64.75 64.74 65.49 66.17 66.81 67.21 65.40 64.32 63.38 62.48 63.80 64.33 66.45 65.98 66.77 66.22 64.90 63.26 62.42 61.95 60.36 60.17 60.24 59.05 57.83 60.45
37.90 42.40 40.40 38.88 37.78 33.87 41.67 32.78 39.95 42.70 44.53 46.45 48.14 49.36 50.75 52.71 55.11 55.77 55.85 57.24 59.54 61.39 64.00 65.39 65.56 65.64 66.35 67.17 66.34 63.87 62.22 61.35 61.87 62.78 63.76 65.52 65.69 65.69 65.59 65.68 63.75 61.78 61.76 60.40 60.26 60.70 59.98 59.09 58.62
39.35 43.06 40.71 39.71 37.43 37.53 37.43 35.30 39.23 43.62 42.82 44.50 47.08 49.18 52.25 54.62 54.70 54.65 55.49 57.07 58.75 61.21 62.03 63.71 65.52 65.51 65.61 65.65 65.93 63.81 62.88 64.59 64.95 65.59 64.15 64.28 65.03 65.76 65.98 65.68 63.91 61.75 60.92 60.50 60.24 60.19 59.54 59.79 59.80
43.62 41.08 40.00 39.12 36.70 29.54 35.99 36.24 37.54 40.50 43.40 45.31 47.53 51.14 53.21 53.79 54.00 54.76 56.18 57.55 58.48 61.43 62.53 62.42 63.01 62.95 62.82 63.35 64.05 63.64 63.31 64.85 64.64 64.15 63.50 64.30 65.14 65.02 64.94 64.63 63.16 62.43 60.55 59.81 59.90 60.15 59.21 59.41 60.26
40.66 36.32 28.11 26.10 26.88 28.45 38.11 35.66 38.05 42.90 45.18 46.60 48.23 51.20 52.00 53.47 53.84 54.20 54.92 56.51 58.13 59.47 61.01 62.38 62.00 61.56 62.10 62.51 63.47 63.66 64.41 64.06 65.10 63.35 63.26 63.75 61.80 61.49 62.01 62.11 60.71 60.30 60.28 59.69 59.45 59.40 59.12 58.99 59.50
38.91 37.26 28.72 22.37 26.05 31.12 37.96 32.73 38.54 44.18 49.08 50.72 51.47 51.48 52.21 52.78 53.80 53.98 54.55 56.06 57.25 58.41 59.12 60.79 61.86 61.29 61.03 62.41 62.17 62.43 64.11 64.15 65.19 64.73 64.04 64.23 62.77 61.42 61.47 60.11 59.05 59.01 58.46 58.60 59.22 59.30 59.21 59.25 59.38
38.18 34.58 39.40 32.02 33.87 29.90 34.94 38.95 44.00 47.12 47.16 48.00 48.95 49.78 50.24 51.29 52.38 52.97 54.02 55.30 56.78 56.67 57.86 59.03 61.06 61.73 60.76 60.53 62.05 61.17 62.06 63.84 64.90 64.76 63.86 64.53 64.08 62.82 61.23 59.95 58.18 57.51 57.32 57.80 58.26 58.34 58.84 59.41 59.72
38.48 41.54 31.43 31.85 24.17 23.43 31.96 33.64 36.25 41.96 43.05 45.71 45.31 45.12 46.25 48.07 49.39 51.34 53.46 54.51 55.32 56.78 57.77 58.64 59.34 61.19 61.56 61.04 61.19 60.52 60.89 62.93 63.92 64.50 64.42 64.48 64.81 63.16 61.05 60.23 58.39 56.34 56.28 56.64 56.98 57.72 58.37 58.71 59.33
34.30 34.45 36.28 35.57 32.66 27.50 26.54 31.15 42.27 43.45 42.84 42.50 43.02 43.61 44.95 45.32 46.40 49.68 52.42 54.44 55.59 56.72 57.44 57.43 57.87 57.78 60.04 60.30 60.49 60.44 60.61 62.19 63.22 63.20 63.81 64.32 64.36 63.53 62.51 60.16 58.53 56.84 55.61 56.22 56.28 56.88 57.58 57.89 58.43
37.72 35.31 33.68 31.43 29.58 33.04 32.83 32.56 43.88 45.22 44.58 44.92 43.95 44.02 44.83 45.75 46.22 48.01 52.10 53.65 54.69 55.52 56.06 56.10 55.86 56.45 56.79 59.41 59.52 60.17 59.83 61.71 61.29 62.26 63.09 64.35 63.30 63.85 62.10 60.40 59.70 57.93 56.80 55.85 55.69 55.55 56.48 56.80 57.71

GFSSGP_sfc_wetblb_126.txt.gz
Wetbulb
62.85 61.64 59.98 56.86 48.92 49.53 45.78 47.43 52.22 51.81 52.35 56.01 56.43 56.48 54.58 55.96 53.81 51.74 65.34 68.44 70.35 70.21 71.37 71.52 71.79 72.65 73.01 73.27 73.56 74.10 73.77 73.93 73.86 73.86 73.95 73.89 73.80 74.05 74.18 73.87 73.49 73.26 73.37 72.85 72.85 72.94 72.65 72.13 71.70
61.38 61.04 58.22 53.00 46.78 43.89 45.52 50.83 49.99 52.66 55.20 56.78 56.20 57.14 55.11 53.49 58.03 61.51 64.80 69.08 70.22 71.75 71.64 71.36 71.34 72.16 72.84 73.09 73.32 73.86 73.94 73.88 73.55 73.86 73.81 73.85 73.62 73.81 73.84 73.49 72.43 71.40 70.48 71.73 72.79 72.81 71.81 71.61 71.25
61.53 62.52 51.54 49.87 46.87 44.06 45.57 50.42 52.64 54.44 55.82 55.64 54.48 56.53 56.01 54.45 59.28 61.14 67.18 68.60 68.93 70.79 71.85 71.44 70.64 71.40 72.44 72.78 73.21 73.54 73.59 73.22 73.17 73.24 73.60 73.78 73.74 73.16 73.62 72.26 70.96 67.96 65.61 66.02 69.77 71.19 71.27 70.33 70.15
58.28 57.28 52.24 46.30 45.43 48.86 48.95 51.36 53.09 54.01 54.66 55.23 55.60 53.26 56.97 60.50 59.94 63.72 67.03 67.27 67.82 68.78 72.97 69.26 69.73 70.67 72.13 72.39 72.90 73.36 73.33 72.93 72.79 72.73 73.17 73.41 73.45 72.78 71.93 70.52 69.77 67.41 66.60 67.96 69.02 68.89 69.84 69.66 69.21
57.63 53.61 46.96 45.79 45.92 48.40 50.58 52.19 54.09 52.99 53.45 53.70 54.54 53.15 54.99 60.08 63.23 65.33 66.80 66.60 67.69 70.02 71.92 70.67 69.12 70.35 72.00 72.49 72.55 72.33 72.54 71.90 72.02 72.16 72.54 72.92 72.71 72.52 69.66 69.52 68.86 66.56 66.12 66.22 67.48 68.83 68.69 69.11 68.62
52.58 52.37 45.02 43.94 46.71 49.90 51.90 53.40 52.89 53.40 54.34 54.17 53.74 54.09 56.16 61.34 63.06 64.88 67.63 67.93 70.82 72.45 72.69 70.99 69.92 70.04 71.27 71.60 71.47 71.04 71.36 71.25 71.21 71.34 71.99 72.11 71.95 70.34 67.60 67.50 68.18 67.03 66.51 67.63 69.01 69.12 68.97 68.39 68.18
50.80 48.89 45.69 46.38 47.22 48.97 51.56 54.01 51.75 51.92 53.25 53.24 55.53 52.37 56.47 60.21 64.80 68.12 67.84 69.67 72.64 73.18 73.31 71.71 70.68 70.50 70.19 70.38 69.95 69.58 70.14 70.01 70.60 70.94 71.11 70.78 69.62 67.92 67.52 67.96 67.50 67.37 68.13 68.79 69.09 68.73 68.04 68.06 67.58
52.79 50.46 46.52 47.73 47.27 47.78 52.78 53.77 53.68 51.82 51.45 55.71 56.62 51.94 54.18 60.94 64.92 68.65 69.39 70.59 72.36 73.73 73.85 72.18 71.56 70.79 71.12 71.02 69.26 68.69 68.89 69.04 69.66 70.36 69.87 68.58 67.77 66.87 67.14 68.21 68.38 68.82 68.79 68.59 69.05 67.91 67.37 66.86 65.89
55.21 47.41 45.08 46.60 47.68 49.52 53.46 52.24 53.51 54.32 52.22 53.12 55.90 55.72 58.18 59.85 62.49 65.09 67.81 69.00 70.71 73.05 73.50 73.18 71.91 71.28 71.54 71.32 70.80 68.79 68.88 68.85 69.13 69.84 68.90 67.12 69.68 67.20 68.13 67.57 67.55 68.66 68.45 68.75 67.30 66.65 66.05 65.49 64.95
50.33 47.07 46.87 50.83 51.56 51.06 52.76 53.23 51.87 51.60 51.57 51.88 54.04 56.40 58.53 58.63 58.96 61.09 63.59 65.78 68.16 70.14 72.57 73.23 72.49 71.78 71.95 71.07 71.24 70.91 70.57 70.17 70.33 70.68 70.23 70.91 70.38 69.20 68.12 67.43 66.98 68.43 68.31 67.78 66.88 65.93 64.95 65.10 64.67
50.32 46.39 50.03 51.13 52.78 53.28 52.15 52.19 53.66 50.97 49.66 52.21 51.94 54.21 56.27 57.10 58.50 59.94 61.55 62.86 66.78 69.69 70.97 72.22 72.98 72.50 71.87 70.26 71.63 70.54 70.75 70.48 70.45 70.88 71.12 70.73 70.58 69.82 68.12 68.26 67.20 68.13 67.21 67.17 66.36 64.90 64.90 66.34 64.93
47.07 50.49 51.41 51.76 52.87 52.11 50.91 52.78 51.40 51.53 51.70 54.74 54.91 55.43 55.94 56.08 57.14 58.84 60.92 61.73 61.77 67.01 70.04 71.61 72.66 72.45 71.60 71.39 70.38 70.48 70.34 70.33 70.21 70.09 70.82 70.62 70.04 69.24 68.53 67.23 67.36 67.02 66.70 66.37 65.74 64.78 65.23 65.37 65.25
47.82 49.21 50.49 51.77 52.27 51.89 52.21 50.38 50.60 51.14 53.99 55.36 55.30 55.58 55.83 56.35 57.53 59.63 60.61 61.69 62.60 63.07 68.50 70.69 72.08 72.15 71.54 71.51 70.14 69.71 70.11 70.21 70.35 70.43 70.50 70.99 69.75 68.52 67.96 67.44 66.94 66.32 66.22 65.90 65.36 65.08 64.50 64.75 64.94
49.75 49.60 49.59 50.60 50.65 51.30 49.71 50.09 50.56 51.62 54.04 54.22 54.92 55.29 56.02 56.52 57.03 58.79 59.66 58.91 60.40 62.95 65.43 70.80 70.90 71.98 71.77 70.70 70.34 69.14 69.79 70.53 70.55 70.59 70.37 71.04 69.96 68.77 68.03 67.64 66.83 65.87 65.89 65.96 65.54 64.76 64.13 63.63 63.71
49.47 46.56 48.60 49.13 49.77 49.32 50.74 47.30 47.98 51.84 52.79 52.32 53.30 54.40 55.40 56.02 56.95 56.52 58.44 58.36 59.70 61.52 64.84 68.62 70.25 71.72 71.27 70.84 71.16 69.49 69.38 70.75 69.81 69.92 71.26 70.67 70.62 69.60 68.03 67.18 66.50 65.80 65.67 65.36 64.95 63.42 63.65 62.80 63.15
44.80 45.73 41.59 47.14 48.66 49.48 48.93 43.21 49.15 52.48 52.16 51.55 52.48 53.46 54.68 55.89 56.58 57.65 58.77 58.96 59.61 61.39 62.63 66.07 68.10 68.98 71.20 70.44 69.96 68.84 68.55 69.89 70.50 69.95 70.44 70.79 70.69 69.52 68.17 67.02 66.43 66.38 65.34 64.08 63.45 62.69 61.71 61.65 61.29
42.07 38.22 40.75 43.52 48.62 48.09 47.46 44.46 48.88 51.38 51.11 51.24 52.58 53.35 54.02 55.17 56.87 57.48 58.10 58.38 59.12 60.46 61.44 62.49 63.73 67.10 68.24 69.95 69.67 68.81 68.45 68.57 69.33 70.60 70.26 70.20 70.26 69.40 68.22 66.99 66.50 66.16 64.44 63.13 62.41 62.25 61.91 60.73 60.83
37.30 38.47 40.63 40.92 45.13 45.73 44.16 44.31 47.62 50.01 49.86 50.71 52.00 52.97 53.67 54.15 54.41 55.88 56.61 58.10 60.36 61.17 61.51 61.43 61.80 62.42 64.39 67.83 69.55 69.27 68.51 68.07 68.50 68.37 69.93 69.21 68.97 69.33 68.23 67.18 66.40 65.83 63.89 62.78 62.23 61.53 61.71 61.43 61.22
40.74 39.47 38.63 42.19 44.73 42.82 41.42 42.73 45.81 48.09 49.48 49.20 51.13 52.03 51.66 52.76 53.68 54.27 57.15 58.20 59.45 61.80 62.06 62.56 62.84 62.99 62.68 63.68 65.19 66.54 67.19 67.28 67.22 67.39 67.84 69.11 68.01 68.34 68.18 66.63 65.54 65.27 63.50 62.46 62.23 61.59 60.25 59.92 61.15
40.60 39.19 39.26 42.24 43.87 42.52 41.09 41.23 44.16 45.57 46.40 47.55 46.75 50.62 50.95 52.10 51.71 53.22 56.05 59.29 60.00 61.10 62.42 62.27 63.69 63.92 64.20 61.89 61.43 64.78 66.59 68.51 67.40 66.80 66.93 67.32 68.34 68.10 67.35 65.85 64.66 64.72 63.22 62.19 61.78 60.95 59.40 59.51 60.21
40.39 38.47 38.97 38.29 41.56 42.82 40.90 38.67 41.19 44.18 45.66 46.86 47.04 48.10 51.19 50.12 50.11 53.82 56.79 58.15 60.35 60.94 63.20 63.39 64.24 64.28 64.31 63.81 62.73 65.00 65.84 64.83 63.17 64.02 64.79 66.05 67.09 66.65 66.34 65.99 64.26 63.77 62.79 61.32 61.18 60.53 59.35 57.17 58.74
37.00 41.75 41.11 39.80 38.08 33.24 40.73 31.07 38.87 41.80 42.67 44.94 45.83 46.43 48.79 51.24 53.63 55.27 56.31 57.26 59.12 60.47 62.14 63.76 64.26 65.01 64.99 65.49 64.00 64.08 63.02 61.57 62.45 63.01 63.47 64.21 65.59 65.32 65.41 65.03 63.85 63.04 62.74 61.23 61.05 61.00 60.00 58.48 56.92
38.89 42.68 40.74 40.27 37.91 36.67 37.10 34.01 37.49 41.62 40.74 43.28 45.28 46.99 48.99 51.69 54.39 54.59 55.25 56.95 59.21 60.94 61.48 62.55 63.34 63.61 65.15 65.06 64.86 64.88 63.11 63.33 63.03 62.77 62.11 62.80 63.78 64.32 64.50 64.50 63.84 62.56 62.56 61.37 60.94 60.72 60.08 59.22 57.80
43.42 40.09 39.75 39.87 37.18 29.59 35.09 34.59 34.86 38.57 41.12 44.42 46.95 48.48 50.95 53.61 53.75 54.83 56.12 57.74 58.06 60.86 61.49 62.39 61.92 61.65 62.77 62.56 62.58 64.47 63.33 62.42 61.56 61.84 61.70 62.08 62.68 63.75 63.71 63.56 63.92 62.65 61.99 61.42 60.71 60.75 60.36 59.31 58.54
41.36 36.92 29.13 26.48 27.26 26.86 36.66 33.80 36.22 42.00 44.25 46.36 46.28 48.94 52.52 53.18 53.10 53.87 54.56 55.04 56.67 58.17 59.50 58.92 59.74 60.31 62.21 62.51 62.57 63.03 63.55 63.31 62.80 63.18 62.74 62.14 62.54 62.90 62.96 63.49 63.54 62.32 61.40 61.18 60.89 60.42 60.40 59.13 58.59
38.10 34.91 29.42 21.84 23.65 28.89 37.05 31.03 36.39 44.50 45.73 49.04 49.02 51.54 52.08 52.43 53.66 54.12 54.71 55.02 56.12 57.16 57.67 58.34 58.00 59.45 61.49 61.57 61.31 62.34 62.93 63.44 63.55 63.04 62.78 62.45 62.65 62.01 61.79 61.69 61.69 61.75 61.19 60.69 60.36 60.14 60.14 59.63 58.78
36.93 33.67 39.22 31.90 33.40 28.70 31.81 37.53 42.66 45.23 45.61 48.55 49.47 50.42 50.61 51.95 52.62 53.30 54.48 54.73 55.67 55.73 57.29 57.73 57.50 57.75 59.91 60.97 60.74 61.39 62.01 62.68 63.17 63.29 63.29 63.11 62.87 61.85 61.39 60.17 59.31 59.20 59.64 59.71 59.27 59.33 59.27 59.16 58.87
38.06 40.11 31.09 32.28 23.25 22.00 29.22 32.40 34.85 40.58 43.49 46.79 47.32 48.10 50.00 50.48 50.81 51.42 52.60 54.15 54.97 56.06 56.96 57.74 57.30 56.75 57.38 59.20 60.48 60.87 61.44 61.88 62.72 62.78 62.63 62.49 62.58 61.73 60.99 59.41 58.78 58.25 58.34 58.25 58.47 58.65 59.14 58.12 58.02
34.39 32.55 34.34 34.09 32.28 25.44 24.88 30.97 42.79 41.37 42.09 44.69 45.77 46.23 46.12 46.47 47.21 48.06 50.27 53.26 54.43 56.09 56.31 56.25 55.94 55.53 55.89 56.83 58.10 60.25 60.61 60.88 61.50 61.90 62.44 63.29 63.14 62.14 60.93 59.02 57.89 57.37 56.79 57.31 57.47 57.57 58.59 58.37 57.37
36.73 33.30 34.14 26.04 26.59 29.58 30.66 30.94 43.44 44.50 44.62 43.96 43.46 44.41 45.88 47.00 47.29 47.16 47.64 52.01 53.20 54.69 55.36 55.27 55.14 54.31 54.32 55.47 56.04 58.46 60.45 60.63 60.88 61.54 61.82 62.31 62.68 62.34 60.91 60.06 58.24 56.91 56.51 56.41 56.37 56.71 57.66 57.85 57.73

GFSSGP_sfc_wetblb_129.txt.gz
Wetbulb
59.63 58.80 54.76 50.48 41.70 39.59 36.84 41.76 47.59 46.06 47.51 51.67 53.02 52.97 50.62 51.88 52.97 48.22 63.47 67.33 68.99 69.22 71.16 71.50 71.48 72.43 72.66 73.26 73.63 73.54 73.67 73.88 73.86 73.91 73.68 73.81 73.95 73.86 73.84 73.63 73.22 72.43 72.71 72.17 71.94 72.24 72.45 72.23 72.02
57.32 57.58 52.21 46.18 37.61 32.81 37.69 45.75 45.43 48.85 52.82 53.70 53.98 54.41 53.04 53.22 59.29 60.63 63.44 68.11 69.21 69.12 70.22 70.48 71.13 71.98 72.64 72.78 73.29 73.42 73.95 74.00 73.69 73.80 73.81 73.80 73.80 73.83 73.63 73.12 69.87 69.45 70.28 71.07 71.13 71.22 71.38 71.06 71.26
58.59 58.93 48.44 40.28 36.51 35.42 37.71 44.61 45.63 50.33 53.20 52.97 50.61 52.55 53.01 52.66 59.70 61.10 65.76 69.11 69.06 68.56 69.93 70.45 70.55 71.34 72.14 72.43 72.91 73.27 73.37 73.19 73.26 73.16 73.56 73.63 73.66 73.74 73.24 71.46 70.22 68.85 69.27 70.44 70.07 69.73 70.61 70.43 70.13
53.38 51.02 47.03 37.44 36.53 41.52 44.56 47.10 48.52 51.07 50.73 52.28 51.86 50.25 53.38 57.32 59.90 62.93 65.99 68.58 68.19 69.14 69.82 68.93 69.54 70.62 71.69 72.20 72.80 73.03 72.96 72.39 72.28 72.59 73.35 73.45 73.52 73.57 72.50 70.11 70.08 69.05 68.41 70.21 69.93 69.22 69.50 69.21 69.17
50.49 46.50 37.19 35.02 38.07 43.20 46.90 48.40 47.38 49.60 50.72 51.64 51.42 50.41 51.78 58.53 63.97 64.08 63.65 66.95 66.35 69.22 68.78 68.87 68.72 70.29 71.57 72.37 72.87 72.43 72.21 71.98 71.82 72.17 72.66 72.84 73.07 72.45 71.25 69.90 68.45 68.53 68.27 69.93 69.42 69.04 68.97 68.92 68.68
45.42 45.05 35.57 34.72 40.09 45.62 48.43 50.29 49.89 51.37 53.13 51.42 51.18 51.59 52.33 59.34 62.56 62.60 63.17 64.72 69.84 68.69 68.45 68.85 69.73 70.18 70.80 71.33 71.41 71.17 71.00 70.94 71.06 71.34 71.78 72.13 71.90 70.63 70.16 69.22 67.87 67.94 68.57 68.73 68.80 68.90 68.97 68.42 68.33
45.47 40.44 36.23 38.27 41.14 44.20 47.69 49.61 48.79 49.31 51.09 52.50 53.02 49.41 52.16 57.08 60.70 63.08 62.90 68.83 69.39 69.46 68.38 68.16 68.38 69.98 70.00 69.55 69.82 69.94 69.88 69.86 70.09 70.12 71.02 70.55 69.68 68.33 67.81 68.79 67.76 67.44 67.42 68.41 68.04 68.33 68.32 68.18 67.96
49.54 42.13 38.76 40.55 41.96 42.96 49.38 51.15 51.20 47.78 48.05 53.67 54.16 48.71 48.53 57.50 62.01 62.69 63.59 68.91 69.93 69.32 68.37 67.73 67.37 68.05 68.18 68.55 68.65 68.75 68.57 68.72 69.39 69.90 69.70 68.75 67.89 66.66 67.13 67.38 67.36 67.63 67.74 68.70 68.92 68.15 67.62 67.57 66.75
48.29 41.65 39.35 40.53 42.63 44.98 49.92 50.09 52.06 49.92 48.04 49.76 52.21 52.85 57.14 60.52 61.46 61.54 62.29 65.87 69.05 69.79 68.68 68.17 67.94 67.89 68.14 68.23 68.97 68.57 68.62 68.27 68.74 69.60 68.93 66.83 67.35 65.91 66.91 66.74 67.34 68.32 68.06 68.26 68.20 67.42 66.43 65.80 65.56
43.49 40.80 41.79 46.09 47.01 46.76 50.33 50.62 49.15 48.45 49.33 49.03 53.10 54.20 56.92 58.36 58.58 59.32 60.85 62.92 66.36 68.31 68.95 68.57 68.38 68.18 68.52 69.82 68.75 67.08 68.60 68.33 68.98 69.87 70.13 68.43 67.04 65.86 66.12 66.65 66.70 67.63 67.64 67.87 67.28 66.68 65.69 65.21 64.57
43.40 41.03 45.24 47.16 49.00 49.67 48.99 49.04 49.77 46.90 44.46 48.82 49.17 51.15 52.96 53.79 54.20 57.27 60.59 62.23 65.54 68.95 69.96 69.35 69.21 68.81 68.74 68.88 68.30 68.39 68.16 68.07 68.35 68.68 69.63 70.01 68.89 66.95 66.04 65.60 65.76 66.25 67.24 66.79 66.32 65.24 64.36 64.76 64.37
41.93 45.74 46.89 47.57 49.37 49.25 48.26 48.10 47.94 44.25 47.29 50.76 50.67 50.88 51.73 52.05 52.67 54.00 54.89 58.31 63.33 66.62 69.26 69.96 69.88 69.25 69.19 67.96 68.27 68.18 68.39 68.12 68.41 68.56 68.97 68.88 68.52 67.24 65.70 65.46 65.40 66.00 66.29 65.37 65.17 63.61 63.77 64.44 64.46
43.63 44.86 46.91 48.40 48.69 48.31 49.46 48.21 47.72 48.10 49.42 52.10 51.93 53.07 51.85 52.17 52.58 54.14 55.30 56.35 57.35 65.58 68.39 69.58 69.84 69.45 69.59 68.12 68.43 68.18 68.03 68.24 68.38 68.44 69.39 69.08 68.50 67.40 66.66 65.37 65.99 65.98 65.59 65.30 63.82 63.15 63.80 64.37 64.32
45.98 46.38 46.19 46.82 46.75 47.03 46.71 47.40 45.77 49.03 50.14 51.41 51.96 51.57 52.05 52.60 52.94 53.30 54.25 54.25 55.91 57.49 66.71 69.22 70.19 69.91 69.33 68.65 67.71 67.90 67.24 67.71 68.19 68.05 68.55 69.15 68.36 67.06 66.39 65.01 65.27 65.06 65.25 65.29 64.87 64.17 63.68 63.48 63.57
44.46 40.37 43.20 44.98 46.07 45.95 46.48 43.74 44.55 48.18 49.41 50.22 50.53 51.00 51.68 51.89 52.83 52.29 53.41 53.66 54.44 55.74 60.46 68.00 69.79 70.30 69.27 68.96 68.03 67.52 67.44 67.64 67.82 68.36 67.78 68.75 68.52 66.97 66.09 65.65 64.67 64.40 64.54 64.25 64.13 63.83 63.52 62.84 63.01
39.93 39.38 35.18 43.00 44.92 46.38 45.56 39.51 46.24 48.45 48.61 48.52 50.01 50.22 51.10 51.84 52.65 53.17 53.75 53.58 53.79 55.01 57.82 68.09 70.63 70.18 69.76 68.77 68.59 67.67 67.29 67.59 67.82 67.49 67.99 68.60 68.63 67.62 65.97 65.61 65.15 64.52 64.23 64.23 63.48 62.49 61.24 61.45 61.48
35.48 31.59 34.60 38.36 44.31 44.55 43.82 41.17 46.34 47.99 48.61 48.00 49.02 50.05 50.77 51.28 52.27 53.02 53.96 53.62 54.07 53.84 55.94 59.50 65.08 68.78 68.50 68.09 68.49 67.97 66.99 67.46 67.60 68.70 68.24 68.22 68.93 67.83 66.62 65.56 64.76 64.26 64.03 63.35 62.15 61.08 60.89 60.28 60.82
30.08 32.00 36.04 36.16 40.27 42.56 41.85 41.79 42.90 45.04 45.81 44.14 44.53 47.20 48.69 50.46 51.01 52.92 53.22 52.82 53.56 54.34 54.86 55.45 56.36 61.81 65.48 67.71 67.42 66.61 65.76 66.21 66.12 66.03 68.58 68.08 68.90 67.55 66.63 65.26 65.14 64.04 62.78 62.49 62.13 61.05 61.17 60.44 60.33
36.07 34.62 33.77 37.36 41.01 38.57 38.73 38.44 40.28 42.74 44.16 43.62 44.60 45.40 46.08 49.10 51.21 52.17 52.05 51.47 52.82 54.50 55.61 56.73 56.96 56.10 58.21 62.05 65.59 65.07 65.45 65.28 65.48 66.31 66.56 68.22 68.38 67.75 66.35 65.38 65.20 63.76 62.37 62.34 61.46 60.95 60.44 60.21 60.76
37.62 35.03 34.38 37.72 39.86 39.00 38.41 39.15 38.71 40.87 43.81 44.43 44.06 43.95 44.20 45.70 49.70 49.56 49.98 52.81 54.10 55.30 57.98 58.78 59.27 59.27 58.87 56.08 59.75 64.13 66.37 65.83 66.34 66.21 65.46 66.23 67.50 67.38 66.37 65.90 65.14 64.51 62.77 61.83 61.09 60.58 59.94 59.09 60.84
36.89 35.54 35.16 35.35 38.26 38.43 36.77 34.64 36.53 40.73 43.80 45.39 46.12 46.02 46.29 45.83 48.00 51.56 54.03 53.30 53.53 56.58 58.24 59.15 59.43 60.31 60.40 59.64 56.18 59.91 62.12 62.93 63.58 65.47 65.21 65.59 66.17 66.92 67.06 65.61 64.96 64.26 63.55 61.96 61.57 60.97 60.04 58.41 59.59
32.73 38.76 38.42 36.70 33.78 29.37 34.80 27.52 35.57 37.41 40.15 42.93 44.02 44.76 45.27 45.99 50.71 53.37 52.04 53.16 54.31 55.15 57.65 59.04 59.69 59.67 60.99 61.46 58.39 60.51 59.97 59.44 61.42 64.28 65.48 65.39 65.59 66.30 66.70 65.38 64.83 64.31 63.47 62.08 61.71 61.48 60.12 59.80 57.70
33.72 38.09 37.11 36.72 32.89 31.33 33.20 29.76 34.24 37.85 37.62 40.02 42.96 44.45 45.78 46.95 51.19 50.45 50.61 54.50 55.49 56.08 56.38 57.23 58.83 59.32 60.10 60.85 61.08 60.36 59.80 59.82 60.48 61.22 62.44 63.86 64.21 65.65 65.35 64.95 63.75 63.64 63.07 62.42 61.99 61.08 60.22 59.62 58.57
38.99 36.02 36.12 34.67 31.40 26.02 31.97 29.61 31.02 34.43 37.87 40.80 43.07 44.45 46.11 49.07 49.43 51.68 51.80 55.21 55.64 55.89 55.87 55.98 56.05 57.65 58.88 59.71 60.10 59.11 60.55 60.22 60.30 60.57 61.58 62.10 62.81 63.52 64.48 64.12 63.19 62.72 62.38 61.46 61.35 61.22 60.62 59.77 58.86
36.19 33.05 24.89 23.56 22.56 23.11 33.97 30.90 32.95 37.92 40.41 41.95 42.90 47.17 47.08 49.54 49.03 49.31 50.51 52.06 52.76 54.00 54.23 55.56 55.14 55.80 58.62 59.53 59.64 59.66 60.93 61.39 61.20 60.89 61.05 61.01 61.40 62.36 62.55 63.41 63.20 62.41 61.74 61.77 61.47 61.06 60.79 60.11 58.84
31.78 33.19 27.04 20.19 21.22 24.03 33.78 27.74 32.82 39.93 42.52 44.25 44.93 48.84 49.44 48.45 49.08 49.43 50.11 51.36 51.92 52.73 53.70 54.63 54.68 54.73 57.06 58.97 58.84 59.75 60.55 61.42 62.53 61.93 61.62 62.12 61.65 61.92 62.95 62.77 62.95 62.59 61.88 61.54 61.47 60.89 60.68 60.72 59.81
30.95 27.95 35.08 29.32 30.02 26.33 27.72 32.41 37.47 41.07 41.87 43.76 44.25 48.55 47.22 47.49 48.39 48.83 49.67 51.00 50.92 52.57 53.20 53.27 53.37 53.84 53.97 55.66 58.70 59.00 60.02 61.48 61.92 63.08 62.38 63.04 62.87 61.97 61.92 61.94 62.36 62.09 61.52 61.27 60.81 60.36 59.93 60.35 59.89
33.95 36.61 26.40 29.92 21.72 20.02 25.55 26.39 28.40 36.74 41.28 42.05 43.93 46.00 47.91 47.84 47.88 47.99 48.63 50.31 50.94 52.58 52.88 53.29 52.97 52.63 52.80 53.37 54.80 56.47 58.95 60.32 61.60 62.34 62.33 62.38 62.27 61.74 60.51 59.06 59.64 59.09 59.51 59.89 59.87 59.53 59.96 59.46 59.69
30.06 29.30 31.27 31.37 28.92 22.69 22.02 23.71 38.16 37.13 40.52 41.22 41.51 45.33 45.33 44.37 44.96 44.74 46.71 49.35 51.37 52.16 52.07 51.84 51.81 51.76 51.14 51.37 52.79 53.33 55.72 59.02 59.88 60.98 61.59 61.97 62.30 61.39 60.32 59.20 57.94 57.82 57.73 57.78 58.23 58.45 58.68 58.51 58.55
34.33 30.77 33.01 25.71 23.51 25.42 24.71 25.75 37.71 37.49 40.49 41.08 40.44 43.93 44.00 43.18 43.46 43.77 43.23 47.19 48.96 50.13 51.27 50.58 50.80 51.10 50.93 50.96 50.93 51.34 53.06 56.59 59.71 59.84 61.02 61.75 61.89 61.33 60.20 58.96 57.46 57.50 57.29 57.37 57.31 57.15 57.75 57.99 57.37

GFSSGP_sfc_wetblb_132.txt.gz
Wetbulb
59.32 56.87 52.57 49.08 40.40 37.13 33.79 39.06 43.83 45.74 45.82 50.17 52.14 51.60 50.15 51.64 51.81 47.66 62.46 65.28 68.32 69.42 70.69 71.36 71.50 72.66 72.90 72.92 73.01 73.21 73.57 73.86 73.76 73.76 73.67 73.70 73.66 73.64 73.82 73.26 73.00 73.44 73.53 72.79 72.45 72.58 72.61 72.24 71.88
55.31 56.61 50.33 43.04 35.62 31.05 34.19 40.89 43.39 46.48 49.91 51.94 52.85 52.85 51.48 53.41 59.55 62.08 62.27 67.07 68.73 69.90 70.50 70.60 71.06 71.87 72.75 72.76 72.87 73.20 73.63 73.70 73.63 73.61 73.74 73.80 73.69 73.54 73.43 71.76 71.50 72.01 72.86 72.60 72.05 72.15 72.19 71.88 71.07
56.24 57.22 47.90 38.73 32.94 32.72 34.57 42.52 43.32 48.47 51.05 51.53 48.91 50.56 52.28 54.21 61.85 62.30 63.99 67.55 68.60 69.09 69.94 70.30 70.46 71.03 72.07 72.63 72.83 73.01 73.17 72.96 73.13 73.26 73.61 73.69 73.69 73.46 72.57 70.83 70.66 71.52 71.95 71.43 71.74 71.88 71.95 70.69 70.09
51.64 49.82 46.08 36.06 34.40 38.78 40.72 43.99 47.13 47.91 50.34 50.69 50.20 48.58 52.34 58.81 63.42 62.98 66.35 67.28 66.72 67.93 68.86 69.43 69.46 70.64 71.58 72.35 72.83 72.90 72.75 72.41 72.35 72.44 73.27 73.74 73.56 73.18 72.00 69.93 70.10 71.17 71.52 70.86 70.53 71.70 70.75 69.46 69.11
48.37 43.90 36.70 32.64 35.09 39.54 44.46 45.57 45.64 45.74 48.29 50.93 50.77 48.98 50.41 58.21 62.53 66.94 66.98 66.12 66.32 67.25 68.11 68.96 68.87 70.39 71.55 72.32 72.56 72.33 71.94 71.56 71.81 72.28 72.54 73.12 73.30 72.61 70.81 70.11 69.64 69.67 70.97 70.91 70.39 69.61 69.34 68.91 68.65
44.28 42.35 33.60 31.71 36.65 42.45 45.24 47.13 48.19 48.62 50.09 50.50 49.49 49.81 51.10 60.02 64.17 65.91 66.57 65.30 67.90 66.44 67.67 68.73 69.68 70.06 70.68 71.49 71.45 71.01 71.10 70.96 70.94 71.48 71.85 72.36 72.36 71.24 69.95 68.94 68.97 68.87 69.78 69.91 69.38 68.63 68.43 68.69 68.32
43.07 38.36 34.23 34.59 38.06 40.93 45.88 47.75 48.29 47.58 48.40 50.96 51.73 47.78 51.87 57.55 60.93 63.44 64.16 67.61 67.67 66.59 67.05 67.80 68.78 69.76 69.48 69.42 69.55 69.46 69.69 69.94 69.91 70.33 70.58 70.67 70.02 69.39 69.26 67.95 68.34 68.77 68.52 68.99 68.65 68.21 67.97 68.15 67.94
46.35 41.92 36.86 37.54 40.14 39.33 46.83 48.38 50.08 48.31 48.24 52.70 52.59 47.70 49.77 58.09 60.73 62.06 66.77 66.83 66.78 66.51 66.59 67.08 67.82 68.83 68.72 69.21 68.67 68.72 68.29 68.90 69.08 69.59 69.80 68.49 68.20 68.38 68.20 67.23 67.66 67.01 68.26 68.03 68.17 67.88 67.52 67.51 66.68
45.61 36.76 34.78 38.85 40.21 42.38 47.99 47.53 50.09 50.82 48.12 48.67 50.52 51.12 54.68 59.75 61.47 64.68 65.84 66.29 65.98 66.21 65.87 66.11 66.96 67.75 67.34 67.43 69.15 68.92 68.29 68.52 68.40 68.95 68.72 66.87 67.08 66.20 67.07 66.53 66.75 66.67 67.83 67.98 67.77 67.59 66.79 66.23 66.03
41.84 36.50 39.22 43.67 44.58 44.29 48.27 48.63 47.52 48.09 48.36 47.92 50.66 55.51 58.60 58.93 60.39 63.09 63.81 64.94 65.65 65.53 65.41 65.97 66.20 66.82 67.43 68.64 67.68 68.49 68.40 69.26 69.37 69.19 68.76 68.43 65.86 64.50 65.16 65.40 66.14 67.27 67.52 67.57 67.46 66.94 66.16 65.54 64.63
39.61 39.96 43.46 44.52 45.84 46.36 46.55 47.28 49.54 44.75 44.47 47.41 46.09 49.66 55.04 56.16 57.22 61.37 63.66 65.46 66.13 67.05 66.89 66.40 66.25 66.72 67.28 68.13 68.11 67.84 67.91 67.64 68.02 68.50 69.29 68.27 66.31 65.26 64.56 64.79 65.67 65.45 66.79 66.03 66.17 65.01 63.81 63.68 63.75
38.68 43.19 43.65 43.72 46.50 46.36 45.25 47.63 46.44 44.87 46.78 50.04 49.30 49.90 50.90 50.60 54.84 57.51 60.91 64.75 65.47 67.01 67.61 67.47 66.74 66.88 67.10 68.07 67.35 67.31 67.91 67.85 67.23 67.74 69.15 68.79 67.62 65.22 64.32 64.13 64.12 64.46 65.95 65.38 65.16 64.53 62.24 62.69 63.43
40.50 42.92 44.55 45.44 45.92 45.98 47.19 45.53 45.93 46.63 48.23 50.49 50.35 51.16 50.94 50.83 51.20 52.40 56.69 61.30 65.25 66.61 67.93 67.86 67.86 67.14 67.50 67.14 67.35 67.06 66.96 66.83 67.20 67.70 68.16 68.22 68.52 66.88 64.93 64.32 64.31 64.69 65.60 64.39 64.20 63.14 62.19 62.30 62.71
43.27 43.03 42.70 43.07 43.19 44.36 44.36 44.61 43.27 46.57 48.93 49.77 50.72 50.32 50.16 50.73 51.33 51.38 52.17 54.25 58.19 66.26 67.76 68.71 68.39 68.09 68.19 67.53 67.71 67.12 67.16 67.08 67.19 67.68 68.41 68.53 68.07 67.72 65.39 64.29 64.53 64.55 65.10 64.84 63.91 62.60 62.71 63.31 63.45
40.48 37.79 39.78 40.83 41.42 42.19 44.28 42.12 42.51 45.63 47.58 47.37 48.86 49.69 50.32 49.65 50.24 51.08 52.36 52.31 54.48 59.86 66.50 68.27 68.51 68.78 68.45 67.96 67.71 67.68 67.28 67.48 67.26 67.39 67.68 68.41 68.24 67.23 66.16 64.79 64.60 64.51 64.79 64.03 62.96 62.15 62.86 62.97 63.28
36.62 36.33 32.25 40.82 41.49 42.81 41.88 37.76 44.21 46.54 46.24 46.47 48.40 49.83 49.46 50.39 49.97 50.46 51.76 52.19 52.28 52.86 61.29 67.90 69.93 68.68 68.16 68.77 67.69 67.71 67.57 67.35 67.32 67.59 67.44 68.33 68.11 66.92 65.87 64.71 64.43 64.26 64.09 63.87 63.13 62.43 61.87 61.60 60.85
31.80 28.38 31.68 36.09 41.44 40.21 39.18 37.92 41.88 44.89 45.04 44.29 44.20 44.26 45.09 47.29 50.60 51.41 51.59 52.54 52.37 52.00 56.36 66.11 68.91 68.75 68.47 68.43 67.64 67.01 66.39 66.82 67.15 67.55 67.57 67.46 67.95 67.19 65.94 65.29 64.44 63.77 63.60 63.45 63.02 61.37 61.34 60.63 60.50
27.12 28.61 32.57 31.59 35.38 38.31 36.05 36.98 41.36 42.80 41.94 42.07 42.04 42.58 43.34 44.84 46.51 49.49 52.56 52.97 51.55 52.15 55.07 63.55 67.72 68.67 68.46 67.35 67.32 66.21 65.18 65.80 65.48 67.10 67.59 67.68 68.30 67.32 66.39 65.58 64.66 64.08 63.23 63.06 62.45 60.81 61.02 60.74 60.27
33.25 31.28 30.21 33.93 37.87 34.69 36.37 37.10 39.29 41.54 41.01 40.93 40.34 41.59 42.08 43.38 46.45 49.04 52.24 51.90 51.95 51.96 53.19 54.37 59.78 64.33 64.52 64.15 64.72 63.92 64.48 64.23 64.51 64.55 67.05 66.72 68.33 67.88 66.36 65.35 64.18 64.08 63.40 62.79 61.79 59.85 59.01 58.76 60.17
34.00 31.34 31.25 35.31 37.83 35.80 34.63 34.53 38.42 40.03 40.10 41.41 42.90 40.66 41.78 43.18 45.82 47.65 49.12 51.08 52.40 53.74 56.60 57.59 57.34 56.85 58.49 59.94 63.92 64.12 64.71 64.35 65.63 65.38 64.54 66.29 66.90 67.03 65.71 64.75 63.79 63.51 63.02 62.06 61.55 60.67 59.41 58.46 60.32
32.17 31.86 31.99 32.00 34.87 35.50 33.31 32.31 34.78 38.60 39.99 42.00 42.92 43.19 43.68 43.70 44.74 50.94 52.98 52.10 54.00 54.88 57.11 58.32 58.81 59.39 59.39 58.14 56.17 60.84 62.83 63.02 63.79 63.52 64.08 64.47 65.61 66.36 65.78 64.61 64.14 63.45 63.10 61.82 61.49 61.08 60.21 58.45 60.02
29.17 34.62 34.28 32.70 30.06 26.04 33.88 26.01 34.72 36.12 37.68 39.87 41.44 41.86 41.91 43.31 48.52 53.44 52.85 52.54 54.38 54.87 56.44 57.67 58.16 58.26 60.63 60.21 55.99 59.10 61.14 62.85 64.15 65.06 65.35 64.79 63.96 64.87 65.43 65.04 64.64 63.94 63.34 62.19 61.79 61.72 60.96 59.92 58.10
31.75 36.55 34.05 33.12 29.85 27.30 31.45 24.74 32.21 34.72 35.28 37.00 39.30 41.97 41.58 43.46 50.66 50.47 52.00 53.89 53.14 53.93 55.18 56.05 57.13 57.06 57.78 59.44 60.04 59.56 58.42 58.59 59.46 62.15 64.27 64.43 64.27 65.70 65.84 65.28 64.56 64.00 63.85 63.00 62.13 61.49 60.83 60.36 58.77
36.89 34.72 34.06 32.23 28.56 22.96 30.01 28.47 27.12 33.66 35.11 38.14 41.75 42.77 43.03 44.14 48.52 51.94 54.16 54.44 54.52 53.56 53.32 54.64 56.45 57.90 58.19 58.74 58.57 58.44 59.47 59.79 58.91 60.44 62.59 62.69 62.45 64.45 65.38 65.28 64.99 64.45 63.66 62.37 62.20 61.81 60.97 59.82 59.54
31.90 29.51 22.28 20.47 20.53 21.52 31.95 29.02 30.90 36.33 38.24 39.47 40.16 41.63 43.09 45.32 47.48 51.63 53.12 53.18 52.20 52.33 53.65 54.60 55.11 55.11 57.13 57.29 58.34 58.27 58.73 59.61 60.19 59.32 61.17 60.92 61.13 61.96 63.84 64.48 63.89 63.51 63.32 62.63 62.41 61.74 61.06 60.23 59.39
27.67 29.51 20.47 16.05 18.91 23.66 31.37 24.52 31.07 38.31 40.90 43.02 45.09 43.69 45.08 45.43 48.83 52.53 52.18 51.70 52.60 52.93 53.45 53.94 53.94 53.39 54.65 54.79 56.07 57.04 58.08 58.69 60.15 61.39 60.64 61.57 61.67 61.95 63.49 63.96 63.70 63.07 62.50 61.94 61.79 61.57 61.22 60.81 59.72
28.44 23.42 31.12 24.78 25.64 22.06 26.24 30.47 34.91 38.32 38.82 41.57 42.20 44.20 44.04 44.50 47.65 49.31 50.16 51.98 52.32 52.58 52.38 52.91 52.57 52.36 52.77 53.53 53.57 54.37 54.77 57.63 58.80 60.34 60.93 62.02 62.22 61.88 62.64 63.03 63.01 62.78 61.92 61.50 61.29 60.99 60.55 60.70 60.42
29.22 32.42 23.01 23.92 10.60 14.37 25.51 26.56 27.66 33.10 34.99 38.34 40.29 41.85 42.64 47.80 47.80 48.46 49.07 51.49 52.47 52.83 52.82 52.31 52.19 51.01 50.96 51.55 52.02 51.86 52.51 54.12 57.03 59.87 61.20 60.98 62.35 62.19 61.83 62.07 62.19 62.27 61.70 61.33 60.81 60.56 60.59 60.14 60.29
27.33 26.37 28.27 28.47 25.12 19.10 18.96 25.55 35.17 34.07 37.03 36.89 40.40 42.81 43.10 42.84 43.88 44.12 48.64 51.98 52.00 51.13 51.13 51.07 51.00 50.60 50.20 49.96 50.69 50.85 51.09 52.15 54.23 58.12 59.19 60.49 62.32 61.74 60.87 60.83 60.93 60.67 60.55 60.76 60.34 60.12 59.84 59.22 59.42
31.55 28.97 28.56 22.78 21.66 25.49 25.30 24.21 37.51 36.97 37.86 38.26 37.84 40.57 42.85 44.40 44.04 44.50 49.40 49.78 49.96 49.86 49.66 49.63 49.72 49.43 49.31 48.46 48.46 49.15 50.49 50.84 50.80 52.22 56.34 60.39 60.97 62.01 61.20 59.89 59.28 58.73 58.42 58.34 58.38 58.72 58.60 58.48 58.16